<?xml version="1.0" encoding="UTF-8" standalone="no" ?>
<gpx xmlns="http://www.topografix.com/GPX/1/1" xmlns:xsi="http://www.w3.org/2001/XMLSchema-instance" xsi:schemaLocation="http://www.topografix.com/GPX/1/1 http://www.topografix.com/GPX/1/1/gpx.xsd" version="1.1" creator="VisuGPX - https://www.visugpx.com">
  <metadata>
    <name>Rando roller Montréal</name>
    <desc><![CDATA[Rando roller Montréal]]></desc>
  </metadata>
  <trk>
    <name><![CDATA[2015-09-27 15:09]]></name>
    <desc><![CDATA[]]></desc>
    <trkseg>
      <trkpt lat="45.5295" lon="-73.58534">
        <ele>115</ele>
        <time>2015-09-27T19:09:38.557Z</time>
      </trkpt>
      <trkpt lat="45.52943" lon="-73.58528">
        <ele>95</ele>
        <time>2015-09-27T19:10:04.397Z</time>
      </trkpt>
      <trkpt lat="45.52942" lon="-73.58526">
        <ele>92</ele>
        <time>2015-09-27T19:10:05.397Z</time>
      </trkpt>
      <trkpt lat="45.5295" lon="-73.5853">
        <ele>78</ele>
        <time>2015-09-27T19:10:26.393Z</time>
      </trkpt>
      <trkpt lat="45.5295" lon="-73.5854">
        <ele>75</ele>
        <time>2015-09-27T19:10:27.391Z</time>
      </trkpt>
      <trkpt lat="45.52956" lon="-73.58545">
        <ele>73</ele>
        <time>2015-09-27T19:10:28.480Z</time>
      </trkpt>
      <trkpt lat="45.5296" lon="-73.58552">
        <ele>73</ele>
        <time>2015-09-27T19:10:29.393Z</time>
      </trkpt>
      <trkpt lat="45.52961" lon="-73.58564">
        <ele>73</ele>
        <time>2015-09-27T19:10:31.449Z</time>
      </trkpt>
      <trkpt lat="45.52962" lon="-73.5857">
        <ele>72</ele>
        <time>2015-09-27T19:10:32.391Z</time>
      </trkpt>
      <trkpt lat="45.52967" lon="-73.58573">
        <ele>70</ele>
        <time>2015-09-27T19:10:33.407Z</time>
      </trkpt>
      <trkpt lat="45.52971" lon="-73.58579">
        <ele>70</ele>
        <time>2015-09-27T19:10:34.392Z</time>
      </trkpt>
      <trkpt lat="45.52976" lon="-73.58587">
        <ele>68</ele>
        <time>2015-09-27T19:10:36.576Z</time>
      </trkpt>
      <trkpt lat="45.52979" lon="-73.58591">
        <ele>68</ele>
        <time>2015-09-27T19:10:37.385Z</time>
      </trkpt>
      <trkpt lat="45.52983" lon="-73.58599">
        <ele>68</ele>
        <time>2015-09-27T19:10:39.470Z</time>
      </trkpt>
      <trkpt lat="45.52986" lon="-73.58603">
        <ele>68</ele>
        <time>2015-09-27T19:10:40.396Z</time>
      </trkpt>
      <trkpt lat="45.52991" lon="-73.58612">
        <ele>61</ele>
        <time>2015-09-27T19:10:42.461Z</time>
      </trkpt>
      <trkpt lat="45.52993" lon="-73.58616">
        <ele>63</ele>
        <time>2015-09-27T19:10:43.415Z</time>
      </trkpt>
      <trkpt lat="45.52997" lon="-73.58626">
        <ele>60</ele>
        <time>2015-09-27T19:10:45.453Z</time>
      </trkpt>
      <trkpt lat="45.52998" lon="-73.58631">
        <ele>58</ele>
        <time>2015-09-27T19:10:46.380Z</time>
      </trkpt>
      <trkpt lat="45.53002" lon="-73.58639">
        <ele>54</ele>
        <time>2015-09-27T19:10:48.459Z</time>
      </trkpt>
      <trkpt lat="45.53003" lon="-73.58643">
        <ele>54</ele>
        <time>2015-09-27T19:10:49.393Z</time>
      </trkpt>
      <trkpt lat="45.53007" lon="-73.58653">
        <ele>55</ele>
        <time>2015-09-27T19:10:51.398Z</time>
      </trkpt>
      <trkpt lat="45.53009" lon="-73.58658">
        <ele>55</ele>
        <time>2015-09-27T19:10:52.387Z</time>
      </trkpt>
      <trkpt lat="45.53014" lon="-73.58665">
        <ele>51</ele>
        <time>2015-09-27T19:10:54.450Z</time>
      </trkpt>
      <trkpt lat="45.53015" lon="-73.58671">
        <ele>50</ele>
        <time>2015-09-27T19:10:55.379Z</time>
      </trkpt>
      <trkpt lat="45.53019" lon="-73.58678">
        <ele>50</ele>
        <time>2015-09-27T19:10:57.398Z</time>
      </trkpt>
      <trkpt lat="45.53023" lon="-73.58681">
        <ele>50</ele>
        <time>2015-09-27T19:10:58.397Z</time>
      </trkpt>
      <trkpt lat="45.53029" lon="-73.58685">
        <ele>48</ele>
        <time>2015-09-27T19:11:00.455Z</time>
      </trkpt>
      <trkpt lat="45.53031" lon="-73.58688">
        <ele>47</ele>
        <time>2015-09-27T19:11:01.380Z</time>
      </trkpt>
      <trkpt lat="45.53034" lon="-73.58696">
        <ele>45</ele>
        <time>2015-09-27T19:11:03.443Z</time>
      </trkpt>
      <trkpt lat="45.53035" lon="-73.587">
        <ele>46</ele>
        <time>2015-09-27T19:11:04.388Z</time>
      </trkpt>
      <trkpt lat="45.53036" lon="-73.58711">
        <ele>44</ele>
        <time>2015-09-27T19:11:06.398Z</time>
      </trkpt>
      <trkpt lat="45.53037" lon="-73.58717">
        <ele>45</ele>
        <time>2015-09-27T19:11:07.395Z</time>
      </trkpt>
      <trkpt lat="45.53041" lon="-73.58726">
        <ele>45</ele>
        <time>2015-09-27T19:11:09.444Z</time>
      </trkpt>
      <trkpt lat="45.53043" lon="-73.5873">
        <ele>43</ele>
        <time>2015-09-27T19:11:10.394Z</time>
      </trkpt>
      <trkpt lat="45.53047" lon="-73.58738">
        <ele>40</ele>
        <time>2015-09-27T19:11:12.475Z</time>
      </trkpt>
      <trkpt lat="45.53049" lon="-73.58741">
        <ele>38</ele>
        <time>2015-09-27T19:11:13.391Z</time>
      </trkpt>
      <trkpt lat="45.53053" lon="-73.58748">
        <ele>36</ele>
        <time>2015-09-27T19:11:16.312Z</time>
      </trkpt>
      <trkpt lat="45.53055" lon="-73.58752">
        <ele>34</ele>
        <time>2015-09-27T19:11:16.377Z</time>
      </trkpt>
      <trkpt lat="45.53056" lon="-73.58761">
        <ele>33</ele>
        <time>2015-09-27T19:11:18.461Z</time>
      </trkpt>
      <trkpt lat="45.53056" lon="-73.58765">
        <ele>33</ele>
        <time>2015-09-27T19:11:19.392Z</time>
      </trkpt>
      <trkpt lat="45.53058" lon="-73.58768">
        <ele>31</ele>
        <time>2015-09-27T19:11:20.441Z</time>
      </trkpt>
      <trkpt lat="45.53189" lon="-73.59082">
        <ele>31</ele>
        <time>2015-09-27T19:12:33.378Z</time>
      </trkpt>
      <trkpt lat="45.53196" lon="-73.59085">
        <ele>33</ele>
        <time>2015-09-27T19:12:36.477Z</time>
      </trkpt>
      <trkpt lat="45.53237" lon="-73.59044">
        <ele>35</ele>
        <time>2015-09-27T19:12:47.437Z</time>
      </trkpt>
      <trkpt lat="45.53242" lon="-73.59037">
        <ele>35</ele>
        <time>2015-09-27T19:12:49.456Z</time>
      </trkpt>
      <trkpt lat="45.53246" lon="-73.59031">
        <ele>36</ele>
        <time>2015-09-27T19:12:50.390Z</time>
      </trkpt>
      <trkpt lat="45.53253" lon="-73.59025">
        <ele>40</ele>
        <time>2015-09-27T19:12:53.412Z</time>
      </trkpt>
      <trkpt lat="45.53254" lon="-73.59024">
        <ele>39</ele>
        <time>2015-09-27T19:12:54.387Z</time>
      </trkpt>
      <trkpt lat="45.53258" lon="-73.59031">
        <ele>36</ele>
        <time>2015-09-27T19:13:00.452Z</time>
      </trkpt>
      <trkpt lat="45.5326" lon="-73.59037">
        <ele>36</ele>
        <time>2015-09-27T19:13:01.392Z</time>
      </trkpt>
      <trkpt lat="45.53263" lon="-73.59046">
        <ele>33</ele>
        <time>2015-09-27T19:13:03.457Z</time>
      </trkpt>
      <trkpt lat="45.53265" lon="-73.59051">
        <ele>34</ele>
        <time>2015-09-27T19:13:04.398Z</time>
      </trkpt>
      <trkpt lat="45.53269" lon="-73.5906">
        <ele>33</ele>
        <time>2015-09-27T19:13:06.452Z</time>
      </trkpt>
      <trkpt lat="45.53271" lon="-73.59064">
        <ele>34</ele>
        <time>2015-09-27T19:13:07.399Z</time>
      </trkpt>
      <trkpt lat="45.53275" lon="-73.59073">
        <ele>36</ele>
        <time>2015-09-27T19:13:09.515Z</time>
      </trkpt>
      <trkpt lat="45.53277" lon="-73.59077">
        <ele>36</ele>
        <time>2015-09-27T19:13:10.380Z</time>
      </trkpt>
      <trkpt lat="45.53281" lon="-73.59085">
        <ele>35</ele>
        <time>2015-09-27T19:13:12.444Z</time>
      </trkpt>
      <trkpt lat="45.53283" lon="-73.59089">
        <ele>35</ele>
        <time>2015-09-27T19:13:13.380Z</time>
      </trkpt>
      <trkpt lat="45.53287" lon="-73.59096">
        <ele>36</ele>
        <time>2015-09-27T19:13:15.500Z</time>
      </trkpt>
      <trkpt lat="45.53289" lon="-73.591">
        <ele>35</ele>
        <time>2015-09-27T19:13:16.379Z</time>
      </trkpt>
      <trkpt lat="45.53292" lon="-73.59107">
        <ele>37</ele>
        <time>2015-09-27T19:13:18.451Z</time>
      </trkpt>
      <trkpt lat="45.53294" lon="-73.59111">
        <ele>38</ele>
        <time>2015-09-27T19:13:19.376Z</time>
      </trkpt>
      <trkpt lat="45.53298" lon="-73.59118">
        <ele>38</ele>
        <time>2015-09-27T19:13:21.401Z</time>
      </trkpt>
      <trkpt lat="45.53301" lon="-73.59121">
        <ele>38</ele>
        <time>2015-09-27T19:13:22.395Z</time>
      </trkpt>
      <trkpt lat="45.53303" lon="-73.59125">
        <ele>38</ele>
        <time>2015-09-27T19:13:23.448Z</time>
      </trkpt>
      <trkpt lat="45.53318" lon="-73.59151">
        <ele>35</ele>
        <time>2015-09-27T19:13:30.450Z</time>
      </trkpt>
      <trkpt lat="45.53321" lon="-73.59157">
        <ele>35</ele>
        <time>2015-09-27T19:13:31.406Z</time>
      </trkpt>
      <trkpt lat="45.53329" lon="-73.59162">
        <ele>34</ele>
        <time>2015-09-27T19:13:32.401Z</time>
      </trkpt>
      <trkpt lat="45.53333" lon="-73.5917">
        <ele>33</ele>
        <time>2015-09-27T19:13:33.445Z</time>
      </trkpt>
      <trkpt lat="45.53337" lon="-73.59173">
        <ele>32</ele>
        <time>2015-09-27T19:13:34.385Z</time>
      </trkpt>
      <trkpt lat="45.53339" lon="-73.59182">
        <ele>33</ele>
        <time>2015-09-27T19:13:35.450Z</time>
      </trkpt>
      <trkpt lat="45.53343" lon="-73.5919">
        <ele>35</ele>
        <time>2015-09-27T19:13:36.388Z</time>
      </trkpt>
      <trkpt lat="45.53347" lon="-73.59197">
        <ele>35</ele>
        <time>2015-09-27T19:13:37.419Z</time>
      </trkpt>
      <trkpt lat="45.53351" lon="-73.59204">
        <ele>35</ele>
        <time>2015-09-27T19:13:38.396Z</time>
      </trkpt>
      <trkpt lat="45.53354" lon="-73.59212">
        <ele>34</ele>
        <time>2015-09-27T19:13:39.493Z</time>
      </trkpt>
      <trkpt lat="45.53358" lon="-73.59218">
        <ele>34</ele>
        <time>2015-09-27T19:13:40.380Z</time>
      </trkpt>
      <trkpt lat="45.5336" lon="-73.59223">
        <ele>34</ele>
        <time>2015-09-27T19:13:41.442Z</time>
      </trkpt>
      <trkpt lat="45.53368" lon="-73.5923">
        <ele>34</ele>
        <time>2015-09-27T19:13:42.391Z</time>
      </trkpt>
      <trkpt lat="45.53376" lon="-73.59225">
        <ele>34</ele>
        <time>2015-09-27T19:13:43.409Z</time>
      </trkpt>
      <trkpt lat="45.53382" lon="-73.5923">
        <ele>34</ele>
        <time>2015-09-27T19:13:44.380Z</time>
      </trkpt>
      <trkpt lat="45.5338" lon="-73.59236">
        <ele>34</ele>
        <time>2015-09-27T19:13:45.427Z</time>
      </trkpt>
      <trkpt lat="45.5338" lon="-73.59243">
        <ele>34</ele>
        <time>2015-09-27T19:13:46.379Z</time>
      </trkpt>
      <trkpt lat="45.5338" lon="-73.59243">
        <ele>34</ele>
        <time>2015-09-27T19:13:46.436Z</time>
      </trkpt>
      <trkpt lat="45.53363" lon="-73.59249">
        <ele>34</ele>
        <time>2015-09-27T19:13:47.379Z</time>
      </trkpt>
      <trkpt lat="45.53365" lon="-73.59258">
        <ele>33</ele>
        <time>2015-09-27T19:13:48.421Z</time>
      </trkpt>
      <trkpt lat="45.53357" lon="-73.59261">
        <ele>32</ele>
        <time>2015-09-27T19:13:49.403Z</time>
      </trkpt>
      <trkpt lat="45.53366" lon="-73.59261">
        <ele>34</ele>
        <time>2015-09-27T19:13:51.453Z</time>
      </trkpt>
      <trkpt lat="45.53369" lon="-73.59263">
        <ele>35</ele>
        <time>2015-09-27T19:13:52.397Z</time>
      </trkpt>
      <trkpt lat="45.53377" lon="-73.59266">
        <ele>34</ele>
        <time>2015-09-27T19:13:54.448Z</time>
      </trkpt>
      <trkpt lat="45.53378" lon="-73.59267">
        <ele>33</ele>
        <time>2015-09-27T19:13:55.385Z</time>
      </trkpt>
      <trkpt lat="45.53383" lon="-73.59276">
        <ele>32</ele>
        <time>2015-09-27T19:13:58.946Z</time>
      </trkpt>
      <trkpt lat="45.53385" lon="-73.59279">
        <ele>31</ele>
        <time>2015-09-27T19:13:59.390Z</time>
      </trkpt>
      <trkpt lat="45.53389" lon="-73.59289">
        <ele>31</ele>
        <time>2015-09-27T19:14:02.449Z</time>
      </trkpt>
      <trkpt lat="45.53391" lon="-73.59292">
        <ele>33</ele>
        <time>2015-09-27T19:14:03.380Z</time>
      </trkpt>
      <trkpt lat="45.53391" lon="-73.59292">
        <ele>33</ele>
        <time>2015-09-27T19:14:03.448Z</time>
      </trkpt>
      <trkpt lat="45.53342" lon="-73.59401">
        <ele>41</ele>
        <time>2015-09-27T19:14:42.447Z</time>
      </trkpt>
      <trkpt lat="45.5335" lon="-73.59403">
        <ele>39</ele>
        <time>2015-09-27T19:15:53.442Z</time>
      </trkpt>
      <trkpt lat="45.53352" lon="-73.59408">
        <ele>38</ele>
        <time>2015-09-27T19:15:54.389Z</time>
      </trkpt>
      <trkpt lat="45.53355" lon="-73.59416">
        <ele>37</ele>
        <time>2015-09-27T19:15:56.442Z</time>
      </trkpt>
      <trkpt lat="45.53357" lon="-73.59421">
        <ele>38</ele>
        <time>2015-09-27T19:15:57.389Z</time>
      </trkpt>
      <trkpt lat="45.5336" lon="-73.59431">
        <ele>37</ele>
        <time>2015-09-27T19:15:59.443Z</time>
      </trkpt>
      <trkpt lat="45.53362" lon="-73.59436">
        <ele>38</ele>
        <time>2015-09-27T19:16:00.379Z</time>
      </trkpt>
      <trkpt lat="45.53363" lon="-73.59441">
        <ele>38</ele>
        <time>2015-09-27T19:16:01.469Z</time>
      </trkpt>
      <trkpt lat="45.53366" lon="-73.59447">
        <ele>38</ele>
        <time>2015-09-27T19:16:02.397Z</time>
      </trkpt>
      <trkpt lat="45.53369" lon="-73.59455">
        <ele>38</ele>
        <time>2015-09-27T19:16:03.475Z</time>
      </trkpt>
      <trkpt lat="45.53372" lon="-73.59462">
        <ele>39</ele>
        <time>2015-09-27T19:16:04.396Z</time>
      </trkpt>
      <trkpt lat="45.53377" lon="-73.59471">
        <ele>39</ele>
        <time>2015-09-27T19:16:06.451Z</time>
      </trkpt>
      <trkpt lat="45.53379" lon="-73.59479">
        <ele>38</ele>
        <time>2015-09-27T19:16:07.484Z</time>
      </trkpt>
      <trkpt lat="45.53382" lon="-73.59486">
        <ele>39</ele>
        <time>2015-09-27T19:16:08.451Z</time>
      </trkpt>
      <trkpt lat="45.53385" lon="-73.59489">
        <ele>36</ele>
        <time>2015-09-27T19:16:09.398Z</time>
      </trkpt>
      <trkpt lat="45.5339" lon="-73.595">
        <ele>35</ele>
        <time>2015-09-27T19:16:11.472Z</time>
      </trkpt>
      <trkpt lat="45.53392" lon="-73.59506">
        <ele>35</ele>
        <time>2015-09-27T19:16:12.387Z</time>
      </trkpt>
      <trkpt lat="45.53394" lon="-73.59511">
        <ele>35</ele>
        <time>2015-09-27T19:16:13.450Z</time>
      </trkpt>
      <trkpt lat="45.53398" lon="-73.59516">
        <ele>37</ele>
        <time>2015-09-27T19:16:14.391Z</time>
      </trkpt>
      <trkpt lat="45.534" lon="-73.59522">
        <ele>35</ele>
        <time>2015-09-27T19:16:15.439Z</time>
      </trkpt>
      <trkpt lat="45.53402" lon="-73.59527">
        <ele>34</ele>
        <time>2015-09-27T19:16:16.386Z</time>
      </trkpt>
      <trkpt lat="45.53405" lon="-73.59532">
        <ele>35</ele>
        <time>2015-09-27T19:16:17.447Z</time>
      </trkpt>
      <trkpt lat="45.53408" lon="-73.59538">
        <ele>37</ele>
        <time>2015-09-27T19:16:18.394Z</time>
      </trkpt>
      <trkpt lat="45.53413" lon="-73.59545">
        <ele>35</ele>
        <time>2015-09-27T19:16:21.392Z</time>
      </trkpt>
      <trkpt lat="45.53414" lon="-73.59548">
        <ele>36</ele>
        <time>2015-09-27T19:16:22.391Z</time>
      </trkpt>
      <trkpt lat="45.53417" lon="-73.59557">
        <ele>35</ele>
        <time>2015-09-27T19:16:57.443Z</time>
      </trkpt>
      <trkpt lat="45.53418" lon="-73.5956">
        <ele>33</ele>
        <time>2015-09-27T19:16:58.403Z</time>
      </trkpt>
      <trkpt lat="45.53422" lon="-73.59569">
        <ele>35</ele>
        <time>2015-09-27T19:17:00.454Z</time>
      </trkpt>
      <trkpt lat="45.53428" lon="-73.59587">
        <ele>36</ele>
        <time>2015-09-27T19:17:03.388Z</time>
      </trkpt>
      <trkpt lat="45.53432" lon="-73.59596">
        <ele>36</ele>
        <time>2015-09-27T19:17:04.429Z</time>
      </trkpt>
      <trkpt lat="45.53433" lon="-73.59603">
        <ele>36</ele>
        <time>2015-09-27T19:17:05.395Z</time>
      </trkpt>
      <trkpt lat="45.5344" lon="-73.5961">
        <ele>36</ele>
        <time>2015-09-27T19:17:07.442Z</time>
      </trkpt>
      <trkpt lat="45.53444" lon="-73.59613">
        <ele>33</ele>
        <time>2015-09-27T19:17:08.385Z</time>
      </trkpt>
      <trkpt lat="45.53446" lon="-73.59622">
        <ele>34</ele>
        <time>2015-09-27T19:17:09.472Z</time>
      </trkpt>
      <trkpt lat="45.53448" lon="-73.59629">
        <ele>36</ele>
        <time>2015-09-27T19:17:10.392Z</time>
      </trkpt>
      <trkpt lat="45.53455" lon="-73.59633">
        <ele>34</ele>
        <time>2015-09-27T19:17:12.415Z</time>
      </trkpt>
      <trkpt lat="45.53457" lon="-73.5964">
        <ele>34</ele>
        <time>2015-09-27T19:17:13.388Z</time>
      </trkpt>
      <trkpt lat="45.53462" lon="-73.59651">
        <ele>31</ele>
        <time>2015-09-27T19:17:15.447Z</time>
      </trkpt>
      <trkpt lat="45.53463" lon="-73.59658">
        <ele>30</ele>
        <time>2015-09-27T19:17:16.387Z</time>
      </trkpt>
      <trkpt lat="45.53467" lon="-73.59664">
        <ele>31</ele>
        <time>2015-09-27T19:17:17.450Z</time>
      </trkpt>
      <trkpt lat="45.53469" lon="-73.59669">
        <ele>31</ele>
        <time>2015-09-27T19:17:18.391Z</time>
      </trkpt>
      <trkpt lat="45.53471" lon="-73.59674">
        <ele>33</ele>
        <time>2015-09-27T19:17:19.423Z</time>
      </trkpt>
      <trkpt lat="45.53474" lon="-73.5968">
        <ele>33</ele>
        <time>2015-09-27T19:17:20.386Z</time>
      </trkpt>
      <trkpt lat="45.53476" lon="-73.59686">
        <ele>34</ele>
        <time>2015-09-27T19:17:21.418Z</time>
      </trkpt>
      <trkpt lat="45.53479" lon="-73.59693">
        <ele>35</ele>
        <time>2015-09-27T19:17:22.384Z</time>
      </trkpt>
      <trkpt lat="45.53487" lon="-73.59698">
        <ele>34</ele>
        <time>2015-09-27T19:17:24.428Z</time>
      </trkpt>
      <trkpt lat="45.53489" lon="-73.59705">
        <ele>34</ele>
        <time>2015-09-27T19:17:25.386Z</time>
      </trkpt>
      <trkpt lat="45.5349" lon="-73.59712">
        <ele>34</ele>
        <time>2015-09-27T19:17:26.450Z</time>
      </trkpt>
      <trkpt lat="45.53492" lon="-73.5972">
        <ele>34</ele>
        <time>2015-09-27T19:17:27.393Z</time>
      </trkpt>
      <trkpt lat="45.53494" lon="-73.59725">
        <ele>34</ele>
        <time>2015-09-27T19:17:28.468Z</time>
      </trkpt>
      <trkpt lat="45.53496" lon="-73.59732">
        <ele>35</ele>
        <time>2015-09-27T19:17:29.436Z</time>
      </trkpt>
      <trkpt lat="45.535" lon="-73.59743">
        <ele>34</ele>
        <time>2015-09-27T19:17:31.511Z</time>
      </trkpt>
      <trkpt lat="45.53502" lon="-73.59749">
        <ele>33</ele>
        <time>2015-09-27T19:17:32.387Z</time>
      </trkpt>
      <trkpt lat="45.53507" lon="-73.59759">
        <ele>35</ele>
        <time>2015-09-27T19:17:34.462Z</time>
      </trkpt>
      <trkpt lat="45.53509" lon="-73.59766">
        <ele>34</ele>
        <time>2015-09-27T19:17:35.416Z</time>
      </trkpt>
      <trkpt lat="45.53514" lon="-73.59774">
        <ele>36</ele>
        <time>2015-09-27T19:17:37.424Z</time>
      </trkpt>
      <trkpt lat="45.53516" lon="-73.5978">
        <ele>35</ele>
        <time>2015-09-27T19:17:38.386Z</time>
      </trkpt>
      <trkpt lat="45.53518" lon="-73.59787">
        <ele>35</ele>
        <time>2015-09-27T19:17:39.450Z</time>
      </trkpt>
      <trkpt lat="45.53521" lon="-73.59793">
        <ele>37</ele>
        <time>2015-09-27T19:17:40.393Z</time>
      </trkpt>
      <trkpt lat="45.53525" lon="-73.59801">
        <ele>34</ele>
        <time>2015-09-27T19:17:42.451Z</time>
      </trkpt>
      <trkpt lat="45.53528" lon="-73.59806">
        <ele>33</ele>
        <time>2015-09-27T19:17:43.393Z</time>
      </trkpt>
      <trkpt lat="45.53531" lon="-73.59817">
        <ele>33</ele>
        <time>2015-09-27T19:17:45.458Z</time>
      </trkpt>
      <trkpt lat="45.53533" lon="-73.59822">
        <ele>33</ele>
        <time>2015-09-27T19:17:46.385Z</time>
      </trkpt>
      <trkpt lat="45.53537" lon="-73.59831">
        <ele>32</ele>
        <time>2015-09-27T19:17:48.409Z</time>
      </trkpt>
      <trkpt lat="45.53539" lon="-73.59835">
        <ele>33</ele>
        <time>2015-09-27T19:17:49.386Z</time>
      </trkpt>
      <trkpt lat="45.53543" lon="-73.59844">
        <ele>32</ele>
        <time>2015-09-27T19:17:51.433Z</time>
      </trkpt>
      <trkpt lat="45.53545" lon="-73.59848">
        <ele>32</ele>
        <time>2015-09-27T19:17:52.388Z</time>
      </trkpt>
      <trkpt lat="45.5355" lon="-73.59855">
        <ele>28</ele>
        <time>2015-09-27T19:17:54.409Z</time>
      </trkpt>
      <trkpt lat="45.53552" lon="-73.59859">
        <ele>28</ele>
        <time>2015-09-27T19:17:55.376Z</time>
      </trkpt>
      <trkpt lat="45.53558" lon="-73.59867">
        <ele>27</ele>
        <time>2015-09-27T19:17:57.397Z</time>
      </trkpt>
      <trkpt lat="45.5356" lon="-73.59871">
        <ele>26</ele>
        <time>2015-09-27T19:17:58.376Z</time>
      </trkpt>
      <trkpt lat="45.53565" lon="-73.5988">
        <ele>27</ele>
        <time>2015-09-27T19:18:00.429Z</time>
      </trkpt>
      <trkpt lat="45.53567" lon="-73.59884">
        <ele>27</ele>
        <time>2015-09-27T19:18:01.376Z</time>
      </trkpt>
      <trkpt lat="45.53573" lon="-73.59892">
        <ele>28</ele>
        <time>2015-09-27T19:18:03.408Z</time>
      </trkpt>
      <trkpt lat="45.53577" lon="-73.59893">
        <ele>27</ele>
        <time>2015-09-27T19:18:04.391Z</time>
      </trkpt>
      <trkpt lat="45.53585" lon="-73.5989">
        <ele>30</ele>
        <time>2015-09-27T19:18:06.408Z</time>
      </trkpt>
      <trkpt lat="45.53589" lon="-73.59888">
        <ele>31</ele>
        <time>2015-09-27T19:18:07.386Z</time>
      </trkpt>
      <trkpt lat="45.53597" lon="-73.59881">
        <ele>32</ele>
        <time>2015-09-27T19:18:09.455Z</time>
      </trkpt>
      <trkpt lat="45.536" lon="-73.59877">
        <ele>31</ele>
        <time>2015-09-27T19:18:10.384Z</time>
      </trkpt>
      <trkpt lat="45.53608" lon="-73.59871">
        <ele>32</ele>
        <time>2015-09-27T19:18:12.442Z</time>
      </trkpt>
      <trkpt lat="45.53612" lon="-73.59867">
        <ele>32</ele>
        <time>2015-09-27T19:18:13.392Z</time>
      </trkpt>
      <trkpt lat="45.53618" lon="-73.59862">
        <ele>31</ele>
        <time>2015-09-27T19:18:14.447Z</time>
      </trkpt>
      <trkpt lat="45.53622" lon="-73.59854">
        <ele>31</ele>
        <time>2015-09-27T19:18:15.375Z</time>
      </trkpt>
      <trkpt lat="45.53628" lon="-73.59848">
        <ele>32</ele>
        <time>2015-09-27T19:18:17.445Z</time>
      </trkpt>
      <trkpt lat="45.53631" lon="-73.59848">
        <ele>32</ele>
        <time>2015-09-27T19:18:18.392Z</time>
      </trkpt>
      <trkpt lat="45.53637" lon="-73.59842">
        <ele>42</ele>
        <time>2015-09-27T19:18:55.397Z</time>
      </trkpt>
      <trkpt lat="45.53639" lon="-73.5984">
        <ele>44</ele>
        <time>2015-09-27T19:18:56.390Z</time>
      </trkpt>
      <trkpt lat="45.53643" lon="-73.59837">
        <ele>43</ele>
        <time>2015-09-27T19:18:57.476Z</time>
      </trkpt>
      <trkpt lat="45.53648" lon="-73.59834">
        <ele>43</ele>
        <time>2015-09-27T19:18:58.382Z</time>
      </trkpt>
      <trkpt lat="45.53655" lon="-73.59827">
        <ele>42</ele>
        <time>2015-09-27T19:18:59.438Z</time>
      </trkpt>
      <trkpt lat="45.53662" lon="-73.59823">
        <ele>46</ele>
        <time>2015-09-27T19:19:00.396Z</time>
      </trkpt>
      <trkpt lat="45.53667" lon="-73.59821">
        <ele>47</ele>
        <time>2015-09-27T19:19:01.440Z</time>
      </trkpt>
      <trkpt lat="45.53674" lon="-73.59818">
        <ele>49</ele>
        <time>2015-09-27T19:19:02.393Z</time>
      </trkpt>
      <trkpt lat="45.53679" lon="-73.59813">
        <ele>50</ele>
        <time>2015-09-27T19:19:03.407Z</time>
      </trkpt>
      <trkpt lat="45.53686" lon="-73.59811">
        <ele>50</ele>
        <time>2015-09-27T19:19:04.375Z</time>
      </trkpt>
      <trkpt lat="45.53691" lon="-73.59809">
        <ele>50</ele>
        <time>2015-09-27T19:19:05.393Z</time>
      </trkpt>
      <trkpt lat="45.53696" lon="-73.59805">
        <ele>49</ele>
        <time>2015-09-27T19:19:06.383Z</time>
      </trkpt>
      <trkpt lat="45.53699" lon="-73.59794">
        <ele>47</ele>
        <time>2015-09-27T19:19:08.440Z</time>
      </trkpt>
      <trkpt lat="45.53703" lon="-73.59792">
        <ele>48</ele>
        <time>2015-09-27T19:19:09.379Z</time>
      </trkpt>
      <trkpt lat="45.53708" lon="-73.59786">
        <ele>47</ele>
        <time>2015-09-27T19:19:10.444Z</time>
      </trkpt>
      <trkpt lat="45.53712" lon="-73.59784">
        <ele>47</ele>
        <time>2015-09-27T19:19:11.376Z</time>
      </trkpt>
      <trkpt lat="45.53715" lon="-73.5978">
        <ele>45</ele>
        <time>2015-09-27T19:19:12.440Z</time>
      </trkpt>
      <trkpt lat="45.53722" lon="-73.59778">
        <ele>42</ele>
        <time>2015-09-27T19:19:13.388Z</time>
      </trkpt>
      <trkpt lat="45.53727" lon="-73.59773">
        <ele>43</ele>
        <time>2015-09-27T19:19:14.397Z</time>
      </trkpt>
      <trkpt lat="45.53731" lon="-73.59769">
        <ele>45</ele>
        <time>2015-09-27T19:19:15.379Z</time>
      </trkpt>
      <trkpt lat="45.53735" lon="-73.59764">
        <ele>43</ele>
        <time>2015-09-27T19:19:16.440Z</time>
      </trkpt>
      <trkpt lat="45.53739" lon="-73.5976">
        <ele>44</ele>
        <time>2015-09-27T19:19:17.388Z</time>
      </trkpt>
      <trkpt lat="45.53745" lon="-73.59752">
        <ele>43</ele>
        <time>2015-09-27T19:19:19.438Z</time>
      </trkpt>
      <trkpt lat="45.53745" lon="-73.59747">
        <ele>45</ele>
        <time>2015-09-27T19:19:20.377Z</time>
      </trkpt>
      <trkpt lat="45.53751" lon="-73.59745">
        <ele>45</ele>
        <time>2015-09-27T19:19:21.440Z</time>
      </trkpt>
      <trkpt lat="45.53756" lon="-73.5974">
        <ele>46</ele>
        <time>2015-09-27T19:19:22.389Z</time>
      </trkpt>
      <trkpt lat="45.53762" lon="-73.59731">
        <ele>45</ele>
        <time>2015-09-27T19:19:24.405Z</time>
      </trkpt>
      <trkpt lat="45.53765" lon="-73.59726">
        <ele>45</ele>
        <time>2015-09-27T19:19:25.375Z</time>
      </trkpt>
      <trkpt lat="45.53772" lon="-73.59717">
        <ele>44</ele>
        <time>2015-09-27T19:19:27.441Z</time>
      </trkpt>
      <trkpt lat="45.53775" lon="-73.59713">
        <ele>45</ele>
        <time>2015-09-27T19:19:28.376Z</time>
      </trkpt>
      <trkpt lat="45.53779" lon="-73.59709">
        <ele>47</ele>
        <time>2015-09-27T19:19:29.411Z</time>
      </trkpt>
      <trkpt lat="45.53785" lon="-73.59705">
        <ele>48</ele>
        <time>2015-09-27T19:19:30.375Z</time>
      </trkpt>
      <trkpt lat="45.53789" lon="-73.59702">
        <ele>48</ele>
        <time>2015-09-27T19:19:31.407Z</time>
      </trkpt>
      <trkpt lat="45.53793" lon="-73.59698">
        <ele>46</ele>
        <time>2015-09-27T19:19:32.375Z</time>
      </trkpt>
      <trkpt lat="45.53798" lon="-73.59694">
        <ele>46</ele>
        <time>2015-09-27T19:19:33.391Z</time>
      </trkpt>
      <trkpt lat="45.53803" lon="-73.5969">
        <ele>46</ele>
        <time>2015-09-27T19:19:34.377Z</time>
      </trkpt>
      <trkpt lat="45.53807" lon="-73.59685">
        <ele>45</ele>
        <time>2015-09-27T19:19:35.444Z</time>
      </trkpt>
      <trkpt lat="45.53811" lon="-73.59679">
        <ele>42</ele>
        <time>2015-09-27T19:19:36.388Z</time>
      </trkpt>
      <trkpt lat="45.53816" lon="-73.59676">
        <ele>42</ele>
        <time>2015-09-27T19:19:37.440Z</time>
      </trkpt>
      <trkpt lat="45.5382" lon="-73.59671">
        <ele>42</ele>
        <time>2015-09-27T19:19:38.388Z</time>
      </trkpt>
      <trkpt lat="45.53824" lon="-73.59665">
        <ele>43</ele>
        <time>2015-09-27T19:19:39.416Z</time>
      </trkpt>
      <trkpt lat="45.5383" lon="-73.59661">
        <ele>42</ele>
        <time>2015-09-27T19:19:41.254Z</time>
      </trkpt>
      <trkpt lat="45.53834" lon="-73.59658">
        <ele>42</ele>
        <time>2015-09-27T19:19:41.404Z</time>
      </trkpt>
      <trkpt lat="45.53842" lon="-73.59657">
        <ele>41</ele>
        <time>2015-09-27T19:19:42.376Z</time>
      </trkpt>
      <trkpt lat="45.53845" lon="-73.5965">
        <ele>40</ele>
        <time>2015-09-27T19:19:43.393Z</time>
      </trkpt>
      <trkpt lat="45.53848" lon="-73.59646">
        <ele>42</ele>
        <time>2015-09-27T19:19:44.376Z</time>
      </trkpt>
      <trkpt lat="45.53851" lon="-73.5964">
        <ele>42</ele>
        <time>2015-09-27T19:19:45.408Z</time>
      </trkpt>
      <trkpt lat="45.53857" lon="-73.59636">
        <ele>42</ele>
        <time>2015-09-27T19:19:46.378Z</time>
      </trkpt>
      <trkpt lat="45.53861" lon="-73.59629">
        <ele>42</ele>
        <time>2015-09-27T19:19:47.397Z</time>
      </trkpt>
      <trkpt lat="45.53868" lon="-73.59624">
        <ele>45</ele>
        <time>2015-09-27T19:19:48.375Z</time>
      </trkpt>
      <trkpt lat="45.53873" lon="-73.59618">
        <ele>47</ele>
        <time>2015-09-27T19:19:49.404Z</time>
      </trkpt>
      <trkpt lat="45.53875" lon="-73.59612">
        <ele>41</ele>
        <time>2015-09-27T19:19:50.375Z</time>
      </trkpt>
      <trkpt lat="45.53877" lon="-73.59604">
        <ele>38</ele>
        <time>2015-09-27T19:19:51.392Z</time>
      </trkpt>
      <trkpt lat="45.53883" lon="-73.59598">
        <ele>38</ele>
        <time>2015-09-27T19:19:52.378Z</time>
      </trkpt>
      <trkpt lat="45.53888" lon="-73.5959">
        <ele>38</ele>
        <time>2015-09-27T19:19:53.433Z</time>
      </trkpt>
      <trkpt lat="45.53893" lon="-73.59585">
        <ele>36</ele>
        <time>2015-09-27T19:19:54.388Z</time>
      </trkpt>
      <trkpt lat="45.53901" lon="-73.59583">
        <ele>35</ele>
        <time>2015-09-27T19:19:55.430Z</time>
      </trkpt>
      <trkpt lat="45.53906" lon="-73.59577">
        <ele>36</ele>
        <time>2015-09-27T19:19:56.376Z</time>
      </trkpt>
      <trkpt lat="45.53912" lon="-73.59572">
        <ele>36</ele>
        <time>2015-09-27T19:19:57.407Z</time>
      </trkpt>
      <trkpt lat="45.53915" lon="-73.59568">
        <ele>37</ele>
        <time>2015-09-27T19:19:58.375Z</time>
      </trkpt>
      <trkpt lat="45.53921" lon="-73.59561">
        <ele>37</ele>
        <time>2015-09-27T19:19:59.410Z</time>
      </trkpt>
      <trkpt lat="45.5393" lon="-73.59558">
        <ele>40</ele>
        <time>2015-09-27T19:20:00.392Z</time>
      </trkpt>
      <trkpt lat="45.53931" lon="-73.59548">
        <ele>41</ele>
        <time>2015-09-27T19:20:02.418Z</time>
      </trkpt>
      <trkpt lat="45.53932" lon="-73.59542">
        <ele>39</ele>
        <time>2015-09-27T19:20:03.393Z</time>
      </trkpt>
      <trkpt lat="45.53932" lon="-73.59542">
        <ele>39</ele>
        <time>2015-09-27T19:20:03.420Z</time>
      </trkpt>
      <trkpt lat="45.53945" lon="-73.5954">
        <ele>37</ele>
        <time>2015-09-27T19:20:04.388Z</time>
      </trkpt>
      <trkpt lat="45.53949" lon="-73.59534">
        <ele>38</ele>
        <time>2015-09-27T19:20:05.442Z</time>
      </trkpt>
      <trkpt lat="45.53955" lon="-73.59529">
        <ele>38</ele>
        <time>2015-09-27T19:20:06.389Z</time>
      </trkpt>
      <trkpt lat="45.53962" lon="-73.59523">
        <ele>38</ele>
        <time>2015-09-27T19:20:07.442Z</time>
      </trkpt>
      <trkpt lat="45.53969" lon="-73.59516">
        <ele>40</ele>
        <time>2015-09-27T19:20:08.387Z</time>
      </trkpt>
      <trkpt lat="45.53976" lon="-73.5951">
        <ele>39</ele>
        <time>2015-09-27T19:20:09.457Z</time>
      </trkpt>
      <trkpt lat="45.5398" lon="-73.59505">
        <ele>39</ele>
        <time>2015-09-27T19:20:10.389Z</time>
      </trkpt>
      <trkpt lat="45.53985" lon="-73.595">
        <ele>40</ele>
        <time>2015-09-27T19:20:11.449Z</time>
      </trkpt>
      <trkpt lat="45.5399" lon="-73.59494">
        <ele>41</ele>
        <time>2015-09-27T19:20:12.380Z</time>
      </trkpt>
      <trkpt lat="45.53993" lon="-73.59488">
        <ele>42</ele>
        <time>2015-09-27T19:20:13.441Z</time>
      </trkpt>
      <trkpt lat="45.53998" lon="-73.59483">
        <ele>42</ele>
        <time>2015-09-27T19:20:14.388Z</time>
      </trkpt>
      <trkpt lat="45.54001" lon="-73.59477">
        <ele>41</ele>
        <time>2015-09-27T19:20:15.400Z</time>
      </trkpt>
      <trkpt lat="45.54011" lon="-73.59474">
        <ele>40</ele>
        <time>2015-09-27T19:20:16.379Z</time>
      </trkpt>
      <trkpt lat="45.54015" lon="-73.59468">
        <ele>39</ele>
        <time>2015-09-27T19:20:17.400Z</time>
      </trkpt>
      <trkpt lat="45.54021" lon="-73.59463">
        <ele>40</ele>
        <time>2015-09-27T19:20:18.377Z</time>
      </trkpt>
      <trkpt lat="45.54023" lon="-73.59456">
        <ele>38</ele>
        <time>2015-09-27T19:20:19.406Z</time>
      </trkpt>
      <trkpt lat="45.54027" lon="-73.59452">
        <ele>37</ele>
        <time>2015-09-27T19:20:20.384Z</time>
      </trkpt>
      <trkpt lat="45.54032" lon="-73.59449">
        <ele>36</ele>
        <time>2015-09-27T19:20:21.425Z</time>
      </trkpt>
      <trkpt lat="45.54038" lon="-73.59444">
        <ele>36</ele>
        <time>2015-09-27T19:20:22.385Z</time>
      </trkpt>
      <trkpt lat="45.54041" lon="-73.59439">
        <ele>35</ele>
        <time>2015-09-27T19:20:23.404Z</time>
      </trkpt>
      <trkpt lat="45.54045" lon="-73.59434">
        <ele>35</ele>
        <time>2015-09-27T19:20:24.388Z</time>
      </trkpt>
      <trkpt lat="45.54052" lon="-73.59427">
        <ele>34</ele>
        <time>2015-09-27T19:20:26.425Z</time>
      </trkpt>
      <trkpt lat="45.54054" lon="-73.59423">
        <ele>33</ele>
        <time>2015-09-27T19:20:27.376Z</time>
      </trkpt>
      <trkpt lat="45.54055" lon="-73.59416">
        <ele>33</ele>
        <time>2015-09-27T19:20:28.416Z</time>
      </trkpt>
      <trkpt lat="45.54058" lon="-73.59412">
        <ele>34</ele>
        <time>2015-09-27T19:20:29.387Z</time>
      </trkpt>
      <trkpt lat="45.54061" lon="-73.59408">
        <ele>34</ele>
        <time>2015-09-27T19:20:30.402Z</time>
      </trkpt>
      <trkpt lat="45.54064" lon="-73.59402">
        <ele>35</ele>
        <time>2015-09-27T19:20:31.375Z</time>
      </trkpt>
      <trkpt lat="45.54069" lon="-73.59399">
        <ele>36</ele>
        <time>2015-09-27T19:20:32.406Z</time>
      </trkpt>
      <trkpt lat="45.54073" lon="-73.59394">
        <ele>36</ele>
        <time>2015-09-27T19:20:33.374Z</time>
      </trkpt>
      <trkpt lat="45.54079" lon="-73.59391">
        <ele>38</ele>
        <time>2015-09-27T19:20:34.410Z</time>
      </trkpt>
      <trkpt lat="45.54084" lon="-73.59391">
        <ele>40</ele>
        <time>2015-09-27T19:20:35.377Z</time>
      </trkpt>
      <trkpt lat="45.54089" lon="-73.5938">
        <ele>38</ele>
        <time>2015-09-27T19:20:37.405Z</time>
      </trkpt>
      <trkpt lat="45.54098" lon="-73.59382">
        <ele>37</ele>
        <time>2015-09-27T19:20:38.375Z</time>
      </trkpt>
      <trkpt lat="45.54102" lon="-73.59373">
        <ele>36</ele>
        <time>2015-09-27T19:20:40.427Z</time>
      </trkpt>
      <trkpt lat="45.54104" lon="-73.59371">
        <ele>36</ele>
        <time>2015-09-27T19:20:41.385Z</time>
      </trkpt>
      <trkpt lat="45.54111" lon="-73.59368">
        <ele>35</ele>
        <time>2015-09-27T19:20:43.452Z</time>
      </trkpt>
      <trkpt lat="45.54113" lon="-73.59364">
        <ele>35</ele>
        <time>2015-09-27T19:20:44.387Z</time>
      </trkpt>
      <trkpt lat="45.54119" lon="-73.59358">
        <ele>36</ele>
        <time>2015-09-27T19:20:46.451Z</time>
      </trkpt>
      <trkpt lat="45.54122" lon="-73.59353">
        <ele>37</ele>
        <time>2015-09-27T19:20:47.387Z</time>
      </trkpt>
      <trkpt lat="45.54127" lon="-73.5935">
        <ele>37</ele>
        <time>2015-09-27T19:20:48.412Z</time>
      </trkpt>
      <trkpt lat="45.5413" lon="-73.59347">
        <ele>38</ele>
        <time>2015-09-27T19:20:49.383Z</time>
      </trkpt>
      <trkpt lat="45.54137" lon="-73.59339">
        <ele>38</ele>
        <time>2015-09-27T19:20:51.467Z</time>
      </trkpt>
      <trkpt lat="45.54141" lon="-73.59334">
        <ele>37</ele>
        <time>2015-09-27T19:20:52.447Z</time>
      </trkpt>
      <trkpt lat="45.54145" lon="-73.5933">
        <ele>36</ele>
        <time>2015-09-27T19:20:53.528Z</time>
      </trkpt>
      <trkpt lat="45.5415" lon="-73.59327">
        <ele>36</ele>
        <time>2015-09-27T19:20:54.380Z</time>
      </trkpt>
      <trkpt lat="45.54152" lon="-73.59322">
        <ele>34</ele>
        <time>2015-09-27T19:20:55.457Z</time>
      </trkpt>
      <trkpt lat="45.54157" lon="-73.59318">
        <ele>33</ele>
        <time>2015-09-27T19:20:56.401Z</time>
      </trkpt>
      <trkpt lat="45.54162" lon="-73.59315">
        <ele>33</ele>
        <time>2015-09-27T19:20:57.414Z</time>
      </trkpt>
      <trkpt lat="45.54167" lon="-73.59311">
        <ele>34</ele>
        <time>2015-09-27T19:20:58.381Z</time>
      </trkpt>
      <trkpt lat="45.54171" lon="-73.59308">
        <ele>32</ele>
        <time>2015-09-27T19:20:59.406Z</time>
      </trkpt>
      <trkpt lat="45.54177" lon="-73.59302">
        <ele>32</ele>
        <time>2015-09-27T19:21:00.386Z</time>
      </trkpt>
      <trkpt lat="45.54182" lon="-73.59298">
        <ele>32</ele>
        <time>2015-09-27T19:21:01.418Z</time>
      </trkpt>
      <trkpt lat="45.54184" lon="-73.59294">
        <ele>30</ele>
        <time>2015-09-27T19:21:02.386Z</time>
      </trkpt>
      <trkpt lat="45.54189" lon="-73.5929">
        <ele>29</ele>
        <time>2015-09-27T19:21:03.413Z</time>
      </trkpt>
      <trkpt lat="45.54194" lon="-73.59286">
        <ele>29</ele>
        <time>2015-09-27T19:21:04.384Z</time>
      </trkpt>
      <trkpt lat="45.54199" lon="-73.5928">
        <ele>29</ele>
        <time>2015-09-27T19:21:05.445Z</time>
      </trkpt>
      <trkpt lat="45.54203" lon="-73.59275">
        <ele>29</ele>
        <time>2015-09-27T19:21:06.390Z</time>
      </trkpt>
      <trkpt lat="45.54208" lon="-73.59272">
        <ele>29</ele>
        <time>2015-09-27T19:21:07.406Z</time>
      </trkpt>
      <trkpt lat="45.54213" lon="-73.59267">
        <ele>30</ele>
        <time>2015-09-27T19:21:08.385Z</time>
      </trkpt>
      <trkpt lat="45.54219" lon="-73.59262">
        <ele>31</ele>
        <time>2015-09-27T19:21:09.454Z</time>
      </trkpt>
      <trkpt lat="45.54224" lon="-73.59261">
        <ele>32</ele>
        <time>2015-09-27T19:21:10.393Z</time>
      </trkpt>
      <trkpt lat="45.5423" lon="-73.59257">
        <ele>32</ele>
        <time>2015-09-27T19:21:11.412Z</time>
      </trkpt>
      <trkpt lat="45.54236" lon="-73.59252">
        <ele>31</ele>
        <time>2015-09-27T19:21:12.385Z</time>
      </trkpt>
      <trkpt lat="45.54241" lon="-73.59248">
        <ele>31</ele>
        <time>2015-09-27T19:21:13.403Z</time>
      </trkpt>
      <trkpt lat="45.54248" lon="-73.59248">
        <ele>32</ele>
        <time>2015-09-27T19:21:14.390Z</time>
      </trkpt>
      <trkpt lat="45.54255" lon="-73.59243">
        <ele>33</ele>
        <time>2015-09-27T19:21:15.427Z</time>
      </trkpt>
      <trkpt lat="45.54259" lon="-73.59239">
        <ele>33</ele>
        <time>2015-09-27T19:21:16.383Z</time>
      </trkpt>
      <trkpt lat="45.54264" lon="-73.59235">
        <ele>32</ele>
        <time>2015-09-27T19:21:17.422Z</time>
      </trkpt>
      <trkpt lat="45.54267" lon="-73.59232">
        <ele>32</ele>
        <time>2015-09-27T19:21:18.387Z</time>
      </trkpt>
      <trkpt lat="45.54274" lon="-73.59226">
        <ele>29</ele>
        <time>2015-09-27T19:21:20.454Z</time>
      </trkpt>
      <trkpt lat="45.54277" lon="-73.59219">
        <ele>29</ele>
        <time>2015-09-27T19:21:21.378Z</time>
      </trkpt>
      <trkpt lat="45.54285" lon="-73.59213">
        <ele>30</ele>
        <time>2015-09-27T19:21:23.440Z</time>
      </trkpt>
      <trkpt lat="45.54295" lon="-73.59213">
        <ele>34</ele>
        <time>2015-09-27T19:21:24.388Z</time>
      </trkpt>
      <trkpt lat="45.543" lon="-73.59209">
        <ele>34</ele>
        <time>2015-09-27T19:21:25.457Z</time>
      </trkpt>
      <trkpt lat="45.54304" lon="-73.59205">
        <ele>33</ele>
        <time>2015-09-27T19:21:26.388Z</time>
      </trkpt>
      <trkpt lat="45.54307" lon="-73.59199">
        <ele>33</ele>
        <time>2015-09-27T19:21:27.440Z</time>
      </trkpt>
      <trkpt lat="45.54311" lon="-73.59194">
        <ele>34</ele>
        <time>2015-09-27T19:21:28.387Z</time>
      </trkpt>
      <trkpt lat="45.54316" lon="-73.59191">
        <ele>32</ele>
        <time>2015-09-27T19:21:29.400Z</time>
      </trkpt>
      <trkpt lat="45.54321" lon="-73.59189">
        <ele>34</ele>
        <time>2015-09-27T19:21:30.387Z</time>
      </trkpt>
      <trkpt lat="45.54325" lon="-73.59184">
        <ele>34</ele>
        <time>2015-09-27T19:21:31.415Z</time>
      </trkpt>
      <trkpt lat="45.54325" lon="-73.59177">
        <ele>35</ele>
        <time>2015-09-27T19:21:32.385Z</time>
      </trkpt>
      <trkpt lat="45.54329" lon="-73.59173">
        <ele>35</ele>
        <time>2015-09-27T19:21:33.450Z</time>
      </trkpt>
      <trkpt lat="45.54332" lon="-73.59168">
        <ele>34</ele>
        <time>2015-09-27T19:21:34.393Z</time>
      </trkpt>
      <trkpt lat="45.54337" lon="-73.59165">
        <ele>34</ele>
        <time>2015-09-27T19:21:35.427Z</time>
      </trkpt>
      <trkpt lat="45.54343" lon="-73.59159">
        <ele>33</ele>
        <time>2015-09-27T19:21:36.391Z</time>
      </trkpt>
      <trkpt lat="45.54347" lon="-73.59157">
        <ele>33</ele>
        <time>2015-09-27T19:21:37.417Z</time>
      </trkpt>
      <trkpt lat="45.54351" lon="-73.59155">
        <ele>33</ele>
        <time>2015-09-27T19:21:38.376Z</time>
      </trkpt>
      <trkpt lat="45.54356" lon="-73.59151">
        <ele>34</ele>
        <time>2015-09-27T19:21:39.433Z</time>
      </trkpt>
      <trkpt lat="45.54359" lon="-73.59145">
        <ele>35</ele>
        <time>2015-09-27T19:21:40.386Z</time>
      </trkpt>
      <trkpt lat="45.54364" lon="-73.59141">
        <ele>35</ele>
        <time>2015-09-27T19:21:41.439Z</time>
      </trkpt>
      <trkpt lat="45.54368" lon="-73.59136">
        <ele>35</ele>
        <time>2015-09-27T19:21:42.385Z</time>
      </trkpt>
      <trkpt lat="45.54373" lon="-73.59132">
        <ele>35</ele>
        <time>2015-09-27T19:21:44.450Z</time>
      </trkpt>
      <trkpt lat="45.54377" lon="-73.59131">
        <ele>35</ele>
        <time>2015-09-27T19:21:45.442Z</time>
      </trkpt>
      <trkpt lat="45.54383" lon="-73.59121">
        <ele>34</ele>
        <time>2015-09-27T19:21:50.424Z</time>
      </trkpt>
      <trkpt lat="45.54383" lon="-73.5912">
        <ele>34</ele>
        <time>2015-09-27T19:21:51.386Z</time>
      </trkpt>
      <trkpt lat="45.54383" lon="-73.59109">
        <ele>39</ele>
        <time>2015-09-27T19:22:22.597Z</time>
      </trkpt>
      <trkpt lat="45.54382" lon="-73.59104">
        <ele>39</ele>
        <time>2015-09-27T19:22:23.398Z</time>
      </trkpt>
      <trkpt lat="45.54378" lon="-73.59095">
        <ele>40</ele>
        <time>2015-09-27T19:22:25.481Z</time>
      </trkpt>
      <trkpt lat="45.54375" lon="-73.59091">
        <ele>37</ele>
        <time>2015-09-27T19:22:26.394Z</time>
      </trkpt>
      <trkpt lat="45.5437" lon="-73.59082">
        <ele>37</ele>
        <time>2015-09-27T19:22:28.529Z</time>
      </trkpt>
      <trkpt lat="45.54368" lon="-73.59077">
        <ele>37</ele>
        <time>2015-09-27T19:22:29.407Z</time>
      </trkpt>
      <trkpt lat="45.54364" lon="-73.59068">
        <ele>35</ele>
        <time>2015-09-27T19:22:31.479Z</time>
      </trkpt>
      <trkpt lat="45.54362" lon="-73.59063">
        <ele>36</ele>
        <time>2015-09-27T19:22:32.385Z</time>
      </trkpt>
      <trkpt lat="45.54357" lon="-73.59053">
        <ele>36</ele>
        <time>2015-09-27T19:22:34.538Z</time>
      </trkpt>
      <trkpt lat="45.54355" lon="-73.59047">
        <ele>36</ele>
        <time>2015-09-27T19:22:35.395Z</time>
      </trkpt>
      <trkpt lat="45.54353" lon="-73.59042">
        <ele>37</ele>
        <time>2015-09-27T19:22:36.566Z</time>
      </trkpt>
      <trkpt lat="45.54351" lon="-73.59035">
        <ele>37</ele>
        <time>2015-09-27T19:22:37.385Z</time>
      </trkpt>
      <trkpt lat="45.54347" lon="-73.59024">
        <ele>39</ele>
        <time>2015-09-27T19:22:39.528Z</time>
      </trkpt>
      <trkpt lat="45.54345" lon="-73.59018">
        <ele>39</ele>
        <time>2015-09-27T19:22:40.439Z</time>
      </trkpt>
      <trkpt lat="45.5434" lon="-73.59008">
        <ele>37</ele>
        <time>2015-09-27T19:22:42.529Z</time>
      </trkpt>
      <trkpt lat="45.54338" lon="-73.59003">
        <ele>37</ele>
        <time>2015-09-27T19:22:43.385Z</time>
      </trkpt>
      <trkpt lat="45.54334" lon="-73.58997">
        <ele>37</ele>
        <time>2015-09-27T19:22:44.444Z</time>
      </trkpt>
      <trkpt lat="45.54331" lon="-73.58989">
        <ele>38</ele>
        <time>2015-09-27T19:22:45.388Z</time>
      </trkpt>
      <trkpt lat="45.54329" lon="-73.58983">
        <ele>39</ele>
        <time>2015-09-27T19:22:46.458Z</time>
      </trkpt>
      <trkpt lat="45.54326" lon="-73.58977">
        <ele>39</ele>
        <time>2015-09-27T19:22:47.388Z</time>
      </trkpt>
      <trkpt lat="45.54321" lon="-73.58967">
        <ele>38</ele>
        <time>2015-09-27T19:22:49.443Z</time>
      </trkpt>
      <trkpt lat="45.54319" lon="-73.58962">
        <ele>37</ele>
        <time>2015-09-27T19:22:50.387Z</time>
      </trkpt>
      <trkpt lat="45.54315" lon="-73.58951">
        <ele>37</ele>
        <time>2015-09-27T19:22:52.415Z</time>
      </trkpt>
      <trkpt lat="45.54313" lon="-73.58946">
        <ele>37</ele>
        <time>2015-09-27T19:22:53.375Z</time>
      </trkpt>
      <trkpt lat="45.54306" lon="-73.58939">
        <ele>36</ele>
        <time>2015-09-27T19:22:55.410Z</time>
      </trkpt>
      <trkpt lat="45.54303" lon="-73.58934">
        <ele>36</ele>
        <time>2015-09-27T19:22:56.386Z</time>
      </trkpt>
      <trkpt lat="45.54299" lon="-73.58924">
        <ele>35</ele>
        <time>2015-09-27T19:22:59.396Z</time>
      </trkpt>
      <trkpt lat="45.54297" lon="-73.58922">
        <ele>36</ele>
        <time>2015-09-27T19:23:00.376Z</time>
      </trkpt>
      <trkpt lat="45.54291" lon="-73.58914">
        <ele>40</ele>
        <time>2015-09-27T19:23:23.479Z</time>
      </trkpt>
      <trkpt lat="45.54289" lon="-73.5891">
        <ele>40</ele>
        <time>2015-09-27T19:23:24.379Z</time>
      </trkpt>
      <trkpt lat="45.54284" lon="-73.589">
        <ele>40</ele>
        <time>2015-09-27T19:23:26.473Z</time>
      </trkpt>
      <trkpt lat="45.54281" lon="-73.58895">
        <ele>40</ele>
        <time>2015-09-27T19:23:27.377Z</time>
      </trkpt>
      <trkpt lat="45.54277" lon="-73.58885">
        <ele>41</ele>
        <time>2015-09-27T19:23:30.090Z</time>
      </trkpt>
      <trkpt lat="45.54275" lon="-73.5888">
        <ele>39</ele>
        <time>2015-09-27T19:23:30.383Z</time>
      </trkpt>
      <trkpt lat="45.5427" lon="-73.58871">
        <ele>36</ele>
        <time>2015-09-27T19:23:32.415Z</time>
      </trkpt>
      <trkpt lat="45.54267" lon="-73.58866">
        <ele>37</ele>
        <time>2015-09-27T19:23:33.445Z</time>
      </trkpt>
      <trkpt lat="45.54263" lon="-73.58856">
        <ele>37</ele>
        <time>2015-09-27T19:23:35.410Z</time>
      </trkpt>
      <trkpt lat="45.5426" lon="-73.58851">
        <ele>37</ele>
        <time>2015-09-27T19:23:36.375Z</time>
      </trkpt>
      <trkpt lat="45.54256" lon="-73.58842">
        <ele>35</ele>
        <time>2015-09-27T19:23:38.463Z</time>
      </trkpt>
      <trkpt lat="45.54255" lon="-73.58839">
        <ele>35</ele>
        <time>2015-09-27T19:23:39.393Z</time>
      </trkpt>
      <trkpt lat="45.54252" lon="-73.58829">
        <ele>36</ele>
        <time>2015-09-27T19:23:55.496Z</time>
      </trkpt>
      <trkpt lat="45.5425" lon="-73.58827">
        <ele>35</ele>
        <time>2015-09-27T19:23:56.397Z</time>
      </trkpt>
      <trkpt lat="45.54244" lon="-73.5882">
        <ele>36</ele>
        <time>2015-09-27T19:24:00.445Z</time>
      </trkpt>
      <trkpt lat="45.54236" lon="-73.5881">
        <ele>33</ele>
        <time>2015-09-27T19:24:05.400Z</time>
      </trkpt>
      <trkpt lat="45.54238" lon="-73.58798">
        <ele>35</ele>
        <time>2015-09-27T19:24:54.443Z</time>
      </trkpt>
      <trkpt lat="45.54242" lon="-73.588">
        <ele>34</ele>
        <time>2015-09-27T19:24:55.377Z</time>
      </trkpt>
      <trkpt lat="45.54246" lon="-73.58802">
        <ele>35</ele>
        <time>2015-09-27T19:24:56.451Z</time>
      </trkpt>
      <trkpt lat="45.54251" lon="-73.58801">
        <ele>34</ele>
        <time>2015-09-27T19:24:57.394Z</time>
      </trkpt>
      <trkpt lat="45.54257" lon="-73.588">
        <ele>38</ele>
        <time>2015-09-27T19:24:58.455Z</time>
      </trkpt>
      <trkpt lat="45.54262" lon="-73.58798">
        <ele>38</ele>
        <time>2015-09-27T19:24:59.390Z</time>
      </trkpt>
      <trkpt lat="45.54262" lon="-73.58798">
        <ele>38</ele>
        <time>2015-09-27T19:24:59.475Z</time>
      </trkpt>
      <trkpt lat="45.54272" lon="-73.58794">
        <ele>38</ele>
        <time>2015-09-27T19:25:00.390Z</time>
      </trkpt>
      <trkpt lat="45.54276" lon="-73.58791">
        <ele>39</ele>
        <time>2015-09-27T19:25:01.405Z</time>
      </trkpt>
      <trkpt lat="45.5428" lon="-73.58787">
        <ele>39</ele>
        <time>2015-09-27T19:25:02.394Z</time>
      </trkpt>
      <trkpt lat="45.54285" lon="-73.58786">
        <ele>42</ele>
        <time>2015-09-27T19:25:03.418Z</time>
      </trkpt>
      <trkpt lat="45.54289" lon="-73.58782">
        <ele>43</ele>
        <time>2015-09-27T19:25:04.390Z</time>
      </trkpt>
      <trkpt lat="45.54295" lon="-73.58778">
        <ele>43</ele>
        <time>2015-09-27T19:25:05.445Z</time>
      </trkpt>
      <trkpt lat="45.54304" lon="-73.58771">
        <ele>42</ele>
        <time>2015-09-27T19:25:06.387Z</time>
      </trkpt>
      <trkpt lat="45.54304" lon="-73.58771">
        <ele>42</ele>
        <time>2015-09-27T19:25:06.442Z</time>
      </trkpt>
      <trkpt lat="45.54314" lon="-73.58765">
        <ele>41</ele>
        <time>2015-09-27T19:25:07.386Z</time>
      </trkpt>
      <trkpt lat="45.54314" lon="-73.58765">
        <ele>41</ele>
        <time>2015-09-27T19:25:07.452Z</time>
      </trkpt>
      <trkpt lat="45.54324" lon="-73.58757">
        <ele>41</ele>
        <time>2015-09-27T19:25:08.374Z</time>
      </trkpt>
      <trkpt lat="45.54324" lon="-73.58757">
        <ele>41</ele>
        <time>2015-09-27T19:25:08.398Z</time>
      </trkpt>
      <trkpt lat="45.54337" lon="-73.58759">
        <ele>41</ele>
        <time>2015-09-27T19:25:09.374Z</time>
      </trkpt>
      <trkpt lat="45.54336" lon="-73.58757">
        <ele>38</ele>
        <time>2015-09-27T19:25:11.396Z</time>
      </trkpt>
      <trkpt lat="45.54334" lon="-73.58747">
        <ele>38</ele>
        <time>2015-09-27T19:25:12.375Z</time>
      </trkpt>
      <trkpt lat="45.54341" lon="-73.58745">
        <ele>42</ele>
        <time>2015-09-27T19:25:14.453Z</time>
      </trkpt>
      <trkpt lat="45.54349" lon="-73.58743">
        <ele>43</ele>
        <time>2015-09-27T19:25:15.375Z</time>
      </trkpt>
      <trkpt lat="45.54349" lon="-73.58743">
        <ele>43</ele>
        <time>2015-09-27T19:25:15.402Z</time>
      </trkpt>
      <trkpt lat="45.54358" lon="-73.58739">
        <ele>44</ele>
        <time>2015-09-27T19:25:16.386Z</time>
      </trkpt>
      <trkpt lat="45.54358" lon="-73.58739">
        <ele>44</ele>
        <time>2015-09-27T19:25:16.413Z</time>
      </trkpt>
      <trkpt lat="45.54367" lon="-73.58733">
        <ele>45</ele>
        <time>2015-09-27T19:25:17.384Z</time>
      </trkpt>
      <trkpt lat="45.54368" lon="-73.58726">
        <ele>47</ele>
        <time>2015-09-27T19:25:18.420Z</time>
      </trkpt>
      <trkpt lat="45.5436" lon="-73.58713">
        <ele>47</ele>
        <time>2015-09-27T19:25:19.386Z</time>
      </trkpt>
      <trkpt lat="45.54368" lon="-73.58708">
        <ele>48</ele>
        <time>2015-09-27T19:25:20.407Z</time>
      </trkpt>
      <trkpt lat="45.5437" lon="-73.58702">
        <ele>46</ele>
        <time>2015-09-27T19:25:21.387Z</time>
      </trkpt>
      <trkpt lat="45.54375" lon="-73.58701">
        <ele>45</ele>
        <time>2015-09-27T19:25:22.416Z</time>
      </trkpt>
      <trkpt lat="45.5438" lon="-73.58697">
        <ele>43</ele>
        <time>2015-09-27T19:25:23.386Z</time>
      </trkpt>
      <trkpt lat="45.54383" lon="-73.58687">
        <ele>41</ele>
        <time>2015-09-27T19:25:24.450Z</time>
      </trkpt>
      <trkpt lat="45.54385" lon="-73.58677">
        <ele>41</ele>
        <time>2015-09-27T19:25:25.445Z</time>
      </trkpt>
      <trkpt lat="45.5439" lon="-73.58673">
        <ele>40</ele>
        <time>2015-09-27T19:25:26.409Z</time>
      </trkpt>
      <trkpt lat="45.54393" lon="-73.58666">
        <ele>40</ele>
        <time>2015-09-27T19:25:27.383Z</time>
      </trkpt>
      <trkpt lat="45.54398" lon="-73.58661">
        <ele>41</ele>
        <time>2015-09-27T19:25:28.402Z</time>
      </trkpt>
      <trkpt lat="45.54401" lon="-73.58653">
        <ele>42</ele>
        <time>2015-09-27T19:25:29.389Z</time>
      </trkpt>
      <trkpt lat="45.54407" lon="-73.58645">
        <ele>42</ele>
        <time>2015-09-27T19:25:30.496Z</time>
      </trkpt>
      <trkpt lat="45.54411" lon="-73.5864">
        <ele>43</ele>
        <time>2015-09-27T19:25:31.387Z</time>
      </trkpt>
      <trkpt lat="45.54417" lon="-73.58636">
        <ele>45</ele>
        <time>2015-09-27T19:25:32.491Z</time>
      </trkpt>
      <trkpt lat="45.54424" lon="-73.58633">
        <ele>45</ele>
        <time>2015-09-27T19:25:33.393Z</time>
      </trkpt>
      <trkpt lat="45.54427" lon="-73.58624">
        <ele>46</ele>
        <time>2015-09-27T19:25:34.449Z</time>
      </trkpt>
      <trkpt lat="45.54428" lon="-73.58616">
        <ele>48</ele>
        <time>2015-09-27T19:25:35.392Z</time>
      </trkpt>
      <trkpt lat="45.54428" lon="-73.58616">
        <ele>48</ele>
        <time>2015-09-27T19:25:35.440Z</time>
      </trkpt>
      <trkpt lat="45.54441" lon="-73.58615">
        <ele>50</ele>
        <time>2015-09-27T19:25:36.383Z</time>
      </trkpt>
      <trkpt lat="45.54441" lon="-73.58615">
        <ele>50</ele>
        <time>2015-09-27T19:25:36.414Z</time>
      </trkpt>
      <trkpt lat="45.54447" lon="-73.58602">
        <ele>51</ele>
        <time>2015-09-27T19:25:37.384Z</time>
      </trkpt>
      <trkpt lat="45.54453" lon="-73.58604">
        <ele>54</ele>
        <time>2015-09-27T19:25:38.474Z</time>
      </trkpt>
      <trkpt lat="45.54457" lon="-73.58597">
        <ele>53</ele>
        <time>2015-09-27T19:25:39.383Z</time>
      </trkpt>
      <trkpt lat="45.54465" lon="-73.58595">
        <ele>51</ele>
        <time>2015-09-27T19:25:41.403Z</time>
      </trkpt>
      <trkpt lat="45.54465" lon="-73.58592">
        <ele>50</ele>
        <time>2015-09-27T19:25:42.385Z</time>
      </trkpt>
      <trkpt lat="45.54472" lon="-73.58585">
        <ele>47</ele>
        <time>2015-09-27T19:25:44.419Z</time>
      </trkpt>
      <trkpt lat="45.54477" lon="-73.58582">
        <ele>47</ele>
        <time>2015-09-27T19:25:45.387Z</time>
      </trkpt>
      <trkpt lat="45.54479" lon="-73.58578">
        <ele>46</ele>
        <time>2015-09-27T19:25:46.452Z</time>
      </trkpt>
      <trkpt lat="45.54486" lon="-73.58577">
        <ele>47</ele>
        <time>2015-09-27T19:25:47.384Z</time>
      </trkpt>
      <trkpt lat="45.54494" lon="-73.58577">
        <ele>48</ele>
        <time>2015-09-27T19:25:48.440Z</time>
      </trkpt>
      <trkpt lat="45.54497" lon="-73.58574">
        <ele>47</ele>
        <time>2015-09-27T19:25:49.388Z</time>
      </trkpt>
      <trkpt lat="45.54502" lon="-73.58571">
        <ele>48</ele>
        <time>2015-09-27T19:25:50.405Z</time>
      </trkpt>
      <trkpt lat="45.54506" lon="-73.58567">
        <ele>47</ele>
        <time>2015-09-27T19:25:51.377Z</time>
      </trkpt>
      <trkpt lat="45.5451" lon="-73.58557">
        <ele>45</ele>
        <time>2015-09-27T19:25:53.435Z</time>
      </trkpt>
      <trkpt lat="45.54516" lon="-73.58555">
        <ele>47</ele>
        <time>2015-09-27T19:25:54.386Z</time>
      </trkpt>
      <trkpt lat="45.54518" lon="-73.58547">
        <ele>49</ele>
        <time>2015-09-27T19:25:55.404Z</time>
      </trkpt>
      <trkpt lat="45.54518" lon="-73.58541">
        <ele>49</ele>
        <time>2015-09-27T19:25:56.373Z</time>
      </trkpt>
      <trkpt lat="45.54523" lon="-73.58536">
        <ele>49</ele>
        <time>2015-09-27T19:25:58.440Z</time>
      </trkpt>
      <trkpt lat="45.54528" lon="-73.58534">
        <ele>48</ele>
        <time>2015-09-27T19:25:59.383Z</time>
      </trkpt>
      <trkpt lat="45.54531" lon="-73.58528">
        <ele>49</ele>
        <time>2015-09-27T19:26:01.455Z</time>
      </trkpt>
      <trkpt lat="45.54537" lon="-73.58528">
        <ele>49</ele>
        <time>2015-09-27T19:26:02.384Z</time>
      </trkpt>
      <trkpt lat="45.54543" lon="-73.58526">
        <ele>49</ele>
        <time>2015-09-27T19:26:03.398Z</time>
      </trkpt>
      <trkpt lat="45.54545" lon="-73.58521">
        <ele>50</ele>
        <time>2015-09-27T19:26:04.384Z</time>
      </trkpt>
      <trkpt lat="45.54553" lon="-73.58521">
        <ele>52</ele>
        <time>2015-09-27T19:26:06.452Z</time>
      </trkpt>
      <trkpt lat="45.54555" lon="-73.58518">
        <ele>53</ele>
        <time>2015-09-27T19:26:07.437Z</time>
      </trkpt>
      <trkpt lat="45.5456" lon="-73.5851">
        <ele>53</ele>
        <time>2015-09-27T19:26:09.393Z</time>
      </trkpt>
      <trkpt lat="45.54564" lon="-73.58508">
        <ele>52</ele>
        <time>2015-09-27T19:26:10.391Z</time>
      </trkpt>
      <trkpt lat="45.54571" lon="-73.585">
        <ele>49</ele>
        <time>2015-09-27T19:26:12.589Z</time>
      </trkpt>
      <trkpt lat="45.54573" lon="-73.58497">
        <ele>48</ele>
        <time>2015-09-27T19:26:13.385Z</time>
      </trkpt>
      <trkpt lat="45.5458" lon="-73.58489">
        <ele>49</ele>
        <time>2015-09-27T19:26:21.462Z</time>
      </trkpt>
      <trkpt lat="45.54581" lon="-73.58488">
        <ele>49</ele>
        <time>2015-09-27T19:26:22.386Z</time>
      </trkpt>
      <trkpt lat="45.54589" lon="-73.58484">
        <ele>47</ele>
        <time>2015-09-27T19:26:27.520Z</time>
      </trkpt>
      <trkpt lat="45.54624" lon="-73.58466">
        <ele>42</ele>
        <time>2015-09-27T19:26:35.391Z</time>
      </trkpt>
      <trkpt lat="45.5463" lon="-73.58464">
        <ele>38</ele>
        <time>2015-09-27T19:26:37.645Z</time>
      </trkpt>
      <trkpt lat="45.54636" lon="-73.58463">
        <ele>38</ele>
        <time>2015-09-27T19:26:38.392Z</time>
      </trkpt>
      <trkpt lat="45.54643" lon="-73.5846">
        <ele>39</ele>
        <time>2015-09-27T19:26:39.449Z</time>
      </trkpt>
      <trkpt lat="45.54649" lon="-73.58454">
        <ele>42</ele>
        <time>2015-09-27T19:26:40.381Z</time>
      </trkpt>
      <trkpt lat="45.54654" lon="-73.58454">
        <ele>41</ele>
        <time>2015-09-27T19:26:41.449Z</time>
      </trkpt>
      <trkpt lat="45.5466" lon="-73.58456">
        <ele>41</ele>
        <time>2015-09-27T19:26:42.389Z</time>
      </trkpt>
      <trkpt lat="45.54666" lon="-73.58456">
        <ele>41</ele>
        <time>2015-09-27T19:26:43.697Z</time>
      </trkpt>
      <trkpt lat="45.54673" lon="-73.58457">
        <ele>41</ele>
        <time>2015-09-27T19:26:44.398Z</time>
      </trkpt>
      <trkpt lat="45.54676" lon="-73.5846">
        <ele>41</ele>
        <time>2015-09-27T19:26:45.486Z</time>
      </trkpt>
      <trkpt lat="45.54681" lon="-73.5846">
        <ele>41</ele>
        <time>2015-09-27T19:26:46.392Z</time>
      </trkpt>
      <trkpt lat="45.54686" lon="-73.58462">
        <ele>41</ele>
        <time>2015-09-27T19:26:47.441Z</time>
      </trkpt>
      <trkpt lat="45.54691" lon="-73.58461">
        <ele>41</ele>
        <time>2015-09-27T19:26:48.384Z</time>
      </trkpt>
      <trkpt lat="45.54698" lon="-73.58455">
        <ele>38</ele>
        <time>2015-09-27T19:26:50.455Z</time>
      </trkpt>
      <trkpt lat="45.547" lon="-73.58458">
        <ele>35</ele>
        <time>2015-09-27T19:26:51.387Z</time>
      </trkpt>
      <trkpt lat="45.54705" lon="-73.58461">
        <ele>36</ele>
        <time>2015-09-27T19:26:52.416Z</time>
      </trkpt>
      <trkpt lat="45.54709" lon="-73.58467">
        <ele>34</ele>
        <time>2015-09-27T19:26:53.386Z</time>
      </trkpt>
      <trkpt lat="45.54713" lon="-73.58476">
        <ele>34</ele>
        <time>2015-09-27T19:26:54.455Z</time>
      </trkpt>
      <trkpt lat="45.54718" lon="-73.58481">
        <ele>33</ele>
        <time>2015-09-27T19:26:55.427Z</time>
      </trkpt>
      <trkpt lat="45.54726" lon="-73.58485">
        <ele>36</ele>
        <time>2015-09-27T19:26:57.420Z</time>
      </trkpt>
      <trkpt lat="45.54729" lon="-73.58491">
        <ele>37</ele>
        <time>2015-09-27T19:26:58.380Z</time>
      </trkpt>
      <trkpt lat="45.54733" lon="-73.58495">
        <ele>38</ele>
        <time>2015-09-27T19:26:59.405Z</time>
      </trkpt>
      <trkpt lat="45.54738" lon="-73.58493">
        <ele>35</ele>
        <time>2015-09-27T19:27:00.386Z</time>
      </trkpt>
      <trkpt lat="45.54746" lon="-73.58496">
        <ele>35</ele>
        <time>2015-09-27T19:27:02.450Z</time>
      </trkpt>
      <trkpt lat="45.54748" lon="-73.58496">
        <ele>33</ele>
        <time>2015-09-27T19:27:03.391Z</time>
      </trkpt>
      <trkpt lat="45.54754" lon="-73.58503">
        <ele>33</ele>
        <time>2015-09-27T19:27:05.409Z</time>
      </trkpt>
      <trkpt lat="45.54758" lon="-73.58506">
        <ele>33</ele>
        <time>2015-09-27T19:27:06.383Z</time>
      </trkpt>
      <trkpt lat="45.54765" lon="-73.5851">
        <ele>35</ele>
        <time>2015-09-27T19:27:08.413Z</time>
      </trkpt>
      <trkpt lat="45.54768" lon="-73.5851">
        <ele>32</ele>
        <time>2015-09-27T19:27:09.380Z</time>
      </trkpt>
      <trkpt lat="45.54775" lon="-73.58508">
        <ele>29</ele>
        <time>2015-09-27T19:27:12.448Z</time>
      </trkpt>
      <trkpt lat="45.54777" lon="-73.58506">
        <ele>29</ele>
        <time>2015-09-27T19:27:13.383Z</time>
      </trkpt>
      <trkpt lat="45.54782" lon="-73.58497">
        <ele>32</ele>
        <time>2015-09-27T19:27:18.397Z</time>
      </trkpt>
      <trkpt lat="45.54783" lon="-73.58496">
        <ele>34</ele>
        <time>2015-09-27T19:27:19.385Z</time>
      </trkpt>
      <trkpt lat="45.54788" lon="-73.58493">
        <ele>31</ele>
        <time>2015-09-27T19:27:22.414Z</time>
      </trkpt>
      <trkpt lat="45.54792" lon="-73.58491">
        <ele>31</ele>
        <time>2015-09-27T19:27:23.375Z</time>
      </trkpt>
      <trkpt lat="45.54796" lon="-73.58489">
        <ele>30</ele>
        <time>2015-09-27T19:27:24.412Z</time>
      </trkpt>
      <trkpt lat="45.54801" lon="-73.58486">
        <ele>31</ele>
        <time>2015-09-27T19:27:25.386Z</time>
      </trkpt>
      <trkpt lat="45.54805" lon="-73.58483">
        <ele>30</ele>
        <time>2015-09-27T19:27:26.415Z</time>
      </trkpt>
      <trkpt lat="45.54809" lon="-73.58479">
        <ele>27</ele>
        <time>2015-09-27T19:27:27.386Z</time>
      </trkpt>
      <trkpt lat="45.54814" lon="-73.58475">
        <ele>26</ele>
        <time>2015-09-27T19:27:28.450Z</time>
      </trkpt>
      <trkpt lat="45.5482" lon="-73.58469">
        <ele>29</ele>
        <time>2015-09-27T19:27:29.416Z</time>
      </trkpt>
      <trkpt lat="45.54826" lon="-73.58464">
        <ele>29</ele>
        <time>2015-09-27T19:27:30.450Z</time>
      </trkpt>
      <trkpt lat="45.54829" lon="-73.5846">
        <ele>30</ele>
        <time>2015-09-27T19:27:31.385Z</time>
      </trkpt>
      <trkpt lat="45.54835" lon="-73.58456">
        <ele>29</ele>
        <time>2015-09-27T19:27:32.426Z</time>
      </trkpt>
      <trkpt lat="45.5484" lon="-73.58453">
        <ele>29</ele>
        <time>2015-09-27T19:27:33.389Z</time>
      </trkpt>
      <trkpt lat="45.54845" lon="-73.58448">
        <ele>31</ele>
        <time>2015-09-27T19:27:34.415Z</time>
      </trkpt>
      <trkpt lat="45.54849" lon="-73.58445">
        <ele>31</ele>
        <time>2015-09-27T19:27:35.386Z</time>
      </trkpt>
      <trkpt lat="45.54855" lon="-73.5844">
        <ele>31</ele>
        <time>2015-09-27T19:27:36.439Z</time>
      </trkpt>
      <trkpt lat="45.54861" lon="-73.58435">
        <ele>31</ele>
        <time>2015-09-27T19:27:37.388Z</time>
      </trkpt>
      <trkpt lat="45.54865" lon="-73.58432">
        <ele>30</ele>
        <time>2015-09-27T19:27:38.421Z</time>
      </trkpt>
      <trkpt lat="45.54871" lon="-73.58428">
        <ele>33</ele>
        <time>2015-09-27T19:27:39.385Z</time>
      </trkpt>
      <trkpt lat="45.54875" lon="-73.58425">
        <ele>35</ele>
        <time>2015-09-27T19:27:40.419Z</time>
      </trkpt>
      <trkpt lat="45.54882" lon="-73.58419">
        <ele>34</ele>
        <time>2015-09-27T19:27:41.422Z</time>
      </trkpt>
      <trkpt lat="45.54886" lon="-73.58414">
        <ele>33</ele>
        <time>2015-09-27T19:27:42.416Z</time>
      </trkpt>
      <trkpt lat="45.54891" lon="-73.58411">
        <ele>33</ele>
        <time>2015-09-27T19:27:43.388Z</time>
      </trkpt>
      <trkpt lat="45.54896" lon="-73.58408">
        <ele>32</ele>
        <time>2015-09-27T19:27:44.475Z</time>
      </trkpt>
      <trkpt lat="45.54901" lon="-73.58405">
        <ele>32</ele>
        <time>2015-09-27T19:27:45.387Z</time>
      </trkpt>
      <trkpt lat="45.54907" lon="-73.58401">
        <ele>34</ele>
        <time>2015-09-27T19:27:46.424Z</time>
      </trkpt>
      <trkpt lat="45.5491" lon="-73.58396">
        <ele>35</ele>
        <time>2015-09-27T19:27:47.374Z</time>
      </trkpt>
      <trkpt lat="45.54914" lon="-73.5839">
        <ele>35</ele>
        <time>2015-09-27T19:27:48.477Z</time>
      </trkpt>
      <trkpt lat="45.54918" lon="-73.58385">
        <ele>34</ele>
        <time>2015-09-27T19:27:49.374Z</time>
      </trkpt>
      <trkpt lat="45.54925" lon="-73.58384">
        <ele>34</ele>
        <time>2015-09-27T19:27:50.405Z</time>
      </trkpt>
      <trkpt lat="45.5493" lon="-73.58382">
        <ele>34</ele>
        <time>2015-09-27T19:27:51.375Z</time>
      </trkpt>
      <trkpt lat="45.54935" lon="-73.58377">
        <ele>33</ele>
        <time>2015-09-27T19:27:52.410Z</time>
      </trkpt>
      <trkpt lat="45.54939" lon="-73.58372">
        <ele>32</ele>
        <time>2015-09-27T19:27:53.374Z</time>
      </trkpt>
      <trkpt lat="45.54944" lon="-73.58368">
        <ele>32</ele>
        <time>2015-09-27T19:27:54.445Z</time>
      </trkpt>
      <trkpt lat="45.54947" lon="-73.58365">
        <ele>32</ele>
        <time>2015-09-27T19:27:55.384Z</time>
      </trkpt>
      <trkpt lat="45.54954" lon="-73.58357">
        <ele>31</ele>
        <time>2015-09-27T19:27:57.436Z</time>
      </trkpt>
      <trkpt lat="45.54961" lon="-73.58355">
        <ele>29</ele>
        <time>2015-09-27T19:27:58.376Z</time>
      </trkpt>
      <trkpt lat="45.54963" lon="-73.58347">
        <ele>30</ele>
        <time>2015-09-27T19:27:59.447Z</time>
      </trkpt>
      <trkpt lat="45.54965" lon="-73.58341">
        <ele>29</ele>
        <time>2015-09-27T19:28:00.386Z</time>
      </trkpt>
      <trkpt lat="45.54968" lon="-73.58334">
        <ele>29</ele>
        <time>2015-09-27T19:28:01.422Z</time>
      </trkpt>
      <trkpt lat="45.54971" lon="-73.58328">
        <ele>30</ele>
        <time>2015-09-27T19:28:02.386Z</time>
      </trkpt>
      <trkpt lat="45.54977" lon="-73.58324">
        <ele>34</ele>
        <time>2015-09-27T19:28:05.413Z</time>
      </trkpt>
      <trkpt lat="45.54984" lon="-73.58325">
        <ele>34</ele>
        <time>2015-09-27T19:28:06.384Z</time>
      </trkpt>
      <trkpt lat="45.54987" lon="-73.58323">
        <ele>33</ele>
        <time>2015-09-27T19:28:07.450Z</time>
      </trkpt>
      <trkpt lat="45.54993" lon="-73.58322">
        <ele>33</ele>
        <time>2015-09-27T19:28:08.383Z</time>
      </trkpt>
      <trkpt lat="45.55" lon="-73.58316">
        <ele>33</ele>
        <time>2015-09-27T19:28:11.399Z</time>
      </trkpt>
      <trkpt lat="45.55005" lon="-73.58314">
        <ele>35</ele>
        <time>2015-09-27T19:28:12.374Z</time>
      </trkpt>
      <trkpt lat="45.55012" lon="-73.58307">
        <ele>36</ele>
        <time>2015-09-27T19:28:14.394Z</time>
      </trkpt>
      <trkpt lat="45.55016" lon="-73.58303">
        <ele>37</ele>
        <time>2015-09-27T19:28:15.374Z</time>
      </trkpt>
      <trkpt lat="45.55022" lon="-73.58297">
        <ele>37</ele>
        <time>2015-09-27T19:28:17.441Z</time>
      </trkpt>
      <trkpt lat="45.55025" lon="-73.58294">
        <ele>37</ele>
        <time>2015-09-27T19:28:18.388Z</time>
      </trkpt>
      <trkpt lat="45.5503" lon="-73.58288">
        <ele>36</ele>
        <time>2015-09-27T19:28:20.405Z</time>
      </trkpt>
      <trkpt lat="45.55033" lon="-73.58284">
        <ele>36</ele>
        <time>2015-09-27T19:28:21.384Z</time>
      </trkpt>
      <trkpt lat="45.5504" lon="-73.58277">
        <ele>35</ele>
        <time>2015-09-27T19:28:23.455Z</time>
      </trkpt>
      <trkpt lat="45.55044" lon="-73.58274">
        <ele>36</ele>
        <time>2015-09-27T19:28:24.376Z</time>
      </trkpt>
      <trkpt lat="45.55048" lon="-73.58271">
        <ele>38</ele>
        <time>2015-09-27T19:28:25.395Z</time>
      </trkpt>
      <trkpt lat="45.55052" lon="-73.58268">
        <ele>38</ele>
        <time>2015-09-27T19:28:26.374Z</time>
      </trkpt>
      <trkpt lat="45.55059" lon="-73.58262">
        <ele>37</ele>
        <time>2015-09-27T19:28:28.412Z</time>
      </trkpt>
      <trkpt lat="45.55062" lon="-73.58258">
        <ele>38</ele>
        <time>2015-09-27T19:28:29.374Z</time>
      </trkpt>
      <trkpt lat="45.55066" lon="-73.58254">
        <ele>37</ele>
        <time>2015-09-27T19:28:30.440Z</time>
      </trkpt>
      <trkpt lat="45.5507" lon="-73.5825">
        <ele>37</ele>
        <time>2015-09-27T19:28:31.386Z</time>
      </trkpt>
      <trkpt lat="45.55074" lon="-73.58245">
        <ele>35</ele>
        <time>2015-09-27T19:28:32.432Z</time>
      </trkpt>
      <trkpt lat="45.55078" lon="-73.58242">
        <ele>36</ele>
        <time>2015-09-27T19:28:33.386Z</time>
      </trkpt>
      <trkpt lat="45.55084" lon="-73.58235">
        <ele>36</ele>
        <time>2015-09-27T19:28:35.413Z</time>
      </trkpt>
      <trkpt lat="45.55088" lon="-73.58232">
        <ele>37</ele>
        <time>2015-09-27T19:28:36.388Z</time>
      </trkpt>
      <trkpt lat="45.55094" lon="-73.58227">
        <ele>37</ele>
        <time>2015-09-27T19:28:38.432Z</time>
      </trkpt>
      <trkpt lat="45.55099" lon="-73.58225">
        <ele>36</ele>
        <time>2015-09-27T19:28:39.386Z</time>
      </trkpt>
      <trkpt lat="45.55104" lon="-73.58221">
        <ele>37</ele>
        <time>2015-09-27T19:28:41.410Z</time>
      </trkpt>
      <trkpt lat="45.55107" lon="-73.58218">
        <ele>37</ele>
        <time>2015-09-27T19:28:42.384Z</time>
      </trkpt>
      <trkpt lat="45.55112" lon="-73.58212">
        <ele>36</ele>
        <time>2015-09-27T19:28:44.450Z</time>
      </trkpt>
      <trkpt lat="45.55115" lon="-73.5821">
        <ele>36</ele>
        <time>2015-09-27T19:28:45.399Z</time>
      </trkpt>
      <trkpt lat="45.55122" lon="-73.58206">
        <ele>35</ele>
        <time>2015-09-27T19:28:47.405Z</time>
      </trkpt>
      <trkpt lat="45.55125" lon="-73.58203">
        <ele>37</ele>
        <time>2015-09-27T19:28:48.382Z</time>
      </trkpt>
      <trkpt lat="45.5513" lon="-73.58197">
        <ele>36</ele>
        <time>2015-09-27T19:28:50.442Z</time>
      </trkpt>
      <trkpt lat="45.55133" lon="-73.58195">
        <ele>37</ele>
        <time>2015-09-27T19:28:51.394Z</time>
      </trkpt>
      <trkpt lat="45.55139" lon="-73.58189">
        <ele>38</ele>
        <time>2015-09-27T19:28:54.440Z</time>
      </trkpt>
      <trkpt lat="45.55141" lon="-73.58188">
        <ele>40</ele>
        <time>2015-09-27T19:28:55.376Z</time>
      </trkpt>
      <trkpt lat="45.55149" lon="-73.58185">
        <ele>45</ele>
        <time>2015-09-27T19:29:18.440Z</time>
      </trkpt>
      <trkpt lat="45.55151" lon="-73.58184">
        <ele>42</ele>
        <time>2015-09-27T19:29:19.393Z</time>
      </trkpt>
      <trkpt lat="45.55156" lon="-73.58179">
        <ele>42</ele>
        <time>2015-09-27T19:29:21.441Z</time>
      </trkpt>
      <trkpt lat="45.55161" lon="-73.58176">
        <ele>41</ele>
        <time>2015-09-27T19:29:22.374Z</time>
      </trkpt>
      <trkpt lat="45.55168" lon="-73.5817">
        <ele>43</ele>
        <time>2015-09-27T19:29:24.414Z</time>
      </trkpt>
      <trkpt lat="45.55172" lon="-73.58167">
        <ele>44</ele>
        <time>2015-09-27T19:29:25.396Z</time>
      </trkpt>
      <trkpt lat="45.55176" lon="-73.58164">
        <ele>43</ele>
        <time>2015-09-27T19:29:26.451Z</time>
      </trkpt>
      <trkpt lat="45.5518" lon="-73.58161">
        <ele>43</ele>
        <time>2015-09-27T19:29:27.393Z</time>
      </trkpt>
      <trkpt lat="45.55184" lon="-73.58157">
        <ele>42</ele>
        <time>2015-09-27T19:29:28.448Z</time>
      </trkpt>
      <trkpt lat="45.5519" lon="-73.58151">
        <ele>42</ele>
        <time>2015-09-27T19:29:29.388Z</time>
      </trkpt>
      <trkpt lat="45.55195" lon="-73.58148">
        <ele>43</ele>
        <time>2015-09-27T19:29:30.439Z</time>
      </trkpt>
      <trkpt lat="45.55199" lon="-73.58144">
        <ele>43</ele>
        <time>2015-09-27T19:29:31.385Z</time>
      </trkpt>
      <trkpt lat="45.55203" lon="-73.5814">
        <ele>43</ele>
        <time>2015-09-27T19:29:32.440Z</time>
      </trkpt>
      <trkpt lat="45.55208" lon="-73.58137">
        <ele>42</ele>
        <time>2015-09-27T19:29:33.406Z</time>
      </trkpt>
      <trkpt lat="45.55213" lon="-73.58134">
        <ele>44</ele>
        <time>2015-09-27T19:29:34.439Z</time>
      </trkpt>
      <trkpt lat="45.55219" lon="-73.58129">
        <ele>43</ele>
        <time>2015-09-27T19:29:35.386Z</time>
      </trkpt>
      <trkpt lat="45.55226" lon="-73.58126">
        <ele>44</ele>
        <time>2015-09-27T19:29:36.439Z</time>
      </trkpt>
      <trkpt lat="45.55228" lon="-73.58119">
        <ele>42</ele>
        <time>2015-09-27T19:29:37.385Z</time>
      </trkpt>
      <trkpt lat="45.55232" lon="-73.58111">
        <ele>43</ele>
        <time>2015-09-27T19:29:38.452Z</time>
      </trkpt>
      <trkpt lat="45.55238" lon="-73.58108">
        <ele>43</ele>
        <time>2015-09-27T19:29:39.384Z</time>
      </trkpt>
      <trkpt lat="45.55244" lon="-73.58104">
        <ele>45</ele>
        <time>2015-09-27T19:29:40.418Z</time>
      </trkpt>
      <trkpt lat="45.55247" lon="-73.58099">
        <ele>48</ele>
        <time>2015-09-27T19:29:41.375Z</time>
      </trkpt>
      <trkpt lat="45.55252" lon="-73.58094">
        <ele>47</ele>
        <time>2015-09-27T19:29:42.406Z</time>
      </trkpt>
      <trkpt lat="45.55257" lon="-73.58089">
        <ele>47</ele>
        <time>2015-09-27T19:29:43.373Z</time>
      </trkpt>
      <trkpt lat="45.55264" lon="-73.58084">
        <ele>47</ele>
        <time>2015-09-27T19:29:44.403Z</time>
      </trkpt>
      <trkpt lat="45.55268" lon="-73.58081">
        <ele>47</ele>
        <time>2015-09-27T19:29:45.384Z</time>
      </trkpt>
      <trkpt lat="45.55276" lon="-73.58076">
        <ele>47</ele>
        <time>2015-09-27T19:29:47.394Z</time>
      </trkpt>
      <trkpt lat="45.55277" lon="-73.58073">
        <ele>47</ele>
        <time>2015-09-27T19:29:48.377Z</time>
      </trkpt>
      <trkpt lat="45.5528" lon="-73.5807">
        <ele>47</ele>
        <time>2015-09-27T19:29:49.431Z</time>
      </trkpt>
      <trkpt lat="45.55286" lon="-73.58068">
        <ele>47</ele>
        <time>2015-09-27T19:29:50.387Z</time>
      </trkpt>
      <trkpt lat="45.5529" lon="-73.58065">
        <ele>46</ele>
        <time>2015-09-27T19:29:51.453Z</time>
      </trkpt>
      <trkpt lat="45.55294" lon="-73.58063">
        <ele>46</ele>
        <time>2015-09-27T19:29:52.384Z</time>
      </trkpt>
      <trkpt lat="45.55297" lon="-73.58056">
        <ele>43</ele>
        <time>2015-09-27T19:29:54.440Z</time>
      </trkpt>
      <trkpt lat="45.55301" lon="-73.58053">
        <ele>40</ele>
        <time>2015-09-27T19:29:55.441Z</time>
      </trkpt>
      <trkpt lat="45.55304" lon="-73.58044">
        <ele>35</ele>
        <time>2015-09-27T19:30:00.409Z</time>
      </trkpt>
      <trkpt lat="45.55307" lon="-73.58044">
        <ele>35</ele>
        <time>2015-09-27T19:30:01.384Z</time>
      </trkpt>
      <trkpt lat="45.55314" lon="-73.58035">
        <ele>36</ele>
        <time>2015-09-27T19:30:04.460Z</time>
      </trkpt>
      <trkpt lat="45.55317" lon="-73.58032">
        <ele>37</ele>
        <time>2015-09-27T19:30:05.394Z</time>
      </trkpt>
      <trkpt lat="45.5532" lon="-73.58027">
        <ele>37</ele>
        <time>2015-09-27T19:30:06.421Z</time>
      </trkpt>
      <trkpt lat="45.55324" lon="-73.58022">
        <ele>37</ele>
        <time>2015-09-27T19:30:07.385Z</time>
      </trkpt>
      <trkpt lat="45.55324" lon="-73.58022">
        <ele>37</ele>
        <time>2015-09-27T19:30:07.487Z</time>
      </trkpt>
      <trkpt lat="45.55333" lon="-73.58019">
        <ele>36</ele>
        <time>2015-09-27T19:30:08.375Z</time>
      </trkpt>
      <trkpt lat="45.55333" lon="-73.58019">
        <ele>36</ele>
        <time>2015-09-27T19:30:08.407Z</time>
      </trkpt>
      <trkpt lat="45.55343" lon="-73.5802">
        <ele>36</ele>
        <time>2015-09-27T19:30:09.373Z</time>
      </trkpt>
      <trkpt lat="45.55348" lon="-73.58018">
        <ele>36</ele>
        <time>2015-09-27T19:30:10.457Z</time>
      </trkpt>
      <trkpt lat="45.55354" lon="-73.58011">
        <ele>36</ele>
        <time>2015-09-27T19:30:11.385Z</time>
      </trkpt>
      <trkpt lat="45.55359" lon="-73.58003">
        <ele>37</ele>
        <time>2015-09-27T19:30:13.431Z</time>
      </trkpt>
      <trkpt lat="45.55362" lon="-73.57999">
        <ele>38</ele>
        <time>2015-09-27T19:30:14.385Z</time>
      </trkpt>
      <trkpt lat="45.55367" lon="-73.57996">
        <ele>38</ele>
        <time>2015-09-27T19:30:15.465Z</time>
      </trkpt>
      <trkpt lat="45.55372" lon="-73.57989">
        <ele>37</ele>
        <time>2015-09-27T19:30:16.374Z</time>
      </trkpt>
      <trkpt lat="45.55378" lon="-73.57982">
        <ele>38</ele>
        <time>2015-09-27T19:30:17.413Z</time>
      </trkpt>
      <trkpt lat="45.55385" lon="-73.57975">
        <ele>39</ele>
        <time>2015-09-27T19:30:18.387Z</time>
      </trkpt>
      <trkpt lat="45.55391" lon="-73.57973">
        <ele>39</ele>
        <time>2015-09-27T19:30:19.407Z</time>
      </trkpt>
      <trkpt lat="45.55397" lon="-73.57966">
        <ele>40</ele>
        <time>2015-09-27T19:30:20.443Z</time>
      </trkpt>
      <trkpt lat="45.55399" lon="-73.57961">
        <ele>42</ele>
        <time>2015-09-27T19:30:21.418Z</time>
      </trkpt>
      <trkpt lat="45.55407" lon="-73.5796">
        <ele>41</ele>
        <time>2015-09-27T19:30:22.396Z</time>
      </trkpt>
      <trkpt lat="45.55412" lon="-73.57955">
        <ele>42</ele>
        <time>2015-09-27T19:30:23.417Z</time>
      </trkpt>
      <trkpt lat="45.55419" lon="-73.57954">
        <ele>42</ele>
        <time>2015-09-27T19:30:24.383Z</time>
      </trkpt>
      <trkpt lat="45.55423" lon="-73.57947">
        <ele>43</ele>
        <time>2015-09-27T19:30:25.441Z</time>
      </trkpt>
      <trkpt lat="45.55429" lon="-73.57941">
        <ele>44</ele>
        <time>2015-09-27T19:30:26.416Z</time>
      </trkpt>
      <trkpt lat="45.55434" lon="-73.57936">
        <ele>43</ele>
        <time>2015-09-27T19:30:27.480Z</time>
      </trkpt>
      <trkpt lat="45.55438" lon="-73.57932">
        <ele>42</ele>
        <time>2015-09-27T19:30:28.386Z</time>
      </trkpt>
      <trkpt lat="45.55441" lon="-73.57926">
        <ele>40</ele>
        <time>2015-09-27T19:30:29.441Z</time>
      </trkpt>
      <trkpt lat="45.55446" lon="-73.57922">
        <ele>41</ele>
        <time>2015-09-27T19:30:30.445Z</time>
      </trkpt>
      <trkpt lat="45.55449" lon="-73.5792">
        <ele>39</ele>
        <time>2015-09-27T19:30:31.466Z</time>
      </trkpt>
      <trkpt lat="45.55454" lon="-73.57911">
        <ele>41</ele>
        <time>2015-09-27T19:30:32.386Z</time>
      </trkpt>
      <trkpt lat="45.55461" lon="-73.57909">
        <ele>41</ele>
        <time>2015-09-27T19:30:33.450Z</time>
      </trkpt>
      <trkpt lat="45.55471" lon="-73.5791">
        <ele>41</ele>
        <time>2015-09-27T19:30:34.391Z</time>
      </trkpt>
      <trkpt lat="45.55477" lon="-73.57904">
        <ele>41</ele>
        <time>2015-09-27T19:30:35.441Z</time>
      </trkpt>
      <trkpt lat="45.55483" lon="-73.57897">
        <ele>42</ele>
        <time>2015-09-27T19:30:36.395Z</time>
      </trkpt>
      <trkpt lat="45.55489" lon="-73.57892">
        <ele>42</ele>
        <time>2015-09-27T19:30:37.480Z</time>
      </trkpt>
      <trkpt lat="45.55493" lon="-73.57887">
        <ele>41</ele>
        <time>2015-09-27T19:30:38.387Z</time>
      </trkpt>
      <trkpt lat="45.55498" lon="-73.57883">
        <ele>40</ele>
        <time>2015-09-27T19:30:39.413Z</time>
      </trkpt>
      <trkpt lat="45.55503" lon="-73.57877">
        <ele>40</ele>
        <time>2015-09-27T19:30:40.388Z</time>
      </trkpt>
      <trkpt lat="45.55509" lon="-73.57872">
        <ele>39</ele>
        <time>2015-09-27T19:30:41.414Z</time>
      </trkpt>
      <trkpt lat="45.55514" lon="-73.57868">
        <ele>39</ele>
        <time>2015-09-27T19:30:42.383Z</time>
      </trkpt>
      <trkpt lat="45.55519" lon="-73.57863">
        <ele>36</ele>
        <time>2015-09-27T19:30:43.457Z</time>
      </trkpt>
      <trkpt lat="45.55525" lon="-73.5786">
        <ele>36</ele>
        <time>2015-09-27T19:30:44.392Z</time>
      </trkpt>
      <trkpt lat="45.55529" lon="-73.57854">
        <ele>38</ele>
        <time>2015-09-27T19:30:45.411Z</time>
      </trkpt>
      <trkpt lat="45.55535" lon="-73.57853">
        <ele>39</ele>
        <time>2015-09-27T19:30:46.382Z</time>
      </trkpt>
      <trkpt lat="45.55539" lon="-73.57848">
        <ele>38</ele>
        <time>2015-09-27T19:30:47.487Z</time>
      </trkpt>
      <trkpt lat="45.55543" lon="-73.57844">
        <ele>37</ele>
        <time>2015-09-27T19:30:48.374Z</time>
      </trkpt>
      <trkpt lat="45.5555" lon="-73.57842">
        <ele>35</ele>
        <time>2015-09-27T19:30:49.398Z</time>
      </trkpt>
      <trkpt lat="45.55554" lon="-73.57837">
        <ele>34</ele>
        <time>2015-09-27T19:30:50.386Z</time>
      </trkpt>
      <trkpt lat="45.55557" lon="-73.57832">
        <ele>34</ele>
        <time>2015-09-27T19:30:51.399Z</time>
      </trkpt>
      <trkpt lat="45.55562" lon="-73.57827">
        <ele>35</ele>
        <time>2015-09-27T19:30:52.376Z</time>
      </trkpt>
      <trkpt lat="45.55567" lon="-73.57821">
        <ele>35</ele>
        <time>2015-09-27T19:30:53.418Z</time>
      </trkpt>
      <trkpt lat="45.5557" lon="-73.57818">
        <ele>38</ele>
        <time>2015-09-27T19:30:54.375Z</time>
      </trkpt>
      <trkpt lat="45.55574" lon="-73.57812">
        <ele>37</ele>
        <time>2015-09-27T19:30:55.399Z</time>
      </trkpt>
      <trkpt lat="45.55578" lon="-73.57808">
        <ele>38</ele>
        <time>2015-09-27T19:30:56.373Z</time>
      </trkpt>
      <trkpt lat="45.55582" lon="-73.57803">
        <ele>38</ele>
        <time>2015-09-27T19:30:57.399Z</time>
      </trkpt>
      <trkpt lat="45.55591" lon="-73.578">
        <ele>39</ele>
        <time>2015-09-27T19:30:58.377Z</time>
      </trkpt>
      <trkpt lat="45.55599" lon="-73.57799">
        <ele>39</ele>
        <time>2015-09-27T19:30:59.441Z</time>
      </trkpt>
      <trkpt lat="45.55605" lon="-73.57795">
        <ele>41</ele>
        <time>2015-09-27T19:31:00.392Z</time>
      </trkpt>
      <trkpt lat="45.5561" lon="-73.57792">
        <ele>41</ele>
        <time>2015-09-27T19:31:01.465Z</time>
      </trkpt>
      <trkpt lat="45.55612" lon="-73.57785">
        <ele>38</ele>
        <time>2015-09-27T19:31:02.416Z</time>
      </trkpt>
      <trkpt lat="45.55615" lon="-73.57782">
        <ele>38</ele>
        <time>2015-09-27T19:31:03.407Z</time>
      </trkpt>
      <trkpt lat="45.55621" lon="-73.57778">
        <ele>38</ele>
        <time>2015-09-27T19:31:04.389Z</time>
      </trkpt>
      <trkpt lat="45.55628" lon="-73.57777">
        <ele>38</ele>
        <time>2015-09-27T19:31:05.467Z</time>
      </trkpt>
      <trkpt lat="45.55631" lon="-73.5777">
        <ele>39</ele>
        <time>2015-09-27T19:31:06.391Z</time>
      </trkpt>
      <trkpt lat="45.55636" lon="-73.57764">
        <ele>38</ele>
        <time>2015-09-27T19:31:07.442Z</time>
      </trkpt>
      <trkpt lat="45.55641" lon="-73.57762">
        <ele>37</ele>
        <time>2015-09-27T19:31:08.383Z</time>
      </trkpt>
      <trkpt lat="45.55648" lon="-73.57756">
        <ele>35</ele>
        <time>2015-09-27T19:31:10.412Z</time>
      </trkpt>
      <trkpt lat="45.55651" lon="-73.57754">
        <ele>35</ele>
        <time>2015-09-27T19:31:11.383Z</time>
      </trkpt>
      <trkpt lat="45.55654" lon="-73.57745">
        <ele>37</ele>
        <time>2015-09-27T19:31:14.444Z</time>
      </trkpt>
      <trkpt lat="45.55656" lon="-73.57742">
        <ele>36</ele>
        <time>2015-09-27T19:31:15.391Z</time>
      </trkpt>
      <trkpt lat="45.55663" lon="-73.57744">
        <ele>36</ele>
        <time>2015-09-27T19:31:17.442Z</time>
      </trkpt>
      <trkpt lat="45.5567" lon="-73.5775">
        <ele>36</ele>
        <time>2015-09-27T19:31:18.393Z</time>
      </trkpt>
      <trkpt lat="45.55674" lon="-73.57742">
        <ele>36</ele>
        <time>2015-09-27T19:31:19.441Z</time>
      </trkpt>
      <trkpt lat="45.55677" lon="-73.57732">
        <ele>34</ele>
        <time>2015-09-27T19:31:20.383Z</time>
      </trkpt>
      <trkpt lat="45.55681" lon="-73.57725">
        <ele>32</ele>
        <time>2015-09-27T19:31:21.392Z</time>
      </trkpt>
      <trkpt lat="45.55686" lon="-73.57722">
        <ele>32</ele>
        <time>2015-09-27T19:31:22.386Z</time>
      </trkpt>
      <trkpt lat="45.55691" lon="-73.57721">
        <ele>33</ele>
        <time>2015-09-27T19:31:23.415Z</time>
      </trkpt>
      <trkpt lat="45.55697" lon="-73.57718">
        <ele>34</ele>
        <time>2015-09-27T19:31:24.373Z</time>
      </trkpt>
      <trkpt lat="45.55701" lon="-73.57714">
        <ele>33</ele>
        <time>2015-09-27T19:31:25.391Z</time>
      </trkpt>
      <trkpt lat="45.55705" lon="-73.57709">
        <ele>34</ele>
        <time>2015-09-27T19:31:26.374Z</time>
      </trkpt>
      <trkpt lat="45.55709" lon="-73.57703">
        <ele>33</ele>
        <time>2015-09-27T19:31:27.444Z</time>
      </trkpt>
      <trkpt lat="45.55715" lon="-73.57699">
        <ele>31</ele>
        <time>2015-09-27T19:31:28.374Z</time>
      </trkpt>
      <trkpt lat="45.55721" lon="-73.57694">
        <ele>32</ele>
        <time>2015-09-27T19:31:29.408Z</time>
      </trkpt>
      <trkpt lat="45.55725" lon="-73.57689">
        <ele>35</ele>
        <time>2015-09-27T19:31:30.373Z</time>
      </trkpt>
      <trkpt lat="45.5573" lon="-73.57683">
        <ele>35</ele>
        <time>2015-09-27T19:31:31.398Z</time>
      </trkpt>
      <trkpt lat="45.55735" lon="-73.57679">
        <ele>34</ele>
        <time>2015-09-27T19:31:32.381Z</time>
      </trkpt>
      <trkpt lat="45.55739" lon="-73.57672">
        <ele>35</ele>
        <time>2015-09-27T19:31:33.458Z</time>
      </trkpt>
      <trkpt lat="45.55744" lon="-73.57667">
        <ele>34</ele>
        <time>2015-09-27T19:31:34.388Z</time>
      </trkpt>
      <trkpt lat="45.55749" lon="-73.57664">
        <ele>34</ele>
        <time>2015-09-27T19:31:35.420Z</time>
      </trkpt>
      <trkpt lat="45.55753" lon="-73.57661">
        <ele>32</ele>
        <time>2015-09-27T19:31:36.382Z</time>
      </trkpt>
      <trkpt lat="45.55757" lon="-73.57657">
        <ele>35</ele>
        <time>2015-09-27T19:31:37.401Z</time>
      </trkpt>
      <trkpt lat="45.5576" lon="-73.57652">
        <ele>34</ele>
        <time>2015-09-27T19:31:38.383Z</time>
      </trkpt>
      <trkpt lat="45.55764" lon="-73.57647">
        <ele>35</ele>
        <time>2015-09-27T19:31:39.472Z</time>
      </trkpt>
      <trkpt lat="45.5577" lon="-73.57643">
        <ele>34</ele>
        <time>2015-09-27T19:31:40.383Z</time>
      </trkpt>
      <trkpt lat="45.55774" lon="-73.57639">
        <ele>36</ele>
        <time>2015-09-27T19:31:41.404Z</time>
      </trkpt>
      <trkpt lat="45.55779" lon="-73.57635">
        <ele>35</ele>
        <time>2015-09-27T19:31:42.386Z</time>
      </trkpt>
      <trkpt lat="45.55786" lon="-73.57628">
        <ele>35</ele>
        <time>2015-09-27T19:31:44.639Z</time>
      </trkpt>
      <trkpt lat="45.55791" lon="-73.57625">
        <ele>35</ele>
        <time>2015-09-27T19:31:45.374Z</time>
      </trkpt>
      <trkpt lat="45.55794" lon="-73.5762">
        <ele>35</ele>
        <time>2015-09-27T19:31:46.487Z</time>
      </trkpt>
      <trkpt lat="45.55797" lon="-73.57615">
        <ele>35</ele>
        <time>2015-09-27T19:31:47.382Z</time>
      </trkpt>
      <trkpt lat="45.55801" lon="-73.57612">
        <ele>34</ele>
        <time>2015-09-27T19:31:48.411Z</time>
      </trkpt>
      <trkpt lat="45.55805" lon="-73.57606">
        <ele>34</ele>
        <time>2015-09-27T19:31:49.397Z</time>
      </trkpt>
      <trkpt lat="45.55812" lon="-73.576">
        <ele>35</ele>
        <time>2015-09-27T19:31:51.500Z</time>
      </trkpt>
      <trkpt lat="45.55814" lon="-73.57594">
        <ele>35</ele>
        <time>2015-09-27T19:31:52.385Z</time>
      </trkpt>
      <trkpt lat="45.55821" lon="-73.57587">
        <ele>36</ele>
        <time>2015-09-27T19:31:54.450Z</time>
      </trkpt>
      <trkpt lat="45.55825" lon="-73.57583">
        <ele>36</ele>
        <time>2015-09-27T19:31:55.398Z</time>
      </trkpt>
      <trkpt lat="45.55833" lon="-73.57583">
        <ele>36</ele>
        <time>2015-09-27T19:31:56.492Z</time>
      </trkpt>
      <trkpt lat="45.55838" lon="-73.5758">
        <ele>35</ele>
        <time>2015-09-27T19:31:57.391Z</time>
      </trkpt>
      <trkpt lat="45.55845" lon="-73.57579">
        <ele>34</ele>
        <time>2015-09-27T19:31:58.498Z</time>
      </trkpt>
      <trkpt lat="45.5585" lon="-73.57578">
        <ele>35</ele>
        <time>2015-09-27T19:31:59.390Z</time>
      </trkpt>
      <trkpt lat="45.55854" lon="-73.57573">
        <ele>35</ele>
        <time>2015-09-27T19:32:00.458Z</time>
      </trkpt>
      <trkpt lat="45.55858" lon="-73.57569">
        <ele>35</ele>
        <time>2015-09-27T19:32:01.394Z</time>
      </trkpt>
      <trkpt lat="45.55864" lon="-73.57566">
        <ele>35</ele>
        <time>2015-09-27T19:32:02.418Z</time>
      </trkpt>
      <trkpt lat="45.55867" lon="-73.57562">
        <ele>35</ele>
        <time>2015-09-27T19:32:03.393Z</time>
      </trkpt>
      <trkpt lat="45.55872" lon="-73.57558">
        <ele>34</ele>
        <time>2015-09-27T19:32:04.423Z</time>
      </trkpt>
      <trkpt lat="45.55877" lon="-73.57556">
        <ele>34</ele>
        <time>2015-09-27T19:32:05.393Z</time>
      </trkpt>
      <trkpt lat="45.55881" lon="-73.57552">
        <ele>34</ele>
        <time>2015-09-27T19:32:06.421Z</time>
      </trkpt>
      <trkpt lat="45.55887" lon="-73.5755">
        <ele>33</ele>
        <time>2015-09-27T19:32:07.377Z</time>
      </trkpt>
      <trkpt lat="45.5589" lon="-73.57546">
        <ele>32</ele>
        <time>2015-09-27T19:32:08.465Z</time>
      </trkpt>
      <trkpt lat="45.55895" lon="-73.57543">
        <ele>32</ele>
        <time>2015-09-27T19:32:09.395Z</time>
      </trkpt>
      <trkpt lat="45.55898" lon="-73.57537">
        <ele>32</ele>
        <time>2015-09-27T19:32:10.422Z</time>
      </trkpt>
      <trkpt lat="45.55902" lon="-73.57532">
        <ele>32</ele>
        <time>2015-09-27T19:32:11.396Z</time>
      </trkpt>
      <trkpt lat="45.55905" lon="-73.57528">
        <ele>32</ele>
        <time>2015-09-27T19:32:12.582Z</time>
      </trkpt>
      <trkpt lat="45.55909" lon="-73.57522">
        <ele>31</ele>
        <time>2015-09-27T19:32:13.383Z</time>
      </trkpt>
      <trkpt lat="45.55914" lon="-73.5752">
        <ele>31</ele>
        <time>2015-09-27T19:32:14.398Z</time>
      </trkpt>
      <trkpt lat="45.55917" lon="-73.57515">
        <ele>30</ele>
        <time>2015-09-27T19:32:15.386Z</time>
      </trkpt>
      <trkpt lat="45.55921" lon="-73.57512">
        <ele>31</ele>
        <time>2015-09-27T19:32:16.448Z</time>
      </trkpt>
      <trkpt lat="45.55926" lon="-73.57506">
        <ele>32</ele>
        <time>2015-09-27T19:32:17.374Z</time>
      </trkpt>
      <trkpt lat="45.55933" lon="-73.57499">
        <ele>30</ele>
        <time>2015-09-27T19:32:19.439Z</time>
      </trkpt>
      <trkpt lat="45.55936" lon="-73.57495">
        <ele>30</ele>
        <time>2015-09-27T19:32:20.385Z</time>
      </trkpt>
      <trkpt lat="45.55941" lon="-73.5749">
        <ele>28</ele>
        <time>2015-09-27T19:32:21.440Z</time>
      </trkpt>
      <trkpt lat="45.55946" lon="-73.57486">
        <ele>27</ele>
        <time>2015-09-27T19:32:22.387Z</time>
      </trkpt>
      <trkpt lat="45.55951" lon="-73.57482">
        <ele>28</ele>
        <time>2015-09-27T19:32:23.403Z</time>
      </trkpt>
      <trkpt lat="45.55955" lon="-73.57479">
        <ele>28</ele>
        <time>2015-09-27T19:32:24.402Z</time>
      </trkpt>
      <trkpt lat="45.5596" lon="-73.57474">
        <ele>28</ele>
        <time>2015-09-27T19:32:25.413Z</time>
      </trkpt>
      <trkpt lat="45.55965" lon="-73.57471">
        <ele>30</ele>
        <time>2015-09-27T19:32:26.383Z</time>
      </trkpt>
      <trkpt lat="45.55969" lon="-73.57467">
        <ele>30</ele>
        <time>2015-09-27T19:32:27.419Z</time>
      </trkpt>
      <trkpt lat="45.55973" lon="-73.57463">
        <ele>30</ele>
        <time>2015-09-27T19:32:28.382Z</time>
      </trkpt>
      <trkpt lat="45.55977" lon="-73.57459">
        <ele>29</ele>
        <time>2015-09-27T19:32:29.408Z</time>
      </trkpt>
      <trkpt lat="45.55983" lon="-73.57456">
        <ele>29</ele>
        <time>2015-09-27T19:32:30.384Z</time>
      </trkpt>
      <trkpt lat="45.55987" lon="-73.57453">
        <ele>30</ele>
        <time>2015-09-27T19:32:31.423Z</time>
      </trkpt>
      <trkpt lat="45.55992" lon="-73.57449">
        <ele>30</ele>
        <time>2015-09-27T19:32:32.383Z</time>
      </trkpt>
      <trkpt lat="45.55996" lon="-73.57446">
        <ele>32</ele>
        <time>2015-09-27T19:32:33.445Z</time>
      </trkpt>
      <trkpt lat="45.56001" lon="-73.57442">
        <ele>31</ele>
        <time>2015-09-27T19:32:34.392Z</time>
      </trkpt>
      <trkpt lat="45.56005" lon="-73.57439">
        <ele>32</ele>
        <time>2015-09-27T19:32:35.414Z</time>
      </trkpt>
      <trkpt lat="45.56009" lon="-73.57435">
        <ele>32</ele>
        <time>2015-09-27T19:32:36.388Z</time>
      </trkpt>
      <trkpt lat="45.56014" lon="-73.5743">
        <ele>32</ele>
        <time>2015-09-27T19:32:37.433Z</time>
      </trkpt>
      <trkpt lat="45.56018" lon="-73.57427">
        <ele>31</ele>
        <time>2015-09-27T19:32:38.389Z</time>
      </trkpt>
      <trkpt lat="45.56023" lon="-73.57422">
        <ele>30</ele>
        <time>2015-09-27T19:32:39.414Z</time>
      </trkpt>
      <trkpt lat="45.56028" lon="-73.57419">
        <ele>30</ele>
        <time>2015-09-27T19:32:40.387Z</time>
      </trkpt>
      <trkpt lat="45.56032" lon="-73.57415">
        <ele>31</ele>
        <time>2015-09-27T19:32:41.441Z</time>
      </trkpt>
      <trkpt lat="45.56036" lon="-73.57411">
        <ele>30</ele>
        <time>2015-09-27T19:32:42.416Z</time>
      </trkpt>
      <trkpt lat="45.56042" lon="-73.57403">
        <ele>28</ele>
        <time>2015-09-27T19:32:44.444Z</time>
      </trkpt>
      <trkpt lat="45.56045" lon="-73.574">
        <ele>29</ele>
        <time>2015-09-27T19:32:45.384Z</time>
      </trkpt>
      <trkpt lat="45.56051" lon="-73.57395">
        <ele>29</ele>
        <time>2015-09-27T19:32:47.402Z</time>
      </trkpt>
      <trkpt lat="45.56055" lon="-73.57393">
        <ele>30</ele>
        <time>2015-09-27T19:32:48.374Z</time>
      </trkpt>
      <trkpt lat="45.56061" lon="-73.57387">
        <ele>30</ele>
        <time>2015-09-27T19:33:30.402Z</time>
      </trkpt>
      <trkpt lat="45.56063" lon="-73.57385">
        <ele>29</ele>
        <time>2015-09-27T19:33:31.381Z</time>
      </trkpt>
      <trkpt lat="45.56069" lon="-73.57382">
        <ele>27</ele>
        <time>2015-09-27T19:33:33.443Z</time>
      </trkpt>
      <trkpt lat="45.56072" lon="-73.57379">
        <ele>26</ele>
        <time>2015-09-27T19:33:34.389Z</time>
      </trkpt>
      <trkpt lat="45.56077" lon="-73.57372">
        <ele>26</ele>
        <time>2015-09-27T19:33:36.452Z</time>
      </trkpt>
      <trkpt lat="45.56081" lon="-73.5737">
        <ele>27</ele>
        <time>2015-09-27T19:33:37.383Z</time>
      </trkpt>
      <trkpt lat="45.56085" lon="-73.57367">
        <ele>27</ele>
        <time>2015-09-27T19:33:38.444Z</time>
      </trkpt>
      <trkpt lat="45.56089" lon="-73.57364">
        <ele>29</ele>
        <time>2015-09-27T19:33:39.395Z</time>
      </trkpt>
      <trkpt lat="45.56096" lon="-73.57357">
        <ele>29</ele>
        <time>2015-09-27T19:33:41.668Z</time>
      </trkpt>
      <trkpt lat="45.56099" lon="-73.57352">
        <ele>30</ele>
        <time>2015-09-27T19:33:42.375Z</time>
      </trkpt>
      <trkpt lat="45.56103" lon="-73.57349">
        <ele>30</ele>
        <time>2015-09-27T19:33:43.407Z</time>
      </trkpt>
      <trkpt lat="45.56108" lon="-73.57345">
        <ele>30</ele>
        <time>2015-09-27T19:33:44.372Z</time>
      </trkpt>
      <trkpt lat="45.56113" lon="-73.57341">
        <ele>32</ele>
        <time>2015-09-27T19:33:45.463Z</time>
      </trkpt>
      <trkpt lat="45.56119" lon="-73.57339">
        <ele>32</ele>
        <time>2015-09-27T19:33:46.373Z</time>
      </trkpt>
      <trkpt lat="45.56126" lon="-73.57333">
        <ele>34</ele>
        <time>2015-09-27T19:33:48.400Z</time>
      </trkpt>
      <trkpt lat="45.56131" lon="-73.57324">
        <ele>34</ele>
        <time>2015-09-27T19:33:49.374Z</time>
      </trkpt>
      <trkpt lat="45.56134" lon="-73.5732">
        <ele>33</ele>
        <time>2015-09-27T19:33:50.445Z</time>
      </trkpt>
      <trkpt lat="45.56138" lon="-73.57315">
        <ele>34</ele>
        <time>2015-09-27T19:33:51.434Z</time>
      </trkpt>
      <trkpt lat="45.56146" lon="-73.57308">
        <ele>31</ele>
        <time>2015-09-27T19:33:53.520Z</time>
      </trkpt>
      <trkpt lat="45.56151" lon="-73.57301">
        <ele>30</ele>
        <time>2015-09-27T19:33:54.374Z</time>
      </trkpt>
      <trkpt lat="45.56155" lon="-73.57301">
        <ele>29</ele>
        <time>2015-09-27T19:33:55.407Z</time>
      </trkpt>
      <trkpt lat="45.56161" lon="-73.57295">
        <ele>28</ele>
        <time>2015-09-27T19:33:56.374Z</time>
      </trkpt>
      <trkpt lat="45.56164" lon="-73.5729">
        <ele>28</ele>
        <time>2015-09-27T19:33:57.440Z</time>
      </trkpt>
      <trkpt lat="45.56169" lon="-73.57288">
        <ele>28</ele>
        <time>2015-09-27T19:33:58.386Z</time>
      </trkpt>
      <trkpt lat="45.56176" lon="-73.5728">
        <ele>28</ele>
        <time>2015-09-27T19:34:00.406Z</time>
      </trkpt>
      <trkpt lat="45.5618" lon="-73.57277">
        <ele>29</ele>
        <time>2015-09-27T19:34:01.373Z</time>
      </trkpt>
      <trkpt lat="45.56185" lon="-73.57274">
        <ele>28</ele>
        <time>2015-09-27T19:34:02.452Z</time>
      </trkpt>
      <trkpt lat="45.56189" lon="-73.57267">
        <ele>28</ele>
        <time>2015-09-27T19:34:03.411Z</time>
      </trkpt>
      <trkpt lat="45.56194" lon="-73.57265">
        <ele>28</ele>
        <time>2015-09-27T19:34:04.447Z</time>
      </trkpt>
      <trkpt lat="45.56201" lon="-73.57262">
        <ele>28</ele>
        <time>2015-09-27T19:34:05.393Z</time>
      </trkpt>
      <trkpt lat="45.56206" lon="-73.57262">
        <ele>29</ele>
        <time>2015-09-27T19:34:06.406Z</time>
      </trkpt>
      <trkpt lat="45.56214" lon="-73.57255">
        <ele>28</ele>
        <time>2015-09-27T19:34:07.383Z</time>
      </trkpt>
      <trkpt lat="45.56219" lon="-73.57247">
        <ele>29</ele>
        <time>2015-09-27T19:34:08.440Z</time>
      </trkpt>
      <trkpt lat="45.56223" lon="-73.57245">
        <ele>29</ele>
        <time>2015-09-27T19:34:09.390Z</time>
      </trkpt>
      <trkpt lat="45.56228" lon="-73.57238">
        <ele>28</ele>
        <time>2015-09-27T19:34:10.447Z</time>
      </trkpt>
      <trkpt lat="45.56231" lon="-73.57232">
        <ele>26</ele>
        <time>2015-09-27T19:34:11.385Z</time>
      </trkpt>
      <trkpt lat="45.56235" lon="-73.57226">
        <ele>26</ele>
        <time>2015-09-27T19:34:12.448Z</time>
      </trkpt>
      <trkpt lat="45.56243" lon="-73.57222">
        <ele>27</ele>
        <time>2015-09-27T19:34:13.373Z</time>
      </trkpt>
      <trkpt lat="45.56248" lon="-73.57218">
        <ele>27</ele>
        <time>2015-09-27T19:34:14.428Z</time>
      </trkpt>
      <trkpt lat="45.56255" lon="-73.57214">
        <ele>29</ele>
        <time>2015-09-27T19:34:15.375Z</time>
      </trkpt>
      <trkpt lat="45.56261" lon="-73.57211">
        <ele>30</ele>
        <time>2015-09-27T19:34:16.391Z</time>
      </trkpt>
      <trkpt lat="45.56267" lon="-73.57206">
        <ele>31</ele>
        <time>2015-09-27T19:34:17.375Z</time>
      </trkpt>
      <trkpt lat="45.56271" lon="-73.57199">
        <ele>31</ele>
        <time>2015-09-27T19:34:18.440Z</time>
      </trkpt>
      <trkpt lat="45.56277" lon="-73.57194">
        <ele>32</ele>
        <time>2015-09-27T19:34:19.389Z</time>
      </trkpt>
      <trkpt lat="45.56281" lon="-73.57187">
        <ele>33</ele>
        <time>2015-09-27T19:34:20.412Z</time>
      </trkpt>
      <trkpt lat="45.56288" lon="-73.57182">
        <ele>32</ele>
        <time>2015-09-27T19:34:21.383Z</time>
      </trkpt>
      <trkpt lat="45.56288" lon="-73.57182">
        <ele>32</ele>
        <time>2015-09-27T19:34:21.401Z</time>
      </trkpt>
      <trkpt lat="45.56297" lon="-73.57177">
        <ele>32</ele>
        <time>2015-09-27T19:34:22.390Z</time>
      </trkpt>
      <trkpt lat="45.56303" lon="-73.57171">
        <ele>31</ele>
        <time>2015-09-27T19:34:23.433Z</time>
      </trkpt>
      <trkpt lat="45.56309" lon="-73.57166">
        <ele>31</ele>
        <time>2015-09-27T19:34:24.375Z</time>
      </trkpt>
      <trkpt lat="45.56317" lon="-73.57162">
        <ele>30</ele>
        <time>2015-09-27T19:34:25.447Z</time>
      </trkpt>
      <trkpt lat="45.56325" lon="-73.57158">
        <ele>31</ele>
        <time>2015-09-27T19:34:26.391Z</time>
      </trkpt>
      <trkpt lat="45.56331" lon="-73.57151">
        <ele>30</ele>
        <time>2015-09-27T19:34:27.444Z</time>
      </trkpt>
      <trkpt lat="45.56337" lon="-73.57146">
        <ele>29</ele>
        <time>2015-09-27T19:34:28.390Z</time>
      </trkpt>
      <trkpt lat="45.56343" lon="-73.57142">
        <ele>31</ele>
        <time>2015-09-27T19:34:29.404Z</time>
      </trkpt>
      <trkpt lat="45.56349" lon="-73.57136">
        <ele>32</ele>
        <time>2015-09-27T19:34:30.382Z</time>
      </trkpt>
      <trkpt lat="45.56356" lon="-73.57134">
        <ele>32</ele>
        <time>2015-09-27T19:34:31.411Z</time>
      </trkpt>
      <trkpt lat="45.5636" lon="-73.57126">
        <ele>33</ele>
        <time>2015-09-27T19:34:32.387Z</time>
      </trkpt>
      <trkpt lat="45.56363" lon="-73.57121">
        <ele>30</ele>
        <time>2015-09-27T19:34:33.423Z</time>
      </trkpt>
      <trkpt lat="45.56367" lon="-73.57115">
        <ele>30</ele>
        <time>2015-09-27T19:34:34.387Z</time>
      </trkpt>
      <trkpt lat="45.56372" lon="-73.57113">
        <ele>29</ele>
        <time>2015-09-27T19:34:35.486Z</time>
      </trkpt>
      <trkpt lat="45.56376" lon="-73.57108">
        <ele>28</ele>
        <time>2015-09-27T19:34:36.388Z</time>
      </trkpt>
      <trkpt lat="45.56381" lon="-73.57103">
        <ele>27</ele>
        <time>2015-09-27T19:34:37.427Z</time>
      </trkpt>
      <trkpt lat="45.56388" lon="-73.57098">
        <ele>29</ele>
        <time>2015-09-27T19:34:38.395Z</time>
      </trkpt>
      <trkpt lat="45.56391" lon="-73.57089">
        <ele>28</ele>
        <time>2015-09-27T19:34:40.406Z</time>
      </trkpt>
      <trkpt lat="45.56397" lon="-73.57086">
        <ele>28</ele>
        <time>2015-09-27T19:34:41.380Z</time>
      </trkpt>
      <trkpt lat="45.56401" lon="-73.5708">
        <ele>27</ele>
        <time>2015-09-27T19:34:42.398Z</time>
      </trkpt>
      <trkpt lat="45.56405" lon="-73.57076">
        <ele>28</ele>
        <time>2015-09-27T19:34:43.374Z</time>
      </trkpt>
      <trkpt lat="45.56413" lon="-73.5707">
        <ele>26</ele>
        <time>2015-09-27T19:34:45.412Z</time>
      </trkpt>
      <trkpt lat="45.56417" lon="-73.57067">
        <ele>25</ele>
        <time>2015-09-27T19:34:46.373Z</time>
      </trkpt>
      <trkpt lat="45.56423" lon="-73.57062">
        <ele>24</ele>
        <time>2015-09-27T19:34:48.435Z</time>
      </trkpt>
      <trkpt lat="45.56427" lon="-73.57059">
        <ele>24</ele>
        <time>2015-09-27T19:34:49.374Z</time>
      </trkpt>
      <trkpt lat="45.56433" lon="-73.57055">
        <ele>23</ele>
        <time>2015-09-27T19:34:51.397Z</time>
      </trkpt>
      <trkpt lat="45.56434" lon="-73.57051">
        <ele>23</ele>
        <time>2015-09-27T19:34:52.374Z</time>
      </trkpt>
      <trkpt lat="45.56437" lon="-73.57043">
        <ele>21</ele>
        <time>2015-09-27T19:34:53.453Z</time>
      </trkpt>
      <trkpt lat="45.56436" lon="-73.57038">
        <ele>21</ele>
        <time>2015-09-27T19:34:54.383Z</time>
      </trkpt>
      <trkpt lat="45.56441" lon="-73.57027">
        <ele>23</ele>
        <time>2015-09-27T19:34:56.457Z</time>
      </trkpt>
      <trkpt lat="45.56443" lon="-73.57021">
        <ele>24</ele>
        <time>2015-09-27T19:34:57.382Z</time>
      </trkpt>
      <trkpt lat="45.56446" lon="-73.57016">
        <ele>26</ele>
        <time>2015-09-27T19:34:58.405Z</time>
      </trkpt>
      <trkpt lat="45.56451" lon="-73.57013">
        <ele>25</ele>
        <time>2015-09-27T19:34:59.386Z</time>
      </trkpt>
      <trkpt lat="45.56457" lon="-73.57006">
        <ele>24</ele>
        <time>2015-09-27T19:35:01.449Z</time>
      </trkpt>
      <trkpt lat="45.56461" lon="-73.57005">
        <ele>23</ele>
        <time>2015-09-27T19:35:02.391Z</time>
      </trkpt>
      <trkpt lat="45.56467" lon="-73.57001">
        <ele>21</ele>
        <time>2015-09-27T19:35:04.449Z</time>
      </trkpt>
      <trkpt lat="45.5647" lon="-73.56998">
        <ele>21</ele>
        <time>2015-09-27T19:35:05.383Z</time>
      </trkpt>
      <trkpt lat="45.56463" lon="-73.57004">
        <ele>23</ele>
        <time>2015-09-27T19:35:12.461Z</time>
      </trkpt>
      <trkpt lat="45.56462" lon="-73.57003">
        <ele>23</ele>
        <time>2015-09-27T19:35:13.390Z</time>
      </trkpt>
      <trkpt lat="45.5647" lon="-73.57008">
        <ele>25</ele>
        <time>2015-09-27T19:35:23.426Z</time>
      </trkpt>
      <trkpt lat="45.56471" lon="-73.57011">
        <ele>26</ele>
        <time>2015-09-27T19:35:24.882Z</time>
      </trkpt>
      <trkpt lat="45.56478" lon="-73.57012">
        <ele>21</ele>
        <time>2015-09-27T19:35:33.459Z</time>
      </trkpt>
      <trkpt lat="45.56481" lon="-73.57012">
        <ele>21</ele>
        <time>2015-09-27T19:35:34.374Z</time>
      </trkpt>
      <trkpt lat="45.56487" lon="-73.57008">
        <ele>20</ele>
        <time>2015-09-27T19:35:36.411Z</time>
      </trkpt>
      <trkpt lat="45.56491" lon="-73.57004">
        <ele>18</ele>
        <time>2015-09-27T19:35:37.373Z</time>
      </trkpt>
      <trkpt lat="45.56496" lon="-73.57">
        <ele>21</ele>
        <time>2015-09-27T19:35:38.466Z</time>
      </trkpt>
      <trkpt lat="45.56506" lon="-73.56992">
        <ele>21</ele>
        <time>2015-09-27T19:35:39.373Z</time>
      </trkpt>
      <trkpt lat="45.56511" lon="-73.56988">
        <ele>20</ele>
        <time>2015-09-27T19:35:40.457Z</time>
      </trkpt>
      <trkpt lat="45.56517" lon="-73.56982">
        <ele>20</ele>
        <time>2015-09-27T19:35:41.380Z</time>
      </trkpt>
      <trkpt lat="45.56522" lon="-73.56977">
        <ele>20</ele>
        <time>2015-09-27T19:35:42.422Z</time>
      </trkpt>
      <trkpt lat="45.56528" lon="-73.56972">
        <ele>21</ele>
        <time>2015-09-27T19:35:43.374Z</time>
      </trkpt>
      <trkpt lat="45.56531" lon="-73.56968">
        <ele>20</ele>
        <time>2015-09-27T19:35:44.404Z</time>
      </trkpt>
      <trkpt lat="45.56535" lon="-73.56962">
        <ele>21</ele>
        <time>2015-09-27T19:35:45.374Z</time>
      </trkpt>
      <trkpt lat="45.56542" lon="-73.56959">
        <ele>20</ele>
        <time>2015-09-27T19:35:46.422Z</time>
      </trkpt>
      <trkpt lat="45.56547" lon="-73.56955">
        <ele>21</ele>
        <time>2015-09-27T19:35:47.374Z</time>
      </trkpt>
      <trkpt lat="45.56551" lon="-73.56949">
        <ele>20</ele>
        <time>2015-09-27T19:35:48.443Z</time>
      </trkpt>
      <trkpt lat="45.56557" lon="-73.56943">
        <ele>20</ele>
        <time>2015-09-27T19:35:49.373Z</time>
      </trkpt>
      <trkpt lat="45.56561" lon="-73.56937">
        <ele>19</ele>
        <time>2015-09-27T19:35:50.441Z</time>
      </trkpt>
      <trkpt lat="45.56566" lon="-73.56932">
        <ele>18</ele>
        <time>2015-09-27T19:35:51.383Z</time>
      </trkpt>
      <trkpt lat="45.56572" lon="-73.56929">
        <ele>18</ele>
        <time>2015-09-27T19:35:52.407Z</time>
      </trkpt>
      <trkpt lat="45.56577" lon="-73.56925">
        <ele>18</ele>
        <time>2015-09-27T19:35:53.373Z</time>
      </trkpt>
      <trkpt lat="45.56582" lon="-73.56918">
        <ele>19</ele>
        <time>2015-09-27T19:35:55.404Z</time>
      </trkpt>
      <trkpt lat="45.56583" lon="-73.56912">
        <ele>20</ele>
        <time>2015-09-27T19:35:56.373Z</time>
      </trkpt>
      <trkpt lat="45.56582" lon="-73.56901">
        <ele>20</ele>
        <time>2015-09-27T19:35:58.441Z</time>
      </trkpt>
      <trkpt lat="45.56582" lon="-73.56895">
        <ele>20</ele>
        <time>2015-09-27T19:35:59.374Z</time>
      </trkpt>
      <trkpt lat="45.56587" lon="-73.56887">
        <ele>21</ele>
        <time>2015-09-27T19:36:02.417Z</time>
      </trkpt>
      <trkpt lat="45.5659" lon="-73.56885">
        <ele>20</ele>
        <time>2015-09-27T19:36:03.374Z</time>
      </trkpt>
      <trkpt lat="45.56596" lon="-73.56878">
        <ele>20</ele>
        <time>2015-09-27T19:36:05.415Z</time>
      </trkpt>
      <trkpt lat="45.56598" lon="-73.56874">
        <ele>19</ele>
        <time>2015-09-27T19:36:06.386Z</time>
      </trkpt>
      <trkpt lat="45.56605" lon="-73.56867">
        <ele>19</ele>
        <time>2015-09-27T19:36:08.411Z</time>
      </trkpt>
      <trkpt lat="45.56612" lon="-73.56864">
        <ele>19</ele>
        <time>2015-09-27T19:36:09.376Z</time>
      </trkpt>
      <trkpt lat="45.56618" lon="-73.56861">
        <ele>20</ele>
        <time>2015-09-27T19:36:10.455Z</time>
      </trkpt>
      <trkpt lat="45.56624" lon="-73.56859">
        <ele>20</ele>
        <time>2015-09-27T19:36:11.404Z</time>
      </trkpt>
      <trkpt lat="45.5663" lon="-73.56858">
        <ele>20</ele>
        <time>2015-09-27T19:36:12.438Z</time>
      </trkpt>
      <trkpt lat="45.56633" lon="-73.56857">
        <ele>18</ele>
        <time>2015-09-27T19:36:13.385Z</time>
      </trkpt>
      <trkpt lat="45.56641" lon="-73.56853">
        <ele>19</ele>
        <time>2015-09-27T19:36:15.402Z</time>
      </trkpt>
      <trkpt lat="45.56644" lon="-73.56849">
        <ele>18</ele>
        <time>2015-09-27T19:36:16.372Z</time>
      </trkpt>
      <trkpt lat="45.56648" lon="-73.56844">
        <ele>18</ele>
        <time>2015-09-27T19:36:17.443Z</time>
      </trkpt>
      <trkpt lat="45.5665" lon="-73.56835">
        <ele>18</ele>
        <time>2015-09-27T19:36:18.373Z</time>
      </trkpt>
      <trkpt lat="45.56653" lon="-73.56825">
        <ele>21</ele>
        <time>2015-09-27T19:36:21.413Z</time>
      </trkpt>
      <trkpt lat="45.56653" lon="-73.56822">
        <ele>22</ele>
        <time>2015-09-27T19:36:22.377Z</time>
      </trkpt>
      <trkpt lat="45.56656" lon="-73.56817">
        <ele>23</ele>
        <time>2015-09-27T19:36:23.406Z</time>
      </trkpt>
      <trkpt lat="45.56661" lon="-73.56811">
        <ele>25</ele>
        <time>2015-09-27T19:36:24.383Z</time>
      </trkpt>
      <trkpt lat="45.56666" lon="-73.56808">
        <ele>26</ele>
        <time>2015-09-27T19:36:25.487Z</time>
      </trkpt>
      <trkpt lat="45.56669" lon="-73.568">
        <ele>25</ele>
        <time>2015-09-27T19:36:26.390Z</time>
      </trkpt>
      <trkpt lat="45.56674" lon="-73.56791">
        <ele>25</ele>
        <time>2015-09-27T19:36:28.421Z</time>
      </trkpt>
      <trkpt lat="45.5668" lon="-73.56788">
        <ele>25</ele>
        <time>2015-09-27T19:36:29.383Z</time>
      </trkpt>
      <trkpt lat="45.56683" lon="-73.56782">
        <ele>25</ele>
        <time>2015-09-27T19:36:30.441Z</time>
      </trkpt>
      <trkpt lat="45.56689" lon="-73.56777">
        <ele>26</ele>
        <time>2015-09-27T19:36:31.404Z</time>
      </trkpt>
      <trkpt lat="45.56693" lon="-73.5677">
        <ele>25</ele>
        <time>2015-09-27T19:36:32.440Z</time>
      </trkpt>
      <trkpt lat="45.56697" lon="-73.56765">
        <ele>25</ele>
        <time>2015-09-27T19:36:33.428Z</time>
      </trkpt>
      <trkpt lat="45.56702" lon="-73.56761">
        <ele>25</ele>
        <time>2015-09-27T19:36:34.441Z</time>
      </trkpt>
      <trkpt lat="45.56706" lon="-73.56757">
        <ele>24</ele>
        <time>2015-09-27T19:36:35.381Z</time>
      </trkpt>
      <trkpt lat="45.56713" lon="-73.56751">
        <ele>23</ele>
        <time>2015-09-27T19:36:37.404Z</time>
      </trkpt>
      <trkpt lat="45.56716" lon="-73.56745">
        <ele>24</ele>
        <time>2015-09-27T19:36:38.384Z</time>
      </trkpt>
      <trkpt lat="45.56719" lon="-73.5674">
        <ele>23</ele>
        <time>2015-09-27T19:36:39.465Z</time>
      </trkpt>
      <trkpt lat="45.56723" lon="-73.56736">
        <ele>21</ele>
        <time>2015-09-27T19:36:40.385Z</time>
      </trkpt>
      <trkpt lat="45.56727" lon="-73.56731">
        <ele>22</ele>
        <time>2015-09-27T19:36:41.442Z</time>
      </trkpt>
      <trkpt lat="45.56731" lon="-73.56726">
        <ele>22</ele>
        <time>2015-09-27T19:36:42.394Z</time>
      </trkpt>
      <trkpt lat="45.56736" lon="-73.56722">
        <ele>21</ele>
        <time>2015-09-27T19:36:43.398Z</time>
      </trkpt>
      <trkpt lat="45.56741" lon="-73.56718">
        <ele>21</ele>
        <time>2015-09-27T19:36:44.385Z</time>
      </trkpt>
      <trkpt lat="45.56746" lon="-73.56713">
        <ele>21</ele>
        <time>2015-09-27T19:36:45.467Z</time>
      </trkpt>
      <trkpt lat="45.56748" lon="-73.56704">
        <ele>21</ele>
        <time>2015-09-27T19:36:46.384Z</time>
      </trkpt>
      <trkpt lat="45.56752" lon="-73.56702">
        <ele>19</ele>
        <time>2015-09-27T19:36:47.449Z</time>
      </trkpt>
      <trkpt lat="45.56756" lon="-73.56698">
        <ele>19</ele>
        <time>2015-09-27T19:36:48.380Z</time>
      </trkpt>
      <trkpt lat="45.56759" lon="-73.56692">
        <ele>20</ele>
        <time>2015-09-27T19:36:49.401Z</time>
      </trkpt>
      <trkpt lat="45.56764" lon="-73.56689">
        <ele>18</ele>
        <time>2015-09-27T19:36:50.377Z</time>
      </trkpt>
      <trkpt lat="45.56769" lon="-73.56679">
        <ele>21</ele>
        <time>2015-09-27T19:36:52.440Z</time>
      </trkpt>
      <trkpt lat="45.56776" lon="-73.56674">
        <ele>23</ele>
        <time>2015-09-27T19:36:53.373Z</time>
      </trkpt>
      <trkpt lat="45.56779" lon="-73.56669">
        <ele>21</ele>
        <time>2015-09-27T19:36:54.400Z</time>
      </trkpt>
      <trkpt lat="45.56783" lon="-73.56663">
        <ele>21</ele>
        <time>2015-09-27T19:36:55.372Z</time>
      </trkpt>
      <trkpt lat="45.56788" lon="-73.56658">
        <ele>22</ele>
        <time>2015-09-27T19:36:56.407Z</time>
      </trkpt>
      <trkpt lat="45.56793" lon="-73.56653">
        <ele>22</ele>
        <time>2015-09-27T19:36:57.383Z</time>
      </trkpt>
      <trkpt lat="45.568" lon="-73.5665">
        <ele>23</ele>
        <time>2015-09-27T19:36:58.450Z</time>
      </trkpt>
      <trkpt lat="45.56804" lon="-73.56644">
        <ele>23</ele>
        <time>2015-09-27T19:36:59.400Z</time>
      </trkpt>
      <trkpt lat="45.5681" lon="-73.56641">
        <ele>22</ele>
        <time>2015-09-27T19:37:00.418Z</time>
      </trkpt>
      <trkpt lat="45.56815" lon="-73.56637">
        <ele>22</ele>
        <time>2015-09-27T19:37:01.384Z</time>
      </trkpt>
      <trkpt lat="45.56819" lon="-73.56633">
        <ele>21</ele>
        <time>2015-09-27T19:37:02.446Z</time>
      </trkpt>
      <trkpt lat="45.56822" lon="-73.56629">
        <ele>22</ele>
        <time>2015-09-27T19:37:03.383Z</time>
      </trkpt>
      <trkpt lat="45.56826" lon="-73.56622">
        <ele>22</ele>
        <time>2015-09-27T19:37:04.417Z</time>
      </trkpt>
      <trkpt lat="45.56828" lon="-73.56617">
        <ele>23</ele>
        <time>2015-09-27T19:37:05.389Z</time>
      </trkpt>
      <trkpt lat="45.56828" lon="-73.56606">
        <ele>23</ele>
        <time>2015-09-27T19:37:07.440Z</time>
      </trkpt>
      <trkpt lat="45.56826" lon="-73.56597">
        <ele>22</ele>
        <time>2015-09-27T19:37:08.388Z</time>
      </trkpt>
      <trkpt lat="45.56826" lon="-73.56588">
        <ele>23</ele>
        <time>2015-09-27T19:37:09.477Z</time>
      </trkpt>
      <trkpt lat="45.56824" lon="-73.56581">
        <ele>22</ele>
        <time>2015-09-27T19:37:10.382Z</time>
      </trkpt>
      <trkpt lat="45.56825" lon="-73.56578">
        <ele>22</ele>
        <time>2015-09-27T19:37:11.445Z</time>
      </trkpt>
      <trkpt lat="45.56827" lon="-73.56569">
        <ele>21</ele>
        <time>2015-09-27T19:37:12.390Z</time>
      </trkpt>
      <trkpt lat="45.56822" lon="-73.56562">
        <ele>19</ele>
        <time>2015-09-27T19:37:14.420Z</time>
      </trkpt>
      <trkpt lat="45.56822" lon="-73.56554">
        <ele>19</ele>
        <time>2015-09-27T19:37:15.387Z</time>
      </trkpt>
      <trkpt lat="45.56823" lon="-73.56548">
        <ele>19</ele>
        <time>2015-09-27T19:37:17.459Z</time>
      </trkpt>
      <trkpt lat="45.56824" lon="-73.5654">
        <ele>17</ele>
        <time>2015-09-27T19:37:18.385Z</time>
      </trkpt>
      <trkpt lat="45.56824" lon="-73.5654">
        <ele>17</ele>
        <time>2015-09-27T19:37:18.409Z</time>
      </trkpt>
      <trkpt lat="45.56821" lon="-73.56524">
        <ele>17</ele>
        <time>2015-09-27T19:37:19.384Z</time>
      </trkpt>
      <trkpt lat="45.56816" lon="-73.56516">
        <ele>16</ele>
        <time>2015-09-27T19:37:20.457Z</time>
      </trkpt>
      <trkpt lat="45.56816" lon="-73.56508">
        <ele>17</ele>
        <time>2015-09-27T19:37:21.372Z</time>
      </trkpt>
      <trkpt lat="45.56818" lon="-73.56497">
        <ele>16</ele>
        <time>2015-09-27T19:37:22.399Z</time>
      </trkpt>
      <trkpt lat="45.56816" lon="-73.56488">
        <ele>17</ele>
        <time>2015-09-27T19:37:23.372Z</time>
      </trkpt>
      <trkpt lat="45.56823" lon="-73.56485">
        <ele>21</ele>
        <time>2015-09-27T19:37:26.444Z</time>
      </trkpt>
      <trkpt lat="45.56824" lon="-73.56482">
        <ele>20</ele>
        <time>2015-09-27T19:37:27.372Z</time>
      </trkpt>
      <trkpt lat="45.56826" lon="-73.56479">
        <ele>21</ele>
        <time>2015-09-27T19:37:28.395Z</time>
      </trkpt>
      <trkpt lat="45.56825" lon="-73.56469">
        <ele>20</ele>
        <time>2015-09-27T19:37:29.375Z</time>
      </trkpt>
      <trkpt lat="45.56828" lon="-73.56459">
        <ele>23</ele>
        <time>2015-09-27T19:37:30.459Z</time>
      </trkpt>
      <trkpt lat="45.5683" lon="-73.56455">
        <ele>24</ele>
        <time>2015-09-27T19:37:31.372Z</time>
      </trkpt>
      <trkpt lat="45.56829" lon="-73.56447">
        <ele>22</ele>
        <time>2015-09-27T19:37:33.421Z</time>
      </trkpt>
      <trkpt lat="45.56825" lon="-73.56442">
        <ele>23</ele>
        <time>2015-09-27T19:37:34.383Z</time>
      </trkpt>
      <trkpt lat="45.56818" lon="-73.56439">
        <ele>22</ele>
        <time>2015-09-27T19:37:35.446Z</time>
      </trkpt>
      <trkpt lat="45.56807" lon="-73.56435">
        <ele>21</ele>
        <time>2015-09-27T19:37:36.386Z</time>
      </trkpt>
      <trkpt lat="45.56807" lon="-73.56435">
        <ele>21</ele>
        <time>2015-09-27T19:37:36.446Z</time>
      </trkpt>
      <trkpt lat="45.56813" lon="-73.56424">
        <ele>22</ele>
        <time>2015-09-27T19:37:37.389Z</time>
      </trkpt>
      <trkpt lat="45.56812" lon="-73.56415">
        <ele>24</ele>
        <time>2015-09-27T19:37:38.441Z</time>
      </trkpt>
      <trkpt lat="45.56807" lon="-73.56405">
        <ele>23</ele>
        <time>2015-09-27T19:37:39.389Z</time>
      </trkpt>
      <trkpt lat="45.56805" lon="-73.56396">
        <ele>21</ele>
        <time>2015-09-27T19:37:42.445Z</time>
      </trkpt>
      <trkpt lat="45.56802" lon="-73.56388">
        <ele>21</ele>
        <time>2015-09-27T19:37:43.380Z</time>
      </trkpt>
      <trkpt lat="45.56802" lon="-73.56388">
        <ele>21</ele>
        <time>2015-09-27T19:37:43.415Z</time>
      </trkpt>
      <trkpt lat="45.56798" lon="-73.56376">
        <ele>19</ele>
        <time>2015-09-27T19:37:44.374Z</time>
      </trkpt>
      <trkpt lat="45.56793" lon="-73.56375">
        <ele>17</ele>
        <time>2015-09-27T19:37:45.440Z</time>
      </trkpt>
      <trkpt lat="45.56794" lon="-73.56363">
        <ele>18</ele>
        <time>2015-09-27T19:37:46.384Z</time>
      </trkpt>
      <trkpt lat="45.56794" lon="-73.56363">
        <ele>18</ele>
        <time>2015-09-27T19:37:46.442Z</time>
      </trkpt>
      <trkpt lat="45.56787" lon="-73.56354">
        <ele>17</ele>
        <time>2015-09-27T19:37:47.384Z</time>
      </trkpt>
      <trkpt lat="45.56789" lon="-73.56348">
        <ele>16</ele>
        <time>2015-09-27T19:37:48.439Z</time>
      </trkpt>
      <trkpt lat="45.56779" lon="-73.56344">
        <ele>15</ele>
        <time>2015-09-27T19:37:49.372Z</time>
      </trkpt>
      <trkpt lat="45.56776" lon="-73.5634">
        <ele>13</ele>
        <time>2015-09-27T19:37:50.407Z</time>
      </trkpt>
      <trkpt lat="45.56771" lon="-73.56334">
        <ele>12</ele>
        <time>2015-09-27T19:37:51.372Z</time>
      </trkpt>
      <trkpt lat="45.56777" lon="-73.56325">
        <ele>13</ele>
        <time>2015-09-27T19:37:52.396Z</time>
      </trkpt>
      <trkpt lat="45.56776" lon="-73.56323">
        <ele>13</ele>
        <time>2015-09-27T19:37:53.372Z</time>
      </trkpt>
      <trkpt lat="45.56774" lon="-73.56311">
        <ele>15</ele>
        <time>2015-09-27T19:37:56.485Z</time>
      </trkpt>
      <trkpt lat="45.56771" lon="-73.563">
        <ele>16</ele>
        <time>2015-09-27T19:37:57.371Z</time>
      </trkpt>
      <trkpt lat="45.56768" lon="-73.56289">
        <ele>17</ele>
        <time>2015-09-27T19:37:58.443Z</time>
      </trkpt>
      <trkpt lat="45.5677" lon="-73.56285">
        <ele>18</ele>
        <time>2015-09-27T19:37:59.372Z</time>
      </trkpt>
      <trkpt lat="45.56767" lon="-73.56273">
        <ele>17</ele>
        <time>2015-09-27T19:38:01.408Z</time>
      </trkpt>
      <trkpt lat="45.56765" lon="-73.56266">
        <ele>18</ele>
        <time>2015-09-27T19:38:02.373Z</time>
      </trkpt>
      <trkpt lat="45.56761" lon="-73.5626">
        <ele>16</ele>
        <time>2015-09-27T19:38:03.402Z</time>
      </trkpt>
      <trkpt lat="45.56757" lon="-73.56252">
        <ele>16</ele>
        <time>2015-09-27T19:38:04.373Z</time>
      </trkpt>
      <trkpt lat="45.56754" lon="-73.56246">
        <ele>16</ele>
        <time>2015-09-27T19:38:05.403Z</time>
      </trkpt>
      <trkpt lat="45.56749" lon="-73.56243">
        <ele>16</ele>
        <time>2015-09-27T19:38:06.372Z</time>
      </trkpt>
      <trkpt lat="45.56746" lon="-73.56236">
        <ele>17</ele>
        <time>2015-09-27T19:38:07.430Z</time>
      </trkpt>
      <trkpt lat="45.5675" lon="-73.56224">
        <ele>15</ele>
        <time>2015-09-27T19:38:08.381Z</time>
      </trkpt>
      <trkpt lat="45.56749" lon="-73.56212">
        <ele>14</ele>
        <time>2015-09-27T19:38:10.409Z</time>
      </trkpt>
      <trkpt lat="45.56746" lon="-73.56205">
        <ele>13</ele>
        <time>2015-09-27T19:38:11.386Z</time>
      </trkpt>
      <trkpt lat="45.56744" lon="-73.56199">
        <ele>14</ele>
        <time>2015-09-27T19:38:12.450Z</time>
      </trkpt>
      <trkpt lat="45.56748" lon="-73.56191">
        <ele>15</ele>
        <time>2015-09-27T19:38:13.373Z</time>
      </trkpt>
      <trkpt lat="45.56739" lon="-73.56191">
        <ele>14</ele>
        <time>2015-09-27T19:38:14.450Z</time>
      </trkpt>
      <trkpt lat="45.56737" lon="-73.56179">
        <ele>13</ele>
        <time>2015-09-27T19:38:15.385Z</time>
      </trkpt>
      <trkpt lat="45.56733" lon="-73.56167">
        <ele>12</ele>
        <time>2015-09-27T19:38:17.412Z</time>
      </trkpt>
      <trkpt lat="45.5673" lon="-73.56162">
        <ele>12</ele>
        <time>2015-09-27T19:38:18.382Z</time>
      </trkpt>
      <trkpt lat="45.56728" lon="-73.56152">
        <ele>12</ele>
        <time>2015-09-27T19:38:20.430Z</time>
      </trkpt>
      <trkpt lat="45.56725" lon="-73.56145">
        <ele>14</ele>
        <time>2015-09-27T19:38:21.382Z</time>
      </trkpt>
      <trkpt lat="45.56723" lon="-73.5614">
        <ele>14</ele>
        <time>2015-09-27T19:38:22.452Z</time>
      </trkpt>
      <trkpt lat="45.56722" lon="-73.5613">
        <ele>15</ele>
        <time>2015-09-27T19:38:23.403Z</time>
      </trkpt>
      <trkpt lat="45.56719" lon="-73.56124">
        <ele>14</ele>
        <time>2015-09-27T19:38:24.425Z</time>
      </trkpt>
      <trkpt lat="45.56717" lon="-73.56116">
        <ele>15</ele>
        <time>2015-09-27T19:38:25.381Z</time>
      </trkpt>
      <trkpt lat="45.56715" lon="-73.5611">
        <ele>14</ele>
        <time>2015-09-27T19:38:26.419Z</time>
      </trkpt>
      <trkpt lat="45.56712" lon="-73.56101">
        <ele>16</ele>
        <time>2015-09-27T19:38:27.384Z</time>
      </trkpt>
      <trkpt lat="45.5671" lon="-73.56089">
        <ele>17</ele>
        <time>2015-09-27T19:38:29.419Z</time>
      </trkpt>
      <trkpt lat="45.56708" lon="-73.56083">
        <ele>16</ele>
        <time>2015-09-27T19:38:30.391Z</time>
      </trkpt>
      <trkpt lat="45.56704" lon="-73.56076">
        <ele>14</ele>
        <time>2015-09-27T19:38:31.445Z</time>
      </trkpt>
      <trkpt lat="45.56701" lon="-73.5607">
        <ele>14</ele>
        <time>2015-09-27T19:38:32.390Z</time>
      </trkpt>
      <trkpt lat="45.56699" lon="-73.56065">
        <ele>14</ele>
        <time>2015-09-27T19:38:33.453Z</time>
      </trkpt>
      <trkpt lat="45.56694" lon="-73.56058">
        <ele>11</ele>
        <time>2015-09-27T19:38:34.389Z</time>
      </trkpt>
      <trkpt lat="45.56691" lon="-73.56049">
        <ele>13</ele>
        <time>2015-09-27T19:38:36.451Z</time>
      </trkpt>
      <trkpt lat="45.56688" lon="-73.56045">
        <ele>13</ele>
        <time>2015-09-27T19:38:37.381Z</time>
      </trkpt>
      <trkpt lat="45.56684" lon="-73.56036">
        <ele>15</ele>
        <time>2015-09-27T19:38:40.414Z</time>
      </trkpt>
      <trkpt lat="45.56682" lon="-73.5603">
        <ele>14</ele>
        <time>2015-09-27T19:38:41.384Z</time>
      </trkpt>
      <trkpt lat="45.5668" lon="-73.5602">
        <ele>15</ele>
        <time>2015-09-27T19:38:42.445Z</time>
      </trkpt>
      <trkpt lat="45.56676" lon="-73.56013">
        <ele>16</ele>
        <time>2015-09-27T19:38:43.382Z</time>
      </trkpt>
      <trkpt lat="45.56673" lon="-73.56007">
        <ele>16</ele>
        <time>2015-09-27T19:38:44.443Z</time>
      </trkpt>
      <trkpt lat="45.5667" lon="-73.56">
        <ele>17</ele>
        <time>2015-09-27T19:38:45.372Z</time>
      </trkpt>
      <trkpt lat="45.56666" lon="-73.55995">
        <ele>18</ele>
        <time>2015-09-27T19:38:46.438Z</time>
      </trkpt>
      <trkpt lat="45.56664" lon="-73.55989">
        <ele>18</ele>
        <time>2015-09-27T19:38:47.385Z</time>
      </trkpt>
      <trkpt lat="45.56666" lon="-73.55981">
        <ele>17</ele>
        <time>2015-09-27T19:38:48.487Z</time>
      </trkpt>
      <trkpt lat="45.56664" lon="-73.55974">
        <ele>17</ele>
        <time>2015-09-27T19:38:49.382Z</time>
      </trkpt>
      <trkpt lat="45.56658" lon="-73.55982">
        <ele>20</ele>
        <time>2015-09-27T19:38:50.425Z</time>
      </trkpt>
      <trkpt lat="45.56649" lon="-73.55984">
        <ele>20</ele>
        <time>2015-09-27T19:38:51.382Z</time>
      </trkpt>
      <trkpt lat="45.56649" lon="-73.55984">
        <ele>20</ele>
        <time>2015-09-27T19:38:51.412Z</time>
      </trkpt>
      <trkpt lat="45.56644" lon="-73.55971">
        <ele>19</ele>
        <time>2015-09-27T19:38:52.388Z</time>
      </trkpt>
      <trkpt lat="45.56639" lon="-73.55967">
        <ele>20</ele>
        <time>2015-09-27T19:38:54.411Z</time>
      </trkpt>
      <trkpt lat="45.56638" lon="-73.5596">
        <ele>21</ele>
        <time>2015-09-27T19:38:55.399Z</time>
      </trkpt>
      <trkpt lat="45.56638" lon="-73.5596">
        <ele>21</ele>
        <time>2015-09-27T19:38:55.415Z</time>
      </trkpt>
      <trkpt lat="45.56637" lon="-73.55947">
        <ele>22</ele>
        <time>2015-09-27T19:38:56.390Z</time>
      </trkpt>
      <trkpt lat="45.56638" lon="-73.55935">
        <ele>23</ele>
        <time>2015-09-27T19:38:57.427Z</time>
      </trkpt>
      <trkpt lat="45.56634" lon="-73.55924">
        <ele>23</ele>
        <time>2015-09-27T19:38:58.383Z</time>
      </trkpt>
      <trkpt lat="45.56634" lon="-73.55924">
        <ele>23</ele>
        <time>2015-09-27T19:38:58.406Z</time>
      </trkpt>
      <trkpt lat="45.56625" lon="-73.55914">
        <ele>24</ele>
        <time>2015-09-27T19:38:59.387Z</time>
      </trkpt>
      <trkpt lat="45.56625" lon="-73.55914">
        <ele>24</ele>
        <time>2015-09-27T19:38:59.412Z</time>
      </trkpt>
      <trkpt lat="45.5661" lon="-73.55907">
        <ele>20</ele>
        <time>2015-09-27T19:39:00.390Z</time>
      </trkpt>
      <trkpt lat="45.56611" lon="-73.55894">
        <ele>19</ele>
        <time>2015-09-27T19:39:01.401Z</time>
      </trkpt>
      <trkpt lat="45.56611" lon="-73.55883">
        <ele>18</ele>
        <time>2015-09-27T19:39:02.383Z</time>
      </trkpt>
      <trkpt lat="45.56612" lon="-73.55873">
        <ele>18</ele>
        <time>2015-09-27T19:39:03.419Z</time>
      </trkpt>
      <trkpt lat="45.56609" lon="-73.55865">
        <ele>17</ele>
        <time>2015-09-27T19:39:04.386Z</time>
      </trkpt>
      <trkpt lat="45.56605" lon="-73.5586">
        <ele>15</ele>
        <time>2015-09-27T19:39:05.445Z</time>
      </trkpt>
      <trkpt lat="45.56601" lon="-73.55855">
        <ele>15</ele>
        <time>2015-09-27T19:39:06.383Z</time>
      </trkpt>
      <trkpt lat="45.56599" lon="-73.55844">
        <ele>16</ele>
        <time>2015-09-27T19:39:08.436Z</time>
      </trkpt>
      <trkpt lat="45.56598" lon="-73.55839">
        <ele>18</ele>
        <time>2015-09-27T19:39:09.386Z</time>
      </trkpt>
      <trkpt lat="45.56592" lon="-73.55829">
        <ele>18</ele>
        <time>2015-09-27T19:39:11.488Z</time>
      </trkpt>
      <trkpt lat="45.56591" lon="-73.55825">
        <ele>18</ele>
        <time>2015-09-27T19:39:12.382Z</time>
      </trkpt>
      <trkpt lat="45.5659" lon="-73.55817">
        <ele>18</ele>
        <time>2015-09-27T19:39:14.435Z</time>
      </trkpt>
      <trkpt lat="45.5659" lon="-73.55812">
        <ele>19</ele>
        <time>2015-09-27T19:39:15.380Z</time>
      </trkpt>
      <trkpt lat="45.56589" lon="-73.558">
        <ele>21</ele>
        <time>2015-09-27T19:39:17.408Z</time>
      </trkpt>
      <trkpt lat="45.56589" lon="-73.55794">
        <ele>21</ele>
        <time>2015-09-27T19:39:18.383Z</time>
      </trkpt>
      <trkpt lat="45.56587" lon="-73.55783">
        <ele>19</ele>
        <time>2015-09-27T19:39:20.407Z</time>
      </trkpt>
      <trkpt lat="45.56586" lon="-73.55778">
        <ele>19</ele>
        <time>2015-09-27T19:39:21.382Z</time>
      </trkpt>
      <trkpt lat="45.5658" lon="-73.55768">
        <ele>19</ele>
        <time>2015-09-27T19:39:23.461Z</time>
      </trkpt>
      <trkpt lat="45.56578" lon="-73.55762">
        <ele>18</ele>
        <time>2015-09-27T19:39:24.408Z</time>
      </trkpt>
      <trkpt lat="45.56576" lon="-73.55752">
        <ele>17</ele>
        <time>2015-09-27T19:39:26.405Z</time>
      </trkpt>
      <trkpt lat="45.56575" lon="-73.55746">
        <ele>17</ele>
        <time>2015-09-27T19:39:27.387Z</time>
      </trkpt>
      <trkpt lat="45.56575" lon="-73.55736">
        <ele>17</ele>
        <time>2015-09-27T19:39:29.408Z</time>
      </trkpt>
      <trkpt lat="45.56575" lon="-73.55731">
        <ele>17</ele>
        <time>2015-09-27T19:39:30.373Z</time>
      </trkpt>
      <trkpt lat="45.56574" lon="-73.55725">
        <ele>17</ele>
        <time>2015-09-27T19:39:31.387Z</time>
      </trkpt>
      <trkpt lat="45.56572" lon="-73.55715">
        <ele>17</ele>
        <time>2015-09-27T19:39:32.376Z</time>
      </trkpt>
      <trkpt lat="45.56569" lon="-73.55703">
        <ele>17</ele>
        <time>2015-09-27T19:39:34.403Z</time>
      </trkpt>
      <trkpt lat="45.5657" lon="-73.55699">
        <ele>18</ele>
        <time>2015-09-27T19:39:35.377Z</time>
      </trkpt>
      <trkpt lat="45.56562" lon="-73.55692">
        <ele>18</ele>
        <time>2015-09-27T19:39:37.453Z</time>
      </trkpt>
      <trkpt lat="45.5656" lon="-73.55688">
        <ele>18</ele>
        <time>2015-09-27T19:39:38.371Z</time>
      </trkpt>
      <trkpt lat="45.56555" lon="-73.5568">
        <ele>18</ele>
        <time>2015-09-27T19:39:39.446Z</time>
      </trkpt>
      <trkpt lat="45.56553" lon="-73.55676">
        <ele>19</ele>
        <time>2015-09-27T19:39:40.373Z</time>
      </trkpt>
      <trkpt lat="45.56547" lon="-73.55668">
        <ele>20</ele>
        <time>2015-09-27T19:39:42.426Z</time>
      </trkpt>
      <trkpt lat="45.56545" lon="-73.55665">
        <ele>20</ele>
        <time>2015-09-27T19:39:43.372Z</time>
      </trkpt>
      <trkpt lat="45.56539" lon="-73.55656">
        <ele>20</ele>
        <time>2015-09-27T19:39:45.483Z</time>
      </trkpt>
      <trkpt lat="45.56536" lon="-73.5565">
        <ele>20</ele>
        <time>2015-09-27T19:39:47.360Z</time>
      </trkpt>
      <trkpt lat="45.56536" lon="-73.5565">
        <ele>20</ele>
        <time>2015-09-27T19:39:47.390Z</time>
      </trkpt>
      <trkpt lat="45.56532" lon="-73.55638">
        <ele>20</ele>
        <time>2015-09-27T19:39:47.411Z</time>
      </trkpt>
      <trkpt lat="45.56527" lon="-73.55637">
        <ele>18</ele>
        <time>2015-09-27T19:39:50.409Z</time>
      </trkpt>
      <trkpt lat="45.56522" lon="-73.5563">
        <ele>18</ele>
        <time>2015-09-27T19:39:51.372Z</time>
      </trkpt>
      <trkpt lat="45.56518" lon="-73.55621">
        <ele>16</ele>
        <time>2015-09-27T19:39:52.440Z</time>
      </trkpt>
      <trkpt lat="45.56513" lon="-73.55625">
        <ele>14</ele>
        <time>2015-09-27T19:39:53.385Z</time>
      </trkpt>
      <trkpt lat="45.56511" lon="-73.55621">
        <ele>14</ele>
        <time>2015-09-27T19:39:54.439Z</time>
      </trkpt>
      <trkpt lat="45.56515" lon="-73.55611">
        <ele>15</ele>
        <time>2015-09-27T19:39:55.373Z</time>
      </trkpt>
      <trkpt lat="45.56515" lon="-73.55604">
        <ele>16</ele>
        <time>2015-09-27T19:39:56.426Z</time>
      </trkpt>
      <trkpt lat="45.56512" lon="-73.55597">
        <ele>17</ele>
        <time>2015-09-27T19:39:57.386Z</time>
      </trkpt>
      <trkpt lat="45.56512" lon="-73.55597">
        <ele>17</ele>
        <time>2015-09-27T19:39:57.415Z</time>
      </trkpt>
      <trkpt lat="45.565" lon="-73.55593">
        <ele>15</ele>
        <time>2015-09-27T19:39:58.374Z</time>
      </trkpt>
      <trkpt lat="45.56497" lon="-73.55582">
        <ele>13</ele>
        <time>2015-09-27T19:40:00.413Z</time>
      </trkpt>
      <trkpt lat="45.56486" lon="-73.55575">
        <ele>13</ele>
        <time>2015-09-27T19:40:01.388Z</time>
      </trkpt>
      <trkpt lat="45.56484" lon="-73.55564">
        <ele>12</ele>
        <time>2015-09-27T19:40:02.522Z</time>
      </trkpt>
      <trkpt lat="45.56483" lon="-73.5556">
        <ele>12</ele>
        <time>2015-09-27T19:40:03.386Z</time>
      </trkpt>
      <trkpt lat="45.56481" lon="-73.55558">
        <ele>14</ele>
        <time>2015-09-27T19:40:04.416Z</time>
      </trkpt>
      <trkpt lat="45.56476" lon="-73.5555">
        <ele>13</ele>
        <time>2015-09-27T19:40:05.381Z</time>
      </trkpt>
      <trkpt lat="45.56474" lon="-73.55538">
        <ele>9</ele>
        <time>2015-09-27T19:40:07.461Z</time>
      </trkpt>
      <trkpt lat="45.56467" lon="-73.5553">
        <ele>8</ele>
        <time>2015-09-27T19:40:08.381Z</time>
      </trkpt>
      <trkpt lat="45.56461" lon="-73.55531">
        <ele>8</ele>
        <time>2015-09-27T19:40:10.403Z</time>
      </trkpt>
      <trkpt lat="45.56457" lon="-73.55527">
        <ele>8</ele>
        <time>2015-09-27T19:40:11.375Z</time>
      </trkpt>
      <trkpt lat="45.56454" lon="-73.55526">
        <ele>9</ele>
        <time>2015-09-27T19:40:12.441Z</time>
      </trkpt>
      <trkpt lat="45.56449" lon="-73.55521">
        <ele>9</ele>
        <time>2015-09-27T19:40:13.407Z</time>
      </trkpt>
      <trkpt lat="45.5644" lon="-73.5552">
        <ele>6</ele>
        <time>2015-09-27T19:40:16.441Z</time>
      </trkpt>
      <trkpt lat="45.56437" lon="-73.55517">
        <ele>5</ele>
        <time>2015-09-27T19:40:17.381Z</time>
      </trkpt>
      <trkpt lat="45.56429" lon="-73.55516">
        <ele>9</ele>
        <time>2015-09-27T19:40:19.441Z</time>
      </trkpt>
      <trkpt lat="45.56425" lon="-73.55516">
        <ele>9</ele>
        <time>2015-09-27T19:40:20.401Z</time>
      </trkpt>
      <trkpt lat="45.56417" lon="-73.55513">
        <ele>7</ele>
        <time>2015-09-27T19:40:22.422Z</time>
      </trkpt>
      <trkpt lat="45.56414" lon="-73.55512">
        <ele>7</ele>
        <time>2015-09-27T19:40:23.397Z</time>
      </trkpt>
      <trkpt lat="45.56406" lon="-73.55509">
        <ele>7</ele>
        <time>2015-09-27T19:40:25.436Z</time>
      </trkpt>
      <trkpt lat="45.56402" lon="-73.55508">
        <ele>8</ele>
        <time>2015-09-27T19:40:26.381Z</time>
      </trkpt>
      <trkpt lat="45.56394" lon="-73.55505">
        <ele>11</ele>
        <time>2015-09-27T19:40:28.429Z</time>
      </trkpt>
      <trkpt lat="45.56389" lon="-73.55504">
        <ele>12</ele>
        <time>2015-09-27T19:40:29.387Z</time>
      </trkpt>
      <trkpt lat="45.56381" lon="-73.55503">
        <ele>12</ele>
        <time>2015-09-27T19:40:30.451Z</time>
      </trkpt>
      <trkpt lat="45.56378" lon="-73.55503">
        <ele>12</ele>
        <time>2015-09-27T19:40:31.423Z</time>
      </trkpt>
      <trkpt lat="45.56374" lon="-73.55503">
        <ele>12</ele>
        <time>2015-09-27T19:40:32.409Z</time>
      </trkpt>
      <trkpt lat="45.56369" lon="-73.55503">
        <ele>13</ele>
        <time>2015-09-27T19:40:33.392Z</time>
      </trkpt>
      <trkpt lat="45.56362" lon="-73.55505">
        <ele>14</ele>
        <time>2015-09-27T19:40:35.436Z</time>
      </trkpt>
      <trkpt lat="45.56355" lon="-73.55504">
        <ele>15</ele>
        <time>2015-09-27T19:40:36.386Z</time>
      </trkpt>
      <trkpt lat="45.56348" lon="-73.55503">
        <ele>16</ele>
        <time>2015-09-27T19:40:38.405Z</time>
      </trkpt>
      <trkpt lat="45.56345" lon="-73.55504">
        <ele>16</ele>
        <time>2015-09-27T19:40:39.389Z</time>
      </trkpt>
      <trkpt lat="45.56338" lon="-73.55502">
        <ele>15</ele>
        <time>2015-09-27T19:40:41.413Z</time>
      </trkpt>
      <trkpt lat="45.56334" lon="-73.55502">
        <ele>15</ele>
        <time>2015-09-27T19:40:42.394Z</time>
      </trkpt>
      <trkpt lat="45.56326" lon="-73.55501">
        <ele>17</ele>
        <time>2015-09-27T19:40:44.456Z</time>
      </trkpt>
      <trkpt lat="45.56322" lon="-73.55501">
        <ele>17</ele>
        <time>2015-09-27T19:40:45.382Z</time>
      </trkpt>
      <trkpt lat="45.56316" lon="-73.55499">
        <ele>15</ele>
        <time>2015-09-27T19:40:47.442Z</time>
      </trkpt>
      <trkpt lat="45.56312" lon="-73.55498">
        <ele>15</ele>
        <time>2015-09-27T19:40:48.393Z</time>
      </trkpt>
      <trkpt lat="45.56305" lon="-73.55496">
        <ele>15</ele>
        <time>2015-09-27T19:40:50.462Z</time>
      </trkpt>
      <trkpt lat="45.56301" lon="-73.55495">
        <ele>17</ele>
        <time>2015-09-27T19:40:51.372Z</time>
      </trkpt>
      <trkpt lat="45.56296" lon="-73.55493">
        <ele>17</ele>
        <time>2015-09-27T19:40:52.441Z</time>
      </trkpt>
      <trkpt lat="45.56288" lon="-73.5549">
        <ele>16</ele>
        <time>2015-09-27T19:40:53.388Z</time>
      </trkpt>
      <trkpt lat="45.5628" lon="-73.55492">
        <ele>13</ele>
        <time>2015-09-27T19:40:56.405Z</time>
      </trkpt>
      <trkpt lat="45.56274" lon="-73.55488">
        <ele>14</ele>
        <time>2015-09-27T19:40:57.374Z</time>
      </trkpt>
      <trkpt lat="45.56266" lon="-73.55491">
        <ele>14</ele>
        <time>2015-09-27T19:40:59.441Z</time>
      </trkpt>
      <trkpt lat="45.56262" lon="-73.55491">
        <ele>13</ele>
        <time>2015-09-27T19:41:00.390Z</time>
      </trkpt>
      <trkpt lat="45.56257" lon="-73.55492">
        <ele>14</ele>
        <time>2015-09-27T19:41:01.403Z</time>
      </trkpt>
      <trkpt lat="45.56252" lon="-73.55494">
        <ele>14</ele>
        <time>2015-09-27T19:41:02.386Z</time>
      </trkpt>
      <trkpt lat="45.56245" lon="-73.55499">
        <ele>15</ele>
        <time>2015-09-27T19:41:04.450Z</time>
      </trkpt>
      <trkpt lat="45.56241" lon="-73.55501">
        <ele>14</ele>
        <time>2015-09-27T19:41:05.397Z</time>
      </trkpt>
      <trkpt lat="45.56234" lon="-73.55508">
        <ele>12</ele>
        <time>2015-09-27T19:41:07.404Z</time>
      </trkpt>
      <trkpt lat="45.5623" lon="-73.55511">
        <ele>11</ele>
        <time>2015-09-27T19:41:08.391Z</time>
      </trkpt>
      <trkpt lat="45.56221" lon="-73.55514">
        <ele>13</ele>
        <time>2015-09-27T19:41:10.441Z</time>
      </trkpt>
      <trkpt lat="45.56217" lon="-73.55515">
        <ele>13</ele>
        <time>2015-09-27T19:41:11.392Z</time>
      </trkpt>
      <trkpt lat="45.56208" lon="-73.55516">
        <ele>13</ele>
        <time>2015-09-27T19:41:13.923Z</time>
      </trkpt>
      <trkpt lat="45.56203" lon="-73.55516">
        <ele>13</ele>
        <time>2015-09-27T19:41:14.373Z</time>
      </trkpt>
      <trkpt lat="45.56195" lon="-73.55517">
        <ele>13</ele>
        <time>2015-09-27T19:41:16.406Z</time>
      </trkpt>
      <trkpt lat="45.5619" lon="-73.55517">
        <ele>13</ele>
        <time>2015-09-27T19:41:17.384Z</time>
      </trkpt>
      <trkpt lat="45.56186" lon="-73.55516">
        <ele>13</ele>
        <time>2015-09-27T19:41:19.002Z</time>
      </trkpt>
      <trkpt lat="45.56181" lon="-73.55514">
        <ele>14</ele>
        <time>2015-09-27T19:41:19.393Z</time>
      </trkpt>
      <trkpt lat="45.56174" lon="-73.55509">
        <ele>18</ele>
        <time>2015-09-27T19:41:21.400Z</time>
      </trkpt>
      <trkpt lat="45.56171" lon="-73.55507">
        <ele>17</ele>
        <time>2015-09-27T19:41:22.383Z</time>
      </trkpt>
      <trkpt lat="45.56164" lon="-73.55503">
        <ele>18</ele>
        <time>2015-09-27T19:41:24.389Z</time>
      </trkpt>
      <trkpt lat="45.56161" lon="-73.555">
        <ele>19</ele>
        <time>2015-09-27T19:41:25.390Z</time>
      </trkpt>
      <trkpt lat="45.56154" lon="-73.55492">
        <ele>19</ele>
        <time>2015-09-27T19:41:27.434Z</time>
      </trkpt>
      <trkpt lat="45.56151" lon="-73.55487">
        <ele>20</ele>
        <time>2015-09-27T19:41:28.390Z</time>
      </trkpt>
      <trkpt lat="45.56147" lon="-73.55483">
        <ele>22</ele>
        <time>2015-09-27T19:41:29.389Z</time>
      </trkpt>
      <trkpt lat="45.56143" lon="-73.55479">
        <ele>21</ele>
        <time>2015-09-27T19:41:30.390Z</time>
      </trkpt>
      <trkpt lat="45.56135" lon="-73.55474">
        <ele>20</ele>
        <time>2015-09-27T19:41:32.450Z</time>
      </trkpt>
      <trkpt lat="45.56131" lon="-73.55473">
        <ele>21</ele>
        <time>2015-09-27T19:41:33.385Z</time>
      </trkpt>
      <trkpt lat="45.56131" lon="-73.55473">
        <ele>21</ele>
        <time>2015-09-27T19:41:33.406Z</time>
      </trkpt>
      <trkpt lat="45.56045" lon="-73.55456">
        <ele>19</ele>
        <time>2015-09-27T19:41:58.407Z</time>
      </trkpt>
      <trkpt lat="45.56036" lon="-73.55453">
        <ele>19</ele>
        <time>2015-09-27T19:42:02.445Z</time>
      </trkpt>
      <trkpt lat="45.56033" lon="-73.55452">
        <ele>17</ele>
        <time>2015-09-27T19:42:03.382Z</time>
      </trkpt>
      <trkpt lat="45.56026" lon="-73.55452">
        <ele>18</ele>
        <time>2015-09-27T19:42:05.442Z</time>
      </trkpt>
      <trkpt lat="45.56022" lon="-73.55453">
        <ele>17</ele>
        <time>2015-09-27T19:42:06.387Z</time>
      </trkpt>
      <trkpt lat="45.56013" lon="-73.55453">
        <ele>17</ele>
        <time>2015-09-27T19:42:08.473Z</time>
      </trkpt>
      <trkpt lat="45.56008" lon="-73.55453">
        <ele>18</ele>
        <time>2015-09-27T19:42:09.405Z</time>
      </trkpt>
      <trkpt lat="45.56003" lon="-73.55456">
        <ele>17</ele>
        <time>2015-09-27T19:42:10.467Z</time>
      </trkpt>
      <trkpt lat="45.56" lon="-73.55458">
        <ele>16</ele>
        <time>2015-09-27T19:42:11.382Z</time>
      </trkpt>
      <trkpt lat="45.56" lon="-73.55458">
        <ele>16</ele>
        <time>2015-09-27T19:42:11.409Z</time>
      </trkpt>
      <trkpt lat="45.55979" lon="-73.55459">
        <ele>10</ele>
        <time>2015-09-27T19:42:16.383Z</time>
      </trkpt>
      <trkpt lat="45.55975" lon="-73.55459">
        <ele>10</ele>
        <time>2015-09-27T19:42:17.414Z</time>
      </trkpt>
      <trkpt lat="45.55969" lon="-73.55458">
        <ele>9</ele>
        <time>2015-09-27T19:42:18.396Z</time>
      </trkpt>
      <trkpt lat="45.55961" lon="-73.5546">
        <ele>10</ele>
        <time>2015-09-27T19:42:20.448Z</time>
      </trkpt>
      <trkpt lat="45.55957" lon="-73.5546">
        <ele>11</ele>
        <time>2015-09-27T19:42:21.382Z</time>
      </trkpt>
      <trkpt lat="45.55951" lon="-73.55462">
        <ele>13</ele>
        <time>2015-09-27T19:42:22.403Z</time>
      </trkpt>
      <trkpt lat="45.55947" lon="-73.55462">
        <ele>14</ele>
        <time>2015-09-27T19:42:23.388Z</time>
      </trkpt>
      <trkpt lat="45.55939" lon="-73.55463">
        <ele>16</ele>
        <time>2015-09-27T19:42:25.423Z</time>
      </trkpt>
      <trkpt lat="45.55934" lon="-73.55462">
        <ele>16</ele>
        <time>2015-09-27T19:42:26.392Z</time>
      </trkpt>
      <trkpt lat="45.55925" lon="-73.55464">
        <ele>17</ele>
        <time>2015-09-27T19:42:28.398Z</time>
      </trkpt>
      <trkpt lat="45.5592" lon="-73.55463">
        <ele>16</ele>
        <time>2015-09-27T19:42:29.380Z</time>
      </trkpt>
      <trkpt lat="45.55912" lon="-73.55465">
        <ele>18</ele>
        <time>2015-09-27T19:42:31.412Z</time>
      </trkpt>
      <trkpt lat="45.55908" lon="-73.55466">
        <ele>17</ele>
        <time>2015-09-27T19:42:32.381Z</time>
      </trkpt>
      <trkpt lat="45.55899" lon="-73.55468">
        <ele>18</ele>
        <time>2015-09-27T19:42:35.402Z</time>
      </trkpt>
      <trkpt lat="45.55895" lon="-73.55468">
        <ele>17</ele>
        <time>2015-09-27T19:42:36.386Z</time>
      </trkpt>
      <trkpt lat="45.55888" lon="-73.55468">
        <ele>18</ele>
        <time>2015-09-27T19:42:38.400Z</time>
      </trkpt>
      <trkpt lat="45.55883" lon="-73.55471">
        <ele>16</ele>
        <time>2015-09-27T19:42:39.385Z</time>
      </trkpt>
      <trkpt lat="45.55875" lon="-73.5547">
        <ele>16</ele>
        <time>2015-09-27T19:42:41.409Z</time>
      </trkpt>
      <trkpt lat="45.55872" lon="-73.55468">
        <ele>16</ele>
        <time>2015-09-27T19:42:42.381Z</time>
      </trkpt>
      <trkpt lat="45.55864" lon="-73.55468">
        <ele>19</ele>
        <time>2015-09-27T19:42:44.458Z</time>
      </trkpt>
      <trkpt lat="45.5586" lon="-73.55468">
        <ele>20</ele>
        <time>2015-09-27T19:42:45.388Z</time>
      </trkpt>
      <trkpt lat="45.55852" lon="-73.55469">
        <ele>19</ele>
        <time>2015-09-27T19:42:47.404Z</time>
      </trkpt>
      <trkpt lat="45.55848" lon="-73.55469">
        <ele>17</ele>
        <time>2015-09-27T19:42:48.383Z</time>
      </trkpt>
      <trkpt lat="45.55841" lon="-73.55468">
        <ele>16</ele>
        <time>2015-09-27T19:42:50.461Z</time>
      </trkpt>
      <trkpt lat="45.55837" lon="-73.55467">
        <ele>15</ele>
        <time>2015-09-27T19:42:51.383Z</time>
      </trkpt>
      <trkpt lat="45.5583" lon="-73.55464">
        <ele>13</ele>
        <time>2015-09-27T19:42:53.411Z</time>
      </trkpt>
      <trkpt lat="45.55827" lon="-73.55463">
        <ele>13</ele>
        <time>2015-09-27T19:42:54.386Z</time>
      </trkpt>
      <trkpt lat="45.5582" lon="-73.55464">
        <ele>13</ele>
        <time>2015-09-27T19:42:56.408Z</time>
      </trkpt>
      <trkpt lat="45.55817" lon="-73.55465">
        <ele>13</ele>
        <time>2015-09-27T19:42:57.381Z</time>
      </trkpt>
      <trkpt lat="45.5581" lon="-73.55465">
        <ele>12</ele>
        <time>2015-09-27T19:42:59.416Z</time>
      </trkpt>
      <trkpt lat="45.55807" lon="-73.55464">
        <ele>12</ele>
        <time>2015-09-27T19:43:00.381Z</time>
      </trkpt>
      <trkpt lat="45.558" lon="-73.55464">
        <ele>10</ele>
        <time>2015-09-27T19:43:02.411Z</time>
      </trkpt>
      <trkpt lat="45.55796" lon="-73.55464">
        <ele>10</ele>
        <time>2015-09-27T19:43:03.373Z</time>
      </trkpt>
      <trkpt lat="45.55791" lon="-73.55463">
        <ele>9</ele>
        <time>2015-09-27T19:43:04.446Z</time>
      </trkpt>
      <trkpt lat="45.55784" lon="-73.55463">
        <ele>8</ele>
        <time>2015-09-27T19:43:05.383Z</time>
      </trkpt>
      <trkpt lat="45.55778" lon="-73.55464">
        <ele>11</ele>
        <time>2015-09-27T19:43:06.420Z</time>
      </trkpt>
      <trkpt lat="45.55775" lon="-73.55464">
        <ele>10</ele>
        <time>2015-09-27T19:43:07.381Z</time>
      </trkpt>
      <trkpt lat="45.55766" lon="-73.55466">
        <ele>11</ele>
        <time>2015-09-27T19:43:09.428Z</time>
      </trkpt>
      <trkpt lat="45.55761" lon="-73.55464">
        <ele>12</ele>
        <time>2015-09-27T19:43:10.384Z</time>
      </trkpt>
      <trkpt lat="45.55753" lon="-73.55462">
        <ele>12</ele>
        <time>2015-09-27T19:43:12.404Z</time>
      </trkpt>
      <trkpt lat="45.5575" lon="-73.55464">
        <ele>14</ele>
        <time>2015-09-27T19:43:13.381Z</time>
      </trkpt>
      <trkpt lat="45.55744" lon="-73.55464">
        <ele>13</ele>
        <time>2015-09-27T19:43:15.471Z</time>
      </trkpt>
      <trkpt lat="45.5574" lon="-73.55463">
        <ele>13</ele>
        <time>2015-09-27T19:43:16.392Z</time>
      </trkpt>
      <trkpt lat="45.55732" lon="-73.55462">
        <ele>14</ele>
        <time>2015-09-27T19:43:18.447Z</time>
      </trkpt>
      <trkpt lat="45.55729" lon="-73.55461">
        <ele>14</ele>
        <time>2015-09-27T19:43:19.412Z</time>
      </trkpt>
      <trkpt lat="45.55722" lon="-73.5546">
        <ele>14</ele>
        <time>2015-09-27T19:43:21.988Z</time>
      </trkpt>
      <trkpt lat="45.55718" lon="-73.55459">
        <ele>13</ele>
        <time>2015-09-27T19:43:22.374Z</time>
      </trkpt>
      <trkpt lat="45.55712" lon="-73.5546">
        <ele>13</ele>
        <time>2015-09-27T19:43:24.396Z</time>
      </trkpt>
      <trkpt lat="45.55709" lon="-73.5546">
        <ele>13</ele>
        <time>2015-09-27T19:43:25.390Z</time>
      </trkpt>
      <trkpt lat="45.55702" lon="-73.55461">
        <ele>12</ele>
        <time>2015-09-27T19:43:27.396Z</time>
      </trkpt>
      <trkpt lat="45.55699" lon="-73.55462">
        <ele>8</ele>
        <time>2015-09-27T19:43:28.389Z</time>
      </trkpt>
      <trkpt lat="45.55691" lon="-73.55465">
        <ele>6</ele>
        <time>2015-09-27T19:43:30.452Z</time>
      </trkpt>
      <trkpt lat="45.55687" lon="-73.55467">
        <ele>5</ele>
        <time>2015-09-27T19:43:31.387Z</time>
      </trkpt>
      <trkpt lat="45.55679" lon="-73.55469">
        <ele>6</ele>
        <time>2015-09-27T19:43:33.432Z</time>
      </trkpt>
      <trkpt lat="45.55675" lon="-73.5547">
        <ele>7</ele>
        <time>2015-09-27T19:43:34.390Z</time>
      </trkpt>
      <trkpt lat="45.55667" lon="-73.55471">
        <ele>4</ele>
        <time>2015-09-27T19:43:37.045Z</time>
      </trkpt>
      <trkpt lat="45.55663" lon="-73.5547">
        <ele>4</ele>
        <time>2015-09-27T19:43:37.372Z</time>
      </trkpt>
      <trkpt lat="45.55654" lon="-73.55469">
        <ele>6</ele>
        <time>2015-09-27T19:43:39.457Z</time>
      </trkpt>
      <trkpt lat="45.55649" lon="-73.55468">
        <ele>7</ele>
        <time>2015-09-27T19:43:40.381Z</time>
      </trkpt>
      <trkpt lat="45.55644" lon="-73.55467">
        <ele>7</ele>
        <time>2015-09-27T19:43:41.638Z</time>
      </trkpt>
      <trkpt lat="45.55639" lon="-73.55466">
        <ele>9</ele>
        <time>2015-09-27T19:43:42.381Z</time>
      </trkpt>
      <trkpt lat="45.55634" lon="-73.55464">
        <ele>9</ele>
        <time>2015-09-27T19:43:43.441Z</time>
      </trkpt>
      <trkpt lat="45.55629" lon="-73.55462">
        <ele>9</ele>
        <time>2015-09-27T19:43:44.393Z</time>
      </trkpt>
      <trkpt lat="45.55625" lon="-73.55461">
        <ele>9</ele>
        <time>2015-09-27T19:43:45.441Z</time>
      </trkpt>
      <trkpt lat="45.5562" lon="-73.5546">
        <ele>11</ele>
        <time>2015-09-27T19:43:46.394Z</time>
      </trkpt>
      <trkpt lat="45.55611" lon="-73.55459">
        <ele>11</ele>
        <time>2015-09-27T19:43:48.475Z</time>
      </trkpt>
      <trkpt lat="45.55607" lon="-73.55459">
        <ele>12</ele>
        <time>2015-09-27T19:43:49.382Z</time>
      </trkpt>
      <trkpt lat="45.55599" lon="-73.55459">
        <ele>11</ele>
        <time>2015-09-27T19:43:51.608Z</time>
      </trkpt>
      <trkpt lat="45.55594" lon="-73.55459">
        <ele>11</ele>
        <time>2015-09-27T19:43:52.388Z</time>
      </trkpt>
      <trkpt lat="45.5559" lon="-73.5546">
        <ele>11</ele>
        <time>2015-09-27T19:43:53.392Z</time>
      </trkpt>
      <trkpt lat="45.55585" lon="-73.5546">
        <ele>10</ele>
        <time>2015-09-27T19:43:54.387Z</time>
      </trkpt>
      <trkpt lat="45.55581" lon="-73.5546">
        <ele>11</ele>
        <time>2015-09-27T19:43:55.448Z</time>
      </trkpt>
      <trkpt lat="45.55576" lon="-73.55461">
        <ele>11</ele>
        <time>2015-09-27T19:43:56.388Z</time>
      </trkpt>
      <trkpt lat="45.55571" lon="-73.55462">
        <ele>11</ele>
        <time>2015-09-27T19:43:57.447Z</time>
      </trkpt>
      <trkpt lat="45.55566" lon="-73.55462">
        <ele>11</ele>
        <time>2015-09-27T19:43:58.390Z</time>
      </trkpt>
      <trkpt lat="45.55561" lon="-73.55463">
        <ele>15</ele>
        <time>2015-09-27T19:43:59.452Z</time>
      </trkpt>
      <trkpt lat="45.55556" lon="-73.55464">
        <ele>15</ele>
        <time>2015-09-27T19:44:00.372Z</time>
      </trkpt>
      <trkpt lat="45.55547" lon="-73.55464">
        <ele>14</ele>
        <time>2015-09-27T19:44:02.449Z</time>
      </trkpt>
      <trkpt lat="45.55543" lon="-73.55465">
        <ele>10</ele>
        <time>2015-09-27T19:44:03.386Z</time>
      </trkpt>
      <trkpt lat="45.55536" lon="-73.55469">
        <ele>10</ele>
        <time>2015-09-27T19:44:06.760Z</time>
      </trkpt>
      <trkpt lat="45.55533" lon="-73.5547">
        <ele>11</ele>
        <time>2015-09-27T19:44:07.390Z</time>
      </trkpt>
      <trkpt lat="45.55527" lon="-73.55473">
        <ele>12</ele>
        <time>2015-09-27T19:44:09.442Z</time>
      </trkpt>
      <trkpt lat="45.55524" lon="-73.55474">
        <ele>12</ele>
        <time>2015-09-27T19:44:10.392Z</time>
      </trkpt>
      <trkpt lat="45.55517" lon="-73.55473">
        <ele>9</ele>
        <time>2015-09-27T19:44:12.466Z</time>
      </trkpt>
      <trkpt lat="45.55513" lon="-73.55474">
        <ele>14</ele>
        <time>2015-09-27T19:44:13.399Z</time>
      </trkpt>
      <trkpt lat="45.55506" lon="-73.55476">
        <ele>16</ele>
        <time>2015-09-27T19:44:15.451Z</time>
      </trkpt>
      <trkpt lat="45.55503" lon="-73.55478">
        <ele>18</ele>
        <time>2015-09-27T19:44:16.394Z</time>
      </trkpt>
      <trkpt lat="45.55496" lon="-73.55482">
        <ele>18</ele>
        <time>2015-09-27T19:44:18.447Z</time>
      </trkpt>
      <trkpt lat="45.55493" lon="-73.55484">
        <ele>18</ele>
        <time>2015-09-27T19:44:19.376Z</time>
      </trkpt>
      <trkpt lat="45.55486" lon="-73.55488">
        <ele>17</ele>
        <time>2015-09-27T19:44:21.803Z</time>
      </trkpt>
      <trkpt lat="45.55483" lon="-73.5549">
        <ele>16</ele>
        <time>2015-09-27T19:44:22.375Z</time>
      </trkpt>
      <trkpt lat="45.55477" lon="-73.55494">
        <ele>17</ele>
        <time>2015-09-27T19:44:24.434Z</time>
      </trkpt>
      <trkpt lat="45.55474" lon="-73.55496">
        <ele>16</ele>
        <time>2015-09-27T19:44:25.391Z</time>
      </trkpt>
      <trkpt lat="45.55471" lon="-73.55498">
        <ele>16</ele>
        <time>2015-09-27T19:44:26.439Z</time>
      </trkpt>
      <trkpt lat="45.55394" lon="-73.55555">
        <ele>20</ele>
        <time>2015-09-27T19:44:50.386Z</time>
      </trkpt>
      <trkpt lat="45.55385" lon="-73.55556">
        <ele>22</ele>
        <time>2015-09-27T19:44:54.421Z</time>
      </trkpt>
      <trkpt lat="45.55384" lon="-73.55554">
        <ele>24</ele>
        <time>2015-09-27T19:44:55.388Z</time>
      </trkpt>
      <trkpt lat="45.55383" lon="-73.55545">
        <ele>24</ele>
        <time>2015-09-27T19:45:13.459Z</time>
      </trkpt>
      <trkpt lat="45.55383" lon="-73.55541">
        <ele>22</ele>
        <time>2015-09-27T19:45:14.441Z</time>
      </trkpt>
      <trkpt lat="45.55384" lon="-73.55531">
        <ele>23</ele>
        <time>2015-09-27T19:45:16.450Z</time>
      </trkpt>
      <trkpt lat="45.5538" lon="-73.55514">
        <ele>23</ele>
        <time>2015-09-27T19:45:20.398Z</time>
      </trkpt>
      <trkpt lat="45.55378" lon="-73.5551">
        <ele>23</ele>
        <time>2015-09-27T19:45:21.467Z</time>
      </trkpt>
      <trkpt lat="45.55371" lon="-73.55491">
        <ele>23</ele>
        <time>2015-09-27T19:45:28.394Z</time>
      </trkpt>
      <trkpt lat="45.55364" lon="-73.55484">
        <ele>16</ele>
        <time>2015-09-27T19:45:39.441Z</time>
      </trkpt>
      <trkpt lat="45.55361" lon="-73.55485">
        <ele>15</ele>
        <time>2015-09-27T19:45:40.390Z</time>
      </trkpt>
      <trkpt lat="45.55353" lon="-73.55489">
        <ele>13</ele>
        <time>2015-09-27T19:45:43.442Z</time>
      </trkpt>
      <trkpt lat="45.5535" lon="-73.5549">
        <ele>13</ele>
        <time>2015-09-27T19:45:44.381Z</time>
      </trkpt>
      <trkpt lat="45.55343" lon="-73.55493">
        <ele>11</ele>
        <time>2015-09-27T19:45:47.465Z</time>
      </trkpt>
      <trkpt lat="45.55341" lon="-73.55496">
        <ele>10</ele>
        <time>2015-09-27T19:45:48.384Z</time>
      </trkpt>
      <trkpt lat="45.55333" lon="-73.55499">
        <ele>10</ele>
        <time>2015-09-27T19:45:51.393Z</time>
      </trkpt>
      <trkpt lat="45.5533" lon="-73.55499">
        <ele>10</ele>
        <time>2015-09-27T19:45:52.371Z</time>
      </trkpt>
      <trkpt lat="45.55324" lon="-73.55491">
        <ele>9</ele>
        <time>2015-09-27T19:45:58.410Z</time>
      </trkpt>
      <trkpt lat="45.55323" lon="-73.5549">
        <ele>11</ele>
        <time>2015-09-27T19:45:59.389Z</time>
      </trkpt>
      <trkpt lat="45.55317" lon="-73.55483">
        <ele>12</ele>
        <time>2015-09-27T19:46:43.457Z</time>
      </trkpt>
      <trkpt lat="45.55314" lon="-73.55484">
        <ele>10</ele>
        <time>2015-09-27T19:46:44.386Z</time>
      </trkpt>
      <trkpt lat="45.55305" lon="-73.55482">
        <ele>12</ele>
        <time>2015-09-27T19:46:49.458Z</time>
      </trkpt>
      <trkpt lat="45.55305" lon="-73.55482">
        <ele>13</ele>
        <time>2015-09-27T19:46:50.395Z</time>
      </trkpt>
      <trkpt lat="45.553" lon="-73.55473">
        <ele>13</ele>
        <time>2015-09-27T19:47:04.444Z</time>
      </trkpt>
      <trkpt lat="45.553" lon="-73.55471">
        <ele>14</ele>
        <time>2015-09-27T19:47:05.384Z</time>
      </trkpt>
      <trkpt lat="45.55301" lon="-73.55461">
        <ele>13</ele>
        <time>2015-09-27T19:47:07.444Z</time>
      </trkpt>
      <trkpt lat="45.55302" lon="-73.55456">
        <ele>13</ele>
        <time>2015-09-27T19:47:08.389Z</time>
      </trkpt>
      <trkpt lat="45.55303" lon="-73.55447">
        <ele>12</ele>
        <time>2015-09-27T19:47:10.568Z</time>
      </trkpt>
      <trkpt lat="45.55302" lon="-73.55443">
        <ele>10</ele>
        <time>2015-09-27T19:47:11.376Z</time>
      </trkpt>
      <trkpt lat="45.553" lon="-73.55435">
        <ele>10</ele>
        <time>2015-09-27T19:47:13.397Z</time>
      </trkpt>
      <trkpt lat="45.55297" lon="-73.55413">
        <ele>11</ele>
        <time>2015-09-27T19:47:18.371Z</time>
      </trkpt>
      <trkpt lat="45.55295" lon="-73.55402">
        <ele>10</ele>
        <time>2015-09-27T19:47:20.412Z</time>
      </trkpt>
      <trkpt lat="45.55296" lon="-73.55397">
        <ele>9</ele>
        <time>2015-09-27T19:47:21.427Z</time>
      </trkpt>
      <trkpt lat="45.55293" lon="-73.55388">
        <ele>9</ele>
        <time>2015-09-27T19:47:23.467Z</time>
      </trkpt>
      <trkpt lat="45.5529" lon="-73.55384">
        <ele>7</ele>
        <time>2015-09-27T19:47:24.371Z</time>
      </trkpt>
      <trkpt lat="45.55286" lon="-73.55374">
        <ele>6</ele>
        <time>2015-09-27T19:47:26.449Z</time>
      </trkpt>
      <trkpt lat="45.55283" lon="-73.55368">
        <ele>7</ele>
        <time>2015-09-27T19:47:27.374Z</time>
      </trkpt>
      <trkpt lat="45.5528" lon="-73.55363">
        <ele>7</ele>
        <time>2015-09-27T19:47:28.448Z</time>
      </trkpt>
      <trkpt lat="45.55276" lon="-73.55358">
        <ele>5</ele>
        <time>2015-09-27T19:47:29.382Z</time>
      </trkpt>
      <trkpt lat="45.55272" lon="-73.55349">
        <ele>5</ele>
        <time>2015-09-27T19:47:31.476Z</time>
      </trkpt>
      <trkpt lat="45.55272" lon="-73.55343">
        <ele>6</ele>
        <time>2015-09-27T19:47:32.392Z</time>
      </trkpt>
      <trkpt lat="45.55273" lon="-73.55331">
        <ele>5</ele>
        <time>2015-09-27T19:47:34.412Z</time>
      </trkpt>
      <trkpt lat="45.55273" lon="-73.55325">
        <ele>6</ele>
        <time>2015-09-27T19:47:35.381Z</time>
      </trkpt>
      <trkpt lat="45.55271" lon="-73.55314">
        <ele>7</ele>
        <time>2015-09-27T19:47:38.447Z</time>
      </trkpt>
      <trkpt lat="45.5527" lon="-73.55311">
        <ele>8</ele>
        <time>2015-09-27T19:47:39.396Z</time>
      </trkpt>
      <trkpt lat="45.55265" lon="-73.55303">
        <ele>6</ele>
        <time>2015-09-27T19:47:43.451Z</time>
      </trkpt>
      <trkpt lat="45.55263" lon="-73.553">
        <ele>6</ele>
        <time>2015-09-27T19:47:44.392Z</time>
      </trkpt>
      <trkpt lat="45.5526" lon="-73.5529">
        <ele>6</ele>
        <time>2015-09-27T19:47:47.412Z</time>
      </trkpt>
      <trkpt lat="45.55258" lon="-73.55286">
        <ele>8</ele>
        <time>2015-09-27T19:47:48.388Z</time>
      </trkpt>
      <trkpt lat="45.55255" lon="-73.55276">
        <ele>5</ele>
        <time>2015-09-27T19:47:51.415Z</time>
      </trkpt>
      <trkpt lat="45.55253" lon="-73.55274">
        <ele>4</ele>
        <time>2015-09-27T19:47:52.385Z</time>
      </trkpt>
      <trkpt lat="45.55246" lon="-73.55268">
        <ele>2</ele>
        <time>2015-09-27T19:47:55.450Z</time>
      </trkpt>
      <trkpt lat="45.55242" lon="-73.55266">
        <ele>2</ele>
        <time>2015-09-27T19:47:56.385Z</time>
      </trkpt>
      <trkpt lat="45.55236" lon="-73.55261">
        <ele>2</ele>
        <time>2015-09-27T19:47:58.441Z</time>
      </trkpt>
      <trkpt lat="45.55233" lon="-73.55258">
        <ele>4</ele>
        <time>2015-09-27T19:47:59.390Z</time>
      </trkpt>
      <trkpt lat="45.55231" lon="-73.5525">
        <ele>6</ele>
        <time>2015-09-27T19:48:01.406Z</time>
      </trkpt>
      <trkpt lat="45.5523" lon="-73.55245">
        <ele>6</ele>
        <time>2015-09-27T19:48:02.389Z</time>
      </trkpt>
      <trkpt lat="45.55228" lon="-73.55234">
        <ele>6</ele>
        <time>2015-09-27T19:48:04.410Z</time>
      </trkpt>
      <trkpt lat="45.55227" lon="-73.55228">
        <ele>6</ele>
        <time>2015-09-27T19:48:05.393Z</time>
      </trkpt>
      <trkpt lat="45.55224" lon="-73.55216">
        <ele>4</ele>
        <time>2015-09-27T19:48:07.459Z</time>
      </trkpt>
      <trkpt lat="45.55224" lon="-73.5521">
        <ele>2</ele>
        <time>2015-09-27T19:48:08.445Z</time>
      </trkpt>
      <trkpt lat="45.55225" lon="-73.55198">
        <ele>1</ele>
        <time>2015-09-27T19:48:09.456Z</time>
      </trkpt>
      <trkpt lat="45.55221" lon="-73.55191">
        <ele>1</ele>
        <time>2015-09-27T19:48:10.383Z</time>
      </trkpt>
      <trkpt lat="45.55219" lon="-73.55184">
        <time>2015-09-27T19:48:11.417Z</time>
      </trkpt>
      <trkpt lat="45.55217" lon="-73.55177">
        <ele>-1</ele>
        <time>2015-09-27T19:48:12.385Z</time>
      </trkpt>
      <trkpt lat="45.55221" lon="-73.55166">
        <ele>-1</ele>
        <time>2015-09-27T19:48:13.406Z</time>
      </trkpt>
      <trkpt lat="45.55222" lon="-73.55159">
        <ele>-1</ele>
        <time>2015-09-27T19:48:14.390Z</time>
      </trkpt>
      <trkpt lat="45.55214" lon="-73.55157">
        <time>2015-09-27T19:48:15.428Z</time>
      </trkpt>
      <trkpt lat="45.55212" lon="-73.5515">
        <ele>1</ele>
        <time>2015-09-27T19:48:16.388Z</time>
      </trkpt>
      <trkpt lat="45.5521" lon="-73.55146">
        <time>2015-09-27T19:48:17.405Z</time>
      </trkpt>
      <trkpt lat="45.55203" lon="-73.55137">
        <time>2015-09-27T19:48:18.381Z</time>
      </trkpt>
      <trkpt lat="45.55199" lon="-73.55127">
        <ele>1</ele>
        <time>2015-09-27T19:48:21.410Z</time>
      </trkpt>
      <trkpt lat="45.552" lon="-73.55112">
        <ele>1</ele>
        <time>2015-09-27T19:48:22.371Z</time>
      </trkpt>
      <trkpt lat="45.55198" lon="-73.55105">
        <ele>1</ele>
        <time>2015-09-27T19:48:23.391Z</time>
      </trkpt>
      <trkpt lat="45.55197" lon="-73.55096">
        <ele>3</ele>
        <time>2015-09-27T19:48:24.372Z</time>
      </trkpt>
      <trkpt lat="45.55197" lon="-73.55086">
        <ele>3</ele>
        <time>2015-09-27T19:48:25.396Z</time>
      </trkpt>
      <trkpt lat="45.55195" lon="-73.55077">
        <ele>2</ele>
        <time>2015-09-27T19:48:26.371Z</time>
      </trkpt>
      <trkpt lat="45.5519" lon="-73.55071">
        <time>2015-09-27T19:48:27.484Z</time>
      </trkpt>
      <trkpt lat="45.55185" lon="-73.55069">
        <ele>-1</ele>
        <time>2015-09-27T19:48:28.380Z</time>
      </trkpt>
      <trkpt lat="45.55183" lon="-73.55062">
        <ele>-2</ele>
        <time>2015-09-27T19:48:29.441Z</time>
      </trkpt>
      <trkpt lat="45.55174" lon="-73.55059">
        <ele>-2</ele>
        <time>2015-09-27T19:48:30.386Z</time>
      </trkpt>
      <trkpt lat="45.55171" lon="-73.55052">
        <ele>-3</ele>
        <time>2015-09-27T19:48:31.407Z</time>
      </trkpt>
      <trkpt lat="45.55169" lon="-73.55046">
        <ele>-1</ele>
        <time>2015-09-27T19:48:32.387Z</time>
      </trkpt>
      <trkpt lat="45.55167" lon="-73.55034">
        <ele>-1</ele>
        <time>2015-09-27T19:48:34.441Z</time>
      </trkpt>
      <trkpt lat="45.55164" lon="-73.55028">
        <ele>-1</ele>
        <time>2015-09-27T19:48:35.381Z</time>
      </trkpt>
      <trkpt lat="45.55161" lon="-73.55021">
        <ele>-1</ele>
        <time>2015-09-27T19:48:36.411Z</time>
      </trkpt>
      <trkpt lat="45.55162" lon="-73.55013">
        <ele>-2</ele>
        <time>2015-09-27T19:48:37.383Z</time>
      </trkpt>
      <trkpt lat="45.55159" lon="-73.55006">
        <ele>-2</ele>
        <time>2015-09-27T19:48:38.409Z</time>
      </trkpt>
      <trkpt lat="45.55158" lon="-73.54996">
        <ele>-2</ele>
        <time>2015-09-27T19:48:39.383Z</time>
      </trkpt>
      <trkpt lat="45.55155" lon="-73.54987">
        <ele>2</ele>
        <time>2015-09-27T19:48:41.439Z</time>
      </trkpt>
      <trkpt lat="45.55153" lon="-73.54977">
        <ele>2</ele>
        <time>2015-09-27T19:48:42.380Z</time>
      </trkpt>
      <trkpt lat="45.55152" lon="-73.54974">
        <ele>3</ele>
        <time>2015-09-27T19:48:43.471Z</time>
      </trkpt>
      <trkpt lat="45.5515" lon="-73.54962">
        <ele>3</ele>
        <time>2015-09-27T19:48:44.380Z</time>
      </trkpt>
      <trkpt lat="45.55147" lon="-73.54952">
        <ele>5</ele>
        <time>2015-09-27T19:48:46.407Z</time>
      </trkpt>
      <trkpt lat="45.55139" lon="-73.54951">
        <ele>5</ele>
        <time>2015-09-27T19:48:47.381Z</time>
      </trkpt>
      <trkpt lat="45.55141" lon="-73.54942">
        <ele>6</ele>
        <time>2015-09-27T19:48:48.410Z</time>
      </trkpt>
      <trkpt lat="45.55144" lon="-73.54934">
        <ele>4</ele>
        <time>2015-09-27T19:48:49.385Z</time>
      </trkpt>
      <trkpt lat="45.55138" lon="-73.54925">
        <ele>3</ele>
        <time>2015-09-27T19:48:51.447Z</time>
      </trkpt>
      <trkpt lat="45.55138" lon="-73.54919">
        <ele>2</ele>
        <time>2015-09-27T19:48:52.385Z</time>
      </trkpt>
      <trkpt lat="45.55134" lon="-73.54914">
        <time>2015-09-27T19:48:55.441Z</time>
      </trkpt>
      <trkpt lat="45.55129" lon="-73.54914">
        <ele>-2</ele>
        <time>2015-09-27T19:48:56.381Z</time>
      </trkpt>
      <trkpt lat="45.55128" lon="-73.54903">
        <ele>-1</ele>
        <time>2015-09-27T19:49:50.471Z</time>
      </trkpt>
      <trkpt lat="45.5513" lon="-73.54898">
        <ele>3</ele>
        <time>2015-09-27T19:49:51.392Z</time>
      </trkpt>
      <trkpt lat="45.55133" lon="-73.54893">
        <ele>3</ele>
        <time>2015-09-27T19:49:52.469Z</time>
      </trkpt>
      <trkpt lat="45.55137" lon="-73.54888">
        <ele>4</ele>
        <time>2015-09-27T19:49:53.390Z</time>
      </trkpt>
      <trkpt lat="45.55142" lon="-73.54883">
        <ele>4</ele>
        <time>2015-09-27T19:49:54.460Z</time>
      </trkpt>
      <trkpt lat="45.55157" lon="-73.54875">
        <ele>5</ele>
        <time>2015-09-27T19:49:55.438Z</time>
      </trkpt>
      <trkpt lat="45.5516" lon="-73.54867">
        <ele>5</ele>
        <time>2015-09-27T19:49:57.442Z</time>
      </trkpt>
      <trkpt lat="45.55164" lon="-73.54865">
        <ele>4</ele>
        <time>2015-09-27T19:49:58.384Z</time>
      </trkpt>
      <trkpt lat="45.55169" lon="-73.5486">
        <ele>4</ele>
        <time>2015-09-27T19:49:59.440Z</time>
      </trkpt>
      <trkpt lat="45.55172" lon="-73.54858">
        <ele>4</ele>
        <time>2015-09-27T19:50:00.373Z</time>
      </trkpt>
      <trkpt lat="45.55178" lon="-73.54856">
        <ele>3</ele>
        <time>2015-09-27T19:50:02.408Z</time>
      </trkpt>
      <trkpt lat="45.55182" lon="-73.54854">
        <ele>5</ele>
        <time>2015-09-27T19:50:03.370Z</time>
      </trkpt>
      <trkpt lat="45.55188" lon="-73.54853">
        <ele>5</ele>
        <time>2015-09-27T19:50:05.445Z</time>
      </trkpt>
      <trkpt lat="45.55191" lon="-73.54849">
        <ele>5</ele>
        <time>2015-09-27T19:50:06.391Z</time>
      </trkpt>
      <trkpt lat="45.55195" lon="-73.54847">
        <ele>3</ele>
        <time>2015-09-27T19:50:07.450Z</time>
      </trkpt>
      <trkpt lat="45.55199" lon="-73.54842">
        <ele>6</ele>
        <time>2015-09-27T19:50:08.384Z</time>
      </trkpt>
      <trkpt lat="45.55207" lon="-73.5484">
        <ele>7</ele>
        <time>2015-09-27T19:50:10.396Z</time>
      </trkpt>
      <trkpt lat="45.5521" lon="-73.54837">
        <ele>7</ele>
        <time>2015-09-27T19:50:11.371Z</time>
      </trkpt>
      <trkpt lat="45.55218" lon="-73.54831">
        <ele>7</ele>
        <time>2015-09-27T19:50:13.397Z</time>
      </trkpt>
      <trkpt lat="45.55223" lon="-73.54828">
        <ele>8</ele>
        <time>2015-09-27T19:50:14.382Z</time>
      </trkpt>
      <trkpt lat="45.55231" lon="-73.54822">
        <ele>6</ele>
        <time>2015-09-27T19:50:16.404Z</time>
      </trkpt>
      <trkpt lat="45.55234" lon="-73.54822">
        <ele>6</ele>
        <time>2015-09-27T19:50:17.372Z</time>
      </trkpt>
      <trkpt lat="45.5524" lon="-73.54814">
        <ele>8</ele>
        <time>2015-09-27T19:50:22.403Z</time>
      </trkpt>
      <trkpt lat="45.55241" lon="-73.54813">
        <ele>10</ele>
        <time>2015-09-27T19:50:23.383Z</time>
      </trkpt>
      <trkpt lat="45.5524" lon="-73.54801">
        <ele>6</ele>
        <time>2015-09-27T19:50:31.423Z</time>
      </trkpt>
      <trkpt lat="45.55238" lon="-73.54796">
        <ele>6</ele>
        <time>2015-09-27T19:50:32.381Z</time>
      </trkpt>
      <trkpt lat="45.55235" lon="-73.54791">
        <ele>5</ele>
        <time>2015-09-27T19:50:33.403Z</time>
      </trkpt>
      <trkpt lat="45.55232" lon="-73.54786">
        <ele>6</ele>
        <time>2015-09-27T19:50:34.386Z</time>
      </trkpt>
      <trkpt lat="45.55231" lon="-73.5478">
        <ele>6</ele>
        <time>2015-09-27T19:50:35.443Z</time>
      </trkpt>
      <trkpt lat="45.55229" lon="-73.54773">
        <ele>5</ele>
        <time>2015-09-27T19:50:36.384Z</time>
      </trkpt>
      <trkpt lat="45.55228" lon="-73.54767">
        <ele>4</ele>
        <time>2015-09-27T19:50:37.474Z</time>
      </trkpt>
      <trkpt lat="45.55225" lon="-73.54758">
        <ele>4</ele>
        <time>2015-09-27T19:50:38.382Z</time>
      </trkpt>
      <trkpt lat="45.55222" lon="-73.54749">
        <ele>5</ele>
        <time>2015-09-27T19:50:40.407Z</time>
      </trkpt>
      <trkpt lat="45.55219" lon="-73.54741">
        <ele>5</ele>
        <time>2015-09-27T19:50:41.382Z</time>
      </trkpt>
      <trkpt lat="45.55217" lon="-73.54734">
        <ele>6</ele>
        <time>2015-09-27T19:50:42.418Z</time>
      </trkpt>
      <trkpt lat="45.55214" lon="-73.54726">
        <ele>5</ele>
        <time>2015-09-27T19:50:43.383Z</time>
      </trkpt>
      <trkpt lat="45.55212" lon="-73.54718">
        <ele>5</ele>
        <time>2015-09-27T19:50:44.443Z</time>
      </trkpt>
      <trkpt lat="45.55211" lon="-73.5471">
        <ele>5</ele>
        <time>2015-09-27T19:50:45.400Z</time>
      </trkpt>
      <trkpt lat="45.55209" lon="-73.54702">
        <ele>4</ele>
        <time>2015-09-27T19:50:46.418Z</time>
      </trkpt>
      <trkpt lat="45.55209" lon="-73.54692">
        <ele>5</ele>
        <time>2015-09-27T19:50:47.380Z</time>
      </trkpt>
      <trkpt lat="45.55206" lon="-73.54684">
        <ele>5</ele>
        <time>2015-09-27T19:50:48.398Z</time>
      </trkpt>
      <trkpt lat="45.55202" lon="-73.54681">
        <ele>7</ele>
        <time>2015-09-27T19:50:49.380Z</time>
      </trkpt>
      <trkpt lat="45.55199" lon="-73.54674">
        <ele>7</ele>
        <time>2015-09-27T19:50:50.441Z</time>
      </trkpt>
      <trkpt lat="45.55202" lon="-73.54665">
        <ele>7</ele>
        <time>2015-09-27T19:50:51.383Z</time>
      </trkpt>
      <trkpt lat="45.55203" lon="-73.54656">
        <ele>8</ele>
        <time>2015-09-27T19:50:52.426Z</time>
      </trkpt>
      <trkpt lat="45.55195" lon="-73.54654">
        <ele>7</ele>
        <time>2015-09-27T19:50:53.379Z</time>
      </trkpt>
      <trkpt lat="45.55194" lon="-73.54648">
        <ele>10</ele>
        <time>2015-09-27T19:50:54.459Z</time>
      </trkpt>
      <trkpt lat="45.55192" lon="-73.54639">
        <ele>9</ele>
        <time>2015-09-27T19:50:55.382Z</time>
      </trkpt>
      <trkpt lat="45.5519" lon="-73.54634">
        <ele>8</ele>
        <time>2015-09-27T19:50:56.406Z</time>
      </trkpt>
      <trkpt lat="45.55188" lon="-73.54628">
        <ele>8</ele>
        <time>2015-09-27T19:50:57.378Z</time>
      </trkpt>
      <trkpt lat="45.55187" lon="-73.54616">
        <ele>9</ele>
        <time>2015-09-27T19:50:59.443Z</time>
      </trkpt>
      <trkpt lat="45.55183" lon="-73.54612">
        <ele>9</ele>
        <time>2015-09-27T19:51:00.385Z</time>
      </trkpt>
      <trkpt lat="45.55177" lon="-73.54605">
        <ele>8</ele>
        <time>2015-09-27T19:51:01.440Z</time>
      </trkpt>
      <trkpt lat="45.5517" lon="-73.54602">
        <ele>7</ele>
        <time>2015-09-27T19:51:02.385Z</time>
      </trkpt>
      <trkpt lat="45.55167" lon="-73.54593">
        <ele>6</ele>
        <time>2015-09-27T19:51:03.408Z</time>
      </trkpt>
      <trkpt lat="45.55164" lon="-73.54591">
        <ele>6</ele>
        <time>2015-09-27T19:51:04.388Z</time>
      </trkpt>
      <trkpt lat="45.55161" lon="-73.54583">
        <ele>9</ele>
        <time>2015-09-27T19:51:06.400Z</time>
      </trkpt>
      <trkpt lat="45.55159" lon="-73.54577">
        <ele>9</ele>
        <time>2015-09-27T19:51:07.378Z</time>
      </trkpt>
      <trkpt lat="45.55156" lon="-73.5457">
        <ele>8</ele>
        <time>2015-09-27T19:51:08.413Z</time>
      </trkpt>
      <trkpt lat="45.55156" lon="-73.54563">
        <ele>9</ele>
        <time>2015-09-27T19:51:09.386Z</time>
      </trkpt>
      <trkpt lat="45.55154" lon="-73.54555">
        <ele>7</ele>
        <time>2015-09-27T19:51:11.407Z</time>
      </trkpt>
      <trkpt lat="45.55155" lon="-73.54546">
        <ele>7</ele>
        <time>2015-09-27T19:51:12.381Z</time>
      </trkpt>
      <trkpt lat="45.55152" lon="-73.54534">
        <ele>8</ele>
        <time>2015-09-27T19:51:14.457Z</time>
      </trkpt>
      <trkpt lat="45.5515" lon="-73.54526">
        <ele>10</ele>
        <time>2015-09-27T19:51:15.373Z</time>
      </trkpt>
      <trkpt lat="45.55145" lon="-73.54516">
        <ele>9</ele>
        <time>2015-09-27T19:51:17.412Z</time>
      </trkpt>
      <trkpt lat="45.55143" lon="-73.54516">
        <ele>7</ele>
        <time>2015-09-27T19:51:18.380Z</time>
      </trkpt>
      <trkpt lat="45.55139" lon="-73.54507">
        <ele>7</ele>
        <time>2015-09-27T19:51:20.410Z</time>
      </trkpt>
      <trkpt lat="45.55135" lon="-73.54506">
        <ele>5</ele>
        <time>2015-09-27T19:51:21.381Z</time>
      </trkpt>
      <trkpt lat="45.55131" lon="-73.54498">
        <ele>5</ele>
        <time>2015-09-27T19:51:23.416Z</time>
      </trkpt>
      <trkpt lat="45.55127" lon="-73.54496">
        <ele>3</ele>
        <time>2015-09-27T19:51:24.386Z</time>
      </trkpt>
      <trkpt lat="45.5512" lon="-73.54494">
        <ele>5</ele>
        <time>2015-09-27T19:51:26.405Z</time>
      </trkpt>
      <trkpt lat="45.55116" lon="-73.54494">
        <ele>3</ele>
        <time>2015-09-27T19:51:27.381Z</time>
      </trkpt>
      <trkpt lat="45.5511" lon="-73.54498">
        <ele>3</ele>
        <time>2015-09-27T19:51:29.416Z</time>
      </trkpt>
      <trkpt lat="45.55107" lon="-73.54501">
        <ele>3</ele>
        <time>2015-09-27T19:51:30.380Z</time>
      </trkpt>
      <trkpt lat="45.55102" lon="-73.54506">
        <ele>1</ele>
        <time>2015-09-27T19:51:32.442Z</time>
      </trkpt>
      <trkpt lat="45.55099" lon="-73.54509">
        <ele>1</ele>
        <time>2015-09-27T19:51:33.387Z</time>
      </trkpt>
      <trkpt lat="45.55093" lon="-73.54515">
        <ele>-2</ele>
        <time>2015-09-27T19:51:35.446Z</time>
      </trkpt>
      <trkpt lat="45.5509" lon="-73.54518">
        <ele>-3</ele>
        <time>2015-09-27T19:51:36.380Z</time>
      </trkpt>
      <trkpt lat="45.55082" lon="-73.54523">
        <ele>-2</ele>
        <time>2015-09-27T19:51:38.435Z</time>
      </trkpt>
      <trkpt lat="45.55079" lon="-73.54526">
        <ele>-3</ele>
        <time>2015-09-27T19:51:39.381Z</time>
      </trkpt>
      <trkpt lat="45.55075" lon="-73.5453">
        <ele>-1</ele>
        <time>2015-09-27T19:51:40.441Z</time>
      </trkpt>
      <trkpt lat="45.55069" lon="-73.54535">
        <time>2015-09-27T19:51:41.389Z</time>
      </trkpt>
      <trkpt lat="45.55065" lon="-73.54538">
        <time>2015-09-27T19:51:42.404Z</time>
      </trkpt>
      <trkpt lat="45.55061" lon="-73.54543">
        <time>2015-09-27T19:51:43.381Z</time>
      </trkpt>
      <trkpt lat="45.55053" lon="-73.54549">
        <ele>-1</ele>
        <time>2015-09-27T19:51:45.408Z</time>
      </trkpt>
      <trkpt lat="45.55048" lon="-73.54551">
        <ele>-1</ele>
        <time>2015-09-27T19:51:46.382Z</time>
      </trkpt>
      <trkpt lat="45.55041" lon="-73.54556">
        <ele>-2</ele>
        <time>2015-09-27T19:51:48.414Z</time>
      </trkpt>
      <trkpt lat="45.55035" lon="-73.5456">
        <ele>-2</ele>
        <time>2015-09-27T19:51:49.380Z</time>
      </trkpt>
      <trkpt lat="45.5503" lon="-73.54569">
        <ele>-6</ele>
        <time>2015-09-27T19:51:51.447Z</time>
      </trkpt>
      <trkpt lat="45.55023" lon="-73.54572">
        <ele>-6</ele>
        <time>2015-09-27T19:51:52.379Z</time>
      </trkpt>
      <trkpt lat="45.55022" lon="-73.54576">
        <ele>-7</ele>
        <time>2015-09-27T19:51:53.421Z</time>
      </trkpt>
      <trkpt lat="45.55015" lon="-73.54579">
        <ele>-7</ele>
        <time>2015-09-27T19:51:54.386Z</time>
      </trkpt>
      <trkpt lat="45.55009" lon="-73.54582">
        <ele>-4</ele>
        <time>2015-09-27T19:51:55.448Z</time>
      </trkpt>
      <trkpt lat="45.55007" lon="-73.54585">
        <ele>-4</ele>
        <time>2015-09-27T19:51:56.388Z</time>
      </trkpt>
      <trkpt lat="45.55002" lon="-73.54587">
        <ele>-4</ele>
        <time>2015-09-27T19:51:57.405Z</time>
      </trkpt>
      <trkpt lat="45.54997" lon="-73.5459">
        <ele>-3</ele>
        <time>2015-09-27T19:51:58.380Z</time>
      </trkpt>
      <trkpt lat="45.5499" lon="-73.54595">
        <ele>-3</ele>
        <time>2015-09-27T19:52:00.423Z</time>
      </trkpt>
      <trkpt lat="45.54989" lon="-73.54598">
        <ele>-3</ele>
        <time>2015-09-27T19:52:01.379Z</time>
      </trkpt>
      <trkpt lat="45.54983" lon="-73.54603">
        <ele>-6</ele>
        <time>2015-09-27T19:52:03.410Z</time>
      </trkpt>
      <trkpt lat="45.54979" lon="-73.54604">
        <ele>-6</ele>
        <time>2015-09-27T19:52:04.386Z</time>
      </trkpt>
      <trkpt lat="45.54972" lon="-73.54607">
        <ele>-5</ele>
        <time>2015-09-27T19:52:08.409Z</time>
      </trkpt>
      <trkpt lat="45.5497" lon="-73.54604">
        <ele>-5</ele>
        <time>2015-09-27T19:52:09.383Z</time>
      </trkpt>
      <trkpt lat="45.54966" lon="-73.54598">
        <ele>-5</ele>
        <time>2015-09-27T19:52:11.420Z</time>
      </trkpt>
      <trkpt lat="45.54963" lon="-73.54594">
        <ele>-5</ele>
        <time>2015-09-27T19:52:12.380Z</time>
      </trkpt>
      <trkpt lat="45.54958" lon="-73.54585">
        <ele>-4</ele>
        <time>2015-09-27T19:52:14.412Z</time>
      </trkpt>
      <trkpt lat="45.54956" lon="-73.5458">
        <ele>-4</ele>
        <time>2015-09-27T19:52:15.380Z</time>
      </trkpt>
      <trkpt lat="45.54952" lon="-73.5457">
        <ele>-2</ele>
        <time>2015-09-27T19:52:17.409Z</time>
      </trkpt>
      <trkpt lat="45.5495" lon="-73.54564">
        <ele>-3</ele>
        <time>2015-09-27T19:52:18.385Z</time>
      </trkpt>
      <trkpt lat="45.54949" lon="-73.54558">
        <ele>-3</ele>
        <time>2015-09-27T19:52:19.439Z</time>
      </trkpt>
      <trkpt lat="45.54948" lon="-73.54551">
        <ele>-4</ele>
        <time>2015-09-27T19:52:20.380Z</time>
      </trkpt>
      <trkpt lat="45.54947" lon="-73.5454">
        <ele>-4</ele>
        <time>2015-09-27T19:52:22.482Z</time>
      </trkpt>
      <trkpt lat="45.54946" lon="-73.54534">
        <ele>-3</ele>
        <time>2015-09-27T19:52:23.382Z</time>
      </trkpt>
      <trkpt lat="45.54944" lon="-73.54524">
        <ele>-4</ele>
        <time>2015-09-27T19:52:25.441Z</time>
      </trkpt>
      <trkpt lat="45.54942" lon="-73.54518">
        <ele>-4</ele>
        <time>2015-09-27T19:52:26.382Z</time>
      </trkpt>
      <trkpt lat="45.5494" lon="-73.54506">
        <ele>-3</ele>
        <time>2015-09-27T19:52:27.451Z</time>
      </trkpt>
      <trkpt lat="45.54939" lon="-73.54504">
        <ele>-5</ele>
        <time>2015-09-27T19:52:28.386Z</time>
      </trkpt>
      <trkpt lat="45.54939" lon="-73.54497">
        <ele>-3</ele>
        <time>2015-09-27T19:52:29.444Z</time>
      </trkpt>
      <trkpt lat="45.54938" lon="-73.54489">
        <ele>-3</ele>
        <time>2015-09-27T19:52:30.387Z</time>
      </trkpt>
      <trkpt lat="45.54933" lon="-73.54481">
        <ele>-3</ele>
        <time>2015-09-27T19:52:32.419Z</time>
      </trkpt>
      <trkpt lat="45.54928" lon="-73.54477">
        <ele>-1</ele>
        <time>2015-09-27T19:52:33.380Z</time>
      </trkpt>
      <trkpt lat="45.54923" lon="-73.54466">
        <time>2015-09-27T19:52:35.405Z</time>
      </trkpt>
      <trkpt lat="45.54921" lon="-73.54462">
        <ele>-1</ele>
        <time>2015-09-27T19:52:36.380Z</time>
      </trkpt>
      <trkpt lat="45.54917" lon="-73.54455">
        <ele>-3</ele>
        <time>2015-09-27T19:52:37.413Z</time>
      </trkpt>
      <trkpt lat="45.54913" lon="-73.5445">
        <ele>-3</ele>
        <time>2015-09-27T19:52:38.379Z</time>
      </trkpt>
      <trkpt lat="45.54915" lon="-73.54444">
        <ele>-3</ele>
        <time>2015-09-27T19:52:40.407Z</time>
      </trkpt>
      <trkpt lat="45.54915" lon="-73.54437">
        <ele>-2</ele>
        <time>2015-09-27T19:52:41.380Z</time>
      </trkpt>
      <trkpt lat="45.54911" lon="-73.54428">
        <ele>-1</ele>
        <time>2015-09-27T19:52:43.406Z</time>
      </trkpt>
      <trkpt lat="45.54908" lon="-73.54424">
        <time>2015-09-27T19:52:44.382Z</time>
      </trkpt>
      <trkpt lat="45.54905" lon="-73.54413">
        <time>2015-09-27T19:52:46.408Z</time>
      </trkpt>
      <trkpt lat="45.54903" lon="-73.54407">
        <ele>-1</ele>
        <time>2015-09-27T19:52:47.379Z</time>
      </trkpt>
      <trkpt lat="45.54898" lon="-73.54401">
        <ele>-2</ele>
        <time>2015-09-27T19:52:48.441Z</time>
      </trkpt>
      <trkpt lat="45.54897" lon="-73.54395">
        <ele>-2</ele>
        <time>2015-09-27T19:52:49.400Z</time>
      </trkpt>
      <trkpt lat="45.54894" lon="-73.54384">
        <ele>-5</ele>
        <time>2015-09-27T19:52:51.404Z</time>
      </trkpt>
      <trkpt lat="45.54893" lon="-73.54378">
        <ele>-5</ele>
        <time>2015-09-27T19:52:52.382Z</time>
      </trkpt>
      <trkpt lat="45.54892" lon="-73.54367">
        <ele>-5</ele>
        <time>2015-09-27T19:52:54.449Z</time>
      </trkpt>
      <trkpt lat="45.54891" lon="-73.54361">
        <ele>-4</ele>
        <time>2015-09-27T19:52:55.451Z</time>
      </trkpt>
      <trkpt lat="45.54887" lon="-73.54351">
        <ele>-4</ele>
        <time>2015-09-27T19:52:57.420Z</time>
      </trkpt>
      <trkpt lat="45.54885" lon="-73.54346">
        <ele>-3</ele>
        <time>2015-09-27T19:52:58.381Z</time>
      </trkpt>
      <trkpt lat="45.54883" lon="-73.54334">
        <ele>-3</ele>
        <time>2015-09-27T19:53:00.411Z</time>
      </trkpt>
      <trkpt lat="45.54881" lon="-73.54329">
        <ele>-3</ele>
        <time>2015-09-27T19:53:01.387Z</time>
      </trkpt>
      <trkpt lat="45.54877" lon="-73.54318">
        <ele>-2</ele>
        <time>2015-09-27T19:53:03.447Z</time>
      </trkpt>
      <trkpt lat="45.54874" lon="-73.54313">
        <ele>-3</ele>
        <time>2015-09-27T19:53:04.392Z</time>
      </trkpt>
      <trkpt lat="45.54872" lon="-73.54306">
        <ele>-2</ele>
        <time>2015-09-27T19:53:05.393Z</time>
      </trkpt>
      <trkpt lat="45.54871" lon="-73.543">
        <ele>-2</ele>
        <time>2015-09-27T19:53:06.384Z</time>
      </trkpt>
      <trkpt lat="45.54867" lon="-73.54289">
        <ele>-2</ele>
        <time>2015-09-27T19:53:08.449Z</time>
      </trkpt>
      <trkpt lat="45.54868" lon="-73.54283">
        <ele>-2</ele>
        <time>2015-09-27T19:53:09.390Z</time>
      </trkpt>
      <trkpt lat="45.54865" lon="-73.54275">
        <ele>-3</ele>
        <time>2015-09-27T19:53:11.409Z</time>
      </trkpt>
      <trkpt lat="45.54864" lon="-73.54271">
        <ele>-3</ele>
        <time>2015-09-27T19:53:12.401Z</time>
      </trkpt>
      <trkpt lat="45.54859" lon="-73.54263">
        <ele>1</ele>
        <time>2015-09-27T19:53:21.564Z</time>
      </trkpt>
      <trkpt lat="45.54857" lon="-73.54264">
        <time>2015-09-27T19:53:22.386Z</time>
      </trkpt>
      <trkpt lat="45.5486" lon="-73.54257">
        <ele>2</ele>
        <time>2015-09-27T19:54:39.441Z</time>
      </trkpt>
      <trkpt lat="45.54863" lon="-73.54253">
        <ele>2</ele>
        <time>2015-09-27T19:54:40.374Z</time>
      </trkpt>
      <trkpt lat="45.54865" lon="-73.54246">
        <ele>2</ele>
        <time>2015-09-27T19:54:41.441Z</time>
      </trkpt>
      <trkpt lat="45.54866" lon="-73.54239">
        <ele>4</ele>
        <time>2015-09-27T19:54:42.385Z</time>
      </trkpt>
      <trkpt lat="45.54867" lon="-73.54232">
        <ele>3</ele>
        <time>2015-09-27T19:54:43.532Z</time>
      </trkpt>
      <trkpt lat="45.54862" lon="-73.54214">
        <ele>2</ele>
        <time>2015-09-27T19:54:44.392Z</time>
      </trkpt>
      <trkpt lat="45.5486" lon="-73.54205">
        <ele>2</ele>
        <time>2015-09-27T19:54:45.480Z</time>
      </trkpt>
      <trkpt lat="45.54864" lon="-73.54195">
        <ele>3</ele>
        <time>2015-09-27T19:54:46.389Z</time>
      </trkpt>
      <trkpt lat="45.54863" lon="-73.54186">
        <ele>2</ele>
        <time>2015-09-27T19:54:47.467Z</time>
      </trkpt>
      <trkpt lat="45.54862" lon="-73.54177">
        <ele>2</ele>
        <time>2015-09-27T19:54:48.391Z</time>
      </trkpt>
      <trkpt lat="45.5486" lon="-73.54169">
        <ele>2</ele>
        <time>2015-09-27T19:54:49.408Z</time>
      </trkpt>
      <trkpt lat="45.54858" lon="-73.54159">
        <ele>4</ele>
        <time>2015-09-27T19:54:50.370Z</time>
      </trkpt>
      <trkpt lat="45.5485" lon="-73.54158">
        <ele>4</ele>
        <time>2015-09-27T19:54:52.423Z</time>
      </trkpt>
      <trkpt lat="45.54852" lon="-73.54144">
        <ele>3</ele>
        <time>2015-09-27T19:54:53.383Z</time>
      </trkpt>
      <trkpt lat="45.54852" lon="-73.54144">
        <ele>3</ele>
        <time>2015-09-27T19:54:53.422Z</time>
      </trkpt>
      <trkpt lat="45.54855" lon="-73.54131">
        <ele>2</ele>
        <time>2015-09-27T19:54:54.387Z</time>
      </trkpt>
      <trkpt lat="45.54855" lon="-73.54131">
        <ele>2</ele>
        <time>2015-09-27T19:54:54.442Z</time>
      </trkpt>
      <trkpt lat="45.5484" lon="-73.54125">
        <ele>2</ele>
        <time>2015-09-27T19:54:55.388Z</time>
      </trkpt>
      <trkpt lat="45.54833" lon="-73.54124">
        <ele>1</ele>
        <time>2015-09-27T19:54:57.405Z</time>
      </trkpt>
      <trkpt lat="45.54829" lon="-73.54119">
        <ele>-1</ele>
        <time>2015-09-27T19:54:58.380Z</time>
      </trkpt>
      <trkpt lat="45.54825" lon="-73.54108">
        <ele>3</ele>
        <time>2015-09-27T19:55:00.402Z</time>
      </trkpt>
      <trkpt lat="45.54826" lon="-73.54103">
        <ele>3</ele>
        <time>2015-09-27T19:55:01.381Z</time>
      </trkpt>
      <trkpt lat="45.54824" lon="-73.54093">
        <ele>-2</ele>
        <time>2015-09-27T19:55:03.441Z</time>
      </trkpt>
      <trkpt lat="45.54823" lon="-73.54089">
        <ele>-2</ele>
        <time>2015-09-27T19:55:04.387Z</time>
      </trkpt>
      <trkpt lat="45.5482" lon="-73.54077">
        <ele>-3</ele>
        <time>2015-09-27T19:55:06.408Z</time>
      </trkpt>
      <trkpt lat="45.54817" lon="-73.54074">
        <ele>-3</ele>
        <time>2015-09-27T19:55:07.378Z</time>
      </trkpt>
      <trkpt lat="45.54824" lon="-73.54066">
        <ele>-3</ele>
        <time>2015-09-27T19:55:08.441Z</time>
      </trkpt>
      <trkpt lat="45.54822" lon="-73.54062">
        <ele>-4</ele>
        <time>2015-09-27T19:55:09.386Z</time>
      </trkpt>
      <trkpt lat="45.54817" lon="-73.54052">
        <ele>-4</ele>
        <time>2015-09-27T19:55:12.398Z</time>
      </trkpt>
      <trkpt lat="45.54815" lon="-73.5405">
        <ele>-4</ele>
        <time>2015-09-27T19:55:13.379Z</time>
      </trkpt>
      <trkpt lat="45.54808" lon="-73.54052">
        <ele>-4</ele>
        <time>2015-09-27T19:55:16.403Z</time>
      </trkpt>
      <trkpt lat="45.54804" lon="-73.54056">
        <ele>-4</ele>
        <time>2015-09-27T19:55:17.385Z</time>
      </trkpt>
      <trkpt lat="45.54801" lon="-73.5406">
        <ele>-4</ele>
        <time>2015-09-27T19:55:18.428Z</time>
      </trkpt>
      <trkpt lat="45.54797" lon="-73.54064">
        <ele>-4</ele>
        <time>2015-09-27T19:55:19.380Z</time>
      </trkpt>
      <trkpt lat="45.54792" lon="-73.54067">
        <ele>-5</ele>
        <time>2015-09-27T19:55:20.445Z</time>
      </trkpt>
      <trkpt lat="45.54788" lon="-73.54071">
        <ele>-6</ele>
        <time>2015-09-27T19:55:21.381Z</time>
      </trkpt>
      <trkpt lat="45.5478" lon="-73.54076">
        <ele>-6</ele>
        <time>2015-09-27T19:55:23.428Z</time>
      </trkpt>
      <trkpt lat="45.54776" lon="-73.5408">
        <ele>-5</ele>
        <time>2015-09-27T19:55:24.379Z</time>
      </trkpt>
      <trkpt lat="45.54769" lon="-73.54087">
        <ele>-4</ele>
        <time>2015-09-27T19:55:26.420Z</time>
      </trkpt>
      <trkpt lat="45.54766" lon="-73.54091">
        <ele>-6</ele>
        <time>2015-09-27T19:55:27.382Z</time>
      </trkpt>
      <trkpt lat="45.54763" lon="-73.54094">
        <ele>-6</ele>
        <time>2015-09-27T19:55:28.452Z</time>
      </trkpt>
      <trkpt lat="45.54758" lon="-73.54098">
        <ele>-5</ele>
        <time>2015-09-27T19:55:29.402Z</time>
      </trkpt>
      <trkpt lat="45.54755" lon="-73.54101">
        <ele>-4</ele>
        <time>2015-09-27T19:55:30.401Z</time>
      </trkpt>
      <trkpt lat="45.54751" lon="-73.54105">
        <ele>-5</ele>
        <time>2015-09-27T19:55:31.380Z</time>
      </trkpt>
      <trkpt lat="45.54747" lon="-73.54109">
        <ele>-6</ele>
        <time>2015-09-27T19:55:32.414Z</time>
      </trkpt>
      <trkpt lat="45.54743" lon="-73.54112">
        <ele>-3</ele>
        <time>2015-09-27T19:55:33.380Z</time>
      </trkpt>
      <trkpt lat="45.54738" lon="-73.54115">
        <ele>-4</ele>
        <time>2015-09-27T19:55:34.441Z</time>
      </trkpt>
      <trkpt lat="45.54734" lon="-73.54118">
        <ele>-3</ele>
        <time>2015-09-27T19:55:35.384Z</time>
      </trkpt>
      <trkpt lat="45.54727" lon="-73.54125">
        <ele>-2</ele>
        <time>2015-09-27T19:55:37.445Z</time>
      </trkpt>
      <trkpt lat="45.54724" lon="-73.54128">
        <ele>-1</ele>
        <time>2015-09-27T19:55:38.387Z</time>
      </trkpt>
      <trkpt lat="45.54721" lon="-73.54131">
        <ele>-2</ele>
        <time>2015-09-27T19:55:39.441Z</time>
      </trkpt>
      <trkpt lat="45.54715" lon="-73.54134">
        <ele>-1</ele>
        <time>2015-09-27T19:55:40.456Z</time>
      </trkpt>
      <trkpt lat="45.5471" lon="-73.54141">
        <ele>2</ele>
        <time>2015-09-27T19:55:42.413Z</time>
      </trkpt>
      <trkpt lat="45.54703" lon="-73.54141">
        <ele>1</ele>
        <time>2015-09-27T19:55:43.379Z</time>
      </trkpt>
      <trkpt lat="45.54696" lon="-73.54146">
        <time>2015-09-27T19:55:45.419Z</time>
      </trkpt>
      <trkpt lat="45.54691" lon="-73.54149">
        <ele>1</ele>
        <time>2015-09-27T19:55:46.374Z</time>
      </trkpt>
      <trkpt lat="45.54686" lon="-73.54151">
        <time>2015-09-27T19:55:47.403Z</time>
      </trkpt>
      <trkpt lat="45.54682" lon="-73.54153">
        <time>2015-09-27T19:55:48.378Z</time>
      </trkpt>
      <trkpt lat="45.54675" lon="-73.54156">
        <time>2015-09-27T19:55:50.457Z</time>
      </trkpt>
      <trkpt lat="45.5467" lon="-73.54157">
        <time>2015-09-27T19:55:51.388Z</time>
      </trkpt>
      <trkpt lat="45.54666" lon="-73.54161">
        <time>2015-09-27T19:55:52.444Z</time>
      </trkpt>
      <trkpt lat="45.54661" lon="-73.54165">
        <ele>1</ele>
        <time>2015-09-27T19:55:53.370Z</time>
      </trkpt>
      <trkpt lat="45.54653" lon="-73.54169">
        <time>2015-09-27T19:55:55.439Z</time>
      </trkpt>
      <trkpt lat="45.54652" lon="-73.54171">
        <time>2015-09-27T19:55:56.374Z</time>
      </trkpt>
      <trkpt lat="45.54656" lon="-73.54161">
        <ele>-3</ele>
        <time>2015-09-27T19:55:58.422Z</time>
      </trkpt>
      <trkpt lat="45.54655" lon="-73.54157">
        <ele>-4</ele>
        <time>2015-09-27T19:55:59.374Z</time>
      </trkpt>
      <trkpt lat="45.5465" lon="-73.54151">
        <ele>-4</ele>
        <time>2015-09-27T19:56:01.409Z</time>
      </trkpt>
      <trkpt lat="45.54648" lon="-73.54145">
        <ele>-4</ele>
        <time>2015-09-27T19:56:02.379Z</time>
      </trkpt>
      <trkpt lat="45.54645" lon="-73.54135">
        <ele>-4</ele>
        <time>2015-09-27T19:56:04.451Z</time>
      </trkpt>
      <trkpt lat="45.5464" lon="-73.54124">
        <ele>-6</ele>
        <time>2015-09-27T19:56:05.392Z</time>
      </trkpt>
      <trkpt lat="45.54637" lon="-73.54118">
        <ele>-7</ele>
        <time>2015-09-27T19:56:06.450Z</time>
      </trkpt>
      <trkpt lat="45.54634" lon="-73.54113">
        <ele>-6</ele>
        <time>2015-09-27T19:56:07.382Z</time>
      </trkpt>
      <trkpt lat="45.54631" lon="-73.54102">
        <ele>-7</ele>
        <time>2015-09-27T19:56:09.410Z</time>
      </trkpt>
      <trkpt lat="45.54631" lon="-73.54095">
        <ele>-5</ele>
        <time>2015-09-27T19:56:10.382Z</time>
      </trkpt>
      <trkpt lat="45.54628" lon="-73.54088">
        <ele>-5</ele>
        <time>2015-09-27T19:56:11.406Z</time>
      </trkpt>
      <trkpt lat="45.54626" lon="-73.54077">
        <ele>-6</ele>
        <time>2015-09-27T19:56:12.381Z</time>
      </trkpt>
      <trkpt lat="45.54623" lon="-73.54073">
        <ele>-7</ele>
        <time>2015-09-27T19:56:13.421Z</time>
      </trkpt>
      <trkpt lat="45.54619" lon="-73.54063">
        <ele>-9</ele>
        <time>2015-09-27T19:56:14.379Z</time>
      </trkpt>
      <trkpt lat="45.54616" lon="-73.54055">
        <ele>-10</ele>
        <time>2015-09-27T19:56:15.435Z</time>
      </trkpt>
      <trkpt lat="45.54613" lon="-73.54051">
        <ele>-11</ele>
        <time>2015-09-27T19:56:16.384Z</time>
      </trkpt>
      <trkpt lat="45.54611" lon="-73.54045">
        <ele>-11</ele>
        <time>2015-09-27T19:56:17.406Z</time>
      </trkpt>
      <trkpt lat="45.5461" lon="-73.54038">
        <ele>-11</ele>
        <time>2015-09-27T19:56:18.398Z</time>
      </trkpt>
      <trkpt lat="45.54606" lon="-73.54027">
        <ele>-10</ele>
        <time>2015-09-27T19:56:19.403Z</time>
      </trkpt>
      <trkpt lat="45.54606" lon="-73.54018">
        <ele>-10</ele>
        <time>2015-09-27T19:56:20.384Z</time>
      </trkpt>
      <trkpt lat="45.54605" lon="-73.54009">
        <ele>-11</ele>
        <time>2015-09-27T19:56:21.441Z</time>
      </trkpt>
      <trkpt lat="45.54604" lon="-73.53999">
        <ele>-9</ele>
        <time>2015-09-27T19:56:22.379Z</time>
      </trkpt>
      <trkpt lat="45.54601" lon="-73.5399">
        <ele>-10</ele>
        <time>2015-09-27T19:56:24.423Z</time>
      </trkpt>
      <trkpt lat="45.54597" lon="-73.53987">
        <ele>-8</ele>
        <time>2015-09-27T19:56:25.380Z</time>
      </trkpt>
      <trkpt lat="45.54596" lon="-73.53975">
        <ele>-8</ele>
        <time>2015-09-27T19:56:29.400Z</time>
      </trkpt>
      <trkpt lat="45.54597" lon="-73.53971">
        <ele>-9</ele>
        <time>2015-09-27T19:56:30.382Z</time>
      </trkpt>
      <trkpt lat="45.54596" lon="-73.5396">
        <ele>-11</ele>
        <time>2015-09-27T19:56:32.413Z</time>
      </trkpt>
      <trkpt lat="45.54593" lon="-73.53957">
        <ele>-12</ele>
        <time>2015-09-27T19:56:33.373Z</time>
      </trkpt>
      <trkpt lat="45.54587" lon="-73.5395">
        <ele>-11</ele>
        <time>2015-09-27T19:56:35.407Z</time>
      </trkpt>
      <trkpt lat="45.54584" lon="-73.53945">
        <ele>-11</ele>
        <time>2015-09-27T19:56:36.380Z</time>
      </trkpt>
      <trkpt lat="45.54581" lon="-73.53934">
        <ele>-7</ele>
        <time>2015-09-27T19:56:38.452Z</time>
      </trkpt>
      <trkpt lat="45.5458" lon="-73.53927">
        <ele>-5</ele>
        <time>2015-09-27T19:56:39.385Z</time>
      </trkpt>
      <trkpt lat="45.54579" lon="-73.53921">
        <ele>-5</ele>
        <time>2015-09-27T19:56:40.403Z</time>
      </trkpt>
      <trkpt lat="45.54578" lon="-73.53915">
        <ele>-4</ele>
        <time>2015-09-27T19:56:41.380Z</time>
      </trkpt>
      <trkpt lat="45.54576" lon="-73.53909">
        <ele>-6</ele>
        <time>2015-09-27T19:56:42.441Z</time>
      </trkpt>
      <trkpt lat="45.54575" lon="-73.53902">
        <ele>-7</ele>
        <time>2015-09-27T19:56:43.386Z</time>
      </trkpt>
      <trkpt lat="45.54575" lon="-73.53895">
        <ele>-7</ele>
        <time>2015-09-27T19:56:44.440Z</time>
      </trkpt>
      <trkpt lat="45.54575" lon="-73.53889">
        <ele>-9</ele>
        <time>2015-09-27T19:56:45.383Z</time>
      </trkpt>
      <trkpt lat="45.54573" lon="-73.53878">
        <ele>-8</ele>
        <time>2015-09-27T19:56:47.440Z</time>
      </trkpt>
      <trkpt lat="45.54572" lon="-73.53873">
        <ele>-8</ele>
        <time>2015-09-27T19:56:48.387Z</time>
      </trkpt>
      <trkpt lat="45.54568" lon="-73.53862">
        <ele>-8</ele>
        <time>2015-09-27T19:56:50.415Z</time>
      </trkpt>
      <trkpt lat="45.54567" lon="-73.53857">
        <ele>-8</ele>
        <time>2015-09-27T19:56:51.387Z</time>
      </trkpt>
      <trkpt lat="45.54566" lon="-73.53846">
        <ele>-8</ele>
        <time>2015-09-27T19:56:53.472Z</time>
      </trkpt>
      <trkpt lat="45.54564" lon="-73.53841">
        <ele>-8</ele>
        <time>2015-09-27T19:56:54.370Z</time>
      </trkpt>
      <trkpt lat="45.54559" lon="-73.53832">
        <ele>-8</ele>
        <time>2015-09-27T19:56:56.447Z</time>
      </trkpt>
      <trkpt lat="45.54556" lon="-73.53828">
        <ele>-8</ele>
        <time>2015-09-27T19:56:57.370Z</time>
      </trkpt>
      <trkpt lat="45.5455" lon="-73.5382">
        <ele>-10</ele>
        <time>2015-09-27T19:56:59.451Z</time>
      </trkpt>
      <trkpt lat="45.54547" lon="-73.53815">
        <ele>-10</ele>
        <time>2015-09-27T19:57:00.373Z</time>
      </trkpt>
      <trkpt lat="45.54543" lon="-73.53805">
        <ele>-11</ele>
        <time>2015-09-27T19:57:02.415Z</time>
      </trkpt>
      <trkpt lat="45.54543" lon="-73.538">
        <ele>-14</ele>
        <time>2015-09-27T19:57:03.369Z</time>
      </trkpt>
      <trkpt lat="45.54541" lon="-73.53789">
        <ele>-14</ele>
        <time>2015-09-27T19:57:05.395Z</time>
      </trkpt>
      <trkpt lat="45.54539" lon="-73.53784">
        <ele>-11</ele>
        <time>2015-09-27T19:57:06.379Z</time>
      </trkpt>
      <trkpt lat="45.54537" lon="-73.53772">
        <ele>-13</ele>
        <time>2015-09-27T19:57:08.443Z</time>
      </trkpt>
      <trkpt lat="45.54535" lon="-73.53766">
        <ele>-10</ele>
        <time>2015-09-27T19:57:09.390Z</time>
      </trkpt>
      <trkpt lat="45.54532" lon="-73.5376">
        <ele>-11</ele>
        <time>2015-09-27T19:57:10.445Z</time>
      </trkpt>
      <trkpt lat="45.54531" lon="-73.53754">
        <ele>-8</ele>
        <time>2015-09-27T19:57:11.384Z</time>
      </trkpt>
      <trkpt lat="45.54529" lon="-73.53742">
        <ele>-9</ele>
        <time>2015-09-27T19:57:13.468Z</time>
      </trkpt>
      <trkpt lat="45.54529" lon="-73.53738">
        <ele>-8</ele>
        <time>2015-09-27T19:57:14.391Z</time>
      </trkpt>
      <trkpt lat="45.54528" lon="-73.53728">
        <ele>-10</ele>
        <time>2015-09-27T19:57:17.441Z</time>
      </trkpt>
      <trkpt lat="45.54527" lon="-73.53725">
        <ele>-10</ele>
        <time>2015-09-27T19:57:18.385Z</time>
      </trkpt>
      <trkpt lat="45.54526" lon="-73.53715">
        <ele>-10</ele>
        <time>2015-09-27T19:57:21.462Z</time>
      </trkpt>
      <trkpt lat="45.54526" lon="-73.53711">
        <ele>-9</ele>
        <time>2015-09-27T19:57:22.384Z</time>
      </trkpt>
      <trkpt lat="45.54525" lon="-73.53708">
        <ele>-10</ele>
        <time>2015-09-27T19:57:23.448Z</time>
      </trkpt>
      <trkpt lat="45.54091" lon="-73.53823">
        <ele>-9</ele>
        <time>2015-09-27T19:59:48.444Z</time>
      </trkpt>
      <trkpt lat="45.54086" lon="-73.53818">
        <ele>-12</ele>
        <time>2015-09-27T19:59:50.457Z</time>
      </trkpt>
      <trkpt lat="45.54082" lon="-73.53816">
        <ele>-14</ele>
        <time>2015-09-27T19:59:51.380Z</time>
      </trkpt>
      <trkpt lat="45.54074" lon="-73.53814">
        <ele>-18</ele>
        <time>2015-09-27T19:59:54.429Z</time>
      </trkpt>
      <trkpt lat="45.54072" lon="-73.53813">
        <ele>-20</ele>
        <time>2015-09-27T19:59:55.389Z</time>
      </trkpt>
      <trkpt lat="45.54064" lon="-73.53814">
        <ele>-18</ele>
        <time>2015-09-27T20:00:01.866Z</time>
      </trkpt>
      <trkpt lat="45.54061" lon="-73.53816">
        <ele>-13</ele>
        <time>2015-09-27T20:00:02.380Z</time>
      </trkpt>
      <trkpt lat="45.54055" lon="-73.53825">
        <ele>-15</ele>
        <time>2015-09-27T20:00:05.403Z</time>
      </trkpt>
      <trkpt lat="45.54054" lon="-73.53829">
        <ele>-15</ele>
        <time>2015-09-27T20:00:06.407Z</time>
      </trkpt>
      <trkpt lat="45.54052" lon="-73.5384">
        <ele>-15</ele>
        <time>2015-09-27T20:00:09.439Z</time>
      </trkpt>
      <trkpt lat="45.54052" lon="-73.53845">
        <ele>-15</ele>
        <time>2015-09-27T20:00:10.392Z</time>
      </trkpt>
      <trkpt lat="45.54051" lon="-73.53856">
        <ele>-12</ele>
        <time>2015-09-27T20:00:12.406Z</time>
      </trkpt>
      <trkpt lat="45.5405" lon="-73.53862">
        <ele>-10</ele>
        <time>2015-09-27T20:00:13.376Z</time>
      </trkpt>
      <trkpt lat="45.54048" lon="-73.53872">
        <ele>-11</ele>
        <time>2015-09-27T20:00:15.430Z</time>
      </trkpt>
      <trkpt lat="45.54047" lon="-73.53876">
        <ele>-10</ele>
        <time>2015-09-27T20:00:16.390Z</time>
      </trkpt>
      <trkpt lat="45.54041" lon="-73.53885">
        <ele>-12</ele>
        <time>2015-09-27T20:00:19.385Z</time>
      </trkpt>
      <trkpt lat="45.54038" lon="-73.53886">
        <ele>-14</ele>
        <time>2015-09-27T20:00:20.387Z</time>
      </trkpt>
      <trkpt lat="45.54032" lon="-73.53895">
        <ele>-14</ele>
        <time>2015-09-27T20:00:24.399Z</time>
      </trkpt>
      <trkpt lat="45.5403" lon="-73.53896">
        <ele>-14</ele>
        <time>2015-09-27T20:00:25.370Z</time>
      </trkpt>
      <trkpt lat="45.54022" lon="-73.53903">
        <ele>-16</ele>
        <time>2015-09-27T20:00:28.431Z</time>
      </trkpt>
      <trkpt lat="45.5402" lon="-73.53906">
        <ele>-17</ele>
        <time>2015-09-27T20:00:29.370Z</time>
      </trkpt>
      <trkpt lat="45.54015" lon="-73.53911">
        <ele>-20</ele>
        <time>2015-09-27T20:00:31.942Z</time>
      </trkpt>
      <trkpt lat="45.54012" lon="-73.53914">
        <ele>-20</ele>
        <time>2015-09-27T20:00:32.373Z</time>
      </trkpt>
      <trkpt lat="45.54007" lon="-73.53924">
        <ele>-16</ele>
        <time>2015-09-27T20:00:35.438Z</time>
      </trkpt>
      <trkpt lat="45.54005" lon="-73.53927">
        <ele>-17</ele>
        <time>2015-09-27T20:00:36.381Z</time>
      </trkpt>
      <trkpt lat="45.54005" lon="-73.53927">
        <ele>-17</ele>
        <time>2015-09-27T20:00:36.425Z</time>
      </trkpt>
      <trkpt lat="45.53687" lon="-73.5418">
        <ele>-17</ele>
        <time>2015-09-27T20:02:19.371Z</time>
      </trkpt>
      <trkpt lat="45.53682" lon="-73.5418">
        <ele>-19</ele>
        <time>2015-09-27T20:02:20.448Z</time>
      </trkpt>
      <trkpt lat="45.53677" lon="-73.5418">
        <ele>-18</ele>
        <time>2015-09-27T20:02:21.370Z</time>
      </trkpt>
      <trkpt lat="45.53677" lon="-73.5418">
        <ele>-18</ele>
        <time>2015-09-27T20:02:21.395Z</time>
      </trkpt>
      <trkpt lat="45.53529" lon="-73.54223">
        <ele>-20</ele>
        <time>2015-09-27T20:03:01.382Z</time>
      </trkpt>
      <trkpt lat="45.53529" lon="-73.54223">
        <ele>-20</ele>
        <time>2015-09-27T20:03:01.858Z</time>
      </trkpt>
      <trkpt lat="45.53523" lon="-73.54214">
        <ele>-21</ele>
        <time>2015-09-27T20:03:02.370Z</time>
      </trkpt>
      <trkpt lat="45.53515" lon="-73.54217">
        <ele>-23</ele>
        <time>2015-09-27T20:03:05.435Z</time>
      </trkpt>
      <trkpt lat="45.5351" lon="-73.54215">
        <ele>-22</ele>
        <time>2015-09-27T20:03:06.369Z</time>
      </trkpt>
      <trkpt lat="45.53507" lon="-73.54219">
        <ele>-22</ele>
        <time>2015-09-27T20:03:08.401Z</time>
      </trkpt>
      <trkpt lat="45.53502" lon="-73.54225">
        <ele>-20</ele>
        <time>2015-09-27T20:03:09.370Z</time>
      </trkpt>
      <trkpt lat="45.53499" lon="-73.54232">
        <ele>-19</ele>
        <time>2015-09-27T20:03:10.396Z</time>
      </trkpt>
      <trkpt lat="45.53497" lon="-73.54237">
        <ele>-20</ele>
        <time>2015-09-27T20:03:11.368Z</time>
      </trkpt>
      <trkpt lat="45.53493" lon="-73.54248">
        <ele>-17</ele>
        <time>2015-09-27T20:03:13.412Z</time>
      </trkpt>
      <trkpt lat="45.5349" lon="-73.5425">
        <ele>-18</ele>
        <time>2015-09-27T20:03:14.393Z</time>
      </trkpt>
      <trkpt lat="45.53485" lon="-73.54258">
        <ele>-17</ele>
        <time>2015-09-27T20:03:17.403Z</time>
      </trkpt>
      <trkpt lat="45.53484" lon="-73.5426">
        <ele>-16</ele>
        <time>2015-09-27T20:03:18.378Z</time>
      </trkpt>
      <trkpt lat="45.53478" lon="-73.54269">
        <ele>-12</ele>
        <time>2015-09-27T20:03:22.406Z</time>
      </trkpt>
      <trkpt lat="45.53477" lon="-73.5427">
        <ele>-12</ele>
        <time>2015-09-27T20:03:23.378Z</time>
      </trkpt>
      <trkpt lat="45.5347" lon="-73.5427">
        <ele>-12</ele>
        <time>2015-09-27T20:03:26.411Z</time>
      </trkpt>
      <trkpt lat="45.53467" lon="-73.54271">
        <ele>-13</ele>
        <time>2015-09-27T20:03:27.381Z</time>
      </trkpt>
      <trkpt lat="45.53462" lon="-73.54273">
        <ele>-11</ele>
        <time>2015-09-27T20:03:29.432Z</time>
      </trkpt>
      <trkpt lat="45.53458" lon="-73.54274">
        <ele>-12</ele>
        <time>2015-09-27T20:03:30.379Z</time>
      </trkpt>
      <trkpt lat="45.53451" lon="-73.54276">
        <ele>-9</ele>
        <time>2015-09-27T20:03:32.401Z</time>
      </trkpt>
      <trkpt lat="45.53447" lon="-73.54276">
        <ele>-12</ele>
        <time>2015-09-27T20:03:33.377Z</time>
      </trkpt>
      <trkpt lat="45.53441" lon="-73.54278">
        <ele>-13</ele>
        <time>2015-09-27T20:03:35.424Z</time>
      </trkpt>
      <trkpt lat="45.53438" lon="-73.54279">
        <ele>-15</ele>
        <time>2015-09-27T20:03:36.384Z</time>
      </trkpt>
      <trkpt lat="45.53433" lon="-73.54283">
        <ele>-10</ele>
        <time>2015-09-27T20:03:38.408Z</time>
      </trkpt>
      <trkpt lat="45.5343" lon="-73.54285">
        <ele>-11</ele>
        <time>2015-09-27T20:03:39.378Z</time>
      </trkpt>
      <trkpt lat="45.53423" lon="-73.54289">
        <ele>-9</ele>
        <time>2015-09-27T20:03:41.397Z</time>
      </trkpt>
      <trkpt lat="45.53419" lon="-73.5429">
        <ele>-7</ele>
        <time>2015-09-27T20:03:42.378Z</time>
      </trkpt>
      <trkpt lat="45.53412" lon="-73.54293">
        <ele>-4</ele>
        <time>2015-09-27T20:03:44.441Z</time>
      </trkpt>
      <trkpt lat="45.53409" lon="-73.54295">
        <ele>-4</ele>
        <time>2015-09-27T20:03:45.389Z</time>
      </trkpt>
      <trkpt lat="45.53402" lon="-73.54299">
        <ele>-4</ele>
        <time>2015-09-27T20:03:48.416Z</time>
      </trkpt>
      <trkpt lat="45.534" lon="-73.543">
        <ele>-3</ele>
        <time>2015-09-27T20:03:49.379Z</time>
      </trkpt>
      <trkpt lat="45.53392" lon="-73.54305">
        <ele>-4</ele>
        <time>2015-09-27T20:03:53.422Z</time>
      </trkpt>
      <trkpt lat="45.5339" lon="-73.54306">
        <ele>-4</ele>
        <time>2015-09-27T20:03:54.381Z</time>
      </trkpt>
      <trkpt lat="45.53383" lon="-73.54309">
        <ele>-4</ele>
        <time>2015-09-27T20:03:57.436Z</time>
      </trkpt>
      <trkpt lat="45.5338" lon="-73.5431">
        <ele>-5</ele>
        <time>2015-09-27T20:03:58.369Z</time>
      </trkpt>
      <trkpt lat="45.53372" lon="-73.54315">
        <ele>-4</ele>
        <time>2015-09-27T20:04:01.398Z</time>
      </trkpt>
      <trkpt lat="45.53369" lon="-73.54316">
        <ele>-3</ele>
        <time>2015-09-27T20:04:02.369Z</time>
      </trkpt>
      <trkpt lat="45.53363" lon="-73.54319">
        <ele>-4</ele>
        <time>2015-09-27T20:04:04.921Z</time>
      </trkpt>
      <trkpt lat="45.5336" lon="-73.5432">
        <ele>-4</ele>
        <time>2015-09-27T20:04:05.383Z</time>
      </trkpt>
      <trkpt lat="45.53353" lon="-73.54322">
        <ele>-3</ele>
        <time>2015-09-27T20:04:07.409Z</time>
      </trkpt>
      <trkpt lat="45.53349" lon="-73.54323">
        <ele>-4</ele>
        <time>2015-09-27T20:04:08.384Z</time>
      </trkpt>
      <trkpt lat="45.53343" lon="-73.54326">
        <ele>-8</ele>
        <time>2015-09-27T20:04:10.387Z</time>
      </trkpt>
      <trkpt lat="45.5334" lon="-73.54327">
        <ele>-8</ele>
        <time>2015-09-27T20:04:11.380Z</time>
      </trkpt>
      <trkpt lat="45.53333" lon="-73.5433">
        <ele>-5</ele>
        <time>2015-09-27T20:04:13.449Z</time>
      </trkpt>
      <trkpt lat="45.5333" lon="-73.54332">
        <ele>-4</ele>
        <time>2015-09-27T20:04:14.372Z</time>
      </trkpt>
      <trkpt lat="45.53324" lon="-73.54334">
        <ele>-6</ele>
        <time>2015-09-27T20:04:16.448Z</time>
      </trkpt>
      <trkpt lat="45.53321" lon="-73.54336">
        <ele>-6</ele>
        <time>2015-09-27T20:04:17.385Z</time>
      </trkpt>
      <trkpt lat="45.53315" lon="-73.5434">
        <ele>-3</ele>
        <time>2015-09-27T20:04:20.197Z</time>
      </trkpt>
      <trkpt lat="45.53312" lon="-73.54342">
        <ele>-2</ele>
        <time>2015-09-27T20:04:20.390Z</time>
      </trkpt>
      <trkpt lat="45.53305" lon="-73.54348">
        <ele>-1</ele>
        <time>2015-09-27T20:04:23.473Z</time>
      </trkpt>
      <trkpt lat="45.53304" lon="-73.54349">
        <ele>-2</ele>
        <time>2015-09-27T20:04:24.388Z</time>
      </trkpt>
      <trkpt lat="45.53296" lon="-73.54356">
        <ele>-2</ele>
        <time>2015-09-27T20:04:28.433Z</time>
      </trkpt>
      <trkpt lat="45.53294" lon="-73.54358">
        <ele>-3</ele>
        <time>2015-09-27T20:04:29.383Z</time>
      </trkpt>
      <trkpt lat="45.53287" lon="-73.54362">
        <ele>-5</ele>
        <time>2015-09-27T20:04:32.394Z</time>
      </trkpt>
      <trkpt lat="45.53285" lon="-73.54364">
        <ele>-3</ele>
        <time>2015-09-27T20:04:33.388Z</time>
      </trkpt>
      <trkpt lat="45.53279" lon="-73.54372">
        <ele>-4</ele>
        <time>2015-09-27T20:04:36.458Z</time>
      </trkpt>
      <trkpt lat="45.53277" lon="-73.54374">
        <ele>-3</ele>
        <time>2015-09-27T20:04:37.386Z</time>
      </trkpt>
      <trkpt lat="45.53272" lon="-73.54378">
        <ele>-3</ele>
        <time>2015-09-27T20:04:39.440Z</time>
      </trkpt>
      <trkpt lat="45.53269" lon="-73.5438">
        <ele>-4</ele>
        <time>2015-09-27T20:04:40.376Z</time>
      </trkpt>
      <trkpt lat="45.53262" lon="-73.54385">
        <ele>-4</ele>
        <time>2015-09-27T20:04:42.439Z</time>
      </trkpt>
      <trkpt lat="45.53258" lon="-73.54387">
        <ele>-6</ele>
        <time>2015-09-27T20:04:43.371Z</time>
      </trkpt>
      <trkpt lat="45.53251" lon="-73.54391">
        <ele>-5</ele>
        <time>2015-09-27T20:04:45.445Z</time>
      </trkpt>
      <trkpt lat="45.53247" lon="-73.54394">
        <ele>-6</ele>
        <time>2015-09-27T20:04:46.378Z</time>
      </trkpt>
      <trkpt lat="45.53241" lon="-73.544">
        <ele>-7</ele>
        <time>2015-09-27T20:04:48.454Z</time>
      </trkpt>
      <trkpt lat="45.53237" lon="-73.54402">
        <ele>-7</ele>
        <time>2015-09-27T20:04:49.381Z</time>
      </trkpt>
      <trkpt lat="45.53232" lon="-73.54404">
        <ele>-5</ele>
        <time>2015-09-27T20:04:50.422Z</time>
      </trkpt>
      <trkpt lat="45.53227" lon="-73.54405">
        <ele>-5</ele>
        <time>2015-09-27T20:04:51.380Z</time>
      </trkpt>
      <trkpt lat="45.53227" lon="-73.54405">
        <ele>-5</ele>
        <time>2015-09-27T20:04:51.873Z</time>
      </trkpt>
      <trkpt lat="45.53221" lon="-73.54392">
        <ele>-6</ele>
        <time>2015-09-27T20:04:52.389Z</time>
      </trkpt>
      <trkpt lat="45.53221" lon="-73.54392">
        <ele>-6</ele>
        <time>2015-09-27T20:04:52.462Z</time>
      </trkpt>
      <trkpt lat="45.53209" lon="-73.54387">
        <ele>-5</ele>
        <time>2015-09-27T20:04:53.446Z</time>
      </trkpt>
      <trkpt lat="45.53201" lon="-73.54387">
        <ele>-5</ele>
        <time>2015-09-27T20:04:55.408Z</time>
      </trkpt>
      <trkpt lat="45.53196" lon="-73.54394">
        <ele>-5</ele>
        <time>2015-09-27T20:04:56.380Z</time>
      </trkpt>
      <trkpt lat="45.53191" lon="-73.54397">
        <ele>-6</ele>
        <time>2015-09-27T20:04:57.449Z</time>
      </trkpt>
      <trkpt lat="45.53183" lon="-73.54405">
        <ele>-4</ele>
        <time>2015-09-27T20:04:58.387Z</time>
      </trkpt>
      <trkpt lat="45.53179" lon="-73.54405">
        <ele>-6</ele>
        <time>2015-09-27T20:05:00.415Z</time>
      </trkpt>
      <trkpt lat="45.53172" lon="-73.54403">
        <ele>-7</ele>
        <time>2015-09-27T20:05:01.375Z</time>
      </trkpt>
      <trkpt lat="45.53166" lon="-73.54402">
        <ele>-9</ele>
        <time>2015-09-27T20:05:03.441Z</time>
      </trkpt>
      <trkpt lat="45.53163" lon="-73.54405">
        <ele>-8</ele>
        <time>2015-09-27T20:05:04.385Z</time>
      </trkpt>
      <trkpt lat="45.53155" lon="-73.54408">
        <ele>-5</ele>
        <time>2015-09-27T20:05:06.395Z</time>
      </trkpt>
      <trkpt lat="45.53152" lon="-73.5441">
        <ele>-3</ele>
        <time>2015-09-27T20:05:07.368Z</time>
      </trkpt>
      <trkpt lat="45.53144" lon="-73.54412">
        <ele>-2</ele>
        <time>2015-09-27T20:05:09.409Z</time>
      </trkpt>
      <trkpt lat="45.53139" lon="-73.54413">
        <ele>-1</ele>
        <time>2015-09-27T20:05:10.370Z</time>
      </trkpt>
      <trkpt lat="45.5313" lon="-73.54414">
        <ele>3</ele>
        <time>2015-09-27T20:05:12.471Z</time>
      </trkpt>
      <trkpt lat="45.53126" lon="-73.54414">
        <ele>3</ele>
        <time>2015-09-27T20:05:13.383Z</time>
      </trkpt>
      <trkpt lat="45.53117" lon="-73.54416">
        <ele>1</ele>
        <time>2015-09-27T20:05:15.442Z</time>
      </trkpt>
      <trkpt lat="45.53112" lon="-73.54416">
        <time>2015-09-27T20:05:16.385Z</time>
      </trkpt>
      <trkpt lat="45.53103" lon="-73.54417">
        <ele>-1</ele>
        <time>2015-09-27T20:05:18.439Z</time>
      </trkpt>
      <trkpt lat="45.53099" lon="-73.54417">
        <ele>-1</ele>
        <time>2015-09-27T20:05:19.369Z</time>
      </trkpt>
      <trkpt lat="45.53091" lon="-73.54418">
        <ele>-3</ele>
        <time>2015-09-27T20:05:21.399Z</time>
      </trkpt>
      <trkpt lat="45.53087" lon="-73.54419">
        <ele>-4</ele>
        <time>2015-09-27T20:05:22.370Z</time>
      </trkpt>
      <trkpt lat="45.53081" lon="-73.5442">
        <time>2015-09-27T20:05:24.440Z</time>
      </trkpt>
      <trkpt lat="45.53077" lon="-73.5442">
        <ele>-1</ele>
        <time>2015-09-27T20:05:25.371Z</time>
      </trkpt>
      <trkpt lat="45.5307" lon="-73.54422">
        <ele>-2</ele>
        <time>2015-09-27T20:05:27.412Z</time>
      </trkpt>
      <trkpt lat="45.53066" lon="-73.54423">
        <ele>-4</ele>
        <time>2015-09-27T20:05:28.395Z</time>
      </trkpt>
      <trkpt lat="45.53059" lon="-73.54425">
        <ele>-1</ele>
        <time>2015-09-27T20:05:30.443Z</time>
      </trkpt>
      <trkpt lat="45.53055" lon="-73.54426">
        <ele>1</ele>
        <time>2015-09-27T20:05:31.388Z</time>
      </trkpt>
      <trkpt lat="45.53047" lon="-73.5443">
        <ele>3</ele>
        <time>2015-09-27T20:05:33.449Z</time>
      </trkpt>
      <trkpt lat="45.53044" lon="-73.54432">
        <ele>3</ele>
        <time>2015-09-27T20:05:34.391Z</time>
      </trkpt>
      <trkpt lat="45.53036" lon="-73.54434">
        <ele>4</ele>
        <time>2015-09-27T20:05:36.398Z</time>
      </trkpt>
      <trkpt lat="45.52527" lon="-73.546">
        <ele>-2</ele>
        <time>2015-09-27T20:08:06.380Z</time>
      </trkpt>
      <trkpt lat="45.52521" lon="-73.54599">
        <ele>-3</ele>
        <time>2015-09-27T20:08:08.465Z</time>
      </trkpt>
      <trkpt lat="45.52496" lon="-73.54614">
        <ele>-6</ele>
        <time>2015-09-27T20:08:16.442Z</time>
      </trkpt>
      <trkpt lat="45.52487" lon="-73.54614">
        <ele>-7</ele>
        <time>2015-09-27T20:08:20.437Z</time>
      </trkpt>
      <trkpt lat="45.52485" lon="-73.54615">
        <ele>-6</ele>
        <time>2015-09-27T20:08:21.389Z</time>
      </trkpt>
      <trkpt lat="45.52479" lon="-73.54624">
        <ele>-8</ele>
        <time>2015-09-27T20:08:24.387Z</time>
      </trkpt>
      <trkpt lat="45.52478" lon="-73.54628">
        <ele>-10</ele>
        <time>2015-09-27T20:08:25.394Z</time>
      </trkpt>
      <trkpt lat="45.52475" lon="-73.5464">
        <ele>-10</ele>
        <time>2015-09-27T20:08:28.456Z</time>
      </trkpt>
      <trkpt lat="45.52474" lon="-73.54643">
        <ele>-8</ele>
        <time>2015-09-27T20:08:29.371Z</time>
      </trkpt>
      <trkpt lat="45.5247" lon="-73.5465">
        <ele>-7</ele>
        <time>2015-09-27T20:08:31.892Z</time>
      </trkpt>
      <trkpt lat="45.52467" lon="-73.54653">
        <ele>-8</ele>
        <time>2015-09-27T20:08:32.383Z</time>
      </trkpt>
      <trkpt lat="45.52463" lon="-73.54659">
        <ele>-10</ele>
        <time>2015-09-27T20:08:34.388Z</time>
      </trkpt>
      <trkpt lat="45.52461" lon="-73.54663">
        <ele>-9</ele>
        <time>2015-09-27T20:08:35.381Z</time>
      </trkpt>
      <trkpt lat="45.52456" lon="-73.54669">
        <ele>-8</ele>
        <time>2015-09-27T20:08:37.441Z</time>
      </trkpt>
      <trkpt lat="45.52454" lon="-73.54672">
        <ele>-7</ele>
        <time>2015-09-27T20:08:38.387Z</time>
      </trkpt>
      <trkpt lat="45.52449" lon="-73.54678">
        <ele>-7</ele>
        <time>2015-09-27T20:08:40.460Z</time>
      </trkpt>
      <trkpt lat="45.52446" lon="-73.54681">
        <ele>-5</ele>
        <time>2015-09-27T20:08:41.397Z</time>
      </trkpt>
      <trkpt lat="45.52446" lon="-73.54681">
        <ele>-5</ele>
        <time>2015-09-27T20:08:41.453Z</time>
      </trkpt>
      <trkpt lat="45.52372" lon="-73.54789">
        <ele>-2</ele>
        <time>2015-09-27T20:09:14.383Z</time>
      </trkpt>
      <trkpt lat="45.52373" lon="-73.54789">
        <ele>-5</ele>
        <time>2015-09-27T20:10:34.529Z</time>
      </trkpt>
      <trkpt lat="45.52373" lon="-73.54789">
        <ele>-5</ele>
        <time>2015-09-27T20:10:44.078Z</time>
      </trkpt>
      <trkpt lat="45.52369" lon="-73.54799">
        <ele>-11</ele>
        <time>2015-09-27T20:18:30.464Z</time>
      </trkpt>
      <trkpt lat="45.52367" lon="-73.54802">
        <ele>-12</ele>
        <time>2015-09-27T20:18:31.380Z</time>
      </trkpt>
      <trkpt lat="45.5236" lon="-73.54808">
        <ele>-13</ele>
        <time>2015-09-27T20:18:33.447Z</time>
      </trkpt>
      <trkpt lat="45.52357" lon="-73.54811">
        <ele>-12</ele>
        <time>2015-09-27T20:18:34.379Z</time>
      </trkpt>
      <trkpt lat="45.52352" lon="-73.54814">
        <ele>-10</ele>
        <time>2015-09-27T20:18:35.432Z</time>
      </trkpt>
      <trkpt lat="45.52347" lon="-73.54817">
        <ele>-8</ele>
        <time>2015-09-27T20:18:36.386Z</time>
      </trkpt>
      <trkpt lat="45.52343" lon="-73.54822">
        <ele>-10</ele>
        <time>2015-09-27T20:18:37.460Z</time>
      </trkpt>
      <trkpt lat="45.52334" lon="-73.5483">
        <ele>-10</ele>
        <time>2015-09-27T20:18:38.386Z</time>
      </trkpt>
      <trkpt lat="45.52327" lon="-73.54836">
        <ele>-9</ele>
        <time>2015-09-27T20:18:40.447Z</time>
      </trkpt>
      <trkpt lat="45.52323" lon="-73.54834">
        <ele>-6</ele>
        <time>2015-09-27T20:18:41.386Z</time>
      </trkpt>
      <trkpt lat="45.52317" lon="-73.54843">
        <ele>-7</ele>
        <time>2015-09-27T20:18:43.474Z</time>
      </trkpt>
      <trkpt lat="45.52312" lon="-73.54851">
        <ele>-8</ele>
        <time>2015-09-27T20:18:44.391Z</time>
      </trkpt>
      <trkpt lat="45.52309" lon="-73.54855">
        <ele>-9</ele>
        <time>2015-09-27T20:18:45.415Z</time>
      </trkpt>
      <trkpt lat="45.52303" lon="-73.54858">
        <ele>-11</ele>
        <time>2015-09-27T20:18:46.376Z</time>
      </trkpt>
      <trkpt lat="45.52298" lon="-73.5486">
        <ele>-11</ele>
        <time>2015-09-27T20:18:47.468Z</time>
      </trkpt>
      <trkpt lat="45.52294" lon="-73.54867">
        <ele>-8</ele>
        <time>2015-09-27T20:18:48.390Z</time>
      </trkpt>
      <trkpt lat="45.52291" lon="-73.54872">
        <ele>-9</ele>
        <time>2015-09-27T20:18:49.459Z</time>
      </trkpt>
      <trkpt lat="45.52287" lon="-73.54878">
        <ele>-11</ele>
        <time>2015-09-27T20:18:50.383Z</time>
      </trkpt>
      <trkpt lat="45.52283" lon="-73.54884">
        <ele>-10</ele>
        <time>2015-09-27T20:18:51.386Z</time>
      </trkpt>
      <trkpt lat="45.52278" lon="-73.54889">
        <ele>-10</ele>
        <time>2015-09-27T20:18:52.381Z</time>
      </trkpt>
      <trkpt lat="45.5227" lon="-73.54893">
        <ele>-10</ele>
        <time>2015-09-27T20:18:54.430Z</time>
      </trkpt>
      <trkpt lat="45.52258" lon="-73.54891">
        <ele>-10</ele>
        <time>2015-09-27T20:18:55.379Z</time>
      </trkpt>
      <trkpt lat="45.52257" lon="-73.54895">
        <ele>-10</ele>
        <time>2015-09-27T20:18:58.469Z</time>
      </trkpt>
      <trkpt lat="45.52253" lon="-73.54902">
        <ele>-11</ele>
        <time>2015-09-27T20:18:59.374Z</time>
      </trkpt>
      <trkpt lat="45.52248" lon="-73.54908">
        <ele>-12</ele>
        <time>2015-09-27T20:19:00.439Z</time>
      </trkpt>
      <trkpt lat="45.52244" lon="-73.54911">
        <ele>-12</ele>
        <time>2015-09-27T20:19:01.384Z</time>
      </trkpt>
      <trkpt lat="45.52236" lon="-73.54917">
        <ele>-14</ele>
        <time>2015-09-27T20:19:03.433Z</time>
      </trkpt>
      <trkpt lat="45.52236" lon="-73.54924">
        <ele>-14</ele>
        <time>2015-09-27T20:19:04.384Z</time>
      </trkpt>
      <trkpt lat="45.52229" lon="-73.54932">
        <ele>-15</ele>
        <time>2015-09-27T20:19:06.398Z</time>
      </trkpt>
      <trkpt lat="45.52225" lon="-73.54935">
        <ele>-14</ele>
        <time>2015-09-27T20:19:07.385Z</time>
      </trkpt>
      <trkpt lat="45.52221" lon="-73.54944">
        <ele>-16</ele>
        <time>2015-09-27T20:19:09.458Z</time>
      </trkpt>
      <trkpt lat="45.52217" lon="-73.54947">
        <ele>-16</ele>
        <time>2015-09-27T20:19:10.417Z</time>
      </trkpt>
      <trkpt lat="45.52211" lon="-73.54951">
        <ele>-13</ele>
        <time>2015-09-27T20:19:12.439Z</time>
      </trkpt>
      <trkpt lat="45.52208" lon="-73.54952">
        <ele>-13</ele>
        <time>2015-09-27T20:19:13.369Z</time>
      </trkpt>
      <trkpt lat="45.52215" lon="-73.54946">
        <ele>-17</ele>
        <time>2015-09-27T20:19:20.438Z</time>
      </trkpt>
      <trkpt lat="45.52217" lon="-73.54944">
        <ele>-16</ele>
        <time>2015-09-27T20:19:21.380Z</time>
      </trkpt>
      <trkpt lat="45.52223" lon="-73.54942">
        <ele>-13</ele>
        <time>2015-09-27T20:19:23.445Z</time>
      </trkpt>
      <trkpt lat="45.52226" lon="-73.5494">
        <ele>-12</ele>
        <time>2015-09-27T20:19:24.383Z</time>
      </trkpt>
      <trkpt lat="45.52233" lon="-73.54944">
        <ele>-13</ele>
        <time>2015-09-27T20:19:26.431Z</time>
      </trkpt>
      <trkpt lat="45.52236" lon="-73.54948">
        <ele>-13</ele>
        <time>2015-09-27T20:19:27.381Z</time>
      </trkpt>
      <trkpt lat="45.52242" lon="-73.54957">
        <ele>-13</ele>
        <time>2015-09-27T20:19:29.441Z</time>
      </trkpt>
      <trkpt lat="45.52244" lon="-73.54962">
        <ele>-12</ele>
        <time>2015-09-27T20:19:30.367Z</time>
      </trkpt>
      <trkpt lat="45.52246" lon="-73.54969">
        <ele>-11</ele>
        <time>2015-09-27T20:19:31.384Z</time>
      </trkpt>
      <trkpt lat="45.52247" lon="-73.54976">
        <ele>-12</ele>
        <time>2015-09-27T20:19:32.380Z</time>
      </trkpt>
      <trkpt lat="45.52247" lon="-73.54983">
        <ele>-8</ele>
        <time>2015-09-27T20:19:33.428Z</time>
      </trkpt>
      <trkpt lat="45.52247" lon="-73.5499">
        <ele>-8</ele>
        <time>2015-09-27T20:19:34.371Z</time>
      </trkpt>
      <trkpt lat="45.52248" lon="-73.54996">
        <ele>-7</ele>
        <time>2015-09-27T20:19:35.407Z</time>
      </trkpt>
      <trkpt lat="45.5225" lon="-73.55002">
        <ele>-8</ele>
        <time>2015-09-27T20:19:36.369Z</time>
      </trkpt>
      <trkpt lat="45.52252" lon="-73.55008">
        <ele>-7</ele>
        <time>2015-09-27T20:19:37.431Z</time>
      </trkpt>
      <trkpt lat="45.52255" lon="-73.55013">
        <ele>-7</ele>
        <time>2015-09-27T20:19:38.383Z</time>
      </trkpt>
      <trkpt lat="45.52261" lon="-73.55022">
        <ele>-6</ele>
        <time>2015-09-27T20:19:40.430Z</time>
      </trkpt>
      <trkpt lat="45.52263" lon="-73.55026">
        <ele>-5</ele>
        <time>2015-09-27T20:19:41.368Z</time>
      </trkpt>
      <trkpt lat="45.52269" lon="-73.55034">
        <ele>-3</ele>
        <time>2015-09-27T20:19:43.495Z</time>
      </trkpt>
      <trkpt lat="45.52271" lon="-73.55041">
        <ele>-2</ele>
        <time>2015-09-27T20:19:44.369Z</time>
      </trkpt>
      <trkpt lat="45.52273" lon="-73.55048">
        <ele>-3</ele>
        <time>2015-09-27T20:19:45.451Z</time>
      </trkpt>
      <trkpt lat="45.52275" lon="-73.55053">
        <ele>-1</ele>
        <time>2015-09-27T20:19:46.370Z</time>
      </trkpt>
      <trkpt lat="45.52281" lon="-73.55063">
        <ele>-5</ele>
        <time>2015-09-27T20:19:49.467Z</time>
      </trkpt>
      <trkpt lat="45.52282" lon="-73.55064">
        <ele>-4</ele>
        <time>2015-09-27T20:19:50.368Z</time>
      </trkpt>
      <trkpt lat="45.52287" lon="-73.55071">
        <ele>-3</ele>
        <time>2015-09-27T20:19:53.111Z</time>
      </trkpt>
      <trkpt lat="45.5229" lon="-73.55074">
        <ele>-5</ele>
        <time>2015-09-27T20:19:53.370Z</time>
      </trkpt>
      <trkpt lat="45.52294" lon="-73.55077">
        <ele>-5</ele>
        <time>2015-09-27T20:19:54.450Z</time>
      </trkpt>
      <trkpt lat="45.52297" lon="-73.55081">
        <ele>-5</ele>
        <time>2015-09-27T20:19:55.368Z</time>
      </trkpt>
      <trkpt lat="45.523" lon="-73.55086">
        <ele>-3</ele>
        <time>2015-09-27T20:19:56.427Z</time>
      </trkpt>
      <trkpt lat="45.52302" lon="-73.55093">
        <ele>-4</ele>
        <time>2015-09-27T20:19:57.381Z</time>
      </trkpt>
      <trkpt lat="45.52304" lon="-73.55099">
        <ele>-4</ele>
        <time>2015-09-27T20:19:58.396Z</time>
      </trkpt>
      <trkpt lat="45.52305" lon="-73.55106">
        <ele>-2</ele>
        <time>2015-09-27T20:19:59.368Z</time>
      </trkpt>
      <trkpt lat="45.52308" lon="-73.55117">
        <time>2015-09-27T20:20:01.457Z</time>
      </trkpt>
      <trkpt lat="45.52309" lon="-73.55124">
        <ele>1</ele>
        <time>2015-09-27T20:20:02.383Z</time>
      </trkpt>
      <trkpt lat="45.52313" lon="-73.55135">
        <ele>1</ele>
        <time>2015-09-27T20:20:04.551Z</time>
      </trkpt>
      <trkpt lat="45.52324" lon="-73.55157">
        <ele>3</ele>
        <time>2015-09-27T20:20:10.382Z</time>
      </trkpt>
      <trkpt lat="45.5233" lon="-73.55165">
        <ele>3</ele>
        <time>2015-09-27T20:20:13.410Z</time>
      </trkpt>
      <trkpt lat="45.52333" lon="-73.55164">
        <ele>2</ele>
        <time>2015-09-27T20:20:14.382Z</time>
      </trkpt>
      <trkpt lat="45.5234" lon="-73.55158">
        <ele>-1</ele>
        <time>2015-09-27T20:20:16.440Z</time>
      </trkpt>
      <trkpt lat="45.52343" lon="-73.55155">
        <ele>-1</ele>
        <time>2015-09-27T20:20:17.380Z</time>
      </trkpt>
      <trkpt lat="45.52343" lon="-73.55168">
        <ele>-13</ele>
        <time>2015-09-27T20:20:25.450Z</time>
      </trkpt>
      <trkpt lat="45.52342" lon="-73.55173">
        <ele>-14</ele>
        <time>2015-09-27T20:20:26.383Z</time>
      </trkpt>
      <trkpt lat="45.52342" lon="-73.55178">
        <ele>-13</ele>
        <time>2015-09-27T20:20:27.431Z</time>
      </trkpt>
      <trkpt lat="45.52376" lon="-73.55268">
        <ele>-23</ele>
        <time>2015-09-27T20:20:48.441Z</time>
      </trkpt>
      <trkpt lat="45.52378" lon="-73.55278">
        <ele>-23</ele>
        <time>2015-09-27T20:20:50.441Z</time>
      </trkpt>
      <trkpt lat="45.5238" lon="-73.55283">
        <ele>-23</ele>
        <time>2015-09-27T20:20:51.381Z</time>
      </trkpt>
      <trkpt lat="45.52383" lon="-73.55292">
        <ele>-23</ele>
        <time>2015-09-27T20:20:53.434Z</time>
      </trkpt>
      <trkpt lat="45.52384" lon="-73.55297">
        <ele>-22</ele>
        <time>2015-09-27T20:20:54.381Z</time>
      </trkpt>
      <trkpt lat="45.52386" lon="-73.55309">
        <ele>-19</ele>
        <time>2015-09-27T20:20:59.442Z</time>
      </trkpt>
      <trkpt lat="45.52386" lon="-73.5531">
        <ele>-19</ele>
        <time>2015-09-27T20:21:00.388Z</time>
      </trkpt>
      <trkpt lat="45.52394" lon="-73.55308">
        <ele>-19</ele>
        <time>2015-09-27T20:21:05.440Z</time>
      </trkpt>
      <trkpt lat="45.52396" lon="-73.55308">
        <ele>-19</ele>
        <time>2015-09-27T20:21:06.378Z</time>
      </trkpt>
      <trkpt lat="45.52401" lon="-73.55317">
        <ele>-14</ele>
        <time>2015-09-27T20:21:20.449Z</time>
      </trkpt>
      <trkpt lat="45.52402" lon="-73.55321">
        <ele>-12</ele>
        <time>2015-09-27T20:21:21.381Z</time>
      </trkpt>
      <trkpt lat="45.52402" lon="-73.55321">
        <ele>-12</ele>
        <time>2015-09-27T20:21:21.440Z</time>
      </trkpt>
      <trkpt lat="45.52193" lon="-73.54236">
        <ele>21</ele>
        <time>2015-09-27T20:28:49.382Z</time>
      </trkpt>
      <trkpt lat="45.5219" lon="-73.54227">
        <ele>21</ele>
        <time>2015-09-27T20:28:51.432Z</time>
      </trkpt>
      <trkpt lat="45.52189" lon="-73.54222">
        <ele>19</ele>
        <time>2015-09-27T20:28:52.383Z</time>
      </trkpt>
      <trkpt lat="45.52189" lon="-73.54213">
        <ele>18</ele>
        <time>2015-09-27T20:28:54.430Z</time>
      </trkpt>
      <trkpt lat="45.5219" lon="-73.54208">
        <ele>17</ele>
        <time>2015-09-27T20:28:55.382Z</time>
      </trkpt>
      <trkpt lat="45.52189" lon="-73.54202">
        <ele>16</ele>
        <time>2015-09-27T20:28:56.467Z</time>
      </trkpt>
      <trkpt lat="45.52184" lon="-73.54156">
        <ele>19</ele>
        <time>2015-09-27T20:29:07.430Z</time>
      </trkpt>
      <trkpt lat="45.52184" lon="-73.54143">
        <ele>20</ele>
        <time>2015-09-27T20:29:11.431Z</time>
      </trkpt>
      <trkpt lat="45.52183" lon="-73.5414">
        <ele>19</ele>
        <time>2015-09-27T20:29:12.383Z</time>
      </trkpt>
      <trkpt lat="45.52182" lon="-73.54133">
        <ele>20</ele>
        <time>2015-09-27T20:29:14.428Z</time>
      </trkpt>
      <trkpt lat="45.52181" lon="-73.54127">
        <ele>20</ele>
        <time>2015-09-27T20:29:15.383Z</time>
      </trkpt>
      <trkpt lat="45.52179" lon="-73.5412">
        <ele>19</ele>
        <time>2015-09-27T20:29:16.756Z</time>
      </trkpt>
      <trkpt lat="45.52177" lon="-73.54112">
        <ele>17</ele>
        <time>2015-09-27T20:29:17.386Z</time>
      </trkpt>
      <trkpt lat="45.52174" lon="-73.54102">
        <ele>17</ele>
        <time>2015-09-27T20:29:18.449Z</time>
      </trkpt>
      <trkpt lat="45.52161" lon="-73.54075">
        <ele>16</ele>
        <time>2015-09-27T20:29:19.367Z</time>
      </trkpt>
      <trkpt lat="45.52161" lon="-73.54075">
        <ele>16</ele>
        <time>2015-09-27T20:29:19.390Z</time>
      </trkpt>
      <trkpt lat="45.52157" lon="-73.54063">
        <ele>15</ele>
        <time>2015-09-27T20:29:20.430Z</time>
      </trkpt>
      <trkpt lat="45.52162" lon="-73.54054">
        <ele>14</ele>
        <time>2015-09-27T20:29:23.383Z</time>
      </trkpt>
      <trkpt lat="45.52163" lon="-73.54048">
        <ele>14</ele>
        <time>2015-09-27T20:29:24.366Z</time>
      </trkpt>
      <trkpt lat="45.52162" lon="-73.54037">
        <ele>14</ele>
        <time>2015-09-27T20:29:26.441Z</time>
      </trkpt>
      <trkpt lat="45.52161" lon="-73.54032">
        <ele>12</ele>
        <time>2015-09-27T20:29:27.383Z</time>
      </trkpt>
      <trkpt lat="45.52157" lon="-73.54021">
        <ele>13</ele>
        <time>2015-09-27T20:29:29.430Z</time>
      </trkpt>
      <trkpt lat="45.52157" lon="-73.54016">
        <ele>13</ele>
        <time>2015-09-27T20:29:30.379Z</time>
      </trkpt>
      <trkpt lat="45.5216" lon="-73.54011">
        <ele>11</ele>
        <time>2015-09-27T20:29:31.469Z</time>
      </trkpt>
      <trkpt lat="45.52163" lon="-73.54005">
        <ele>11</ele>
        <time>2015-09-27T20:29:32.370Z</time>
      </trkpt>
      <trkpt lat="45.52166" lon="-73.53996">
        <ele>10</ele>
        <time>2015-09-27T20:29:34.432Z</time>
      </trkpt>
      <trkpt lat="45.52167" lon="-73.53992">
        <ele>10</ele>
        <time>2015-09-27T20:29:35.381Z</time>
      </trkpt>
      <trkpt lat="45.52166" lon="-73.53979">
        <ele>9</ele>
        <time>2015-09-27T20:29:38.464Z</time>
      </trkpt>
      <trkpt lat="45.52165" lon="-73.53974">
        <ele>8</ele>
        <time>2015-09-27T20:29:39.382Z</time>
      </trkpt>
      <trkpt lat="45.52162" lon="-73.53963">
        <ele>5</ele>
        <time>2015-09-27T20:29:41.447Z</time>
      </trkpt>
      <trkpt lat="45.52161" lon="-73.53958">
        <ele>4</ele>
        <time>2015-09-27T20:29:42.379Z</time>
      </trkpt>
      <trkpt lat="45.52158" lon="-73.53948">
        <ele>4</ele>
        <time>2015-09-27T20:29:44.433Z</time>
      </trkpt>
      <trkpt lat="45.52156" lon="-73.53944">
        <ele>6</ele>
        <time>2015-09-27T20:29:45.386Z</time>
      </trkpt>
      <trkpt lat="45.52152" lon="-73.53933">
        <ele>11</ele>
        <time>2015-09-27T20:29:48.432Z</time>
      </trkpt>
      <trkpt lat="45.5215" lon="-73.53929">
        <ele>9</ele>
        <time>2015-09-27T20:29:49.384Z</time>
      </trkpt>
      <trkpt lat="45.52145" lon="-73.53921">
        <ele>10</ele>
        <time>2015-09-27T20:29:51.423Z</time>
      </trkpt>
      <trkpt lat="45.52143" lon="-73.53916">
        <ele>10</ele>
        <time>2015-09-27T20:29:52.385Z</time>
      </trkpt>
      <trkpt lat="45.5214" lon="-73.53905">
        <ele>11</ele>
        <time>2015-09-27T20:29:54.431Z</time>
      </trkpt>
      <trkpt lat="45.52139" lon="-73.539">
        <ele>9</ele>
        <time>2015-09-27T20:29:55.382Z</time>
      </trkpt>
      <trkpt lat="45.52137" lon="-73.5389">
        <ele>8</ele>
        <time>2015-09-27T20:29:57.384Z</time>
      </trkpt>
      <trkpt lat="45.52136" lon="-73.53885">
        <ele>8</ele>
        <time>2015-09-27T20:29:58.383Z</time>
      </trkpt>
      <trkpt lat="45.52133" lon="-73.53874">
        <ele>9</ele>
        <time>2015-09-27T20:30:00.441Z</time>
      </trkpt>
      <trkpt lat="45.52131" lon="-73.53868">
        <ele>16</ele>
        <time>2015-09-27T20:30:01.382Z</time>
      </trkpt>
      <trkpt lat="45.52127" lon="-73.53858">
        <ele>15</ele>
        <time>2015-09-27T20:30:03.394Z</time>
      </trkpt>
      <trkpt lat="45.52125" lon="-73.53852">
        <ele>14</ele>
        <time>2015-09-27T20:30:04.371Z</time>
      </trkpt>
      <trkpt lat="45.52121" lon="-73.53842">
        <ele>18</ele>
        <time>2015-09-27T20:30:06.447Z</time>
      </trkpt>
      <trkpt lat="45.5212" lon="-73.53836">
        <ele>18</ele>
        <time>2015-09-27T20:30:07.403Z</time>
      </trkpt>
      <trkpt lat="45.52118" lon="-73.53826">
        <ele>17</ele>
        <time>2015-09-27T20:30:09.444Z</time>
      </trkpt>
      <trkpt lat="45.52118" lon="-73.5382">
        <ele>17</ele>
        <time>2015-09-27T20:30:10.384Z</time>
      </trkpt>
      <trkpt lat="45.52117" lon="-73.53809">
        <ele>19</ele>
        <time>2015-09-27T20:30:12.399Z</time>
      </trkpt>
      <trkpt lat="45.52116" lon="-73.53803">
        <ele>18</ele>
        <time>2015-09-27T20:30:13.390Z</time>
      </trkpt>
      <trkpt lat="45.52114" lon="-73.53791">
        <ele>19</ele>
        <time>2015-09-27T20:30:15.431Z</time>
      </trkpt>
      <trkpt lat="45.52112" lon="-73.53785">
        <ele>19</ele>
        <time>2015-09-27T20:30:16.383Z</time>
      </trkpt>
      <trkpt lat="45.52111" lon="-73.53779">
        <ele>15</ele>
        <time>2015-09-27T20:30:17.459Z</time>
      </trkpt>
      <trkpt lat="45.52112" lon="-73.53764">
        <ele>15</ele>
        <time>2015-09-27T20:30:18.385Z</time>
      </trkpt>
      <trkpt lat="45.52108" lon="-73.53758">
        <ele>21</ele>
        <time>2015-09-27T20:30:19.445Z</time>
      </trkpt>
      <trkpt lat="45.52107" lon="-73.53749">
        <ele>21</ele>
        <time>2015-09-27T20:30:20.382Z</time>
      </trkpt>
      <trkpt lat="45.52104" lon="-73.53739">
        <ele>21</ele>
        <time>2015-09-27T20:30:22.432Z</time>
      </trkpt>
      <trkpt lat="45.52103" lon="-73.53733">
        <ele>21</ele>
        <time>2015-09-27T20:30:23.381Z</time>
      </trkpt>
      <trkpt lat="45.52101" lon="-73.53726">
        <ele>21</ele>
        <time>2015-09-27T20:30:24.460Z</time>
      </trkpt>
      <trkpt lat="45.52099" lon="-73.53718">
        <ele>22</ele>
        <time>2015-09-27T20:30:25.382Z</time>
      </trkpt>
      <trkpt lat="45.52095" lon="-73.53711">
        <ele>22</ele>
        <time>2015-09-27T20:30:26.434Z</time>
      </trkpt>
      <trkpt lat="45.5209" lon="-73.53703">
        <ele>21</ele>
        <time>2015-09-27T20:30:27.369Z</time>
      </trkpt>
      <trkpt lat="45.52091" lon="-73.53694">
        <ele>25</ele>
        <time>2015-09-27T20:30:28.456Z</time>
      </trkpt>
      <trkpt lat="45.52089" lon="-73.53684">
        <ele>27</ele>
        <time>2015-09-27T20:30:29.379Z</time>
      </trkpt>
      <trkpt lat="45.52088" lon="-73.53675">
        <ele>27</ele>
        <time>2015-09-27T20:30:30.465Z</time>
      </trkpt>
      <trkpt lat="45.52089" lon="-73.53667">
        <ele>27</ele>
        <time>2015-09-27T20:30:31.382Z</time>
      </trkpt>
      <trkpt lat="45.52087" lon="-73.5366">
        <ele>27</ele>
        <time>2015-09-27T20:30:32.430Z</time>
      </trkpt>
      <trkpt lat="45.52083" lon="-73.53654">
        <ele>27</ele>
        <time>2015-09-27T20:30:33.380Z</time>
      </trkpt>
      <trkpt lat="45.52082" lon="-73.53644">
        <ele>28</ele>
        <time>2015-09-27T20:30:34.431Z</time>
      </trkpt>
      <trkpt lat="45.52082" lon="-73.53637">
        <ele>27</ele>
        <time>2015-09-27T20:30:35.382Z</time>
      </trkpt>
      <trkpt lat="45.52081" lon="-73.53629">
        <ele>27</ele>
        <time>2015-09-27T20:30:36.421Z</time>
      </trkpt>
      <trkpt lat="45.52079" lon="-73.5362">
        <ele>28</ele>
        <time>2015-09-27T20:30:37.374Z</time>
      </trkpt>
      <trkpt lat="45.52078" lon="-73.53613">
        <ele>27</ele>
        <time>2015-09-27T20:30:38.432Z</time>
      </trkpt>
      <trkpt lat="45.52074" lon="-73.53606">
        <ele>27</ele>
        <time>2015-09-27T20:30:39.383Z</time>
      </trkpt>
      <trkpt lat="45.52073" lon="-73.53598">
        <ele>27</ele>
        <time>2015-09-27T20:30:40.457Z</time>
      </trkpt>
      <trkpt lat="45.52071" lon="-73.5359">
        <ele>27</ele>
        <time>2015-09-27T20:30:41.383Z</time>
      </trkpt>
      <trkpt lat="45.52069" lon="-73.53582">
        <ele>26</ele>
        <time>2015-09-27T20:30:42.440Z</time>
      </trkpt>
      <trkpt lat="45.52074" lon="-73.53568">
        <ele>29</ele>
        <time>2015-09-27T20:30:43.374Z</time>
      </trkpt>
      <trkpt lat="45.52074" lon="-73.53568">
        <ele>29</ele>
        <time>2015-09-27T20:30:43.403Z</time>
      </trkpt>
      <trkpt lat="45.52082" lon="-73.53558">
        <ele>30</ele>
        <time>2015-09-27T20:30:44.381Z</time>
      </trkpt>
      <trkpt lat="45.5208" lon="-73.53552">
        <ele>31</ele>
        <time>2015-09-27T20:30:45.431Z</time>
      </trkpt>
      <trkpt lat="45.52074" lon="-73.53548">
        <ele>31</ele>
        <time>2015-09-27T20:30:46.386Z</time>
      </trkpt>
      <trkpt lat="45.52074" lon="-73.53538">
        <ele>31</ele>
        <time>2015-09-27T20:30:48.395Z</time>
      </trkpt>
      <trkpt lat="45.52079" lon="-73.53535">
        <ele>32</ele>
        <time>2015-09-27T20:30:49.381Z</time>
      </trkpt>
      <trkpt lat="45.52083" lon="-73.53524">
        <ele>35</ele>
        <time>2015-09-27T20:30:54.449Z</time>
      </trkpt>
      <trkpt lat="45.52084" lon="-73.53522">
        <ele>35</ele>
        <time>2015-09-27T20:30:55.381Z</time>
      </trkpt>
      <trkpt lat="45.52078" lon="-73.53514">
        <ele>17</ele>
        <time>2015-09-27T20:31:03.409Z</time>
      </trkpt>
      <trkpt lat="45.52074" lon="-73.53514">
        <ele>14</ele>
        <time>2015-09-27T20:31:04.369Z</time>
      </trkpt>
      <trkpt lat="45.52069" lon="-73.53514">
        <ele>14</ele>
        <time>2015-09-27T20:31:05.432Z</time>
      </trkpt>
      <trkpt lat="45.52064" lon="-73.53515">
        <ele>10</ele>
        <time>2015-09-27T20:31:06.382Z</time>
      </trkpt>
      <trkpt lat="45.52059" lon="-73.53515">
        <ele>11</ele>
        <time>2015-09-27T20:31:07.398Z</time>
      </trkpt>
      <trkpt lat="45.52055" lon="-73.53515">
        <ele>11</ele>
        <time>2015-09-27T20:31:08.375Z</time>
      </trkpt>
      <trkpt lat="45.5205" lon="-73.53515">
        <ele>10</ele>
        <time>2015-09-27T20:31:09.440Z</time>
      </trkpt>
      <trkpt lat="45.52045" lon="-73.53514">
        <ele>9</ele>
        <time>2015-09-27T20:31:10.438Z</time>
      </trkpt>
      <trkpt lat="45.52039" lon="-73.53513">
        <ele>10</ele>
        <time>2015-09-27T20:31:11.400Z</time>
      </trkpt>
      <trkpt lat="45.52033" lon="-73.53511">
        <ele>10</ele>
        <time>2015-09-27T20:31:12.375Z</time>
      </trkpt>
      <trkpt lat="45.52033" lon="-73.53511">
        <ele>10</ele>
        <time>2015-09-27T20:31:12.428Z</time>
      </trkpt>
      <trkpt lat="45.52023" lon="-73.53508">
        <ele>10</ele>
        <time>2015-09-27T20:31:13.381Z</time>
      </trkpt>
      <trkpt lat="45.52016" lon="-73.53505">
        <ele>10</ele>
        <time>2015-09-27T20:31:15.432Z</time>
      </trkpt>
      <trkpt lat="45.52011" lon="-73.53504">
        <ele>10</ele>
        <time>2015-09-27T20:31:16.382Z</time>
      </trkpt>
      <trkpt lat="45.52003" lon="-73.53499">
        <ele>10</ele>
        <time>2015-09-27T20:31:17.460Z</time>
      </trkpt>
      <trkpt lat="45.51996" lon="-73.53494">
        <ele>10</ele>
        <time>2015-09-27T20:31:18.383Z</time>
      </trkpt>
      <trkpt lat="45.51991" lon="-73.5349">
        <ele>10</ele>
        <time>2015-09-27T20:31:20.471Z</time>
      </trkpt>
      <trkpt lat="45.51987" lon="-73.53486">
        <ele>9</ele>
        <time>2015-09-27T20:31:21.381Z</time>
      </trkpt>
      <trkpt lat="45.51982" lon="-73.53483">
        <ele>9</ele>
        <time>2015-09-27T20:31:22.474Z</time>
      </trkpt>
      <trkpt lat="45.51977" lon="-73.53485">
        <ele>8</ele>
        <time>2015-09-27T20:31:23.382Z</time>
      </trkpt>
      <trkpt lat="45.5197" lon="-73.53484">
        <ele>9</ele>
        <time>2015-09-27T20:31:25.432Z</time>
      </trkpt>
      <trkpt lat="45.51964" lon="-73.53481">
        <ele>8</ele>
        <time>2015-09-27T20:31:26.372Z</time>
      </trkpt>
      <trkpt lat="45.51958" lon="-73.53479">
        <ele>8</ele>
        <time>2015-09-27T20:31:28.405Z</time>
      </trkpt>
      <trkpt lat="45.51943" lon="-73.53499">
        <ele>4</ele>
        <time>2015-09-27T20:31:30.384Z</time>
      </trkpt>
      <trkpt lat="45.51938" lon="-73.53495">
        <ele>5</ele>
        <time>2015-09-27T20:31:31.433Z</time>
      </trkpt>
      <trkpt lat="45.51932" lon="-73.53499">
        <ele>4</ele>
        <time>2015-09-27T20:31:32.377Z</time>
      </trkpt>
      <trkpt lat="45.51928" lon="-73.53503">
        <ele>3</ele>
        <time>2015-09-27T20:31:33.434Z</time>
      </trkpt>
      <trkpt lat="45.51922" lon="-73.53509">
        <ele>2</ele>
        <time>2015-09-27T20:31:34.380Z</time>
      </trkpt>
      <trkpt lat="45.51922" lon="-73.53509">
        <ele>2</ele>
        <time>2015-09-27T20:31:34.440Z</time>
      </trkpt>
      <trkpt lat="45.51916" lon="-73.53497">
        <time>2015-09-27T20:31:35.379Z</time>
      </trkpt>
      <trkpt lat="45.51912" lon="-73.53497">
        <time>2015-09-27T20:31:36.446Z</time>
      </trkpt>
      <trkpt lat="45.51904" lon="-73.53495">
        <ele>-1</ele>
        <time>2015-09-27T20:31:37.380Z</time>
      </trkpt>
      <trkpt lat="45.51899" lon="-73.53499">
        <ele>-1</ele>
        <time>2015-09-27T20:31:38.435Z</time>
      </trkpt>
      <trkpt lat="45.51893" lon="-73.53502">
        <ele>-2</ele>
        <time>2015-09-27T20:31:39.380Z</time>
      </trkpt>
      <trkpt lat="45.51887" lon="-73.53505">
        <ele>-2</ele>
        <time>2015-09-27T20:31:40.428Z</time>
      </trkpt>
      <trkpt lat="45.51883" lon="-73.53507">
        <ele>-2</ele>
        <time>2015-09-27T20:31:41.371Z</time>
      </trkpt>
      <trkpt lat="45.51882" lon="-73.53516">
        <ele>-2</ele>
        <time>2015-09-27T20:31:43.503Z</time>
      </trkpt>
      <trkpt lat="45.51878" lon="-73.5352">
        <ele>-3</ele>
        <time>2015-09-27T20:31:44.369Z</time>
      </trkpt>
      <trkpt lat="45.51874" lon="-73.53523">
        <ele>-3</ele>
        <time>2015-09-27T20:31:45.396Z</time>
      </trkpt>
      <trkpt lat="45.51868" lon="-73.53527">
        <ele>-1</ele>
        <time>2015-09-27T20:31:46.374Z</time>
      </trkpt>
      <trkpt lat="45.51865" lon="-73.53529">
        <ele>-1</ele>
        <time>2015-09-27T20:31:47.392Z</time>
      </trkpt>
      <trkpt lat="45.51855" lon="-73.53528">
        <time>2015-09-27T20:31:48.390Z</time>
      </trkpt>
      <trkpt lat="45.51857" lon="-73.53539">
        <time>2015-09-27T20:31:50.440Z</time>
      </trkpt>
      <trkpt lat="45.51849" lon="-73.53544">
        <ele>-1</ele>
        <time>2015-09-27T20:31:51.383Z</time>
      </trkpt>
      <trkpt lat="45.51844" lon="-73.53541">
        <ele>-1</ele>
        <time>2015-09-27T20:31:53.463Z</time>
      </trkpt>
      <trkpt lat="45.5184" lon="-73.5355">
        <ele>-2</ele>
        <time>2015-09-27T20:31:54.385Z</time>
      </trkpt>
      <trkpt lat="45.51831" lon="-73.53552">
        <ele>-2</ele>
        <time>2015-09-27T20:31:56.397Z</time>
      </trkpt>
      <trkpt lat="45.51824" lon="-73.53554">
        <ele>-3</ele>
        <time>2015-09-27T20:31:57.368Z</time>
      </trkpt>
      <trkpt lat="45.51824" lon="-73.53566">
        <ele>-4</ele>
        <time>2015-09-27T20:31:59.396Z</time>
      </trkpt>
      <trkpt lat="45.5182" lon="-73.53573">
        <ele>-4</ele>
        <time>2015-09-27T20:32:00.397Z</time>
      </trkpt>
      <trkpt lat="45.51818" lon="-73.53575">
        <ele>-4</ele>
        <time>2015-09-27T20:32:01.456Z</time>
      </trkpt>
      <trkpt lat="45.51812" lon="-73.53578">
        <ele>-4</ele>
        <time>2015-09-27T20:32:02.378Z</time>
      </trkpt>
      <trkpt lat="45.51807" lon="-73.5358">
        <ele>-5</ele>
        <time>2015-09-27T20:32:03.432Z</time>
      </trkpt>
      <trkpt lat="45.51802" lon="-73.53581">
        <ele>-4</ele>
        <time>2015-09-27T20:32:04.427Z</time>
      </trkpt>
      <trkpt lat="45.51794" lon="-73.5358">
        <ele>-4</ele>
        <time>2015-09-27T20:32:05.431Z</time>
      </trkpt>
      <trkpt lat="45.5179" lon="-73.53586">
        <ele>-4</ele>
        <time>2015-09-27T20:32:06.372Z</time>
      </trkpt>
      <trkpt lat="45.51782" lon="-73.53593">
        <ele>-5</ele>
        <time>2015-09-27T20:32:08.432Z</time>
      </trkpt>
      <trkpt lat="45.51774" lon="-73.53594">
        <ele>-5</ele>
        <time>2015-09-27T20:32:09.382Z</time>
      </trkpt>
      <trkpt lat="45.51767" lon="-73.53596">
        <ele>-5</ele>
        <time>2015-09-27T20:32:10.448Z</time>
      </trkpt>
      <trkpt lat="45.51759" lon="-73.53599">
        <time>2015-09-27T20:32:11.368Z</time>
      </trkpt>
      <trkpt lat="45.51754" lon="-73.53603">
        <ele>-1</ele>
        <time>2015-09-27T20:32:12.430Z</time>
      </trkpt>
      <trkpt lat="45.51748" lon="-73.53604">
        <ele>-1</ele>
        <time>2015-09-27T20:32:13.381Z</time>
      </trkpt>
      <trkpt lat="45.51741" lon="-73.53606">
        <ele>-2</ele>
        <time>2015-09-27T20:32:14.477Z</time>
      </trkpt>
      <trkpt lat="45.51738" lon="-73.53614">
        <ele>-2</ele>
        <time>2015-09-27T20:32:15.372Z</time>
      </trkpt>
      <trkpt lat="45.51733" lon="-73.53614">
        <ele>-2</ele>
        <time>2015-09-27T20:32:16.686Z</time>
      </trkpt>
      <trkpt lat="45.51726" lon="-73.53617">
        <ele>-1</ele>
        <time>2015-09-27T20:32:17.664Z</time>
      </trkpt>
      <trkpt lat="45.51719" lon="-73.53619">
        <ele>-1</ele>
        <time>2015-09-27T20:32:18.695Z</time>
      </trkpt>
      <trkpt lat="45.51713" lon="-73.53621">
        <ele>-1</ele>
        <time>2015-09-27T20:32:19.671Z</time>
      </trkpt>
      <trkpt lat="45.51708" lon="-73.53627">
        <ele>-1</ele>
        <time>2015-09-27T20:32:20.695Z</time>
      </trkpt>
      <trkpt lat="45.51702" lon="-73.53634">
        <ele>-1</ele>
        <time>2015-09-27T20:32:21.665Z</time>
      </trkpt>
      <trkpt lat="45.51696" lon="-73.5364">
        <ele>-1</ele>
        <time>2015-09-27T20:32:22.713Z</time>
      </trkpt>
      <trkpt lat="45.51697" lon="-73.53645">
        <ele>-2</ele>
        <time>2015-09-27T20:32:23.679Z</time>
      </trkpt>
      <trkpt lat="45.51697" lon="-73.53645">
        <ele>-2</ele>
        <time>2015-09-27T20:32:23.813Z</time>
      </trkpt>
      <trkpt lat="45.51686" lon="-73.53648">
        <ele>-2</ele>
        <time>2015-09-27T20:32:24.697Z</time>
      </trkpt>
      <trkpt lat="45.5168" lon="-73.53657">
        <ele>-1</ele>
        <time>2015-09-27T20:32:25.745Z</time>
      </trkpt>
      <trkpt lat="45.51679" lon="-73.5366">
        <ele>-1</ele>
        <time>2015-09-27T20:32:26.679Z</time>
      </trkpt>
      <trkpt lat="45.51679" lon="-73.5366">
        <ele>-1</ele>
        <time>2015-09-27T20:32:26.733Z</time>
      </trkpt>
      <trkpt lat="45.51534" lon="-73.53701">
        <ele>-4</ele>
        <time>2015-09-27T20:32:48.535Z</time>
      </trkpt>
      <trkpt lat="45.51526" lon="-73.53703">
        <ele>-5</ele>
        <time>2015-09-27T20:32:49.554Z</time>
      </trkpt>
      <trkpt lat="45.51516" lon="-73.53711">
        <ele>-9</ele>
        <time>2015-09-27T20:32:50.532Z</time>
      </trkpt>
      <trkpt lat="45.51509" lon="-73.53711">
        <ele>-11</ele>
        <time>2015-09-27T20:32:51.596Z</time>
      </trkpt>
      <trkpt lat="45.51502" lon="-73.53714">
        <ele>-11</ele>
        <time>2015-09-27T20:32:52.537Z</time>
      </trkpt>
      <trkpt lat="45.51501" lon="-73.53726">
        <ele>-13</ele>
        <time>2015-09-27T20:32:55.623Z</time>
      </trkpt>
      <trkpt lat="45.51495" lon="-73.53726">
        <ele>-12</ele>
        <time>2015-09-27T20:32:56.552Z</time>
      </trkpt>
      <trkpt lat="45.51489" lon="-73.53728">
        <ele>-13</ele>
        <time>2015-09-27T20:32:58.560Z</time>
      </trkpt>
      <trkpt lat="45.51485" lon="-73.53729">
        <ele>-14</ele>
        <time>2015-09-27T20:32:59.533Z</time>
      </trkpt>
      <trkpt lat="45.5148" lon="-73.5373">
        <ele>-14</ele>
        <time>2015-09-27T20:33:00.602Z</time>
      </trkpt>
      <trkpt lat="45.51474" lon="-73.53729">
        <ele>-17</ele>
        <time>2015-09-27T20:33:01.547Z</time>
      </trkpt>
      <trkpt lat="45.51468" lon="-73.53731">
        <ele>-19</ele>
        <time>2015-09-27T20:33:03.598Z</time>
      </trkpt>
      <trkpt lat="45.51465" lon="-73.5373">
        <ele>-19</ele>
        <time>2015-09-27T20:33:04.546Z</time>
      </trkpt>
      <trkpt lat="45.51458" lon="-73.53734">
        <ele>-20</ele>
        <time>2015-09-27T20:33:06.622Z</time>
      </trkpt>
      <trkpt lat="45.51453" lon="-73.53732">
        <ele>-20</ele>
        <time>2015-09-27T20:33:07.543Z</time>
      </trkpt>
      <trkpt lat="45.51445" lon="-73.53732">
        <ele>-21</ele>
        <time>2015-09-27T20:33:09.625Z</time>
      </trkpt>
      <trkpt lat="45.51442" lon="-73.53732">
        <ele>-22</ele>
        <time>2015-09-27T20:33:10.550Z</time>
      </trkpt>
      <trkpt lat="45.51436" lon="-73.53737">
        <ele>-22</ele>
        <time>2015-09-27T20:33:12.601Z</time>
      </trkpt>
      <trkpt lat="45.51429" lon="-73.53734">
        <ele>-22</ele>
        <time>2015-09-27T20:33:13.552Z</time>
      </trkpt>
      <trkpt lat="45.51421" lon="-73.53734">
        <ele>-20</ele>
        <time>2015-09-27T20:33:15.561Z</time>
      </trkpt>
      <trkpt lat="45.51416" lon="-73.53733">
        <ele>-20</ele>
        <time>2015-09-27T20:33:16.548Z</time>
      </trkpt>
      <trkpt lat="45.51409" lon="-73.53733">
        <ele>-20</ele>
        <time>2015-09-27T20:33:18.583Z</time>
      </trkpt>
      <trkpt lat="45.51406" lon="-73.53731">
        <ele>-19</ele>
        <time>2015-09-27T20:33:19.535Z</time>
      </trkpt>
      <trkpt lat="45.51401" lon="-73.53728">
        <ele>-19</ele>
        <time>2015-09-27T20:33:20.557Z</time>
      </trkpt>
      <trkpt lat="45.51397" lon="-73.53725">
        <ele>-20</ele>
        <time>2015-09-27T20:33:21.547Z</time>
      </trkpt>
      <trkpt lat="45.51392" lon="-73.53717">
        <ele>-20</ele>
        <time>2015-09-27T20:33:23.603Z</time>
      </trkpt>
      <trkpt lat="45.51388" lon="-73.53716">
        <ele>-18</ele>
        <time>2015-09-27T20:33:24.546Z</time>
      </trkpt>
      <trkpt lat="45.5138" lon="-73.5371">
        <ele>-18</ele>
        <time>2015-09-27T20:33:26.607Z</time>
      </trkpt>
      <trkpt lat="45.51376" lon="-73.53708">
        <ele>-16</ele>
        <time>2015-09-27T20:33:27.538Z</time>
      </trkpt>
      <trkpt lat="45.51368" lon="-73.53706">
        <ele>-17</ele>
        <time>2015-09-27T20:33:29.598Z</time>
      </trkpt>
      <trkpt lat="45.51363" lon="-73.53704">
        <ele>-18</ele>
        <time>2015-09-27T20:33:30.545Z</time>
      </trkpt>
      <trkpt lat="45.51355" lon="-73.53698">
        <ele>-18</ele>
        <time>2015-09-27T20:33:32.557Z</time>
      </trkpt>
      <trkpt lat="45.51352" lon="-73.53695">
        <ele>-19</ele>
        <time>2015-09-27T20:33:33.548Z</time>
      </trkpt>
      <trkpt lat="45.51348" lon="-73.53691">
        <ele>-18</ele>
        <time>2015-09-27T20:33:34.599Z</time>
      </trkpt>
      <trkpt lat="45.51342" lon="-73.53682">
        <ele>-18</ele>
        <time>2015-09-27T20:33:35.552Z</time>
      </trkpt>
      <trkpt lat="45.51336" lon="-73.53676">
        <ele>-21</ele>
        <time>2015-09-27T20:33:37.604Z</time>
      </trkpt>
      <trkpt lat="45.51333" lon="-73.53675">
        <ele>-21</ele>
        <time>2015-09-27T20:33:38.548Z</time>
      </trkpt>
      <trkpt lat="45.51327" lon="-73.53671">
        <ele>-21</ele>
        <time>2015-09-27T20:33:40.576Z</time>
      </trkpt>
      <trkpt lat="45.51324" lon="-73.53668">
        <ele>-21</ele>
        <time>2015-09-27T20:33:41.546Z</time>
      </trkpt>
      <trkpt lat="45.51319" lon="-73.53667">
        <ele>-21</ele>
        <time>2015-09-27T20:33:44.615Z</time>
      </trkpt>
      <trkpt lat="45.51314" lon="-73.53665">
        <ele>-20</ele>
        <time>2015-09-27T20:33:45.547Z</time>
      </trkpt>
      <trkpt lat="45.51306" lon="-73.53663">
        <ele>-22</ele>
        <time>2015-09-27T20:33:47.622Z</time>
      </trkpt>
      <trkpt lat="45.51302" lon="-73.53664">
        <ele>-21</ele>
        <time>2015-09-27T20:33:48.549Z</time>
      </trkpt>
      <trkpt lat="45.51295" lon="-73.5367">
        <ele>-20</ele>
        <time>2015-09-27T20:33:50.598Z</time>
      </trkpt>
      <trkpt lat="45.51292" lon="-73.53675">
        <ele>-18</ele>
        <time>2015-09-27T20:33:51.535Z</time>
      </trkpt>
      <trkpt lat="45.51287" lon="-73.53685">
        <ele>-16</ele>
        <time>2015-09-27T20:33:53.569Z</time>
      </trkpt>
      <trkpt lat="45.51285" lon="-73.53691">
        <ele>-15</ele>
        <time>2015-09-27T20:33:54.535Z</time>
      </trkpt>
      <trkpt lat="45.51281" lon="-73.53699">
        <ele>-16</ele>
        <time>2015-09-27T20:33:56.615Z</time>
      </trkpt>
      <trkpt lat="45.51278" lon="-73.53701">
        <ele>-14</ele>
        <time>2015-09-27T20:33:57.537Z</time>
      </trkpt>
      <trkpt lat="45.51272" lon="-73.53693">
        <ele>-15</ele>
        <time>2015-09-27T20:34:01.557Z</time>
      </trkpt>
      <trkpt lat="45.51273" lon="-73.53689">
        <ele>-17</ele>
        <time>2015-09-27T20:34:02.548Z</time>
      </trkpt>
      <trkpt lat="45.51272" lon="-73.53678">
        <ele>-17</ele>
        <time>2015-09-27T20:34:04.571Z</time>
      </trkpt>
      <trkpt lat="45.51272" lon="-73.53673">
        <ele>-16</ele>
        <time>2015-09-27T20:34:05.534Z</time>
      </trkpt>
      <trkpt lat="45.51273" lon="-73.53663">
        <ele>-16</ele>
        <time>2015-09-27T20:34:07.549Z</time>
      </trkpt>
      <trkpt lat="45.51274" lon="-73.53657">
        <ele>-16</ele>
        <time>2015-09-27T20:34:08.538Z</time>
      </trkpt>
      <trkpt lat="45.51278" lon="-73.53648">
        <ele>-17</ele>
        <time>2015-09-27T20:34:10.599Z</time>
      </trkpt>
      <trkpt lat="45.51281" lon="-73.53644">
        <ele>-18</ele>
        <time>2015-09-27T20:34:11.544Z</time>
      </trkpt>
      <trkpt lat="45.51286" lon="-73.53634">
        <ele>-19</ele>
        <time>2015-09-27T20:34:13.607Z</time>
      </trkpt>
      <trkpt lat="45.51288" lon="-73.5363">
        <ele>-18</ele>
        <time>2015-09-27T20:34:14.547Z</time>
      </trkpt>
      <trkpt lat="45.51292" lon="-73.53621">
        <ele>-22</ele>
        <time>2015-09-27T20:34:16.554Z</time>
      </trkpt>
      <trkpt lat="45.51294" lon="-73.53618">
        <ele>-20</ele>
        <time>2015-09-27T20:34:17.537Z</time>
      </trkpt>
      <trkpt lat="45.51299" lon="-73.53612">
        <ele>-17</ele>
        <time>2015-09-27T20:34:19.608Z</time>
      </trkpt>
      <trkpt lat="45.51301" lon="-73.53609">
        <ele>-20</ele>
        <time>2015-09-27T20:34:20.537Z</time>
      </trkpt>
      <trkpt lat="45.51306" lon="-73.53598">
        <ele>-19</ele>
        <time>2015-09-27T20:34:23.622Z</time>
      </trkpt>
      <trkpt lat="45.51307" lon="-73.53594">
        <ele>-21</ele>
        <time>2015-09-27T20:34:24.546Z</time>
      </trkpt>
      <trkpt lat="45.51308" lon="-73.53584">
        <ele>-19</ele>
        <time>2015-09-27T20:34:27.609Z</time>
      </trkpt>
      <trkpt lat="45.51308" lon="-73.53581">
        <ele>-20</ele>
        <time>2015-09-27T20:34:28.546Z</time>
      </trkpt>
      <trkpt lat="45.51303" lon="-73.5357">
        <ele>-18</ele>
        <time>2015-09-27T20:34:32.591Z</time>
      </trkpt>
      <trkpt lat="45.51304" lon="-73.53566">
        <ele>-19</ele>
        <time>2015-09-27T20:34:33.544Z</time>
      </trkpt>
      <trkpt lat="45.51305" lon="-73.53554">
        <ele>-23</ele>
        <time>2015-09-27T20:34:36.614Z</time>
      </trkpt>
      <trkpt lat="45.51307" lon="-73.5355">
        <ele>-21</ele>
        <time>2015-09-27T20:34:37.552Z</time>
      </trkpt>
      <trkpt lat="45.51312" lon="-73.53541">
        <ele>-18</ele>
        <time>2015-09-27T20:34:39.599Z</time>
      </trkpt>
      <trkpt lat="45.51314" lon="-73.53537">
        <ele>-18</ele>
        <time>2015-09-27T20:34:40.555Z</time>
      </trkpt>
      <trkpt lat="45.51319" lon="-73.53529">
        <ele>-19</ele>
        <time>2015-09-27T20:34:42.599Z</time>
      </trkpt>
      <trkpt lat="45.5132" lon="-73.53525">
        <ele>-18</ele>
        <time>2015-09-27T20:34:43.545Z</time>
      </trkpt>
      <trkpt lat="45.51323" lon="-73.53517">
        <ele>-11</ele>
        <time>2015-09-27T20:34:45.691Z</time>
      </trkpt>
      <trkpt lat="45.51324" lon="-73.53513">
        <ele>-12</ele>
        <time>2015-09-27T20:34:46.540Z</time>
      </trkpt>
      <trkpt lat="45.51327" lon="-73.53501">
        <ele>-11</ele>
        <time>2015-09-27T20:34:49.600Z</time>
      </trkpt>
      <trkpt lat="45.51329" lon="-73.53497">
        <ele>-10</ele>
        <time>2015-09-27T20:34:50.546Z</time>
      </trkpt>
      <trkpt lat="45.51333" lon="-73.53488">
        <ele>-12</ele>
        <time>2015-09-27T20:34:53.695Z</time>
      </trkpt>
      <trkpt lat="45.51335" lon="-73.53486">
        <ele>-11</ele>
        <time>2015-09-27T20:34:54.531Z</time>
      </trkpt>
      <trkpt lat="45.51341" lon="-73.5348">
        <ele>-9</ele>
        <time>2015-09-27T20:34:57.601Z</time>
      </trkpt>
      <trkpt lat="45.51344" lon="-73.53478">
        <ele>-8</ele>
        <time>2015-09-27T20:34:58.548Z</time>
      </trkpt>
      <trkpt lat="45.51351" lon="-73.53473">
        <ele>-8</ele>
        <time>2015-09-27T20:35:01.639Z</time>
      </trkpt>
      <trkpt lat="45.51353" lon="-73.53472">
        <ele>-9</ele>
        <time>2015-09-27T20:35:02.550Z</time>
      </trkpt>
      <trkpt lat="45.51361" lon="-73.53472">
        <ele>-8</ele>
        <time>2015-09-27T20:35:06.604Z</time>
      </trkpt>
      <trkpt lat="45.51363" lon="-73.53471">
        <ele>-6</ele>
        <time>2015-09-27T20:35:07.534Z</time>
      </trkpt>
      <trkpt lat="45.51361" lon="-73.53483">
        <ele>-6</ele>
        <time>2015-09-27T20:36:22.568Z</time>
      </trkpt>
      <trkpt lat="45.51361" lon="-73.53485">
        <ele>-7</ele>
        <time>2015-09-27T20:36:23.558Z</time>
      </trkpt>
      <trkpt lat="45.51366" lon="-73.53494">
        <ele>-9</ele>
        <time>2015-09-27T20:36:58.561Z</time>
      </trkpt>
      <trkpt lat="45.51369" lon="-73.53495">
        <ele>-9</ele>
        <time>2015-09-27T20:36:59.532Z</time>
      </trkpt>
      <trkpt lat="45.51376" lon="-73.53499">
        <ele>-9</ele>
        <time>2015-09-27T20:37:02.589Z</time>
      </trkpt>
      <trkpt lat="45.51377" lon="-73.53501">
        <ele>-9</ele>
        <time>2015-09-27T20:37:03.547Z</time>
      </trkpt>
      <trkpt lat="45.51383" lon="-73.53507">
        <ele>-15</ele>
        <time>2015-09-27T20:37:06.687Z</time>
      </trkpt>
      <trkpt lat="45.51386" lon="-73.53508">
        <ele>-14</ele>
        <time>2015-09-27T20:37:07.552Z</time>
      </trkpt>
      <trkpt lat="45.51389" lon="-73.53509">
        <ele>-14</ele>
        <time>2015-09-27T20:37:08.573Z</time>
      </trkpt>
      <trkpt lat="45.51504" lon="-73.53545">
        <ele>-7</ele>
        <time>2015-09-27T20:37:50.574Z</time>
      </trkpt>
      <trkpt lat="45.51511" lon="-73.53546">
        <ele>-7</ele>
        <time>2015-09-27T20:37:52.630Z</time>
      </trkpt>
      <trkpt lat="45.51514" lon="-73.53546">
        <ele>-6</ele>
        <time>2015-09-27T20:37:53.532Z</time>
      </trkpt>
      <trkpt lat="45.51516" lon="-73.53535">
        <ele>-8</ele>
        <time>2015-09-27T20:38:53.589Z</time>
      </trkpt>
      <trkpt lat="45.51518" lon="-73.53535">
        <ele>-7</ele>
        <time>2015-09-27T20:38:54.537Z</time>
      </trkpt>
      <trkpt lat="45.51513" lon="-73.53542">
        <ele>-11</ele>
        <time>2015-09-27T20:39:37.628Z</time>
      </trkpt>
      <trkpt lat="45.51511" lon="-73.53543">
        <ele>-11</ele>
        <time>2015-09-27T20:39:38.557Z</time>
      </trkpt>
      <trkpt lat="45.51502" lon="-73.53547">
        <ele>-7</ele>
        <time>2015-09-27T20:39:43.581Z</time>
      </trkpt>
      <trkpt lat="45.51501" lon="-73.53546">
        <ele>-7</ele>
        <time>2015-09-27T20:39:44.531Z</time>
      </trkpt>
      <trkpt lat="45.51494" lon="-73.53543">
        <ele>-6</ele>
        <time>2015-09-27T20:40:05.318Z</time>
      </trkpt>
      <trkpt lat="45.51491" lon="-73.53544">
        <ele>-5</ele>
        <time>2015-09-27T20:40:06.304Z</time>
      </trkpt>
      <trkpt lat="45.51484" lon="-73.53545">
        <ele>-3</ele>
        <time>2015-09-27T20:40:08.346Z</time>
      </trkpt>
      <trkpt lat="45.5148" lon="-73.53546">
        <ele>-3</ele>
        <time>2015-09-27T20:40:09.295Z</time>
      </trkpt>
      <trkpt lat="45.51472" lon="-73.53546">
        <ele>-7</ele>
        <time>2015-09-27T20:40:11.414Z</time>
      </trkpt>
      <trkpt lat="45.51468" lon="-73.53546">
        <ele>-9</ele>
        <time>2015-09-27T20:40:12.299Z</time>
      </trkpt>
      <trkpt lat="45.5146" lon="-73.53545">
        <ele>-11</ele>
        <time>2015-09-27T20:40:14.427Z</time>
      </trkpt>
      <trkpt lat="45.51455" lon="-73.53544">
        <ele>-11</ele>
        <time>2015-09-27T20:40:15.301Z</time>
      </trkpt>
      <trkpt lat="45.51447" lon="-73.53543">
        <ele>-11</ele>
        <time>2015-09-27T20:40:17.395Z</time>
      </trkpt>
      <trkpt lat="45.51442" lon="-73.53543">
        <ele>-11</ele>
        <time>2015-09-27T20:40:18.300Z</time>
      </trkpt>
      <trkpt lat="45.51434" lon="-73.53541">
        <ele>-11</ele>
        <time>2015-09-27T20:40:20.322Z</time>
      </trkpt>
      <trkpt lat="45.51429" lon="-73.5354">
        <ele>-11</ele>
        <time>2015-09-27T20:40:21.284Z</time>
      </trkpt>
      <trkpt lat="45.51421" lon="-73.53535">
        <ele>-14</ele>
        <time>2015-09-27T20:40:23.430Z</time>
      </trkpt>
      <trkpt lat="45.51417" lon="-73.53534">
        <ele>-13</ele>
        <time>2015-09-27T20:40:24.296Z</time>
      </trkpt>
      <trkpt lat="45.51409" lon="-73.53529">
        <ele>-15</ele>
        <time>2015-09-27T20:40:26.445Z</time>
      </trkpt>
      <trkpt lat="45.51405" lon="-73.53526">
        <ele>-16</ele>
        <time>2015-09-27T20:40:27.281Z</time>
      </trkpt>
      <trkpt lat="45.51401" lon="-73.53523">
        <ele>-16</ele>
        <time>2015-09-27T20:40:28.455Z</time>
      </trkpt>
      <trkpt lat="45.51396" lon="-73.53517">
        <ele>-17</ele>
        <time>2015-09-27T20:40:29.283Z</time>
      </trkpt>
      <trkpt lat="45.51389" lon="-73.53516">
        <ele>-14</ele>
        <time>2015-09-27T20:40:31.455Z</time>
      </trkpt>
      <trkpt lat="45.51386" lon="-73.53512">
        <ele>-14</ele>
        <time>2015-09-27T20:40:32.282Z</time>
      </trkpt>
      <trkpt lat="45.51386" lon="-73.53512">
        <ele>-14</ele>
        <time>2015-09-27T20:40:32.316Z</time>
      </trkpt>
      <trkpt lat="45.51375" lon="-73.53502">
        <ele>-13</ele>
        <time>2015-09-27T20:40:36.283Z</time>
      </trkpt>
      <trkpt lat="45.51369" lon="-73.53494">
        <ele>-17</ele>
        <time>2015-09-27T20:40:39.311Z</time>
      </trkpt>
      <trkpt lat="45.51367" lon="-73.53492">
        <ele>-14</ele>
        <time>2015-09-27T20:40:40.283Z</time>
      </trkpt>
      <trkpt lat="45.51362" lon="-73.53482">
        <ele>-16</ele>
        <time>2015-09-27T20:41:16.377Z</time>
      </trkpt>
      <trkpt lat="45.5136" lon="-73.5348">
        <ele>-14</ele>
        <time>2015-09-27T20:41:17.300Z</time>
      </trkpt>
      <trkpt lat="45.51354" lon="-73.53472">
        <ele>-13</ele>
        <time>2015-09-27T20:41:19.352Z</time>
      </trkpt>
      <trkpt lat="45.5135" lon="-73.53469">
        <ele>-13</ele>
        <time>2015-09-27T20:41:20.300Z</time>
      </trkpt>
      <trkpt lat="45.51346" lon="-73.53464">
        <ele>-11</ele>
        <time>2015-09-27T20:41:21.310Z</time>
      </trkpt>
      <trkpt lat="45.51343" lon="-73.53459">
        <ele>-13</ele>
        <time>2015-09-27T20:41:22.295Z</time>
      </trkpt>
      <trkpt lat="45.51338" lon="-73.53449">
        <ele>-13</ele>
        <time>2015-09-27T20:41:23.351Z</time>
      </trkpt>
      <trkpt lat="45.51335" lon="-73.53441">
        <ele>-14</ele>
        <time>2015-09-27T20:41:24.297Z</time>
      </trkpt>
      <trkpt lat="45.51336" lon="-73.53438">
        <ele>-15</ele>
        <time>2015-09-27T20:41:25.356Z</time>
      </trkpt>
      <trkpt lat="45.51338" lon="-73.53422">
        <ele>-14</ele>
        <time>2015-09-27T20:41:26.283Z</time>
      </trkpt>
      <trkpt lat="45.51338" lon="-73.53422">
        <ele>-14</ele>
        <time>2015-09-27T20:41:26.344Z</time>
      </trkpt>
      <trkpt lat="45.51336" lon="-73.53408">
        <ele>-12</ele>
        <time>2015-09-27T20:41:27.296Z</time>
      </trkpt>
      <trkpt lat="45.51337" lon="-73.53398">
        <ele>-10</ele>
        <time>2015-09-27T20:41:28.438Z</time>
      </trkpt>
      <trkpt lat="45.51341" lon="-73.53392">
        <ele>-10</ele>
        <time>2015-09-27T20:41:29.297Z</time>
      </trkpt>
      <trkpt lat="45.51345" lon="-73.5338">
        <ele>-10</ele>
        <time>2015-09-27T20:41:31.346Z</time>
      </trkpt>
      <trkpt lat="45.51345" lon="-73.53373">
        <ele>-9</ele>
        <time>2015-09-27T20:41:32.297Z</time>
      </trkpt>
      <trkpt lat="45.51345" lon="-73.53368">
        <ele>-9</ele>
        <time>2015-09-27T20:41:33.421Z</time>
      </trkpt>
      <trkpt lat="45.5135" lon="-73.53361">
        <ele>-8</ele>
        <time>2015-09-27T20:41:34.286Z</time>
      </trkpt>
      <trkpt lat="45.51352" lon="-73.53354">
        <ele>-8</ele>
        <time>2015-09-27T20:41:35.357Z</time>
      </trkpt>
      <trkpt lat="45.51353" lon="-73.53347">
        <ele>-8</ele>
        <time>2015-09-27T20:41:36.296Z</time>
      </trkpt>
      <trkpt lat="45.51355" lon="-73.5334">
        <ele>-8</ele>
        <time>2015-09-27T20:41:37.367Z</time>
      </trkpt>
      <trkpt lat="45.51357" lon="-73.53334">
        <ele>-9</ele>
        <time>2015-09-27T20:41:38.282Z</time>
      </trkpt>
      <trkpt lat="45.5136" lon="-73.53328">
        <ele>-8</ele>
        <time>2015-09-27T20:41:39.361Z</time>
      </trkpt>
      <trkpt lat="45.51364" lon="-73.53319">
        <ele>-10</ele>
        <time>2015-09-27T20:41:40.300Z</time>
      </trkpt>
      <trkpt lat="45.51364" lon="-73.53319">
        <ele>-10</ele>
        <time>2015-09-27T20:41:40.453Z</time>
      </trkpt>
      <trkpt lat="45.51378" lon="-73.53321">
        <ele>-9</ele>
        <time>2015-09-27T20:41:41.297Z</time>
      </trkpt>
      <trkpt lat="45.51378" lon="-73.53321">
        <ele>-9</ele>
        <time>2015-09-27T20:41:41.352Z</time>
      </trkpt>
      <trkpt lat="45.51371" lon="-73.5331">
        <ele>-9</ele>
        <time>2015-09-27T20:41:42.297Z</time>
      </trkpt>
      <trkpt lat="45.51373" lon="-73.53299">
        <ele>-10</ele>
        <time>2015-09-27T20:41:44.351Z</time>
      </trkpt>
      <trkpt lat="45.51373" lon="-73.53293">
        <ele>-10</ele>
        <time>2015-09-27T20:41:45.293Z</time>
      </trkpt>
      <trkpt lat="45.51372" lon="-73.53282">
        <ele>-7</ele>
        <time>2015-09-27T20:41:47.305Z</time>
      </trkpt>
      <trkpt lat="45.51374" lon="-73.5328">
        <ele>-8</ele>
        <time>2015-09-27T20:41:48.285Z</time>
      </trkpt>
      <trkpt lat="45.51371" lon="-73.53268">
        <ele>-14</ele>
        <time>2015-09-27T20:41:56.198Z</time>
      </trkpt>
      <trkpt lat="45.5137" lon="-73.53268">
        <ele>-13</ele>
        <time>2015-09-27T20:41:57.176Z</time>
      </trkpt>
      <trkpt lat="45.51367" lon="-73.53256">
        <ele>-9</ele>
        <time>2015-09-27T20:42:03.250Z</time>
      </trkpt>
      <trkpt lat="45.51366" lon="-73.53255">
        <ele>-10</ele>
        <time>2015-09-27T20:42:04.181Z</time>
      </trkpt>
      <trkpt lat="45.51372" lon="-73.53245">
        <ele>-9</ele>
        <time>2015-09-27T20:42:18.216Z</time>
      </trkpt>
      <trkpt lat="45.51372" lon="-73.53244">
        <ele>-8</ele>
        <time>2015-09-27T20:42:19.180Z</time>
      </trkpt>
      <trkpt lat="45.51379" lon="-73.53237">
        <ele>-6</ele>
        <time>2015-09-27T20:42:25.193Z</time>
      </trkpt>
      <trkpt lat="45.5138" lon="-73.53235">
        <ele>-5</ele>
        <time>2015-09-27T20:42:26.179Z</time>
      </trkpt>
      <trkpt lat="45.51382" lon="-73.53223">
        <ele>-8</ele>
        <time>2015-09-27T20:42:31.255Z</time>
      </trkpt>
      <trkpt lat="45.51381" lon="-73.53222">
        <ele>-10</ele>
        <time>2015-09-27T20:42:32.192Z</time>
      </trkpt>
      <trkpt lat="45.51373" lon="-73.53222">
        <ele>-17</ele>
        <time>2015-09-27T20:42:36.242Z</time>
      </trkpt>
      <trkpt lat="45.5137" lon="-73.53223">
        <ele>-20</ele>
        <time>2015-09-27T20:42:37.190Z</time>
      </trkpt>
      <trkpt lat="45.51362" lon="-73.53224">
        <ele>-26</ele>
        <time>2015-09-27T20:42:43.262Z</time>
      </trkpt>
      <trkpt lat="45.5136" lon="-73.53224">
        <ele>-25</ele>
        <time>2015-09-27T20:42:44.184Z</time>
      </trkpt>
      <trkpt lat="45.51353" lon="-73.53222">
        <ele>-25</ele>
        <time>2015-09-27T20:42:47.244Z</time>
      </trkpt>
      <trkpt lat="45.5135" lon="-73.53221">
        <ele>-26</ele>
        <time>2015-09-27T20:42:48.192Z</time>
      </trkpt>
      <trkpt lat="45.51342" lon="-73.53218">
        <ele>-21</ele>
        <time>2015-09-27T20:42:51.257Z</time>
      </trkpt>
      <trkpt lat="45.51339" lon="-73.53217">
        <ele>-19</ele>
        <time>2015-09-27T20:42:52.196Z</time>
      </trkpt>
      <trkpt lat="45.51331" lon="-73.53214">
        <ele>-20</ele>
        <time>2015-09-27T20:42:56.422Z</time>
      </trkpt>
      <trkpt lat="45.51329" lon="-73.53212">
        <ele>-20</ele>
        <time>2015-09-27T20:42:57.183Z</time>
      </trkpt>
      <trkpt lat="45.51322" lon="-73.53205">
        <ele>-20</ele>
        <time>2015-09-27T20:43:01.260Z</time>
      </trkpt>
      <trkpt lat="45.5132" lon="-73.53203">
        <ele>-21</ele>
        <time>2015-09-27T20:43:02.175Z</time>
      </trkpt>
      <trkpt lat="45.51315" lon="-73.53194">
        <ele>-17</ele>
        <time>2015-09-27T20:43:07.250Z</time>
      </trkpt>
      <trkpt lat="45.51314" lon="-73.53192">
        <ele>-17</ele>
        <time>2015-09-27T20:43:08.241Z</time>
      </trkpt>
      <trkpt lat="45.5131" lon="-73.53184">
        <ele>-17</ele>
        <time>2015-09-27T20:43:12.266Z</time>
      </trkpt>
      <trkpt lat="45.5131" lon="-73.5318">
        <ele>-18</ele>
        <time>2015-09-27T20:43:13.195Z</time>
      </trkpt>
      <trkpt lat="45.51306" lon="-73.5317">
        <ele>-20</ele>
        <time>2015-09-27T20:43:16.235Z</time>
      </trkpt>
      <trkpt lat="45.51305" lon="-73.53167">
        <ele>-19</ele>
        <time>2015-09-27T20:43:17.193Z</time>
      </trkpt>
      <trkpt lat="45.51304" lon="-73.53157">
        <ele>-19</ele>
        <time>2015-09-27T20:43:20.253Z</time>
      </trkpt>
      <trkpt lat="45.51304" lon="-73.53153">
        <ele>-21</ele>
        <time>2015-09-27T20:43:21.192Z</time>
      </trkpt>
      <trkpt lat="45.51305" lon="-73.53143">
        <ele>-19</ele>
        <time>2015-09-27T20:43:23.243Z</time>
      </trkpt>
      <trkpt lat="45.51305" lon="-73.53138">
        <ele>-19</ele>
        <time>2015-09-27T20:43:24.177Z</time>
      </trkpt>
      <trkpt lat="45.51306" lon="-73.53128">
        <ele>-17</ele>
        <time>2015-09-27T20:43:26.211Z</time>
      </trkpt>
      <trkpt lat="45.51305" lon="-73.53123">
        <ele>-18</ele>
        <time>2015-09-27T20:43:27.192Z</time>
      </trkpt>
      <trkpt lat="45.51304" lon="-73.53114">
        <ele>-18</ele>
        <time>2015-09-27T20:43:29.228Z</time>
      </trkpt>
      <trkpt lat="45.51304" lon="-73.5311">
        <ele>-19</ele>
        <time>2015-09-27T20:43:30.196Z</time>
      </trkpt>
      <trkpt lat="45.51303" lon="-73.53101">
        <ele>-19</ele>
        <time>2015-09-27T20:43:32.207Z</time>
      </trkpt>
      <trkpt lat="45.51303" lon="-73.53097">
        <ele>-22</ele>
        <time>2015-09-27T20:43:33.193Z</time>
      </trkpt>
      <trkpt lat="45.51302" lon="-73.53085">
        <ele>-21</ele>
        <time>2015-09-27T20:43:36.271Z</time>
      </trkpt>
      <trkpt lat="45.51303" lon="-73.53082">
        <ele>-19</ele>
        <time>2015-09-27T20:43:37.193Z</time>
      </trkpt>
      <trkpt lat="45.51305" lon="-73.53071">
        <ele>-16</ele>
        <time>2015-09-27T20:43:40.254Z</time>
      </trkpt>
      <trkpt lat="45.51305" lon="-73.53068">
        <ele>-18</ele>
        <time>2015-09-27T20:43:41.192Z</time>
      </trkpt>
      <trkpt lat="45.51304" lon="-73.53057">
        <ele>-17</ele>
        <time>2015-09-27T20:43:44.216Z</time>
      </trkpt>
      <trkpt lat="45.51304" lon="-73.53054">
        <ele>-17</ele>
        <time>2015-09-27T20:43:45.193Z</time>
      </trkpt>
      <trkpt lat="45.51303" lon="-73.53044">
        <ele>-19</ele>
        <time>2015-09-27T20:43:48.335Z</time>
      </trkpt>
      <trkpt lat="45.51304" lon="-73.53039">
        <ele>-18</ele>
        <time>2015-09-27T20:43:49.194Z</time>
      </trkpt>
      <trkpt lat="45.51305" lon="-73.53028">
        <ele>-16</ele>
        <time>2015-09-27T20:43:51.216Z</time>
      </trkpt>
      <trkpt lat="45.51305" lon="-73.53023">
        <ele>-17</ele>
        <time>2015-09-27T20:43:52.197Z</time>
      </trkpt>
      <trkpt lat="45.51305" lon="-73.53012">
        <ele>-15</ele>
        <time>2015-09-27T20:43:54.273Z</time>
      </trkpt>
      <trkpt lat="45.51304" lon="-73.53007">
        <ele>-14</ele>
        <time>2015-09-27T20:43:55.191Z</time>
      </trkpt>
      <trkpt lat="45.51303" lon="-73.52996">
        <ele>-10</ele>
        <time>2015-09-27T20:43:57.269Z</time>
      </trkpt>
      <trkpt lat="45.51302" lon="-73.52991">
        <ele>-12</ele>
        <time>2015-09-27T20:43:58.195Z</time>
      </trkpt>
      <trkpt lat="45.51302" lon="-73.52981">
        <ele>-13</ele>
        <time>2015-09-27T20:44:00.254Z</time>
      </trkpt>
      <trkpt lat="45.51301" lon="-73.52976">
        <ele>-13</ele>
        <time>2015-09-27T20:44:01.193Z</time>
      </trkpt>
      <trkpt lat="45.51301" lon="-73.52967">
        <ele>-12</ele>
        <time>2015-09-27T20:44:03.243Z</time>
      </trkpt>
      <trkpt lat="45.51301" lon="-73.52962">
        <ele>-13</ele>
        <time>2015-09-27T20:44:04.184Z</time>
      </trkpt>
      <trkpt lat="45.51301" lon="-73.52952">
        <ele>-15</ele>
        <time>2015-09-27T20:44:06.205Z</time>
      </trkpt>
      <trkpt lat="45.513" lon="-73.52948">
        <ele>-15</ele>
        <time>2015-09-27T20:44:07.206Z</time>
      </trkpt>
      <trkpt lat="45.51299" lon="-73.52935">
        <ele>-17</ele>
        <time>2015-09-27T20:44:10.357Z</time>
      </trkpt>
      <trkpt lat="45.51299" lon="-73.52931">
        <ele>-17</ele>
        <time>2015-09-27T20:44:11.190Z</time>
      </trkpt>
      <trkpt lat="45.51298" lon="-73.52921">
        <ele>-15</ele>
        <time>2015-09-27T20:44:13.206Z</time>
      </trkpt>
      <trkpt lat="45.51297" lon="-73.52917">
        <ele>-16</ele>
        <time>2015-09-27T20:44:14.187Z</time>
      </trkpt>
      <trkpt lat="45.51297" lon="-73.52906">
        <ele>-13</ele>
        <time>2015-09-27T20:44:16.195Z</time>
      </trkpt>
      <trkpt lat="45.51297" lon="-73.529">
        <ele>-12</ele>
        <time>2015-09-27T20:44:17.189Z</time>
      </trkpt>
      <trkpt lat="45.51299" lon="-73.52889">
        <ele>-10</ele>
        <time>2015-09-27T20:44:19.267Z</time>
      </trkpt>
      <trkpt lat="45.51299" lon="-73.52884">
        <ele>-11</ele>
        <time>2015-09-27T20:44:20.189Z</time>
      </trkpt>
      <trkpt lat="45.51301" lon="-73.52873">
        <ele>-11</ele>
        <time>2015-09-27T20:44:22.248Z</time>
      </trkpt>
      <trkpt lat="45.51301" lon="-73.52869">
        <ele>-12</ele>
        <time>2015-09-27T20:44:23.188Z</time>
      </trkpt>
      <trkpt lat="45.51303" lon="-73.52857">
        <ele>-12</ele>
        <time>2015-09-27T20:44:26.244Z</time>
      </trkpt>
      <trkpt lat="45.51304" lon="-73.52854">
        <ele>-13</ele>
        <time>2015-09-27T20:44:27.192Z</time>
      </trkpt>
      <trkpt lat="45.51305" lon="-73.52843">
        <ele>-14</ele>
        <time>2015-09-27T20:44:35.270Z</time>
      </trkpt>
      <trkpt lat="45.51304" lon="-73.52841">
        <ele>-15</ele>
        <time>2015-09-27T20:44:36.178Z</time>
      </trkpt>
      <trkpt lat="45.51303" lon="-73.5283">
        <ele>-14</ele>
        <time>2015-09-27T20:44:39.197Z</time>
      </trkpt>
      <trkpt lat="45.51303" lon="-73.52825">
        <ele>-14</ele>
        <time>2015-09-27T20:44:40.177Z</time>
      </trkpt>
      <trkpt lat="45.51303" lon="-73.52816">
        <ele>-14</ele>
        <time>2015-09-27T20:44:42.210Z</time>
      </trkpt>
      <trkpt lat="45.51303" lon="-73.52812">
        <ele>-13</ele>
        <time>2015-09-27T20:44:43.175Z</time>
      </trkpt>
      <trkpt lat="45.51302" lon="-73.52803">
        <ele>-13</ele>
        <time>2015-09-27T20:44:45.233Z</time>
      </trkpt>
      <trkpt lat="45.51302" lon="-73.52798">
        <ele>-12</ele>
        <time>2015-09-27T20:44:46.187Z</time>
      </trkpt>
      <trkpt lat="45.513" lon="-73.52786">
        <ele>-17</ele>
        <time>2015-09-27T20:44:49.191Z</time>
      </trkpt>
      <trkpt lat="45.51299" lon="-73.52782">
        <ele>-17</ele>
        <time>2015-09-27T20:44:50.192Z</time>
      </trkpt>
      <trkpt lat="45.51297" lon="-73.5277">
        <ele>-17</ele>
        <time>2015-09-27T20:44:53.243Z</time>
      </trkpt>
      <trkpt lat="45.51297" lon="-73.52766">
        <ele>-17</ele>
        <time>2015-09-27T20:44:54.190Z</time>
      </trkpt>
      <trkpt lat="45.51292" lon="-73.52757">
        <ele>-18</ele>
        <time>2015-09-27T20:44:57.250Z</time>
      </trkpt>
      <trkpt lat="45.5129" lon="-73.52756">
        <ele>-19</ele>
        <time>2015-09-27T20:44:58.188Z</time>
      </trkpt>
      <trkpt lat="45.51283" lon="-73.52749">
        <ele>-19</ele>
        <time>2015-09-27T20:45:02.210Z</time>
      </trkpt>
      <trkpt lat="45.5128" lon="-73.52749">
        <ele>-20</ele>
        <time>2015-09-27T20:45:03.193Z</time>
      </trkpt>
      <trkpt lat="45.51273" lon="-73.52757">
        <ele>-20</ele>
        <time>2015-09-27T20:45:10.198Z</time>
      </trkpt>
      <trkpt lat="45.51273" lon="-73.52758">
        <ele>-21</ele>
        <time>2015-09-27T20:45:11.175Z</time>
      </trkpt>
      <trkpt lat="45.51281" lon="-73.52752">
        <ele>-24</ele>
        <time>2015-09-27T20:46:26.247Z</time>
      </trkpt>
      <trkpt lat="45.51283" lon="-73.52751">
        <ele>-26</ele>
        <time>2015-09-27T20:46:27.188Z</time>
      </trkpt>
      <trkpt lat="45.51288" lon="-73.5274">
        <ele>-24</ele>
        <time>2015-09-27T20:46:34.263Z</time>
      </trkpt>
      <trkpt lat="45.5129" lon="-73.5274">
        <ele>-24</ele>
        <time>2015-09-27T20:46:35.189Z</time>
      </trkpt>
      <trkpt lat="45.51298" lon="-73.5274">
        <ele>-21</ele>
        <time>2015-09-27T20:46:38.242Z</time>
      </trkpt>
      <trkpt lat="45.51301" lon="-73.5274">
        <ele>-21</ele>
        <time>2015-09-27T20:46:39.193Z</time>
      </trkpt>
      <trkpt lat="45.51309" lon="-73.52742">
        <ele>-19</ele>
        <time>2015-09-27T20:46:41.215Z</time>
      </trkpt>
      <trkpt lat="45.51313" lon="-73.52742">
        <ele>-19</ele>
        <time>2015-09-27T20:46:42.195Z</time>
      </trkpt>
      <trkpt lat="45.51318" lon="-73.52743">
        <ele>-18</ele>
        <time>2015-09-27T20:46:43.285Z</time>
      </trkpt>
      <trkpt lat="45.51323" lon="-73.52744">
        <ele>-17</ele>
        <time>2015-09-27T20:46:44.191Z</time>
      </trkpt>
      <trkpt lat="45.51329" lon="-73.52746">
        <ele>-14</ele>
        <time>2015-09-27T20:46:45.223Z</time>
      </trkpt>
      <trkpt lat="45.51341" lon="-73.52748">
        <ele>-13</ele>
        <time>2015-09-27T20:46:46.184Z</time>
      </trkpt>
      <trkpt lat="45.51348" lon="-73.52751">
        <ele>-12</ele>
        <time>2015-09-27T20:46:48.307Z</time>
      </trkpt>
      <trkpt lat="45.51355" lon="-73.52753">
        <ele>-11</ele>
        <time>2015-09-27T20:46:49.195Z</time>
      </trkpt>
      <trkpt lat="45.5136" lon="-73.52754">
        <ele>-10</ele>
        <time>2015-09-27T20:46:50.252Z</time>
      </trkpt>
      <trkpt lat="45.51366" lon="-73.52756">
        <ele>-9</ele>
        <time>2015-09-27T20:46:51.191Z</time>
      </trkpt>
      <trkpt lat="45.51372" lon="-73.52757">
        <ele>-8</ele>
        <time>2015-09-27T20:46:52.268Z</time>
      </trkpt>
      <trkpt lat="45.51378" lon="-73.52757">
        <ele>-8</ele>
        <time>2015-09-27T20:46:53.187Z</time>
      </trkpt>
      <trkpt lat="45.51383" lon="-73.52759">
        <ele>-10</ele>
        <time>2015-09-27T20:46:54.247Z</time>
      </trkpt>
      <trkpt lat="45.51388" lon="-73.52762">
        <ele>-10</ele>
        <time>2015-09-27T20:46:55.186Z</time>
      </trkpt>
      <trkpt lat="45.51395" lon="-73.52763">
        <ele>-10</ele>
        <time>2015-09-27T20:46:56.243Z</time>
      </trkpt>
      <trkpt lat="45.51399" lon="-73.52765">
        <ele>-9</ele>
        <time>2015-09-27T20:46:57.195Z</time>
      </trkpt>
      <trkpt lat="45.51406" lon="-73.52766">
        <ele>-10</ele>
        <time>2015-09-27T20:46:58.279Z</time>
      </trkpt>
      <trkpt lat="45.51412" lon="-73.52768">
        <ele>-10</ele>
        <time>2015-09-27T20:46:59.204Z</time>
      </trkpt>
      <trkpt lat="45.51417" lon="-73.52768">
        <ele>-8</ele>
        <time>2015-09-27T20:47:00.283Z</time>
      </trkpt>
      <trkpt lat="45.51425" lon="-73.52768">
        <ele>-8</ele>
        <time>2015-09-27T20:47:01.190Z</time>
      </trkpt>
      <trkpt lat="45.51429" lon="-73.52761">
        <ele>-9</ele>
        <time>2015-09-27T20:47:02.256Z</time>
      </trkpt>
      <trkpt lat="45.51432" lon="-73.52754">
        <ele>-8</ele>
        <time>2015-09-27T20:47:03.184Z</time>
      </trkpt>
      <trkpt lat="45.51436" lon="-73.52748">
        <ele>-9</ele>
        <time>2015-09-27T20:47:04.261Z</time>
      </trkpt>
      <trkpt lat="45.51435" lon="-73.5274">
        <ele>-9</ele>
        <time>2015-09-27T20:47:05.187Z</time>
      </trkpt>
      <trkpt lat="45.51435" lon="-73.5274">
        <ele>-9</ele>
        <time>2015-09-27T20:47:05.260Z</time>
      </trkpt>
      <trkpt lat="45.51426" lon="-73.52736">
        <ele>-12</ele>
        <time>2015-09-27T20:47:06.186Z</time>
      </trkpt>
      <trkpt lat="45.51418" lon="-73.52738">
        <ele>-14</ele>
        <time>2015-09-27T20:47:08.241Z</time>
      </trkpt>
      <trkpt lat="45.51415" lon="-73.52735">
        <ele>-14</ele>
        <time>2015-09-27T20:47:09.190Z</time>
      </trkpt>
      <trkpt lat="45.5141" lon="-73.52735">
        <ele>-14</ele>
        <time>2015-09-27T20:47:10.197Z</time>
      </trkpt>
      <trkpt lat="45.51405" lon="-73.52732">
        <ele>-15</ele>
        <time>2015-09-27T20:47:11.175Z</time>
      </trkpt>
      <trkpt lat="45.51401" lon="-73.52731">
        <ele>-15</ele>
        <time>2015-09-27T20:47:12.244Z</time>
      </trkpt>
      <trkpt lat="45.51396" lon="-73.52731">
        <ele>-15</ele>
        <time>2015-09-27T20:47:13.184Z</time>
      </trkpt>
      <trkpt lat="45.5139" lon="-73.52728">
        <ele>-15</ele>
        <time>2015-09-27T20:47:14.229Z</time>
      </trkpt>
      <trkpt lat="45.51384" lon="-73.52726">
        <ele>-17</ele>
        <time>2015-09-27T20:47:15.184Z</time>
      </trkpt>
      <trkpt lat="45.51376" lon="-73.52724">
        <ele>-17</ele>
        <time>2015-09-27T20:47:17.285Z</time>
      </trkpt>
      <trkpt lat="45.51372" lon="-73.52723">
        <ele>-15</ele>
        <time>2015-09-27T20:47:18.190Z</time>
      </trkpt>
      <trkpt lat="45.51364" lon="-73.52721">
        <ele>-16</ele>
        <time>2015-09-27T20:47:20.210Z</time>
      </trkpt>
      <trkpt lat="45.5136" lon="-73.5272">
        <ele>-16</ele>
        <time>2015-09-27T20:47:21.178Z</time>
      </trkpt>
      <trkpt lat="45.51353" lon="-73.52716">
        <ele>-17</ele>
        <time>2015-09-27T20:47:22.199Z</time>
      </trkpt>
      <trkpt lat="45.5135" lon="-73.52714">
        <ele>-18</ele>
        <time>2015-09-27T20:47:23.177Z</time>
      </trkpt>
      <trkpt lat="45.51345" lon="-73.52712">
        <ele>-18</ele>
        <time>2015-09-27T20:47:24.247Z</time>
      </trkpt>
      <trkpt lat="45.51339" lon="-73.52711">
        <ele>-19</ele>
        <time>2015-09-27T20:47:25.180Z</time>
      </trkpt>
      <trkpt lat="45.51331" lon="-73.52708">
        <ele>-18</ele>
        <time>2015-09-27T20:47:27.242Z</time>
      </trkpt>
      <trkpt lat="45.51326" lon="-73.52706">
        <ele>-20</ele>
        <time>2015-09-27T20:47:28.176Z</time>
      </trkpt>
      <trkpt lat="45.51318" lon="-73.52701">
        <ele>-19</ele>
        <time>2015-09-27T20:47:31.261Z</time>
      </trkpt>
      <trkpt lat="45.51314" lon="-73.52698">
        <ele>-18</ele>
        <time>2015-09-27T20:47:32.176Z</time>
      </trkpt>
      <trkpt lat="45.51306" lon="-73.52694">
        <ele>-20</ele>
        <time>2015-09-27T20:47:34.267Z</time>
      </trkpt>
      <trkpt lat="45.51301" lon="-73.5269">
        <ele>-20</ele>
        <time>2015-09-27T20:47:35.190Z</time>
      </trkpt>
      <trkpt lat="45.51296" lon="-73.52687">
        <ele>-21</ele>
        <time>2015-09-27T20:47:36.231Z</time>
      </trkpt>
      <trkpt lat="45.51291" lon="-73.52683">
        <ele>-20</ele>
        <time>2015-09-27T20:47:37.178Z</time>
      </trkpt>
      <trkpt lat="45.51287" lon="-73.5268">
        <ele>-20</ele>
        <time>2015-09-27T20:47:38.215Z</time>
      </trkpt>
      <trkpt lat="45.51282" lon="-73.52679">
        <ele>-20</ele>
        <time>2015-09-27T20:47:39.179Z</time>
      </trkpt>
      <trkpt lat="45.51277" lon="-73.52676">
        <ele>-20</ele>
        <time>2015-09-27T20:47:40.244Z</time>
      </trkpt>
      <trkpt lat="45.51273" lon="-73.52672">
        <ele>-19</ele>
        <time>2015-09-27T20:47:41.177Z</time>
      </trkpt>
      <trkpt lat="45.51267" lon="-73.52667">
        <ele>-19</ele>
        <time>2015-09-27T20:47:42.253Z</time>
      </trkpt>
      <trkpt lat="45.51261" lon="-73.52663">
        <ele>-18</ele>
        <time>2015-09-27T20:47:43.189Z</time>
      </trkpt>
      <trkpt lat="45.51259" lon="-73.5266">
        <ele>-16</ele>
        <time>2015-09-27T20:47:44.243Z</time>
      </trkpt>
      <trkpt lat="45.51253" lon="-73.52656">
        <ele>-16</ele>
        <time>2015-09-27T20:47:45.192Z</time>
      </trkpt>
      <trkpt lat="45.5125" lon="-73.52653">
        <ele>-18</ele>
        <time>2015-09-27T20:47:46.259Z</time>
      </trkpt>
      <trkpt lat="45.51245" lon="-73.52651">
        <ele>-17</ele>
        <time>2015-09-27T20:47:47.193Z</time>
      </trkpt>
      <trkpt lat="45.51239" lon="-73.52649">
        <ele>-18</ele>
        <time>2015-09-27T20:47:48.247Z</time>
      </trkpt>
      <trkpt lat="45.51233" lon="-73.52644">
        <ele>-17</ele>
        <time>2015-09-27T20:47:49.192Z</time>
      </trkpt>
      <trkpt lat="45.51228" lon="-73.52639">
        <ele>-17</ele>
        <time>2015-09-27T20:47:50.242Z</time>
      </trkpt>
      <trkpt lat="45.51224" lon="-73.52639">
        <ele>-16</ele>
        <time>2015-09-27T20:47:51.191Z</time>
      </trkpt>
      <trkpt lat="45.51219" lon="-73.52638">
        <ele>-18</ele>
        <time>2015-09-27T20:47:53.259Z</time>
      </trkpt>
      <trkpt lat="45.51215" lon="-73.52632">
        <ele>-18</ele>
        <time>2015-09-27T20:47:54.191Z</time>
      </trkpt>
      <trkpt lat="45.51211" lon="-73.5263">
        <ele>-18</ele>
        <time>2015-09-27T20:47:55.241Z</time>
      </trkpt>
      <trkpt lat="45.51205" lon="-73.52631">
        <ele>-20</ele>
        <time>2015-09-27T20:47:56.189Z</time>
      </trkpt>
      <trkpt lat="45.512" lon="-73.52627">
        <ele>-19</ele>
        <time>2015-09-27T20:47:57.239Z</time>
      </trkpt>
      <trkpt lat="45.51195" lon="-73.52625">
        <ele>-19</ele>
        <time>2015-09-27T20:47:58.173Z</time>
      </trkpt>
      <trkpt lat="45.51191" lon="-73.52623">
        <ele>-19</ele>
        <time>2015-09-27T20:47:59.223Z</time>
      </trkpt>
      <trkpt lat="45.51186" lon="-73.52621">
        <ele>-18</ele>
        <time>2015-09-27T20:48:00.187Z</time>
      </trkpt>
      <trkpt lat="45.51181" lon="-73.52616">
        <ele>-18</ele>
        <time>2015-09-27T20:48:02.241Z</time>
      </trkpt>
      <trkpt lat="45.51175" lon="-73.52612">
        <ele>-20</ele>
        <time>2015-09-27T20:48:03.189Z</time>
      </trkpt>
      <trkpt lat="45.51167" lon="-73.52608">
        <ele>-19</ele>
        <time>2015-09-27T20:48:05.255Z</time>
      </trkpt>
      <trkpt lat="45.51163" lon="-73.52607">
        <ele>-19</ele>
        <time>2015-09-27T20:48:06.191Z</time>
      </trkpt>
      <trkpt lat="45.51154" lon="-73.52605">
        <ele>-20</ele>
        <time>2015-09-27T20:48:08.248Z</time>
      </trkpt>
      <trkpt lat="45.51152" lon="-73.52604">
        <ele>-21</ele>
        <time>2015-09-27T20:48:09.253Z</time>
      </trkpt>
      <trkpt lat="45.51152" lon="-73.52604">
        <ele>-21</ele>
        <time>2015-09-27T20:48:09.272Z</time>
      </trkpt>
      <trkpt lat="45.51162" lon="-73.52613">
        <ele>-23</ele>
        <time>2015-09-27T20:48:10.176Z</time>
      </trkpt>
      <trkpt lat="45.51154" lon="-73.52606">
        <ele>-23</ele>
        <time>2015-09-27T20:48:11.218Z</time>
      </trkpt>
      <trkpt lat="45.51154" lon="-73.52605">
        <ele>-21</ele>
        <time>2015-09-27T20:48:12.177Z</time>
      </trkpt>
      <trkpt lat="45.51149" lon="-73.52603">
        <ele>-22</ele>
        <time>2015-09-27T20:48:13.289Z</time>
      </trkpt>
      <trkpt lat="45.51143" lon="-73.52599">
        <ele>-20</ele>
        <time>2015-09-27T20:48:14.193Z</time>
      </trkpt>
      <trkpt lat="45.51138" lon="-73.52596">
        <ele>-19</ele>
        <time>2015-09-27T20:48:15.233Z</time>
      </trkpt>
      <trkpt lat="45.51134" lon="-73.52594">
        <ele>-21</ele>
        <time>2015-09-27T20:48:16.193Z</time>
      </trkpt>
      <trkpt lat="45.51129" lon="-73.52592">
        <ele>-18</ele>
        <time>2015-09-27T20:48:17.234Z</time>
      </trkpt>
      <trkpt lat="45.51125" lon="-73.5259">
        <ele>-18</ele>
        <time>2015-09-27T20:48:18.184Z</time>
      </trkpt>
      <trkpt lat="45.5112" lon="-73.52587">
        <ele>-20</ele>
        <time>2015-09-27T20:48:19.234Z</time>
      </trkpt>
      <trkpt lat="45.51112" lon="-73.5258">
        <ele>-21</ele>
        <time>2015-09-27T20:48:20.192Z</time>
      </trkpt>
      <trkpt lat="45.51105" lon="-73.52576">
        <ele>-21</ele>
        <time>2015-09-27T20:48:21.248Z</time>
      </trkpt>
      <trkpt lat="45.51099" lon="-73.52573">
        <ele>-18</ele>
        <time>2015-09-27T20:48:22.193Z</time>
      </trkpt>
      <trkpt lat="45.51093" lon="-73.52569">
        <ele>-19</ele>
        <time>2015-09-27T20:48:24.242Z</time>
      </trkpt>
      <trkpt lat="45.51088" lon="-73.52566">
        <ele>-19</ele>
        <time>2015-09-27T20:48:25.193Z</time>
      </trkpt>
      <trkpt lat="45.51082" lon="-73.52562">
        <ele>-17</ele>
        <time>2015-09-27T20:48:26.220Z</time>
      </trkpt>
      <trkpt lat="45.51079" lon="-73.52558">
        <ele>-18</ele>
        <time>2015-09-27T20:48:27.183Z</time>
      </trkpt>
      <trkpt lat="45.51073" lon="-73.52557">
        <ele>-18</ele>
        <time>2015-09-27T20:48:28.251Z</time>
      </trkpt>
      <trkpt lat="45.5107" lon="-73.52555">
        <ele>-18</ele>
        <time>2015-09-27T20:48:29.193Z</time>
      </trkpt>
      <trkpt lat="45.51065" lon="-73.52552">
        <ele>-18</ele>
        <time>2015-09-27T20:48:30.295Z</time>
      </trkpt>
      <trkpt lat="45.5106" lon="-73.52549">
        <ele>-20</ele>
        <time>2015-09-27T20:48:31.184Z</time>
      </trkpt>
      <trkpt lat="45.51053" lon="-73.52545">
        <ele>-20</ele>
        <time>2015-09-27T20:48:33.218Z</time>
      </trkpt>
      <trkpt lat="45.51051" lon="-73.52544">
        <ele>-21</ele>
        <time>2015-09-27T20:48:34.208Z</time>
      </trkpt>
      <trkpt lat="45.51049" lon="-73.52544">
        <ele>-21</ele>
        <time>2015-09-27T20:48:35.243Z</time>
      </trkpt>
      <trkpt lat="45.51042" lon="-73.5254">
        <ele>-20</ele>
        <time>2015-09-27T20:48:36.193Z</time>
      </trkpt>
      <trkpt lat="45.51035" lon="-73.52537">
        <ele>-19</ele>
        <time>2015-09-27T20:48:38.247Z</time>
      </trkpt>
      <trkpt lat="45.51032" lon="-73.52535">
        <ele>-17</ele>
        <time>2015-09-27T20:48:39.193Z</time>
      </trkpt>
      <trkpt lat="45.51024" lon="-73.52531">
        <ele>-20</ele>
        <time>2015-09-27T20:48:41.210Z</time>
      </trkpt>
      <trkpt lat="45.5102" lon="-73.5253">
        <ele>-19</ele>
        <time>2015-09-27T20:48:42.176Z</time>
      </trkpt>
      <trkpt lat="45.51012" lon="-73.52526">
        <ele>-21</ele>
        <time>2015-09-27T20:48:44.248Z</time>
      </trkpt>
      <trkpt lat="45.51008" lon="-73.52524">
        <ele>-21</ele>
        <time>2015-09-27T20:48:45.175Z</time>
      </trkpt>
      <trkpt lat="45.51" lon="-73.52522">
        <ele>-20</ele>
        <time>2015-09-27T20:48:47.209Z</time>
      </trkpt>
      <trkpt lat="45.50996" lon="-73.52521">
        <ele>-20</ele>
        <time>2015-09-27T20:48:48.189Z</time>
      </trkpt>
      <trkpt lat="45.50987" lon="-73.52518">
        <ele>-21</ele>
        <time>2015-09-27T20:48:50.243Z</time>
      </trkpt>
      <trkpt lat="45.50982" lon="-73.52516">
        <ele>-20</ele>
        <time>2015-09-27T20:48:51.190Z</time>
      </trkpt>
      <trkpt lat="45.50978" lon="-73.52515">
        <ele>-20</ele>
        <time>2015-09-27T20:48:52.254Z</time>
      </trkpt>
      <trkpt lat="45.50971" lon="-73.52515">
        <ele>-19</ele>
        <time>2015-09-27T20:48:53.177Z</time>
      </trkpt>
      <trkpt lat="45.50967" lon="-73.52513">
        <ele>-18</ele>
        <time>2015-09-27T20:48:54.248Z</time>
      </trkpt>
      <trkpt lat="45.50963" lon="-73.52511">
        <ele>-18</ele>
        <time>2015-09-27T20:48:55.189Z</time>
      </trkpt>
      <trkpt lat="45.50957" lon="-73.52515">
        <ele>-17</ele>
        <time>2015-09-27T20:48:58.243Z</time>
      </trkpt>
      <trkpt lat="45.50952" lon="-73.52514">
        <ele>-16</ele>
        <time>2015-09-27T20:48:59.190Z</time>
      </trkpt>
      <trkpt lat="45.50948" lon="-73.52516">
        <ele>-16</ele>
        <time>2015-09-27T20:49:01.250Z</time>
      </trkpt>
      <trkpt lat="45.50943" lon="-73.52516">
        <ele>-16</ele>
        <time>2015-09-27T20:49:02.193Z</time>
      </trkpt>
      <trkpt lat="45.50938" lon="-73.52515">
        <ele>-16</ele>
        <time>2015-09-27T20:49:04.233Z</time>
      </trkpt>
      <trkpt lat="45.50934" lon="-73.52515">
        <ele>-17</ele>
        <time>2015-09-27T20:49:05.174Z</time>
      </trkpt>
      <trkpt lat="45.5093" lon="-73.52512">
        <ele>-18</ele>
        <time>2015-09-27T20:49:06.197Z</time>
      </trkpt>
      <trkpt lat="45.50925" lon="-73.5251">
        <ele>-18</ele>
        <time>2015-09-27T20:49:07.174Z</time>
      </trkpt>
      <trkpt lat="45.50918" lon="-73.52503">
        <ele>-18</ele>
        <time>2015-09-27T20:49:08.242Z</time>
      </trkpt>
      <trkpt lat="45.50914" lon="-73.52502">
        <ele>-18</ele>
        <time>2015-09-27T20:49:09.175Z</time>
      </trkpt>
      <trkpt lat="45.50908" lon="-73.525">
        <ele>-19</ele>
        <time>2015-09-27T20:49:10.251Z</time>
      </trkpt>
      <trkpt lat="45.50903" lon="-73.52497">
        <ele>-20</ele>
        <time>2015-09-27T20:49:11.193Z</time>
      </trkpt>
      <trkpt lat="45.50897" lon="-73.52499">
        <ele>-19</ele>
        <time>2015-09-27T20:49:13.241Z</time>
      </trkpt>
      <trkpt lat="45.50892" lon="-73.52494">
        <ele>-19</ele>
        <time>2015-09-27T20:49:14.184Z</time>
      </trkpt>
      <trkpt lat="45.50888" lon="-73.52492">
        <ele>-20</ele>
        <time>2015-09-27T20:49:15.240Z</time>
      </trkpt>
      <trkpt lat="45.50884" lon="-73.5249">
        <ele>-21</ele>
        <time>2015-09-27T20:49:16.187Z</time>
      </trkpt>
      <trkpt lat="45.50877" lon="-73.52489">
        <ele>-20</ele>
        <time>2015-09-27T20:49:18.242Z</time>
      </trkpt>
      <trkpt lat="45.50873" lon="-73.52489">
        <ele>-19</ele>
        <time>2015-09-27T20:49:19.189Z</time>
      </trkpt>
      <trkpt lat="45.50865" lon="-73.52488">
        <ele>-19</ele>
        <time>2015-09-27T20:49:21.244Z</time>
      </trkpt>
      <trkpt lat="45.50862" lon="-73.52487">
        <ele>-20</ele>
        <time>2015-09-27T20:49:22.186Z</time>
      </trkpt>
      <trkpt lat="45.50856" lon="-73.52486">
        <ele>-20</ele>
        <time>2015-09-27T20:49:24.242Z</time>
      </trkpt>
      <trkpt lat="45.50853" lon="-73.52486">
        <ele>-20</ele>
        <time>2015-09-27T20:49:25.190Z</time>
      </trkpt>
      <trkpt lat="45.50844" lon="-73.52485">
        <ele>-22</ele>
        <time>2015-09-27T20:49:28.257Z</time>
      </trkpt>
      <trkpt lat="45.5084" lon="-73.52484">
        <ele>-24</ele>
        <time>2015-09-27T20:49:29.197Z</time>
      </trkpt>
      <trkpt lat="45.50836" lon="-73.52482">
        <ele>-24</ele>
        <time>2015-09-27T20:49:30.242Z</time>
      </trkpt>
      <trkpt lat="45.50827" lon="-73.52478">
        <ele>-24</ele>
        <time>2015-09-27T20:49:31.192Z</time>
      </trkpt>
      <trkpt lat="45.5082" lon="-73.52474">
        <ele>-24</ele>
        <time>2015-09-27T20:49:32.242Z</time>
      </trkpt>
      <trkpt lat="45.50812" lon="-73.52468">
        <ele>-25</ele>
        <time>2015-09-27T20:49:33.190Z</time>
      </trkpt>
      <trkpt lat="45.50803" lon="-73.52466">
        <ele>-25</ele>
        <time>2015-09-27T20:49:35.252Z</time>
      </trkpt>
      <trkpt lat="45.50799" lon="-73.52466">
        <ele>-24</ele>
        <time>2015-09-27T20:49:36.193Z</time>
      </trkpt>
      <trkpt lat="45.50795" lon="-73.52464">
        <ele>-23</ele>
        <time>2015-09-27T20:49:37.243Z</time>
      </trkpt>
      <trkpt lat="45.5079" lon="-73.5246">
        <ele>-23</ele>
        <time>2015-09-27T20:49:38.194Z</time>
      </trkpt>
      <trkpt lat="45.50787" lon="-73.52465">
        <ele>-23</ele>
        <time>2015-09-27T20:49:40.243Z</time>
      </trkpt>
      <trkpt lat="45.50781" lon="-73.52464">
        <ele>-22</ele>
        <time>2015-09-27T20:49:41.188Z</time>
      </trkpt>
      <trkpt lat="45.50777" lon="-73.52465">
        <ele>-22</ele>
        <time>2015-09-27T20:49:42.337Z</time>
      </trkpt>
      <trkpt lat="45.5077" lon="-73.52461">
        <ele>-22</ele>
        <time>2015-09-27T20:49:43.176Z</time>
      </trkpt>
      <trkpt lat="45.50762" lon="-73.52459">
        <ele>-24</ele>
        <time>2015-09-27T20:49:45.256Z</time>
      </trkpt>
      <trkpt lat="45.50756" lon="-73.52458">
        <ele>-23</ele>
        <time>2015-09-27T20:49:46.188Z</time>
      </trkpt>
      <trkpt lat="45.50752" lon="-73.52457">
        <ele>-22</ele>
        <time>2015-09-27T20:49:47.260Z</time>
      </trkpt>
      <trkpt lat="45.50747" lon="-73.52453">
        <ele>-24</ele>
        <time>2015-09-27T20:49:48.177Z</time>
      </trkpt>
      <trkpt lat="45.50744" lon="-73.52452">
        <ele>-27</ele>
        <time>2015-09-27T20:49:50.233Z</time>
      </trkpt>
      <trkpt lat="45.50738" lon="-73.52449">
        <ele>-27</ele>
        <time>2015-09-27T20:49:51.190Z</time>
      </trkpt>
      <trkpt lat="45.50731" lon="-73.52448">
        <ele>-26</ele>
        <time>2015-09-27T20:49:53.251Z</time>
      </trkpt>
      <trkpt lat="45.50726" lon="-73.52447">
        <ele>-26</ele>
        <time>2015-09-27T20:49:54.191Z</time>
      </trkpt>
      <trkpt lat="45.50723" lon="-73.52446">
        <ele>-26</ele>
        <time>2015-09-27T20:49:55.210Z</time>
      </trkpt>
      <trkpt lat="45.50717" lon="-73.52444">
        <ele>-25</ele>
        <time>2015-09-27T20:49:56.194Z</time>
      </trkpt>
      <trkpt lat="45.50713" lon="-73.52444">
        <ele>-25</ele>
        <time>2015-09-27T20:49:57.196Z</time>
      </trkpt>
      <trkpt lat="45.50707" lon="-73.52441">
        <ele>-26</ele>
        <time>2015-09-27T20:49:58.185Z</time>
      </trkpt>
      <trkpt lat="45.50701" lon="-73.52439">
        <ele>-26</ele>
        <time>2015-09-27T20:49:59.205Z</time>
      </trkpt>
      <trkpt lat="45.50693" lon="-73.52435">
        <ele>-26</ele>
        <time>2015-09-27T20:50:00.189Z</time>
      </trkpt>
      <trkpt lat="45.50687" lon="-73.52434">
        <ele>-23</ele>
        <time>2015-09-27T20:50:02.200Z</time>
      </trkpt>
      <trkpt lat="45.50682" lon="-73.52432">
        <ele>-24</ele>
        <time>2015-09-27T20:50:03.179Z</time>
      </trkpt>
      <trkpt lat="45.50678" lon="-73.52431">
        <ele>-24</ele>
        <time>2015-09-27T20:50:04.200Z</time>
      </trkpt>
      <trkpt lat="45.50673" lon="-73.52428">
        <ele>-25</ele>
        <time>2015-09-27T20:50:05.174Z</time>
      </trkpt>
      <trkpt lat="45.50666" lon="-73.52426">
        <ele>-23</ele>
        <time>2015-09-27T20:50:08.238Z</time>
      </trkpt>
      <trkpt lat="45.50661" lon="-73.52424">
        <ele>-22</ele>
        <time>2015-09-27T20:50:09.177Z</time>
      </trkpt>
      <trkpt lat="45.50653" lon="-73.52421">
        <ele>-24</ele>
        <time>2015-09-27T20:50:11.241Z</time>
      </trkpt>
      <trkpt lat="45.50649" lon="-73.52418">
        <ele>-23</ele>
        <time>2015-09-27T20:50:12.189Z</time>
      </trkpt>
      <trkpt lat="45.5064" lon="-73.52414">
        <ele>-23</ele>
        <time>2015-09-27T20:50:14.242Z</time>
      </trkpt>
      <trkpt lat="45.50636" lon="-73.52413">
        <ele>-25</ele>
        <time>2015-09-27T20:50:15.191Z</time>
      </trkpt>
      <trkpt lat="45.50627" lon="-73.52412">
        <ele>-23</ele>
        <time>2015-09-27T20:50:17.319Z</time>
      </trkpt>
      <trkpt lat="45.50623" lon="-73.5241">
        <ele>-25</ele>
        <time>2015-09-27T20:50:18.179Z</time>
      </trkpt>
      <trkpt lat="45.50614" lon="-73.52408">
        <ele>-26</ele>
        <time>2015-09-27T20:50:20.243Z</time>
      </trkpt>
      <trkpt lat="45.5061" lon="-73.52407">
        <ele>-27</ele>
        <time>2015-09-27T20:50:21.186Z</time>
      </trkpt>
      <trkpt lat="45.50602" lon="-73.52405">
        <ele>-27</ele>
        <time>2015-09-27T20:50:23.242Z</time>
      </trkpt>
      <trkpt lat="45.50598" lon="-73.52404">
        <ele>-28</ele>
        <time>2015-09-27T20:50:24.190Z</time>
      </trkpt>
      <trkpt lat="45.5059" lon="-73.52401">
        <ele>-29</ele>
        <time>2015-09-27T20:50:26.241Z</time>
      </trkpt>
      <trkpt lat="45.50587" lon="-73.524">
        <ele>-28</ele>
        <time>2015-09-27T20:50:27.190Z</time>
      </trkpt>
      <trkpt lat="45.50579" lon="-73.52397">
        <ele>-28</ele>
        <time>2015-09-27T20:50:29.220Z</time>
      </trkpt>
      <trkpt lat="45.50576" lon="-73.52396">
        <ele>-27</ele>
        <time>2015-09-27T20:50:30.178Z</time>
      </trkpt>
      <trkpt lat="45.50569" lon="-73.52395">
        <ele>-26</ele>
        <time>2015-09-27T20:50:32.242Z</time>
      </trkpt>
      <trkpt lat="45.50565" lon="-73.52394">
        <ele>-26</ele>
        <time>2015-09-27T20:50:33.190Z</time>
      </trkpt>
      <trkpt lat="45.50558" lon="-73.52392">
        <ele>-27</ele>
        <time>2015-09-27T20:50:35.267Z</time>
      </trkpt>
      <trkpt lat="45.50554" lon="-73.5239">
        <ele>-25</ele>
        <time>2015-09-27T20:50:36.190Z</time>
      </trkpt>
      <trkpt lat="45.50548" lon="-73.52388">
        <ele>-28</ele>
        <time>2015-09-27T20:50:38.268Z</time>
      </trkpt>
      <trkpt lat="45.50544" lon="-73.52387">
        <ele>-27</ele>
        <time>2015-09-27T20:50:39.190Z</time>
      </trkpt>
      <trkpt lat="45.50536" lon="-73.52384">
        <ele>-25</ele>
        <time>2015-09-27T20:50:41.258Z</time>
      </trkpt>
      <trkpt lat="45.50532" lon="-73.52384">
        <ele>-25</ele>
        <time>2015-09-27T20:50:42.178Z</time>
      </trkpt>
      <trkpt lat="45.50525" lon="-73.52382">
        <ele>-26</ele>
        <time>2015-09-27T20:50:44.228Z</time>
      </trkpt>
      <trkpt lat="45.50521" lon="-73.52381">
        <ele>-25</ele>
        <time>2015-09-27T20:50:45.178Z</time>
      </trkpt>
      <trkpt lat="45.50515" lon="-73.5238">
        <ele>-27</ele>
        <time>2015-09-27T20:50:47.242Z</time>
      </trkpt>
      <trkpt lat="45.50512" lon="-73.5238">
        <ele>-27</ele>
        <time>2015-09-27T20:50:48.190Z</time>
      </trkpt>
      <trkpt lat="45.50505" lon="-73.52378">
        <ele>-28</ele>
        <time>2015-09-27T20:50:50.249Z</time>
      </trkpt>
      <trkpt lat="45.50502" lon="-73.52378">
        <ele>-29</ele>
        <time>2015-09-27T20:50:51.189Z</time>
      </trkpt>
      <trkpt lat="45.50496" lon="-73.52376">
        <ele>-28</ele>
        <time>2015-09-27T20:50:53.212Z</time>
      </trkpt>
      <trkpt lat="45.50493" lon="-73.52375">
        <ele>-27</ele>
        <time>2015-09-27T20:50:54.173Z</time>
      </trkpt>
      <trkpt lat="45.50485" lon="-73.52374">
        <ele>-26</ele>
        <time>2015-09-27T20:50:56.654Z</time>
      </trkpt>
      <trkpt lat="45.50481" lon="-73.52374">
        <ele>-26</ele>
        <time>2015-09-27T20:50:57.179Z</time>
      </trkpt>
      <trkpt lat="45.50473" lon="-73.52372">
        <ele>-26</ele>
        <time>2015-09-27T20:50:59.191Z</time>
      </trkpt>
      <trkpt lat="45.50469" lon="-73.52372">
        <ele>-27</ele>
        <time>2015-09-27T20:51:00.190Z</time>
      </trkpt>
      <trkpt lat="45.50462" lon="-73.52371">
        <ele>-25</ele>
        <time>2015-09-27T20:51:02.243Z</time>
      </trkpt>
      <trkpt lat="45.50459" lon="-73.5237">
        <ele>-25</ele>
        <time>2015-09-27T20:51:03.176Z</time>
      </trkpt>
      <trkpt lat="45.50452" lon="-73.52368">
        <ele>-25</ele>
        <time>2015-09-27T20:51:05.193Z</time>
      </trkpt>
      <trkpt lat="45.50449" lon="-73.52367">
        <ele>-24</ele>
        <time>2015-09-27T20:51:06.175Z</time>
      </trkpt>
      <trkpt lat="45.50441" lon="-73.52366">
        <ele>-23</ele>
        <time>2015-09-27T20:51:08.236Z</time>
      </trkpt>
      <trkpt lat="45.50437" lon="-73.52364">
        <ele>-25</ele>
        <time>2015-09-27T20:51:09.193Z</time>
      </trkpt>
      <trkpt lat="45.50429" lon="-73.52361">
        <ele>-22</ele>
        <time>2015-09-27T20:51:11.272Z</time>
      </trkpt>
      <trkpt lat="45.504" lon="-73.52351">
        <ele>-21</ele>
        <time>2015-09-27T20:51:18.193Z</time>
      </trkpt>
      <trkpt lat="45.50394" lon="-73.52352">
        <ele>-21</ele>
        <time>2015-09-27T20:51:19.271Z</time>
      </trkpt>
      <trkpt lat="45.50387" lon="-73.52353">
        <ele>-19</ele>
        <time>2015-09-27T20:51:20.195Z</time>
      </trkpt>
      <trkpt lat="45.50385" lon="-73.52356">
        <ele>-17</ele>
        <time>2015-09-27T20:51:21.281Z</time>
      </trkpt>
      <trkpt lat="45.50377" lon="-73.52351">
        <ele>-19</ele>
        <time>2015-09-27T20:51:22.186Z</time>
      </trkpt>
      <trkpt lat="45.50369" lon="-73.5235">
        <ele>-20</ele>
        <time>2015-09-27T20:51:23.240Z</time>
      </trkpt>
      <trkpt lat="45.50367" lon="-73.52353">
        <ele>-20</ele>
        <time>2015-09-27T20:51:24.185Z</time>
      </trkpt>
      <trkpt lat="45.5036" lon="-73.52356">
        <ele>-18</ele>
        <time>2015-09-27T20:51:26.238Z</time>
      </trkpt>
      <trkpt lat="45.50357" lon="-73.52358">
        <ele>-20</ele>
        <time>2015-09-27T20:51:27.192Z</time>
      </trkpt>
      <trkpt lat="45.50355" lon="-73.5236">
        <ele>-20</ele>
        <time>2015-09-27T20:51:28.242Z</time>
      </trkpt>
      <trkpt lat="45.50346" lon="-73.52358">
        <ele>-21</ele>
        <time>2015-09-27T20:51:29.173Z</time>
      </trkpt>
      <trkpt lat="45.50344" lon="-73.52368">
        <ele>-18</ele>
        <time>2015-09-27T20:51:31.275Z</time>
      </trkpt>
      <trkpt lat="45.50336" lon="-73.52366">
        <ele>-18</ele>
        <time>2015-09-27T20:51:32.190Z</time>
      </trkpt>
      <trkpt lat="45.50328" lon="-73.52369">
        <ele>-14</ele>
        <time>2015-09-27T20:51:34.262Z</time>
      </trkpt>
      <trkpt lat="45.50325" lon="-73.52368">
        <ele>-19</ele>
        <time>2015-09-27T20:51:35.198Z</time>
      </trkpt>
      <trkpt lat="45.50318" lon="-73.52374">
        <ele>-17</ele>
        <time>2015-09-27T20:51:41.243Z</time>
      </trkpt>
      <trkpt lat="45.50316" lon="-73.52374">
        <ele>-19</ele>
        <time>2015-09-27T20:51:42.192Z</time>
      </trkpt>
      <trkpt lat="45.50309" lon="-73.52371">
        <ele>-19</ele>
        <time>2015-09-27T20:51:44.235Z</time>
      </trkpt>
      <trkpt lat="45.50304" lon="-73.52369">
        <ele>-19</ele>
        <time>2015-09-27T20:51:45.193Z</time>
      </trkpt>
      <trkpt lat="45.503" lon="-73.52367">
        <ele>-19</ele>
        <time>2015-09-27T20:51:46.250Z</time>
      </trkpt>
      <trkpt lat="45.50295" lon="-73.52365">
        <ele>-22</ele>
        <time>2015-09-27T20:51:47.189Z</time>
      </trkpt>
      <trkpt lat="45.50291" lon="-73.52364">
        <ele>-22</ele>
        <time>2015-09-27T20:51:48.244Z</time>
      </trkpt>
      <trkpt lat="45.50286" lon="-73.52362">
        <ele>-22</ele>
        <time>2015-09-27T20:51:49.189Z</time>
      </trkpt>
      <trkpt lat="45.5028" lon="-73.52361">
        <ele>-23</ele>
        <time>2015-09-27T20:51:51.536Z</time>
      </trkpt>
      <trkpt lat="45.50277" lon="-73.52361">
        <ele>-22</ele>
        <time>2015-09-27T20:51:52.191Z</time>
      </trkpt>
      <trkpt lat="45.5027" lon="-73.52358">
        <ele>-23</ele>
        <time>2015-09-27T20:51:54.231Z</time>
      </trkpt>
      <trkpt lat="45.50266" lon="-73.52356">
        <ele>-23</ele>
        <time>2015-09-27T20:51:55.189Z</time>
      </trkpt>
      <trkpt lat="45.50259" lon="-73.52353">
        <ele>-23</ele>
        <time>2015-09-27T20:51:57.232Z</time>
      </trkpt>
      <trkpt lat="45.50256" lon="-73.52352">
        <ele>-23</ele>
        <time>2015-09-27T20:51:58.190Z</time>
      </trkpt>
      <trkpt lat="45.5025" lon="-73.5235">
        <ele>-22</ele>
        <time>2015-09-27T20:52:00.322Z</time>
      </trkpt>
      <trkpt lat="45.50246" lon="-73.5235">
        <ele>-22</ele>
        <time>2015-09-27T20:52:01.176Z</time>
      </trkpt>
      <trkpt lat="45.50239" lon="-73.52349">
        <ele>-20</ele>
        <time>2015-09-27T20:52:03.269Z</time>
      </trkpt>
      <trkpt lat="45.50236" lon="-73.52348">
        <ele>-23</ele>
        <time>2015-09-27T20:52:04.186Z</time>
      </trkpt>
      <trkpt lat="45.50229" lon="-73.52346">
        <ele>-22</ele>
        <time>2015-09-27T20:52:06.238Z</time>
      </trkpt>
      <trkpt lat="45.50202" lon="-73.5234">
        <ele>-19</ele>
        <time>2015-09-27T20:52:12.176Z</time>
      </trkpt>
      <trkpt lat="45.50202" lon="-73.5234">
        <ele>-19</ele>
        <time>2015-09-27T20:52:12.195Z</time>
      </trkpt>
      <trkpt lat="45.5019" lon="-73.52334">
        <ele>-18</ele>
        <time>2015-09-27T20:52:13.193Z</time>
      </trkpt>
      <trkpt lat="45.50186" lon="-73.52334">
        <ele>-17</ele>
        <time>2015-09-27T20:52:14.247Z</time>
      </trkpt>
      <trkpt lat="45.5018" lon="-73.5233">
        <ele>-18</ele>
        <time>2015-09-27T20:52:15.190Z</time>
      </trkpt>
      <trkpt lat="45.50174" lon="-73.52327">
        <ele>-19</ele>
        <time>2015-09-27T20:52:17.152Z</time>
      </trkpt>
      <trkpt lat="45.50169" lon="-73.52327">
        <ele>-18</ele>
        <time>2015-09-27T20:52:17.181Z</time>
      </trkpt>
      <trkpt lat="45.50164" lon="-73.52325">
        <ele>-19</ele>
        <time>2015-09-27T20:52:18.269Z</time>
      </trkpt>
      <trkpt lat="45.50159" lon="-73.52321">
        <ele>-20</ele>
        <time>2015-09-27T20:52:19.187Z</time>
      </trkpt>
      <trkpt lat="45.50154" lon="-73.52318">
        <ele>-19</ele>
        <time>2015-09-27T20:52:20.242Z</time>
      </trkpt>
      <trkpt lat="45.50142" lon="-73.52311">
        <ele>-16</ele>
        <time>2015-09-27T20:52:21.177Z</time>
      </trkpt>
      <trkpt lat="45.50133" lon="-73.5231">
        <ele>-15</ele>
        <time>2015-09-27T20:52:23.210Z</time>
      </trkpt>
      <trkpt lat="45.50129" lon="-73.52308">
        <ele>-14</ele>
        <time>2015-09-27T20:52:24.190Z</time>
      </trkpt>
      <trkpt lat="45.50122" lon="-73.52312">
        <ele>-15</ele>
        <time>2015-09-27T20:52:30.251Z</time>
      </trkpt>
      <trkpt lat="45.50118" lon="-73.52311">
        <ele>-14</ele>
        <time>2015-09-27T20:52:31.190Z</time>
      </trkpt>
      <trkpt lat="45.50111" lon="-73.52309">
        <ele>-14</ele>
        <time>2015-09-27T20:52:33.257Z</time>
      </trkpt>
      <trkpt lat="45.50107" lon="-73.52307">
        <ele>-14</ele>
        <time>2015-09-27T20:52:34.189Z</time>
      </trkpt>
      <trkpt lat="45.50101" lon="-73.52307">
        <ele>-14</ele>
        <time>2015-09-27T20:52:36.233Z</time>
      </trkpt>
      <trkpt lat="45.50097" lon="-73.52306">
        <ele>-13</ele>
        <time>2015-09-27T20:52:37.187Z</time>
      </trkpt>
      <trkpt lat="45.50089" lon="-73.52303">
        <ele>-13</ele>
        <time>2015-09-27T20:52:39.200Z</time>
      </trkpt>
      <trkpt lat="45.50085" lon="-73.52301">
        <ele>-15</ele>
        <time>2015-09-27T20:52:40.177Z</time>
      </trkpt>
      <trkpt lat="45.50076" lon="-73.52298">
        <ele>-13</ele>
        <time>2015-09-27T20:52:42.259Z</time>
      </trkpt>
      <trkpt lat="45.50072" lon="-73.52297">
        <ele>-13</ele>
        <time>2015-09-27T20:52:43.177Z</time>
      </trkpt>
      <trkpt lat="45.50068" lon="-73.52295">
        <ele>-12</ele>
        <time>2015-09-27T20:52:44.279Z</time>
      </trkpt>
      <trkpt lat="45.50063" lon="-73.52293">
        <ele>-11</ele>
        <time>2015-09-27T20:52:45.187Z</time>
      </trkpt>
      <trkpt lat="45.50055" lon="-73.5229">
        <ele>-12</ele>
        <time>2015-09-27T20:52:47.242Z</time>
      </trkpt>
      <trkpt lat="45.5005" lon="-73.52288">
        <ele>-13</ele>
        <time>2015-09-27T20:52:48.190Z</time>
      </trkpt>
      <trkpt lat="45.50044" lon="-73.52285">
        <ele>-12</ele>
        <time>2015-09-27T20:52:49.260Z</time>
      </trkpt>
      <trkpt lat="45.50032" lon="-73.52277">
        <ele>-12</ele>
        <time>2015-09-27T20:52:50.191Z</time>
      </trkpt>
      <trkpt lat="45.50024" lon="-73.52277">
        <ele>-12</ele>
        <time>2015-09-27T20:52:52.222Z</time>
      </trkpt>
      <trkpt lat="45.50021" lon="-73.52275">
        <ele>-13</ele>
        <time>2015-09-27T20:52:53.207Z</time>
      </trkpt>
      <trkpt lat="45.50013" lon="-73.52276">
        <ele>-12</ele>
        <time>2015-09-27T20:52:57.242Z</time>
      </trkpt>
      <trkpt lat="45.50011" lon="-73.52276">
        <ele>-14</ele>
        <time>2015-09-27T20:52:58.188Z</time>
      </trkpt>
      <trkpt lat="45.50007" lon="-73.52276">
        <ele>-15</ele>
        <time>2015-09-27T20:52:59.240Z</time>
      </trkpt>
      <trkpt lat="45.50002" lon="-73.52272">
        <ele>-16</ele>
        <time>2015-09-27T20:53:00.190Z</time>
      </trkpt>
      <trkpt lat="45.49996" lon="-73.52272">
        <ele>-15</ele>
        <time>2015-09-27T20:53:02.248Z</time>
      </trkpt>
      <trkpt lat="45.49992" lon="-73.52271">
        <ele>-15</ele>
        <time>2015-09-27T20:53:03.193Z</time>
      </trkpt>
      <trkpt lat="45.49984" lon="-73.52269">
        <ele>-15</ele>
        <time>2015-09-27T20:53:05.260Z</time>
      </trkpt>
      <trkpt lat="45.49981" lon="-73.52268">
        <ele>-14</ele>
        <time>2015-09-27T20:53:06.188Z</time>
      </trkpt>
      <trkpt lat="45.49973" lon="-73.52266">
        <ele>-13</ele>
        <time>2015-09-27T20:53:08.245Z</time>
      </trkpt>
      <trkpt lat="45.49969" lon="-73.52265">
        <ele>-14</ele>
        <time>2015-09-27T20:53:09.189Z</time>
      </trkpt>
      <trkpt lat="45.4996" lon="-73.52262">
        <ele>-14</ele>
        <time>2015-09-27T20:53:11.242Z</time>
      </trkpt>
      <trkpt lat="45.49956" lon="-73.5226">
        <ele>-15</ele>
        <time>2015-09-27T20:53:12.192Z</time>
      </trkpt>
      <trkpt lat="45.49951" lon="-73.52258">
        <ele>-15</ele>
        <time>2015-09-27T20:53:13.243Z</time>
      </trkpt>
      <trkpt lat="45.49946" lon="-73.52256">
        <ele>-14</ele>
        <time>2015-09-27T20:53:14.196Z</time>
      </trkpt>
      <trkpt lat="45.49938" lon="-73.52253">
        <ele>-14</ele>
        <time>2015-09-27T20:53:15.213Z</time>
      </trkpt>
      <trkpt lat="45.49935" lon="-73.52253">
        <ele>-14</ele>
        <time>2015-09-27T20:53:16.189Z</time>
      </trkpt>
      <trkpt lat="45.49928" lon="-73.52258">
        <ele>-14</ele>
        <time>2015-09-27T20:53:21.247Z</time>
      </trkpt>
      <trkpt lat="45.49924" lon="-73.52258">
        <ele>-14</ele>
        <time>2015-09-27T20:53:22.175Z</time>
      </trkpt>
      <trkpt lat="45.49916" lon="-73.52259">
        <ele>-15</ele>
        <time>2015-09-27T20:53:24.251Z</time>
      </trkpt>
      <trkpt lat="45.49912" lon="-73.52259">
        <ele>-15</ele>
        <time>2015-09-27T20:53:25.243Z</time>
      </trkpt>
      <trkpt lat="45.49903" lon="-73.52257">
        <ele>-15</ele>
        <time>2015-09-27T20:53:27.269Z</time>
      </trkpt>
      <trkpt lat="45.49899" lon="-73.52255">
        <ele>-16</ele>
        <time>2015-09-27T20:53:28.189Z</time>
      </trkpt>
      <trkpt lat="45.49894" lon="-73.5225">
        <ele>-17</ele>
        <time>2015-09-27T20:53:30.257Z</time>
      </trkpt>
      <trkpt lat="45.49829" lon="-73.52217">
        <ele>-24</ele>
        <time>2015-09-27T20:53:47.191Z</time>
      </trkpt>
      <trkpt lat="45.49822" lon="-73.52213">
        <ele>-24</ele>
        <time>2015-09-27T20:53:48.233Z</time>
      </trkpt>
      <trkpt lat="45.49818" lon="-73.52213">
        <ele>-23</ele>
        <time>2015-09-27T20:53:49.193Z</time>
      </trkpt>
      <trkpt lat="45.4981" lon="-73.52213">
        <ele>-21</ele>
        <time>2015-09-27T20:53:52.254Z</time>
      </trkpt>
      <trkpt lat="45.49807" lon="-73.52213">
        <ele>-21</ele>
        <time>2015-09-27T20:53:53.194Z</time>
      </trkpt>
      <trkpt lat="45.49803" lon="-73.52212">
        <ele>-20</ele>
        <time>2015-09-27T20:53:54.259Z</time>
      </trkpt>
      <trkpt lat="45.49798" lon="-73.5221">
        <ele>-19</ele>
        <time>2015-09-27T20:53:55.190Z</time>
      </trkpt>
      <trkpt lat="45.49789" lon="-73.5221">
        <ele>-18</ele>
        <time>2015-09-27T20:53:57.239Z</time>
      </trkpt>
      <trkpt lat="45.49787" lon="-73.52209">
        <ele>-19</ele>
        <time>2015-09-27T20:53:58.173Z</time>
      </trkpt>
      <trkpt lat="45.4978" lon="-73.52206">
        <ele>-20</ele>
        <time>2015-09-27T20:54:00.724Z</time>
      </trkpt>
      <trkpt lat="45.49777" lon="-73.52206">
        <ele>-19</ele>
        <time>2015-09-27T20:54:01.185Z</time>
      </trkpt>
      <trkpt lat="45.49768" lon="-73.52205">
        <ele>-18</ele>
        <time>2015-09-27T20:54:04.233Z</time>
      </trkpt>
      <trkpt lat="45.49766" lon="-73.52205">
        <ele>-19</ele>
        <time>2015-09-27T20:54:05.188Z</time>
      </trkpt>
      <trkpt lat="45.49766" lon="-73.52205">
        <ele>-19</ele>
        <time>2015-09-27T20:54:05.274Z</time>
      </trkpt>
      <trkpt lat="45.4973" lon="-73.52388">
        <ele>-14</ele>
        <time>2015-09-27T20:55:00.246Z</time>
      </trkpt>
      <trkpt lat="45.49733" lon="-73.524">
        <ele>-17</ele>
        <time>2015-09-27T20:55:09.330Z</time>
      </trkpt>
      <trkpt lat="45.49733" lon="-73.52401">
        <ele>-15</ele>
        <time>2015-09-27T20:55:10.183Z</time>
      </trkpt>
      <trkpt lat="45.4973" lon="-73.5239">
        <ele>-13</ele>
        <time>2015-09-27T20:56:08.190Z</time>
      </trkpt>
      <trkpt lat="45.49728" lon="-73.52387">
        <ele>-16</ele>
        <time>2015-09-27T20:56:09.174Z</time>
      </trkpt>
      <trkpt lat="45.49726" lon="-73.52377">
        <ele>-17</ele>
        <time>2015-09-27T20:56:11.219Z</time>
      </trkpt>
      <trkpt lat="45.49724" lon="-73.52371">
        <ele>-18</ele>
        <time>2015-09-27T20:56:12.180Z</time>
      </trkpt>
      <trkpt lat="45.49719" lon="-73.52361">
        <ele>-18</ele>
        <time>2015-09-27T20:56:14.224Z</time>
      </trkpt>
      <trkpt lat="45.49716" lon="-73.52357">
        <ele>-18</ele>
        <time>2015-09-27T20:56:15.178Z</time>
      </trkpt>
      <trkpt lat="45.4971" lon="-73.5235">
        <ele>-17</ele>
        <time>2015-09-27T20:56:17.247Z</time>
      </trkpt>
      <trkpt lat="45.49707" lon="-73.52346">
        <ele>-17</ele>
        <time>2015-09-27T20:56:18.177Z</time>
      </trkpt>
      <trkpt lat="45.49703" lon="-73.52335">
        <ele>-15</ele>
        <time>2015-09-27T20:56:20.288Z</time>
      </trkpt>
      <trkpt lat="45.497" lon="-73.52329">
        <ele>-15</ele>
        <time>2015-09-27T20:56:21.192Z</time>
      </trkpt>
      <trkpt lat="45.49695" lon="-73.52319">
        <ele>-18</ele>
        <time>2015-09-27T20:56:23.242Z</time>
      </trkpt>
      <trkpt lat="45.49689" lon="-73.52311">
        <ele>-18</ele>
        <time>2015-09-27T20:56:24.172Z</time>
      </trkpt>
      <trkpt lat="45.49687" lon="-73.52304">
        <ele>-16</ele>
        <time>2015-09-27T20:56:25.252Z</time>
      </trkpt>
      <trkpt lat="45.49684" lon="-73.523">
        <ele>-16</ele>
        <time>2015-09-27T20:56:26.173Z</time>
      </trkpt>
      <trkpt lat="45.49682" lon="-73.52292">
        <ele>-14</ele>
        <time>2015-09-27T20:56:27.240Z</time>
      </trkpt>
      <trkpt lat="45.4968" lon="-73.52286">
        <ele>-13</ele>
        <time>2015-09-27T20:56:28.187Z</time>
      </trkpt>
      <trkpt lat="45.49673" lon="-73.52282">
        <ele>-14</ele>
        <time>2015-09-27T20:56:30.258Z</time>
      </trkpt>
      <trkpt lat="45.49671" lon="-73.52279">
        <ele>-16</ele>
        <time>2015-09-27T20:56:31.190Z</time>
      </trkpt>
      <trkpt lat="45.49666" lon="-73.52272">
        <ele>-19</ele>
        <time>2015-09-27T20:56:33.244Z</time>
      </trkpt>
      <trkpt lat="45.49664" lon="-73.52266">
        <ele>-18</ele>
        <time>2015-09-27T20:56:34.190Z</time>
      </trkpt>
      <trkpt lat="45.4966" lon="-73.52255">
        <ele>-18</ele>
        <time>2015-09-27T20:56:36.243Z</time>
      </trkpt>
      <trkpt lat="45.49657" lon="-73.5225">
        <ele>-19</ele>
        <time>2015-09-27T20:56:37.189Z</time>
      </trkpt>
      <trkpt lat="45.49655" lon="-73.52243">
        <ele>-19</ele>
        <time>2015-09-27T20:56:38.239Z</time>
      </trkpt>
      <trkpt lat="45.49653" lon="-73.52233">
        <ele>-17</ele>
        <time>2015-09-27T20:56:39.186Z</time>
      </trkpt>
      <trkpt lat="45.49649" lon="-73.52222">
        <ele>-17</ele>
        <time>2015-09-27T20:56:41.252Z</time>
      </trkpt>
      <trkpt lat="45.49648" lon="-73.52214">
        <ele>-17</ele>
        <time>2015-09-27T20:56:42.190Z</time>
      </trkpt>
      <trkpt lat="45.49646" lon="-73.52205">
        <ele>-16</ele>
        <time>2015-09-27T20:56:43.219Z</time>
      </trkpt>
      <trkpt lat="45.49643" lon="-73.52197">
        <ele>-15</ele>
        <time>2015-09-27T20:56:44.209Z</time>
      </trkpt>
      <trkpt lat="45.49641" lon="-73.52191">
        <ele>-16</ele>
        <time>2015-09-27T20:56:45.249Z</time>
      </trkpt>
      <trkpt lat="45.49639" lon="-73.52183">
        <ele>-14</ele>
        <time>2015-09-27T20:56:46.184Z</time>
      </trkpt>
      <trkpt lat="45.49637" lon="-73.52175">
        <ele>-12</ele>
        <time>2015-09-27T20:56:47.247Z</time>
      </trkpt>
      <trkpt lat="45.49636" lon="-73.52171">
        <ele>-13</ele>
        <time>2015-09-27T20:56:48.194Z</time>
      </trkpt>
      <trkpt lat="45.49635" lon="-73.52162">
        <ele>-12</ele>
        <time>2015-09-27T20:56:49.311Z</time>
      </trkpt>
      <trkpt lat="45.49631" lon="-73.52154">
        <ele>-11</ele>
        <time>2015-09-27T20:56:50.186Z</time>
      </trkpt>
      <trkpt lat="45.49627" lon="-73.52146">
        <ele>-15</ele>
        <time>2015-09-27T20:56:53.259Z</time>
      </trkpt>
      <trkpt lat="45.49626" lon="-73.52139">
        <ele>-14</ele>
        <time>2015-09-27T20:56:54.192Z</time>
      </trkpt>
      <trkpt lat="45.49623" lon="-73.52128">
        <ele>-14</ele>
        <time>2015-09-27T20:56:56.210Z</time>
      </trkpt>
      <trkpt lat="45.49621" lon="-73.52123">
        <ele>-14</ele>
        <time>2015-09-27T20:56:57.189Z</time>
      </trkpt>
      <trkpt lat="45.49619" lon="-73.52117">
        <ele>-14</ele>
        <time>2015-09-27T20:56:58.246Z</time>
      </trkpt>
      <trkpt lat="45.49619" lon="-73.52109">
        <ele>-14</ele>
        <time>2015-09-27T20:56:59.188Z</time>
      </trkpt>
      <trkpt lat="45.49619" lon="-73.52102">
        <ele>-13</ele>
        <time>2015-09-27T20:57:00.209Z</time>
      </trkpt>
      <trkpt lat="45.49619" lon="-73.52093">
        <ele>-12</ele>
        <time>2015-09-27T20:57:01.191Z</time>
      </trkpt>
      <trkpt lat="45.49618" lon="-73.52087">
        <ele>-12</ele>
        <time>2015-09-27T20:57:02.247Z</time>
      </trkpt>
      <trkpt lat="45.49614" lon="-73.52077">
        <ele>-13</ele>
        <time>2015-09-27T20:57:03.206Z</time>
      </trkpt>
      <trkpt lat="45.49617" lon="-73.52071">
        <ele>-13</ele>
        <time>2015-09-27T20:57:04.234Z</time>
      </trkpt>
      <trkpt lat="45.49622" lon="-73.5206">
        <ele>-14</ele>
        <time>2015-09-27T20:57:05.189Z</time>
      </trkpt>
      <trkpt lat="45.49618" lon="-73.52052">
        <ele>-15</ele>
        <time>2015-09-27T20:57:06.241Z</time>
      </trkpt>
      <trkpt lat="45.49616" lon="-73.52048">
        <ele>-15</ele>
        <time>2015-09-27T20:57:07.187Z</time>
      </trkpt>
      <trkpt lat="45.4962" lon="-73.52039">
        <ele>-14</ele>
        <time>2015-09-27T20:57:08.241Z</time>
      </trkpt>
      <trkpt lat="45.4962" lon="-73.52033">
        <ele>-14</ele>
        <time>2015-09-27T20:57:09.189Z</time>
      </trkpt>
      <trkpt lat="45.49622" lon="-73.52023">
        <ele>-14</ele>
        <time>2015-09-27T20:57:11.241Z</time>
      </trkpt>
      <trkpt lat="45.49622" lon="-73.52018">
        <ele>-15</ele>
        <time>2015-09-27T20:57:12.192Z</time>
      </trkpt>
      <trkpt lat="45.49619" lon="-73.52008">
        <ele>-15</ele>
        <time>2015-09-27T20:57:14.280Z</time>
      </trkpt>
      <trkpt lat="45.4962" lon="-73.52002">
        <ele>-16</ele>
        <time>2015-09-27T20:57:15.192Z</time>
      </trkpt>
      <trkpt lat="45.49613" lon="-73.51994">
        <ele>-15</ele>
        <time>2015-09-27T20:57:17.266Z</time>
      </trkpt>
      <trkpt lat="45.49611" lon="-73.51988">
        <ele>-16</ele>
        <time>2015-09-27T20:57:18.189Z</time>
      </trkpt>
      <trkpt lat="45.49605" lon="-73.51984">
        <ele>-14</ele>
        <time>2015-09-27T20:57:20.212Z</time>
      </trkpt>
      <trkpt lat="45.49602" lon="-73.51981">
        <ele>-12</ele>
        <time>2015-09-27T20:57:21.191Z</time>
      </trkpt>
      <trkpt lat="45.49597" lon="-73.51975">
        <ele>-12</ele>
        <time>2015-09-27T20:57:23.262Z</time>
      </trkpt>
      <trkpt lat="45.49595" lon="-73.51971">
        <ele>-12</ele>
        <time>2015-09-27T20:57:24.181Z</time>
      </trkpt>
      <trkpt lat="45.4959" lon="-73.51965">
        <ele>-13</ele>
        <time>2015-09-27T20:57:26.242Z</time>
      </trkpt>
      <trkpt lat="45.49587" lon="-73.51963">
        <ele>-14</ele>
        <time>2015-09-27T20:57:27.176Z</time>
      </trkpt>
      <trkpt lat="45.49582" lon="-73.51956">
        <ele>-14</ele>
        <time>2015-09-27T20:57:29.238Z</time>
      </trkpt>
      <trkpt lat="45.49579" lon="-73.51953">
        <ele>-14</ele>
        <time>2015-09-27T20:57:30.174Z</time>
      </trkpt>
      <trkpt lat="45.49574" lon="-73.51945">
        <ele>-13</ele>
        <time>2015-09-27T20:57:33.233Z</time>
      </trkpt>
      <trkpt lat="45.49572" lon="-73.51944">
        <ele>-12</ele>
        <time>2015-09-27T20:57:34.192Z</time>
      </trkpt>
      <trkpt lat="45.49565" lon="-73.51941">
        <ele>-12</ele>
        <time>2015-09-27T20:57:38.260Z</time>
      </trkpt>
      <trkpt lat="45.49562" lon="-73.5194">
        <ele>-11</ele>
        <time>2015-09-27T20:57:39.193Z</time>
      </trkpt>
      <trkpt lat="45.49559" lon="-73.51938">
        <ele>-12</ele>
        <time>2015-09-27T20:57:40.233Z</time>
      </trkpt>
      <trkpt lat="45.49554" lon="-73.51935">
        <ele>-12</ele>
        <time>2015-09-27T20:57:41.193Z</time>
      </trkpt>
      <trkpt lat="45.49549" lon="-73.51933">
        <ele>-11</ele>
        <time>2015-09-27T20:57:42.251Z</time>
      </trkpt>
      <trkpt lat="45.49544" lon="-73.5193">
        <ele>-11</ele>
        <time>2015-09-27T20:57:43.192Z</time>
      </trkpt>
      <trkpt lat="45.49536" lon="-73.51927">
        <ele>-10</ele>
        <time>2015-09-27T20:57:45.238Z</time>
      </trkpt>
      <trkpt lat="45.49532" lon="-73.51927">
        <ele>-11</ele>
        <time>2015-09-27T20:57:46.193Z</time>
      </trkpt>
      <trkpt lat="45.49528" lon="-73.51928">
        <ele>-11</ele>
        <time>2015-09-27T20:57:48.865Z</time>
      </trkpt>
      <trkpt lat="45.4951" lon="-73.51927">
        <ele>-11</ele>
        <time>2015-09-27T20:57:52.183Z</time>
      </trkpt>
      <trkpt lat="45.49503" lon="-73.5192">
        <ele>-13</ele>
        <time>2015-09-27T20:57:54.249Z</time>
      </trkpt>
      <trkpt lat="45.49499" lon="-73.51915">
        <ele>-12</ele>
        <time>2015-09-27T20:57:55.190Z</time>
      </trkpt>
      <trkpt lat="45.49494" lon="-73.51909">
        <ele>-14</ele>
        <time>2015-09-27T20:57:56.267Z</time>
      </trkpt>
      <trkpt lat="45.49481" lon="-73.51887">
        <ele>-14</ele>
        <time>2015-09-27T20:57:57.192Z</time>
      </trkpt>
      <trkpt lat="45.49476" lon="-73.51883">
        <ele>-17</ele>
        <time>2015-09-27T20:57:59.209Z</time>
      </trkpt>
      <trkpt lat="45.49472" lon="-73.5188">
        <ele>-15</ele>
        <time>2015-09-27T20:58:00.187Z</time>
      </trkpt>
      <trkpt lat="45.49467" lon="-73.51873">
        <ele>-16</ele>
        <time>2015-09-27T20:58:02.247Z</time>
      </trkpt>
      <trkpt lat="45.49465" lon="-73.5187">
        <ele>-17</ele>
        <time>2015-09-27T20:58:03.192Z</time>
      </trkpt>
      <trkpt lat="45.49458" lon="-73.51866">
        <ele>-16</ele>
        <time>2015-09-27T20:58:05.254Z</time>
      </trkpt>
      <trkpt lat="45.49455" lon="-73.51865">
        <ele>-14</ele>
        <time>2015-09-27T20:58:06.192Z</time>
      </trkpt>
      <trkpt lat="45.49449" lon="-73.51865">
        <ele>-15</ele>
        <time>2015-09-27T20:58:08.260Z</time>
      </trkpt>
      <trkpt lat="45.49445" lon="-73.51864">
        <ele>-15</ele>
        <time>2015-09-27T20:58:09.184Z</time>
      </trkpt>
      <trkpt lat="45.49438" lon="-73.51863">
        <ele>-15</ele>
        <time>2015-09-27T20:58:11.242Z</time>
      </trkpt>
      <trkpt lat="45.49434" lon="-73.51862">
        <ele>-16</ele>
        <time>2015-09-27T20:58:12.190Z</time>
      </trkpt>
      <trkpt lat="45.49427" lon="-73.51861">
        <ele>-16</ele>
        <time>2015-09-27T20:58:14.246Z</time>
      </trkpt>
      <trkpt lat="45.49423" lon="-73.51861">
        <ele>-16</ele>
        <time>2015-09-27T20:58:15.192Z</time>
      </trkpt>
      <trkpt lat="45.49416" lon="-73.5186">
        <ele>-14</ele>
        <time>2015-09-27T20:58:17.242Z</time>
      </trkpt>
      <trkpt lat="45.49412" lon="-73.51859">
        <ele>-14</ele>
        <time>2015-09-27T20:58:18.192Z</time>
      </trkpt>
      <trkpt lat="45.49404" lon="-73.51858">
        <ele>-14</ele>
        <time>2015-09-27T20:58:20.215Z</time>
      </trkpt>
      <trkpt lat="45.494" lon="-73.51857">
        <ele>-14</ele>
        <time>2015-09-27T20:58:21.195Z</time>
      </trkpt>
      <trkpt lat="45.49393" lon="-73.51855">
        <ele>-13</ele>
        <time>2015-09-27T20:58:23.233Z</time>
      </trkpt>
      <trkpt lat="45.49389" lon="-73.51855">
        <ele>-12</ele>
        <time>2015-09-27T20:58:24.191Z</time>
      </trkpt>
      <trkpt lat="45.49381" lon="-73.51853">
        <ele>-11</ele>
        <time>2015-09-27T20:58:26.267Z</time>
      </trkpt>
      <trkpt lat="45.49377" lon="-73.51853">
        <ele>-10</ele>
        <time>2015-09-27T20:58:27.191Z</time>
      </trkpt>
      <trkpt lat="45.49369" lon="-73.51851">
        <ele>-11</ele>
        <time>2015-09-27T20:58:29.240Z</time>
      </trkpt>
      <trkpt lat="45.49365" lon="-73.5185">
        <ele>-11</ele>
        <time>2015-09-27T20:58:30.189Z</time>
      </trkpt>
      <trkpt lat="45.49357" lon="-73.51847">
        <ele>-10</ele>
        <time>2015-09-27T20:58:32.245Z</time>
      </trkpt>
      <trkpt lat="45.49353" lon="-73.51846">
        <ele>-9</ele>
        <time>2015-09-27T20:58:33.189Z</time>
      </trkpt>
      <trkpt lat="45.49346" lon="-73.51844">
        <ele>-10</ele>
        <time>2015-09-27T20:58:35.258Z</time>
      </trkpt>
      <trkpt lat="45.49341" lon="-73.51843">
        <ele>-8</ele>
        <time>2015-09-27T20:58:36.192Z</time>
      </trkpt>
      <trkpt lat="45.49333" lon="-73.51841">
        <ele>-9</ele>
        <time>2015-09-27T20:58:38.242Z</time>
      </trkpt>
      <trkpt lat="45.49329" lon="-73.51839">
        <ele>-10</ele>
        <time>2015-09-27T20:58:39.194Z</time>
      </trkpt>
      <trkpt lat="45.49322" lon="-73.51837">
        <ele>-11</ele>
        <time>2015-09-27T20:58:41.322Z</time>
      </trkpt>
      <trkpt lat="45.49318" lon="-73.51836">
        <ele>-12</ele>
        <time>2015-09-27T20:58:42.188Z</time>
      </trkpt>
      <trkpt lat="45.49312" lon="-73.51834">
        <ele>-11</ele>
        <time>2015-09-27T20:58:44.241Z</time>
      </trkpt>
      <trkpt lat="45.49309" lon="-73.51833">
        <ele>-11</ele>
        <time>2015-09-27T20:58:45.195Z</time>
      </trkpt>
      <trkpt lat="45.49303" lon="-73.51831">
        <ele>-11</ele>
        <time>2015-09-27T20:58:47.257Z</time>
      </trkpt>
      <trkpt lat="45.493" lon="-73.51829">
        <ele>-12</ele>
        <time>2015-09-27T20:58:48.189Z</time>
      </trkpt>
      <trkpt lat="45.49294" lon="-73.51828">
        <ele>-12</ele>
        <time>2015-09-27T20:58:50.260Z</time>
      </trkpt>
      <trkpt lat="45.49291" lon="-73.51827">
        <ele>-12</ele>
        <time>2015-09-27T20:58:51.187Z</time>
      </trkpt>
      <trkpt lat="45.49284" lon="-73.51825">
        <ele>-13</ele>
        <time>2015-09-27T20:58:53.289Z</time>
      </trkpt>
      <trkpt lat="45.49281" lon="-73.51824">
        <ele>-14</ele>
        <time>2015-09-27T20:58:54.192Z</time>
      </trkpt>
      <trkpt lat="45.49275" lon="-73.51821">
        <ele>-15</ele>
        <time>2015-09-27T20:58:56.255Z</time>
      </trkpt>
      <trkpt lat="45.49272" lon="-73.5182">
        <ele>-14</ele>
        <time>2015-09-27T20:58:57.190Z</time>
      </trkpt>
      <trkpt lat="45.49266" lon="-73.51818">
        <ele>-14</ele>
        <time>2015-09-27T20:59:00.208Z</time>
      </trkpt>
      <trkpt lat="45.49263" lon="-73.51817">
        <ele>-13</ele>
        <time>2015-09-27T20:59:01.211Z</time>
      </trkpt>
      <trkpt lat="45.49258" lon="-73.51816">
        <ele>-12</ele>
        <time>2015-09-27T20:59:03.245Z</time>
      </trkpt>
      <trkpt lat="45.49254" lon="-73.51815">
        <ele>-12</ele>
        <time>2015-09-27T20:59:04.191Z</time>
      </trkpt>
      <trkpt lat="45.49246" lon="-73.51812">
        <ele>-15</ele>
        <time>2015-09-27T20:59:06.472Z</time>
      </trkpt>
      <trkpt lat="45.49242" lon="-73.5181">
        <ele>-14</ele>
        <time>2015-09-27T20:59:07.193Z</time>
      </trkpt>
      <trkpt lat="45.49235" lon="-73.51807">
        <ele>-12</ele>
        <time>2015-09-27T20:59:09.242Z</time>
      </trkpt>
      <trkpt lat="45.49232" lon="-73.51806">
        <ele>-12</ele>
        <time>2015-09-27T20:59:10.193Z</time>
      </trkpt>
      <trkpt lat="45.49225" lon="-73.51803">
        <ele>-12</ele>
        <time>2015-09-27T20:59:12.280Z</time>
      </trkpt>
      <trkpt lat="45.49221" lon="-73.518">
        <ele>-13</ele>
        <time>2015-09-27T20:59:13.197Z</time>
      </trkpt>
      <trkpt lat="45.49215" lon="-73.51796">
        <ele>-15</ele>
        <time>2015-09-27T20:59:15.234Z</time>
      </trkpt>
      <trkpt lat="45.49211" lon="-73.51794">
        <ele>-14</ele>
        <time>2015-09-27T20:59:16.194Z</time>
      </trkpt>
      <trkpt lat="45.49207" lon="-73.51791">
        <ele>-15</ele>
        <time>2015-09-27T20:59:17.264Z</time>
      </trkpt>
      <trkpt lat="45.49203" lon="-73.51788">
        <ele>-15</ele>
        <time>2015-09-27T20:59:18.197Z</time>
      </trkpt>
      <trkpt lat="45.49194" lon="-73.51783">
        <ele>-15</ele>
        <time>2015-09-27T20:59:20.242Z</time>
      </trkpt>
      <trkpt lat="45.4919" lon="-73.51781">
        <ele>-15</ele>
        <time>2015-09-27T20:59:21.189Z</time>
      </trkpt>
      <trkpt lat="45.49182" lon="-73.51777">
        <ele>-13</ele>
        <time>2015-09-27T20:59:23.230Z</time>
      </trkpt>
      <trkpt lat="45.49179" lon="-73.51775">
        <ele>-13</ele>
        <time>2015-09-27T20:59:24.354Z</time>
      </trkpt>
      <trkpt lat="45.49173" lon="-73.51771">
        <ele>-12</ele>
        <time>2015-09-27T20:59:26.252Z</time>
      </trkpt>
      <trkpt lat="45.49171" lon="-73.51769">
        <ele>-12</ele>
        <time>2015-09-27T20:59:27.191Z</time>
      </trkpt>
      <trkpt lat="45.49165" lon="-73.51761">
        <ele>-12</ele>
        <time>2015-09-27T20:59:30.244Z</time>
      </trkpt>
      <trkpt lat="45.49163" lon="-73.51758">
        <ele>-12</ele>
        <time>2015-09-27T20:59:31.189Z</time>
      </trkpt>
      <trkpt lat="45.49161" lon="-73.51746">
        <ele>-11</ele>
        <time>2015-09-27T20:59:36.212Z</time>
      </trkpt>
      <trkpt lat="45.49161" lon="-73.51744">
        <ele>-12</ele>
        <time>2015-09-27T20:59:37.189Z</time>
      </trkpt>
      <trkpt lat="45.49168" lon="-73.5174">
        <ele>-10</ele>
        <time>2015-09-27T20:59:43.309Z</time>
      </trkpt>
      <trkpt lat="45.4917" lon="-73.5174">
        <ele>-8</ele>
        <time>2015-09-27T20:59:44.184Z</time>
      </trkpt>
      <trkpt lat="45.49179" lon="-73.5174">
        <ele>-10</ele>
        <time>2015-09-27T20:59:49.236Z</time>
      </trkpt>
      <trkpt lat="45.49181" lon="-73.5174">
        <ele>-9</ele>
        <time>2015-09-27T20:59:50.195Z</time>
      </trkpt>
      <trkpt lat="45.49189" lon="-73.51743">
        <ele>-15</ele>
        <time>2015-09-27T20:59:56.467Z</time>
      </trkpt>
      <trkpt lat="45.49191" lon="-73.51744">
        <ele>-14</ele>
        <time>2015-09-27T20:59:57.182Z</time>
      </trkpt>
      <trkpt lat="45.49198" lon="-73.51748">
        <ele>-14</ele>
        <time>2015-09-27T21:00:01.474Z</time>
      </trkpt>
      <trkpt lat="45.492" lon="-73.51748">
        <ele>-15</ele>
        <time>2015-09-27T21:00:02.173Z</time>
      </trkpt>
      <trkpt lat="45.49208" lon="-73.51743">
        <ele>-12</ele>
        <time>2015-09-27T21:00:09.307Z</time>
      </trkpt>
      <trkpt lat="45.49208" lon="-73.51742">
        <ele>-12</ele>
        <time>2015-09-27T21:00:10.189Z</time>
      </trkpt>
      <trkpt lat="45.49214" lon="-73.51733">
        <ele>-14</ele>
        <time>2015-09-27T21:00:17.258Z</time>
      </trkpt>
      <trkpt lat="45.49215" lon="-73.5173">
        <ele>-16</ele>
        <time>2015-09-27T21:00:18.189Z</time>
      </trkpt>
      <trkpt lat="45.49219" lon="-73.51723">
        <ele>-16</ele>
        <time>2015-09-27T21:00:21.242Z</time>
      </trkpt>
      <trkpt lat="45.49221" lon="-73.5172">
        <ele>-18</ele>
        <time>2015-09-27T21:00:22.187Z</time>
      </trkpt>
      <trkpt lat="45.49223" lon="-73.51711">
        <ele>-17</ele>
        <time>2015-09-27T21:00:25.232Z</time>
      </trkpt>
      <trkpt lat="45.49225" lon="-73.51709">
        <ele>-15</ele>
        <time>2015-09-27T21:00:26.186Z</time>
      </trkpt>
      <trkpt lat="45.49229" lon="-73.51701">
        <ele>-21</ele>
        <time>2015-09-27T21:00:29.205Z</time>
      </trkpt>
      <trkpt lat="45.49231" lon="-73.51699">
        <ele>-19</ele>
        <time>2015-09-27T21:00:30.193Z</time>
      </trkpt>
      <trkpt lat="45.49235" lon="-73.51689">
        <ele>-16</ele>
        <time>2015-09-27T21:00:33.241Z</time>
      </trkpt>
      <trkpt lat="45.49236" lon="-73.51686">
        <ele>-15</ele>
        <time>2015-09-27T21:00:34.199Z</time>
      </trkpt>
      <trkpt lat="45.49239" lon="-73.51674">
        <ele>-14</ele>
        <time>2015-09-27T21:00:37.209Z</time>
      </trkpt>
      <trkpt lat="45.4924" lon="-73.51671">
        <ele>-16</ele>
        <time>2015-09-27T21:00:38.189Z</time>
      </trkpt>
      <trkpt lat="45.49243" lon="-73.51661">
        <ele>-21</ele>
        <time>2015-09-27T21:00:43.258Z</time>
      </trkpt>
      <trkpt lat="45.49243" lon="-73.51659">
        <ele>-21</ele>
        <time>2015-09-27T21:00:44.184Z</time>
      </trkpt>
      <trkpt lat="45.49245" lon="-73.51648">
        <ele>-18</ele>
        <time>2015-09-27T21:00:48.241Z</time>
      </trkpt>
      <trkpt lat="45.49246" lon="-73.51643">
        <ele>-19</ele>
        <time>2015-09-27T21:00:49.190Z</time>
      </trkpt>
      <trkpt lat="45.49246" lon="-73.51634">
        <ele>-19</ele>
        <time>2015-09-27T21:00:51.202Z</time>
      </trkpt>
      <trkpt lat="45.49246" lon="-73.51629">
        <ele>-19</ele>
        <time>2015-09-27T21:00:52.207Z</time>
      </trkpt>
      <trkpt lat="45.49246" lon="-73.5162">
        <ele>-19</ele>
        <time>2015-09-27T21:00:54.241Z</time>
      </trkpt>
      <trkpt lat="45.49247" lon="-73.51615">
        <ele>-18</ele>
        <time>2015-09-27T21:00:55.186Z</time>
      </trkpt>
      <trkpt lat="45.49248" lon="-73.51606">
        <ele>-18</ele>
        <time>2015-09-27T21:00:57.202Z</time>
      </trkpt>
      <trkpt lat="45.49249" lon="-73.51601">
        <ele>-18</ele>
        <time>2015-09-27T21:00:58.180Z</time>
      </trkpt>
      <trkpt lat="45.4925" lon="-73.51588">
        <ele>-21</ele>
        <time>2015-09-27T21:01:02.240Z</time>
      </trkpt>
      <trkpt lat="45.4925" lon="-73.51585">
        <ele>-22</ele>
        <time>2015-09-27T21:01:03.185Z</time>
      </trkpt>
      <trkpt lat="45.4925" lon="-73.51573">
        <ele>-17</ele>
        <time>2015-09-27T21:01:08.230Z</time>
      </trkpt>
      <trkpt lat="45.4925" lon="-73.51572">
        <ele>-19</ele>
        <time>2015-09-27T21:01:09.191Z</time>
      </trkpt>
      <trkpt lat="45.49251" lon="-73.51583">
        <ele>-15</ele>
        <time>2015-09-27T21:01:48.205Z</time>
      </trkpt>
      <trkpt lat="45.49251" lon="-73.51586">
        <ele>-15</ele>
        <time>2015-09-27T21:01:49.176Z</time>
      </trkpt>
      <trkpt lat="45.49252" lon="-73.51596">
        <ele>-15</ele>
        <time>2015-09-27T21:01:53.305Z</time>
      </trkpt>
      <trkpt lat="45.49251" lon="-73.516">
        <ele>-15</ele>
        <time>2015-09-27T21:01:54.210Z</time>
      </trkpt>
      <trkpt lat="45.49251" lon="-73.51611">
        <ele>-15</ele>
        <time>2015-09-27T21:01:56.427Z</time>
      </trkpt>
      <trkpt lat="45.4925" lon="-73.51616">
        <ele>-16</ele>
        <time>2015-09-27T21:01:57.173Z</time>
      </trkpt>
      <trkpt lat="45.49248" lon="-73.51625">
        <ele>-12</ele>
        <time>2015-09-27T21:01:59.190Z</time>
      </trkpt>
      <trkpt lat="45.49247" lon="-73.5163">
        <ele>-10</ele>
        <time>2015-09-27T21:02:00.172Z</time>
      </trkpt>
      <trkpt lat="45.49245" lon="-73.5164">
        <ele>-10</ele>
        <time>2015-09-27T21:02:02.265Z</time>
      </trkpt>
      <trkpt lat="45.49244" lon="-73.51645">
        <ele>-10</ele>
        <time>2015-09-27T21:02:03.188Z</time>
      </trkpt>
      <trkpt lat="45.49242" lon="-73.51654">
        <ele>-14</ele>
        <time>2015-09-27T21:02:05.210Z</time>
      </trkpt>
      <trkpt lat="45.49242" lon="-73.51658">
        <ele>-13</ele>
        <time>2015-09-27T21:02:06.189Z</time>
      </trkpt>
      <trkpt lat="45.4924" lon="-73.51666">
        <ele>-14</ele>
        <time>2015-09-27T21:02:08.239Z</time>
      </trkpt>
      <trkpt lat="45.49239" lon="-73.5167">
        <ele>-12</ele>
        <time>2015-09-27T21:02:09.199Z</time>
      </trkpt>
      <trkpt lat="45.49235" lon="-73.51682">
        <ele>-12</ele>
        <time>2015-09-27T21:02:12.195Z</time>
      </trkpt>
      <trkpt lat="45.49235" lon="-73.51686">
        <ele>-17</ele>
        <time>2015-09-27T21:02:13.172Z</time>
      </trkpt>
      <trkpt lat="45.49235" lon="-73.51696">
        <ele>-14</ele>
        <time>2015-09-27T21:02:16.242Z</time>
      </trkpt>
      <trkpt lat="45.49234" lon="-73.51699">
        <ele>-15</ele>
        <time>2015-09-27T21:02:17.172Z</time>
      </trkpt>
      <trkpt lat="45.49232" lon="-73.51711">
        <ele>-17</ele>
        <time>2015-09-27T21:02:21.259Z</time>
      </trkpt>
      <trkpt lat="45.49231" lon="-73.51715">
        <ele>-18</ele>
        <time>2015-09-27T21:02:22.205Z</time>
      </trkpt>
      <trkpt lat="45.4923" lon="-73.51727">
        <ele>-18</ele>
        <time>2015-09-27T21:02:26.213Z</time>
      </trkpt>
      <trkpt lat="45.49229" lon="-73.5173">
        <ele>-16</ele>
        <time>2015-09-27T21:02:27.188Z</time>
      </trkpt>
      <trkpt lat="45.49226" lon="-73.51741">
        <ele>-18</ele>
        <time>2015-09-27T21:02:30.223Z</time>
      </trkpt>
      <trkpt lat="45.49224" lon="-73.51744">
        <ele>-19</ele>
        <time>2015-09-27T21:02:31.173Z</time>
      </trkpt>
      <trkpt lat="45.49218" lon="-73.51751">
        <ele>-17</ele>
        <time>2015-09-27T21:02:34.238Z</time>
      </trkpt>
      <trkpt lat="45.49215" lon="-73.51752">
        <ele>-16</ele>
        <time>2015-09-27T21:02:35.200Z</time>
      </trkpt>
      <trkpt lat="45.49207" lon="-73.51754">
        <ele>-14</ele>
        <time>2015-09-27T21:02:38.238Z</time>
      </trkpt>
      <trkpt lat="45.49204" lon="-73.51753">
        <ele>-15</ele>
        <time>2015-09-27T21:02:39.186Z</time>
      </trkpt>
      <trkpt lat="45.49197" lon="-73.51751">
        <ele>-13</ele>
        <time>2015-09-27T21:02:41.194Z</time>
      </trkpt>
      <trkpt lat="45.49193" lon="-73.5175">
        <ele>-13</ele>
        <time>2015-09-27T21:02:42.180Z</time>
      </trkpt>
      <trkpt lat="45.49184" lon="-73.51748">
        <ele>-11</ele>
        <time>2015-09-27T21:02:44.240Z</time>
      </trkpt>
      <trkpt lat="45.49179" lon="-73.51746">
        <ele>-10</ele>
        <time>2015-09-27T21:02:45.172Z</time>
      </trkpt>
      <trkpt lat="45.49174" lon="-73.51744">
        <ele>-12</ele>
        <time>2015-09-27T21:02:46.200Z</time>
      </trkpt>
      <trkpt lat="45.49167" lon="-73.51741">
        <ele>-12</ele>
        <time>2015-09-27T21:02:47.175Z</time>
      </trkpt>
      <trkpt lat="45.49159" lon="-73.51738">
        <ele>-14</ele>
        <time>2015-09-27T21:02:49.226Z</time>
      </trkpt>
      <trkpt lat="45.49154" lon="-73.51736">
        <ele>-14</ele>
        <time>2015-09-27T21:02:50.181Z</time>
      </trkpt>
      <trkpt lat="45.49151" lon="-73.51742">
        <ele>-16</ele>
        <time>2015-09-27T21:02:51.254Z</time>
      </trkpt>
      <trkpt lat="45.49151" lon="-73.51749">
        <ele>-16</ele>
        <time>2015-09-27T21:02:52.187Z</time>
      </trkpt>
      <trkpt lat="45.49156" lon="-73.51757">
        <ele>-10</ele>
        <time>2015-09-27T21:03:42.228Z</time>
      </trkpt>
      <trkpt lat="45.49159" lon="-73.5176">
        <ele>-10</ele>
        <time>2015-09-27T21:03:43.185Z</time>
      </trkpt>
      <trkpt lat="45.49165" lon="-73.51766">
        <ele>-10</ele>
        <time>2015-09-27T21:03:46.196Z</time>
      </trkpt>
      <trkpt lat="45.49167" lon="-73.51768">
        <ele>-10</ele>
        <time>2015-09-27T21:03:47.173Z</time>
      </trkpt>
      <trkpt lat="45.49174" lon="-73.51774">
        <ele>-10</ele>
        <time>2015-09-27T21:03:51.203Z</time>
      </trkpt>
      <trkpt lat="45.49175" lon="-73.51775">
        <ele>-11</ele>
        <time>2015-09-27T21:03:52.177Z</time>
      </trkpt>
      <trkpt lat="45.49181" lon="-73.51781">
        <ele>-10</ele>
        <time>2015-09-27T21:06:45.196Z</time>
      </trkpt>
      <trkpt lat="45.49184" lon="-73.51784">
        <ele>-10</ele>
        <time>2015-09-27T21:06:46.191Z</time>
      </trkpt>
      <trkpt lat="45.49191" lon="-73.51791">
        <ele>-11</ele>
        <time>2015-09-27T21:06:48.226Z</time>
      </trkpt>
      <trkpt lat="45.49194" lon="-73.51794">
        <ele>-11</ele>
        <time>2015-09-27T21:06:49.175Z</time>
      </trkpt>
      <trkpt lat="45.49201" lon="-73.51799">
        <ele>-13</ele>
        <time>2015-09-27T21:06:51.217Z</time>
      </trkpt>
      <trkpt lat="45.49205" lon="-73.51801">
        <ele>-15</ele>
        <time>2015-09-27T21:06:52.193Z</time>
      </trkpt>
      <trkpt lat="45.49212" lon="-73.51806">
        <ele>-17</ele>
        <time>2015-09-27T21:06:54.254Z</time>
      </trkpt>
      <trkpt lat="45.49216" lon="-73.51808">
        <ele>-15</ele>
        <time>2015-09-27T21:06:55.198Z</time>
      </trkpt>
      <trkpt lat="45.4922" lon="-73.51811">
        <ele>-17</ele>
        <time>2015-09-27T21:06:56.268Z</time>
      </trkpt>
      <trkpt lat="45.49225" lon="-73.51814">
        <ele>-16</ele>
        <time>2015-09-27T21:06:57.188Z</time>
      </trkpt>
      <trkpt lat="45.49233" lon="-73.51817">
        <ele>-15</ele>
        <time>2015-09-27T21:06:59.272Z</time>
      </trkpt>
      <trkpt lat="45.49237" lon="-73.51819">
        <ele>-16</ele>
        <time>2015-09-27T21:07:00.174Z</time>
      </trkpt>
      <trkpt lat="45.49242" lon="-73.51823">
        <ele>-16</ele>
        <time>2015-09-27T21:07:02.248Z</time>
      </trkpt>
      <trkpt lat="45.49245" lon="-73.51824">
        <ele>-14</ele>
        <time>2015-09-27T21:07:03.174Z</time>
      </trkpt>
      <trkpt lat="45.49254" lon="-73.51827">
        <ele>-12</ele>
        <time>2015-09-27T21:07:06.246Z</time>
      </trkpt>
      <trkpt lat="45.49256" lon="-73.51829">
        <ele>-12</ele>
        <time>2015-09-27T21:07:07.188Z</time>
      </trkpt>
      <trkpt lat="45.49264" lon="-73.51835">
        <ele>-10</ele>
        <time>2015-09-27T21:07:10.249Z</time>
      </trkpt>
      <trkpt lat="45.49267" lon="-73.51836">
        <ele>-8</ele>
        <time>2015-09-27T21:07:11.185Z</time>
      </trkpt>
      <trkpt lat="45.49273" lon="-73.51839">
        <ele>-8</ele>
        <time>2015-09-27T21:07:13.241Z</time>
      </trkpt>
      <trkpt lat="45.49277" lon="-73.51839">
        <ele>-7</ele>
        <time>2015-09-27T21:07:14.176Z</time>
      </trkpt>
      <trkpt lat="45.49282" lon="-73.5184">
        <ele>-9</ele>
        <time>2015-09-27T21:07:15.257Z</time>
      </trkpt>
      <trkpt lat="45.49292" lon="-73.51837">
        <ele>-6</ele>
        <time>2015-09-27T21:07:16.187Z</time>
      </trkpt>
      <trkpt lat="45.49297" lon="-73.5184">
        <ele>-7</ele>
        <time>2015-09-27T21:07:17.240Z</time>
      </trkpt>
      <trkpt lat="45.49302" lon="-73.51845">
        <ele>-6</ele>
        <time>2015-09-27T21:07:18.185Z</time>
      </trkpt>
      <trkpt lat="45.49307" lon="-73.51848">
        <ele>-5</ele>
        <time>2015-09-27T21:07:19.208Z</time>
      </trkpt>
      <trkpt lat="45.49311" lon="-73.51852">
        <ele>-5</ele>
        <time>2015-09-27T21:07:20.172Z</time>
      </trkpt>
      <trkpt lat="45.49311" lon="-73.51852">
        <ele>-5</ele>
        <time>2015-09-27T21:07:20.205Z</time>
      </trkpt>
      <trkpt lat="45.49319" lon="-73.51842">
        <ele>-4</ele>
        <time>2015-09-27T21:07:21.185Z</time>
      </trkpt>
      <trkpt lat="45.49324" lon="-73.51841">
        <ele>-5</ele>
        <time>2015-09-27T21:07:22.240Z</time>
      </trkpt>
      <trkpt lat="45.49329" lon="-73.51842">
        <ele>-6</ele>
        <time>2015-09-27T21:07:23.190Z</time>
      </trkpt>
      <trkpt lat="45.49336" lon="-73.51842">
        <ele>-5</ele>
        <time>2015-09-27T21:07:24.241Z</time>
      </trkpt>
      <trkpt lat="45.49343" lon="-73.51842">
        <ele>-3</ele>
        <time>2015-09-27T21:07:25.194Z</time>
      </trkpt>
      <trkpt lat="45.49347" lon="-73.51839">
        <ele>-4</ele>
        <time>2015-09-27T21:07:26.240Z</time>
      </trkpt>
      <trkpt lat="45.49353" lon="-73.51839">
        <ele>-1</ele>
        <time>2015-09-27T21:07:27.190Z</time>
      </trkpt>
      <trkpt lat="45.49357" lon="-73.51841">
        <time>2015-09-27T21:07:28.246Z</time>
      </trkpt>
      <trkpt lat="45.49362" lon="-73.51842">
        <time>2015-09-27T21:07:29.208Z</time>
      </trkpt>
      <trkpt lat="45.4937" lon="-73.51844">
        <ele>-2</ele>
        <time>2015-09-27T21:07:31.223Z</time>
      </trkpt>
      <trkpt lat="45.49375" lon="-73.51849">
        <ele>-1</ele>
        <time>2015-09-27T21:07:32.206Z</time>
      </trkpt>
      <trkpt lat="45.4938" lon="-73.51851">
        <ele>-2</ele>
        <time>2015-09-27T21:07:33.196Z</time>
      </trkpt>
      <trkpt lat="45.49384" lon="-73.51855">
        <ele>-2</ele>
        <time>2015-09-27T21:07:34.183Z</time>
      </trkpt>
      <trkpt lat="45.49389" lon="-73.51859">
        <ele>-5</ele>
        <time>2015-09-27T21:07:36.215Z</time>
      </trkpt>
      <trkpt lat="45.49394" lon="-73.51861">
        <ele>-4</ele>
        <time>2015-09-27T21:07:37.183Z</time>
      </trkpt>
      <trkpt lat="45.49398" lon="-73.51864">
        <ele>-5</ele>
        <time>2015-09-27T21:07:38.214Z</time>
      </trkpt>
      <trkpt lat="45.49405" lon="-73.51863">
        <ele>-5</ele>
        <time>2015-09-27T21:07:39.187Z</time>
      </trkpt>
      <trkpt lat="45.49412" lon="-73.51863">
        <ele>-8</ele>
        <time>2015-09-27T21:07:41.245Z</time>
      </trkpt>
      <trkpt lat="45.49417" lon="-73.5186">
        <ele>-8</ele>
        <time>2015-09-27T21:07:42.192Z</time>
      </trkpt>
      <trkpt lat="45.49422" lon="-73.5186">
        <ele>-9</ele>
        <time>2015-09-27T21:07:43.224Z</time>
      </trkpt>
      <trkpt lat="45.49426" lon="-73.51859">
        <ele>-9</ele>
        <time>2015-09-27T21:07:44.183Z</time>
      </trkpt>
      <trkpt lat="45.4943" lon="-73.51863">
        <ele>-9</ele>
        <time>2015-09-27T21:07:45.234Z</time>
      </trkpt>
      <trkpt lat="45.49435" lon="-73.51862">
        <ele>-11</ele>
        <time>2015-09-27T21:07:46.182Z</time>
      </trkpt>
      <trkpt lat="45.49444" lon="-73.51858">
        <ele>-12</ele>
        <time>2015-09-27T21:07:48.231Z</time>
      </trkpt>
      <trkpt lat="45.49449" lon="-73.51858">
        <ele>-12</ele>
        <time>2015-09-27T21:07:49.190Z</time>
      </trkpt>
      <trkpt lat="45.49455" lon="-73.51865">
        <ele>-14</ele>
        <time>2015-09-27T21:07:51.230Z</time>
      </trkpt>
      <trkpt lat="45.49458" lon="-73.51869">
        <ele>-14</ele>
        <time>2015-09-27T21:07:52.182Z</time>
      </trkpt>
      <trkpt lat="45.49464" lon="-73.51871">
        <ele>-12</ele>
        <time>2015-09-27T21:07:53.241Z</time>
      </trkpt>
      <trkpt lat="45.49468" lon="-73.51876">
        <ele>-12</ele>
        <time>2015-09-27T21:07:54.190Z</time>
      </trkpt>
      <trkpt lat="45.49473" lon="-73.51879">
        <ele>-13</ele>
        <time>2015-09-27T21:07:55.249Z</time>
      </trkpt>
      <trkpt lat="45.49476" lon="-73.51885">
        <ele>-14</ele>
        <time>2015-09-27T21:07:56.174Z</time>
      </trkpt>
      <trkpt lat="45.49481" lon="-73.51884">
        <ele>-14</ele>
        <time>2015-09-27T21:07:57.251Z</time>
      </trkpt>
      <trkpt lat="45.49488" lon="-73.51884">
        <ele>-15</ele>
        <time>2015-09-27T21:07:58.176Z</time>
      </trkpt>
      <trkpt lat="45.49493" lon="-73.51886">
        <ele>-14</ele>
        <time>2015-09-27T21:07:59.217Z</time>
      </trkpt>
      <trkpt lat="45.49499" lon="-73.51886">
        <ele>-14</ele>
        <time>2015-09-27T21:08:00.173Z</time>
      </trkpt>
      <trkpt lat="45.49503" lon="-73.5189">
        <ele>-15</ele>
        <time>2015-09-27T21:08:01.219Z</time>
      </trkpt>
      <trkpt lat="45.49508" lon="-73.51894">
        <ele>-15</ele>
        <time>2015-09-27T21:08:02.184Z</time>
      </trkpt>
      <trkpt lat="45.49512" lon="-73.51897">
        <ele>-15</ele>
        <time>2015-09-27T21:08:03.248Z</time>
      </trkpt>
      <trkpt lat="45.49517" lon="-73.51899">
        <ele>-15</ele>
        <time>2015-09-27T21:08:04.174Z</time>
      </trkpt>
      <trkpt lat="45.49524" lon="-73.51903">
        <ele>-15</ele>
        <time>2015-09-27T21:08:06.214Z</time>
      </trkpt>
      <trkpt lat="45.49533" lon="-73.51902">
        <ele>-16</ele>
        <time>2015-09-27T21:08:07.173Z</time>
      </trkpt>
      <trkpt lat="45.49533" lon="-73.51909">
        <ele>-15</ele>
        <time>2015-09-27T21:08:08.208Z</time>
      </trkpt>
      <trkpt lat="45.49539" lon="-73.51915">
        <ele>-15</ele>
        <time>2015-09-27T21:08:09.173Z</time>
      </trkpt>
      <trkpt lat="45.49546" lon="-73.51915">
        <ele>-12</ele>
        <time>2015-09-27T21:08:11.211Z</time>
      </trkpt>
      <trkpt lat="45.49553" lon="-73.51918">
        <ele>-11</ele>
        <time>2015-09-27T21:08:12.180Z</time>
      </trkpt>
      <trkpt lat="45.4956" lon="-73.51926">
        <ele>-9</ele>
        <time>2015-09-27T21:08:14.212Z</time>
      </trkpt>
      <trkpt lat="45.49562" lon="-73.51929">
        <ele>-10</ele>
        <time>2015-09-27T21:08:15.179Z</time>
      </trkpt>
      <trkpt lat="45.49567" lon="-73.51936">
        <ele>-12</ele>
        <time>2015-09-27T21:08:17.348Z</time>
      </trkpt>
      <trkpt lat="45.49568" lon="-73.51939">
        <ele>-12</ele>
        <time>2015-09-27T21:08:18.189Z</time>
      </trkpt>
      <trkpt lat="45.49575" lon="-73.51946">
        <ele>-10</ele>
        <time>2015-09-27T21:08:21.212Z</time>
      </trkpt>
      <trkpt lat="45.49577" lon="-73.51949">
        <ele>-11</ele>
        <time>2015-09-27T21:08:22.187Z</time>
      </trkpt>
      <trkpt lat="45.49582" lon="-73.51956">
        <ele>-12</ele>
        <time>2015-09-27T21:08:24.277Z</time>
      </trkpt>
      <trkpt lat="45.49585" lon="-73.51959">
        <ele>-13</ele>
        <time>2015-09-27T21:08:25.185Z</time>
      </trkpt>
      <trkpt lat="45.49591" lon="-73.51967">
        <ele>-13</ele>
        <time>2015-09-27T21:08:27.267Z</time>
      </trkpt>
      <trkpt lat="45.49594" lon="-73.51971">
        <ele>-13</ele>
        <time>2015-09-27T21:08:28.170Z</time>
      </trkpt>
      <trkpt lat="45.49601" lon="-73.51977">
        <ele>-15</ele>
        <time>2015-09-27T21:08:30.216Z</time>
      </trkpt>
      <trkpt lat="45.49604" lon="-73.5198">
        <ele>-15</ele>
        <time>2015-09-27T21:08:31.191Z</time>
      </trkpt>
      <trkpt lat="45.49611" lon="-73.51989">
        <ele>-14</ele>
        <time>2015-09-27T21:08:33.242Z</time>
      </trkpt>
      <trkpt lat="45.49613" lon="-73.51995">
        <ele>-14</ele>
        <time>2015-09-27T21:08:34.175Z</time>
      </trkpt>
      <trkpt lat="45.49617" lon="-73.52006">
        <ele>-14</ele>
        <time>2015-09-27T21:08:36.242Z</time>
      </trkpt>
      <trkpt lat="45.49619" lon="-73.52012">
        <ele>-16</ele>
        <time>2015-09-27T21:08:37.173Z</time>
      </trkpt>
      <trkpt lat="45.4962" lon="-73.52024">
        <ele>-16</ele>
        <time>2015-09-27T21:08:39.250Z</time>
      </trkpt>
      <trkpt lat="45.4962" lon="-73.52029">
        <ele>-15</ele>
        <time>2015-09-27T21:08:40.187Z</time>
      </trkpt>
      <trkpt lat="45.4962" lon="-73.52042">
        <ele>-15</ele>
        <time>2015-09-27T21:08:43.250Z</time>
      </trkpt>
      <trkpt lat="45.49619" lon="-73.52044">
        <ele>-15</ele>
        <time>2015-09-27T21:08:44.188Z</time>
      </trkpt>
      <trkpt lat="45.49611" lon="-73.5205">
        <ele>-16</ele>
        <time>2015-09-27T21:08:52.249Z</time>
      </trkpt>
      <trkpt lat="45.49611" lon="-73.52051">
        <ele>-17</ele>
        <time>2015-09-27T21:08:53.191Z</time>
      </trkpt>
      <trkpt lat="45.49613" lon="-73.52063">
        <ele>-19</ele>
        <time>2015-09-27T21:10:41.201Z</time>
      </trkpt>
      <trkpt lat="45.49613" lon="-73.52068">
        <ele>-21</ele>
        <time>2015-09-27T21:10:42.184Z</time>
      </trkpt>
      <trkpt lat="45.49613" lon="-73.52076">
        <ele>-21</ele>
        <time>2015-09-27T21:10:43.257Z</time>
      </trkpt>
      <trkpt lat="45.49613" lon="-73.52083">
        <ele>-21</ele>
        <time>2015-09-27T21:10:44.185Z</time>
      </trkpt>
      <trkpt lat="45.49613" lon="-73.52091">
        <ele>-19</ele>
        <time>2015-09-27T21:10:45.232Z</time>
      </trkpt>
      <trkpt lat="45.49614" lon="-73.52098">
        <ele>-20</ele>
        <time>2015-09-27T21:10:46.170Z</time>
      </trkpt>
      <trkpt lat="45.49616" lon="-73.5211">
        <ele>-21</ele>
        <time>2015-09-27T21:10:47.250Z</time>
      </trkpt>
      <trkpt lat="45.49618" lon="-73.52117">
        <ele>-21</ele>
        <time>2015-09-27T21:10:48.193Z</time>
      </trkpt>
      <trkpt lat="45.49622" lon="-73.52121">
        <ele>-19</ele>
        <time>2015-09-27T21:10:49.220Z</time>
      </trkpt>
      <trkpt lat="45.49624" lon="-73.52127">
        <ele>-18</ele>
        <time>2015-09-27T21:10:50.199Z</time>
      </trkpt>
      <trkpt lat="45.49624" lon="-73.52135">
        <ele>-20</ele>
        <time>2015-09-27T21:10:51.274Z</time>
      </trkpt>
      <trkpt lat="45.49625" lon="-73.52143">
        <ele>-21</ele>
        <time>2015-09-27T21:10:52.188Z</time>
      </trkpt>
      <trkpt lat="45.49625" lon="-73.52153">
        <ele>-22</ele>
        <time>2015-09-27T21:10:53.244Z</time>
      </trkpt>
      <trkpt lat="45.4963" lon="-73.52154">
        <ele>-19</ele>
        <time>2015-09-27T21:10:54.189Z</time>
      </trkpt>
      <trkpt lat="45.49636" lon="-73.52155">
        <ele>-19</ele>
        <time>2015-09-27T21:10:55.241Z</time>
      </trkpt>
      <trkpt lat="45.49636" lon="-73.52166">
        <ele>-18</ele>
        <time>2015-09-27T21:10:56.181Z</time>
      </trkpt>
      <trkpt lat="45.4964" lon="-73.52176">
        <ele>-17</ele>
        <time>2015-09-27T21:10:58.206Z</time>
      </trkpt>
      <trkpt lat="45.49642" lon="-73.52183">
        <ele>-18</ele>
        <time>2015-09-27T21:10:59.171Z</time>
      </trkpt>
      <trkpt lat="45.49643" lon="-73.5219">
        <ele>-18</ele>
        <time>2015-09-27T21:11:00.266Z</time>
      </trkpt>
      <trkpt lat="45.49644" lon="-73.52197">
        <ele>-18</ele>
        <time>2015-09-27T21:11:01.228Z</time>
      </trkpt>
      <trkpt lat="45.49645" lon="-73.52203">
        <ele>-18</ele>
        <time>2015-09-27T21:11:02.273Z</time>
      </trkpt>
      <trkpt lat="45.49647" lon="-73.52209">
        <ele>-18</ele>
        <time>2015-09-27T21:11:03.171Z</time>
      </trkpt>
      <trkpt lat="45.49654" lon="-73.52212">
        <ele>-16</ele>
        <time>2015-09-27T21:11:05.239Z</time>
      </trkpt>
      <trkpt lat="45.49655" lon="-73.52217">
        <ele>-16</ele>
        <time>2015-09-27T21:11:06.171Z</time>
      </trkpt>
      <trkpt lat="45.49659" lon="-73.52219">
        <ele>-16</ele>
        <time>2015-09-27T21:11:07.230Z</time>
      </trkpt>
      <trkpt lat="45.49664" lon="-73.52214">
        <ele>-16</ele>
        <time>2015-09-27T21:11:08.172Z</time>
      </trkpt>
      <trkpt lat="45.49669" lon="-73.5222">
        <ele>-17</ele>
        <time>2015-09-27T21:11:10.339Z</time>
      </trkpt>
      <trkpt lat="45.49669" lon="-73.52228">
        <ele>-17</ele>
        <time>2015-09-27T21:11:11.172Z</time>
      </trkpt>
      <trkpt lat="45.49677" lon="-73.52232">
        <ele>-16</ele>
        <time>2015-09-27T21:11:13.237Z</time>
      </trkpt>
      <trkpt lat="45.49679" lon="-73.52239">
        <ele>-15</ele>
        <time>2015-09-27T21:11:14.190Z</time>
      </trkpt>
      <trkpt lat="45.49681" lon="-73.52244">
        <ele>-14</ele>
        <time>2015-09-27T21:11:15.213Z</time>
      </trkpt>
      <trkpt lat="45.49683" lon="-73.5225">
        <ele>-13</ele>
        <time>2015-09-27T21:11:16.182Z</time>
      </trkpt>
      <trkpt lat="45.49685" lon="-73.52256">
        <ele>-13</ele>
        <time>2015-09-27T21:11:17.206Z</time>
      </trkpt>
      <trkpt lat="45.49687" lon="-73.52263">
        <ele>-12</ele>
        <time>2015-09-27T21:11:18.187Z</time>
      </trkpt>
      <trkpt lat="45.49687" lon="-73.52263">
        <ele>-12</ele>
        <time>2015-09-27T21:11:18.248Z</time>
      </trkpt>
      <trkpt lat="45.49685" lon="-73.52281">
        <ele>-13</ele>
        <time>2015-09-27T21:11:19.180Z</time>
      </trkpt>
      <trkpt lat="45.49687" lon="-73.52288">
        <ele>-12</ele>
        <time>2015-09-27T21:11:20.212Z</time>
      </trkpt>
      <trkpt lat="45.49689" lon="-73.52297">
        <ele>-11</ele>
        <time>2015-09-27T21:11:21.188Z</time>
      </trkpt>
      <trkpt lat="45.4969" lon="-73.52303">
        <ele>-11</ele>
        <time>2015-09-27T21:11:22.255Z</time>
      </trkpt>
      <trkpt lat="45.49689" lon="-73.52315">
        <ele>-13</ele>
        <time>2015-09-27T21:11:23.185Z</time>
      </trkpt>
      <trkpt lat="45.4969" lon="-73.52321">
        <ele>-14</ele>
        <time>2015-09-27T21:11:24.246Z</time>
      </trkpt>
      <trkpt lat="45.49694" lon="-73.52328">
        <ele>-12</ele>
        <time>2015-09-27T21:11:25.204Z</time>
      </trkpt>
      <trkpt lat="45.49697" lon="-73.52334">
        <ele>-11</ele>
        <time>2015-09-27T21:11:26.244Z</time>
      </trkpt>
      <trkpt lat="45.49699" lon="-73.52339">
        <ele>-13</ele>
        <time>2015-09-27T21:11:27.187Z</time>
      </trkpt>
      <trkpt lat="45.49702" lon="-73.52342">
        <ele>-12</ele>
        <time>2015-09-27T21:11:28.286Z</time>
      </trkpt>
      <trkpt lat="45.49704" lon="-73.5235">
        <ele>-13</ele>
        <time>2015-09-27T21:11:29.181Z</time>
      </trkpt>
      <trkpt lat="45.49705" lon="-73.52358">
        <ele>-13</ele>
        <time>2015-09-27T21:11:30.230Z</time>
      </trkpt>
      <trkpt lat="45.49708" lon="-73.52366">
        <ele>-13</ele>
        <time>2015-09-27T21:11:31.181Z</time>
      </trkpt>
      <trkpt lat="45.49714" lon="-73.52375">
        <ele>-12</ele>
        <time>2015-09-27T21:11:33.217Z</time>
      </trkpt>
      <trkpt lat="45.49719" lon="-73.52379">
        <ele>-12</ele>
        <time>2015-09-27T21:11:34.182Z</time>
      </trkpt>
      <trkpt lat="45.49723" lon="-73.5239">
        <ele>-12</ele>
        <time>2015-09-27T21:11:36.226Z</time>
      </trkpt>
      <trkpt lat="45.49727" lon="-73.52395">
        <ele>-11</ele>
        <time>2015-09-27T21:11:37.175Z</time>
      </trkpt>
      <trkpt lat="45.4973" lon="-73.52402">
        <ele>-11</ele>
        <time>2015-09-27T21:11:38.299Z</time>
      </trkpt>
      <trkpt lat="45.49732" lon="-73.52412">
        <ele>-9</ele>
        <time>2015-09-27T21:11:39.179Z</time>
      </trkpt>
      <trkpt lat="45.49736" lon="-73.52417">
        <ele>-11</ele>
        <time>2015-09-27T21:11:41.196Z</time>
      </trkpt>
      <trkpt lat="45.49739" lon="-73.52423">
        <ele>-9</ele>
        <time>2015-09-27T21:11:42.187Z</time>
      </trkpt>
      <trkpt lat="45.49742" lon="-73.52428">
        <ele>-9</ele>
        <time>2015-09-27T21:11:43.204Z</time>
      </trkpt>
      <trkpt lat="45.49745" lon="-73.52434">
        <ele>-8</ele>
        <time>2015-09-27T21:11:44.187Z</time>
      </trkpt>
      <trkpt lat="45.4975" lon="-73.52439">
        <ele>-6</ele>
        <time>2015-09-27T21:11:45.219Z</time>
      </trkpt>
      <trkpt lat="45.49753" lon="-73.52443">
        <ele>-6</ele>
        <time>2015-09-27T21:11:46.182Z</time>
      </trkpt>
      <trkpt lat="45.49758" lon="-73.52453">
        <ele>-7</ele>
        <time>2015-09-27T21:11:48.246Z</time>
      </trkpt>
      <trkpt lat="45.49761" lon="-73.52454">
        <ele>-7</ele>
        <time>2015-09-27T21:11:49.188Z</time>
      </trkpt>
      <trkpt lat="45.49764" lon="-73.52459">
        <ele>-7</ele>
        <time>2015-09-27T21:11:50.248Z</time>
      </trkpt>
      <trkpt lat="45.49766" lon="-73.52465">
        <ele>-8</ele>
        <time>2015-09-27T21:11:51.186Z</time>
      </trkpt>
      <trkpt lat="45.49769" lon="-73.52467">
        <ele>-9</ele>
        <time>2015-09-27T21:11:52.247Z</time>
      </trkpt>
      <trkpt lat="45.49775" lon="-73.52469">
        <ele>-9</ele>
        <time>2015-09-27T21:11:53.181Z</time>
      </trkpt>
      <trkpt lat="45.49779" lon="-73.52471">
        <ele>-10</ele>
        <time>2015-09-27T21:11:54.241Z</time>
      </trkpt>
      <trkpt lat="45.49782" lon="-73.52476">
        <ele>-9</ele>
        <time>2015-09-27T21:11:55.187Z</time>
      </trkpt>
      <trkpt lat="45.49787" lon="-73.52486">
        <ele>-10</ele>
        <time>2015-09-27T21:11:57.275Z</time>
      </trkpt>
      <trkpt lat="45.4979" lon="-73.52492">
        <ele>-9</ele>
        <time>2015-09-27T21:11:58.182Z</time>
      </trkpt>
      <trkpt lat="45.49794" lon="-73.52498">
        <ele>-9</ele>
        <time>2015-09-27T21:11:59.211Z</time>
      </trkpt>
      <trkpt lat="45.49798" lon="-73.52501">
        <ele>-9</ele>
        <time>2015-09-27T21:12:00.181Z</time>
      </trkpt>
      <trkpt lat="45.49805" lon="-73.52508">
        <ele>-9</ele>
        <time>2015-09-27T21:12:02.235Z</time>
      </trkpt>
      <trkpt lat="45.49808" lon="-73.52516">
        <ele>-10</ele>
        <time>2015-09-27T21:12:03.174Z</time>
      </trkpt>
      <trkpt lat="45.49815" lon="-73.52518">
        <ele>-12</ele>
        <time>2015-09-27T21:12:05.622Z</time>
      </trkpt>
      <trkpt lat="45.49817" lon="-73.52527">
        <ele>-13</ele>
        <time>2015-09-27T21:12:06.185Z</time>
      </trkpt>
      <trkpt lat="45.4982" lon="-73.52534">
        <ele>-12</ele>
        <time>2015-09-27T21:12:07.240Z</time>
      </trkpt>
      <trkpt lat="45.49823" lon="-73.5254">
        <ele>-12</ele>
        <time>2015-09-27T21:12:08.184Z</time>
      </trkpt>
      <trkpt lat="45.49826" lon="-73.52545">
        <ele>-12</ele>
        <time>2015-09-27T21:12:09.201Z</time>
      </trkpt>
      <trkpt lat="45.49828" lon="-73.52551">
        <ele>-11</ele>
        <time>2015-09-27T21:12:10.170Z</time>
      </trkpt>
      <trkpt lat="45.49831" lon="-73.52555">
        <ele>-11</ele>
        <time>2015-09-27T21:12:11.238Z</time>
      </trkpt>
      <trkpt lat="45.49834" lon="-73.52563">
        <ele>-10</ele>
        <time>2015-09-27T21:12:12.171Z</time>
      </trkpt>
      <trkpt lat="45.49838" lon="-73.52569">
        <ele>-10</ele>
        <time>2015-09-27T21:12:13.208Z</time>
      </trkpt>
      <trkpt lat="45.4984" lon="-73.52576">
        <ele>-10</ele>
        <time>2015-09-27T21:12:14.172Z</time>
      </trkpt>
      <trkpt lat="45.49844" lon="-73.52582">
        <ele>-9</ele>
        <time>2015-09-27T21:12:15.241Z</time>
      </trkpt>
      <trkpt lat="45.49849" lon="-73.52585">
        <ele>-8</ele>
        <time>2015-09-27T21:12:16.192Z</time>
      </trkpt>
      <trkpt lat="45.49855" lon="-73.52587">
        <ele>-8</ele>
        <time>2015-09-27T21:12:17.218Z</time>
      </trkpt>
      <trkpt lat="45.49858" lon="-73.52593">
        <ele>-8</ele>
        <time>2015-09-27T21:12:18.185Z</time>
      </trkpt>
      <trkpt lat="45.49864" lon="-73.52592">
        <ele>-8</ele>
        <time>2015-09-27T21:12:19.239Z</time>
      </trkpt>
      <trkpt lat="45.49867" lon="-73.52601">
        <ele>-8</ele>
        <time>2015-09-27T21:12:20.175Z</time>
      </trkpt>
      <trkpt lat="45.49871" lon="-73.52605">
        <ele>-9</ele>
        <time>2015-09-27T21:12:21.248Z</time>
      </trkpt>
      <trkpt lat="45.49879" lon="-73.52593">
        <ele>-10</ele>
        <time>2015-09-27T21:12:22.171Z</time>
      </trkpt>
      <trkpt lat="45.49884" lon="-73.52592">
        <ele>-11</ele>
        <time>2015-09-27T21:12:23.201Z</time>
      </trkpt>
      <trkpt lat="45.49888" lon="-73.52591">
        <ele>-11</ele>
        <time>2015-09-27T21:12:24.173Z</time>
      </trkpt>
      <trkpt lat="45.49892" lon="-73.52591">
        <ele>-10</ele>
        <time>2015-09-27T21:12:25.209Z</time>
      </trkpt>
      <trkpt lat="45.49897" lon="-73.52589">
        <ele>-9</ele>
        <time>2015-09-27T21:12:26.178Z</time>
      </trkpt>
      <trkpt lat="45.49904" lon="-73.52589">
        <ele>-10</ele>
        <time>2015-09-27T21:12:27.247Z</time>
      </trkpt>
      <trkpt lat="45.49911" lon="-73.52589">
        <ele>-9</ele>
        <time>2015-09-27T21:12:28.188Z</time>
      </trkpt>
      <trkpt lat="45.49916" lon="-73.52588">
        <ele>-9</ele>
        <time>2015-09-27T21:12:29.240Z</time>
      </trkpt>
      <trkpt lat="45.49922" lon="-73.52591">
        <ele>-9</ele>
        <time>2015-09-27T21:12:30.182Z</time>
      </trkpt>
      <trkpt lat="45.49928" lon="-73.52596">
        <ele>-9</ele>
        <time>2015-09-27T21:12:31.236Z</time>
      </trkpt>
      <trkpt lat="45.49932" lon="-73.52604">
        <ele>-9</ele>
        <time>2015-09-27T21:12:32.181Z</time>
      </trkpt>
      <trkpt lat="45.49938" lon="-73.52608">
        <ele>-10</ele>
        <time>2015-09-27T21:12:33.214Z</time>
      </trkpt>
      <trkpt lat="45.49943" lon="-73.52615">
        <ele>-10</ele>
        <time>2015-09-27T21:12:34.209Z</time>
      </trkpt>
      <trkpt lat="45.49949" lon="-73.52623">
        <ele>-11</ele>
        <time>2015-09-27T21:12:35.242Z</time>
      </trkpt>
      <trkpt lat="45.49958" lon="-73.52628">
        <ele>-10</ele>
        <time>2015-09-27T21:12:36.186Z</time>
      </trkpt>
      <trkpt lat="45.49962" lon="-73.52634">
        <ele>-10</ele>
        <time>2015-09-27T21:12:37.206Z</time>
      </trkpt>
      <trkpt lat="45.49969" lon="-73.52641">
        <ele>-9</ele>
        <time>2015-09-27T21:12:38.182Z</time>
      </trkpt>
      <trkpt lat="45.49974" lon="-73.52647">
        <ele>-9</ele>
        <time>2015-09-27T21:12:39.240Z</time>
      </trkpt>
      <trkpt lat="45.4998" lon="-73.52653">
        <ele>-9</ele>
        <time>2015-09-27T21:12:40.188Z</time>
      </trkpt>
      <trkpt lat="45.49986" lon="-73.52659">
        <ele>-8</ele>
        <time>2015-09-27T21:12:41.232Z</time>
      </trkpt>
      <trkpt lat="45.49993" lon="-73.52666">
        <ele>-8</ele>
        <time>2015-09-27T21:12:42.182Z</time>
      </trkpt>
      <trkpt lat="45.49998" lon="-73.52669">
        <ele>-11</ele>
        <time>2015-09-27T21:12:43.249Z</time>
      </trkpt>
      <trkpt lat="45.50003" lon="-73.52677">
        <ele>-12</ele>
        <time>2015-09-27T21:12:44.189Z</time>
      </trkpt>
      <trkpt lat="45.50009" lon="-73.52683">
        <ele>-11</ele>
        <time>2015-09-27T21:12:45.227Z</time>
      </trkpt>
      <trkpt lat="45.50015" lon="-73.52689">
        <ele>-9</ele>
        <time>2015-09-27T21:12:46.172Z</time>
      </trkpt>
      <trkpt lat="45.50019" lon="-73.52695">
        <ele>-10</ele>
        <time>2015-09-27T21:12:47.257Z</time>
      </trkpt>
      <trkpt lat="45.50024" lon="-73.52701">
        <ele>-11</ele>
        <time>2015-09-27T21:12:48.187Z</time>
      </trkpt>
      <trkpt lat="45.50028" lon="-73.52709">
        <ele>-10</ele>
        <time>2015-09-27T21:12:49.231Z</time>
      </trkpt>
      <trkpt lat="45.5003" lon="-73.52715">
        <ele>-10</ele>
        <time>2015-09-27T21:12:50.180Z</time>
      </trkpt>
      <trkpt lat="45.50034" lon="-73.52723">
        <ele>-10</ele>
        <time>2015-09-27T21:12:51.221Z</time>
      </trkpt>
      <trkpt lat="45.50038" lon="-73.52731">
        <ele>-9</ele>
        <time>2015-09-27T21:12:52.196Z</time>
      </trkpt>
      <trkpt lat="45.50039" lon="-73.52738">
        <ele>-10</ele>
        <time>2015-09-27T21:12:53.217Z</time>
      </trkpt>
      <trkpt lat="45.50041" lon="-73.52746">
        <ele>-13</ele>
        <time>2015-09-27T21:12:54.187Z</time>
      </trkpt>
      <trkpt lat="45.50044" lon="-73.52751">
        <ele>-14</ele>
        <time>2015-09-27T21:12:55.241Z</time>
      </trkpt>
      <trkpt lat="45.50047" lon="-73.52757">
        <ele>-14</ele>
        <time>2015-09-27T21:12:56.205Z</time>
      </trkpt>
      <trkpt lat="45.50051" lon="-73.52762">
        <ele>-13</ele>
        <time>2015-09-27T21:12:57.278Z</time>
      </trkpt>
      <trkpt lat="45.50056" lon="-73.52765">
        <ele>-12</ele>
        <time>2015-09-27T21:12:58.175Z</time>
      </trkpt>
      <trkpt lat="45.5006" lon="-73.52768">
        <ele>-14</ele>
        <time>2015-09-27T21:12:59.355Z</time>
      </trkpt>
      <trkpt lat="45.50063" lon="-73.52774">
        <ele>-14</ele>
        <time>2015-09-27T21:13:00.184Z</time>
      </trkpt>
      <trkpt lat="45.50068" lon="-73.52778">
        <ele>-15</ele>
        <time>2015-09-27T21:13:01.239Z</time>
      </trkpt>
      <trkpt lat="45.50071" lon="-73.52781">
        <ele>-15</ele>
        <time>2015-09-27T21:13:02.183Z</time>
      </trkpt>
      <trkpt lat="45.50075" lon="-73.52786">
        <ele>-15</ele>
        <time>2015-09-27T21:13:03.238Z</time>
      </trkpt>
      <trkpt lat="45.50079" lon="-73.5279">
        <ele>-15</ele>
        <time>2015-09-27T21:13:04.183Z</time>
      </trkpt>
      <trkpt lat="45.50088" lon="-73.52795">
        <ele>-17</ele>
        <time>2015-09-27T21:13:06.244Z</time>
      </trkpt>
      <trkpt lat="45.50093" lon="-73.52797">
        <ele>-16</ele>
        <time>2015-09-27T21:13:07.174Z</time>
      </trkpt>
      <trkpt lat="45.50101" lon="-73.528">
        <ele>-15</ele>
        <time>2015-09-27T21:13:09.208Z</time>
      </trkpt>
      <trkpt lat="45.50105" lon="-73.52802">
        <ele>-16</ele>
        <time>2015-09-27T21:13:10.184Z</time>
      </trkpt>
      <trkpt lat="45.50111" lon="-73.52802">
        <ele>-16</ele>
        <time>2015-09-27T21:13:11.194Z</time>
      </trkpt>
      <trkpt lat="45.50116" lon="-73.52802">
        <ele>-16</ele>
        <time>2015-09-27T21:13:12.171Z</time>
      </trkpt>
      <trkpt lat="45.5012" lon="-73.52803">
        <ele>-17</ele>
        <time>2015-09-27T21:13:13.254Z</time>
      </trkpt>
      <trkpt lat="45.50125" lon="-73.52804">
        <ele>-16</ele>
        <time>2015-09-27T21:13:14.183Z</time>
      </trkpt>
      <trkpt lat="45.50131" lon="-73.52806">
        <ele>-16</ele>
        <time>2015-09-27T21:13:15.239Z</time>
      </trkpt>
      <trkpt lat="45.50135" lon="-73.52806">
        <ele>-15</ele>
        <time>2015-09-27T21:13:16.171Z</time>
      </trkpt>
      <trkpt lat="45.5014" lon="-73.52805">
        <ele>-14</ele>
        <time>2015-09-27T21:13:17.202Z</time>
      </trkpt>
      <trkpt lat="45.50145" lon="-73.52805">
        <ele>-13</ele>
        <time>2015-09-27T21:13:18.172Z</time>
      </trkpt>
      <trkpt lat="45.50151" lon="-73.52805">
        <ele>-12</ele>
        <time>2015-09-27T21:13:19.194Z</time>
      </trkpt>
      <trkpt lat="45.50156" lon="-73.52805">
        <ele>-11</ele>
        <time>2015-09-27T21:13:20.172Z</time>
      </trkpt>
      <trkpt lat="45.50164" lon="-73.52806">
        <ele>-11</ele>
        <time>2015-09-27T21:13:22.199Z</time>
      </trkpt>
      <trkpt lat="45.5017" lon="-73.52806">
        <ele>-11</ele>
        <time>2015-09-27T21:13:23.170Z</time>
      </trkpt>
      <trkpt lat="45.50175" lon="-73.52806">
        <ele>-11</ele>
        <time>2015-09-27T21:13:24.250Z</time>
      </trkpt>
      <trkpt lat="45.50179" lon="-73.52804">
        <ele>-10</ele>
        <time>2015-09-27T21:13:25.172Z</time>
      </trkpt>
      <trkpt lat="45.50184" lon="-73.52805">
        <ele>-8</ele>
        <time>2015-09-27T21:13:26.236Z</time>
      </trkpt>
      <trkpt lat="45.50189" lon="-73.52805">
        <ele>-7</ele>
        <time>2015-09-27T21:13:27.175Z</time>
      </trkpt>
      <trkpt lat="45.50196" lon="-73.52804">
        <ele>-10</ele>
        <time>2015-09-27T21:13:29.219Z</time>
      </trkpt>
      <trkpt lat="45.50202" lon="-73.52804">
        <ele>-8</ele>
        <time>2015-09-27T21:13:30.187Z</time>
      </trkpt>
      <trkpt lat="45.50207" lon="-73.52804">
        <ele>-8</ele>
        <time>2015-09-27T21:13:31.231Z</time>
      </trkpt>
      <trkpt lat="45.50211" lon="-73.52805">
        <ele>-6</ele>
        <time>2015-09-27T21:13:32.183Z</time>
      </trkpt>
      <trkpt lat="45.50217" lon="-73.52806">
        <ele>-6</ele>
        <time>2015-09-27T21:13:33.242Z</time>
      </trkpt>
      <trkpt lat="45.50222" lon="-73.52804">
        <ele>-7</ele>
        <time>2015-09-27T21:13:34.182Z</time>
      </trkpt>
      <trkpt lat="45.5023" lon="-73.52804">
        <ele>-4</ele>
        <time>2015-09-27T21:13:36.213Z</time>
      </trkpt>
      <trkpt lat="45.50234" lon="-73.52804">
        <ele>-4</ele>
        <time>2015-09-27T21:13:37.171Z</time>
      </trkpt>
      <trkpt lat="45.50241" lon="-73.52803">
        <ele>-6</ele>
        <time>2015-09-27T21:13:39.208Z</time>
      </trkpt>
      <trkpt lat="45.50246" lon="-73.52802">
        <ele>-6</ele>
        <time>2015-09-27T21:13:40.170Z</time>
      </trkpt>
      <trkpt lat="45.50252" lon="-73.52806">
        <ele>-6</ele>
        <time>2015-09-27T21:13:42.209Z</time>
      </trkpt>
      <trkpt lat="45.50256" lon="-73.52808">
        <ele>-6</ele>
        <time>2015-09-27T21:13:43.186Z</time>
      </trkpt>
      <trkpt lat="45.50264" lon="-73.52812">
        <ele>-7</ele>
        <time>2015-09-27T21:13:45.278Z</time>
      </trkpt>
      <trkpt lat="45.50268" lon="-73.52815">
        <ele>-7</ele>
        <time>2015-09-27T21:13:46.182Z</time>
      </trkpt>
      <trkpt lat="45.50274" lon="-73.52821">
        <ele>-8</ele>
        <time>2015-09-27T21:13:48.188Z</time>
      </trkpt>
      <trkpt lat="45.50276" lon="-73.52826">
        <ele>-9</ele>
        <time>2015-09-27T21:13:49.169Z</time>
      </trkpt>
      <trkpt lat="45.50279" lon="-73.52836">
        <ele>-8</ele>
        <time>2015-09-27T21:13:51.189Z</time>
      </trkpt>
      <trkpt lat="45.50281" lon="-73.5284">
        <ele>-10</ele>
        <time>2015-09-27T21:13:52.173Z</time>
      </trkpt>
      <trkpt lat="45.50281" lon="-73.5285">
        <ele>-10</ele>
        <time>2015-09-27T21:13:54.243Z</time>
      </trkpt>
      <trkpt lat="45.50281" lon="-73.52854">
        <ele>-10</ele>
        <time>2015-09-27T21:13:55.171Z</time>
      </trkpt>
      <trkpt lat="45.5028" lon="-73.52863">
        <ele>-11</ele>
        <time>2015-09-27T21:13:57.209Z</time>
      </trkpt>
      <trkpt lat="45.50278" lon="-73.5287">
        <ele>-11</ele>
        <time>2015-09-27T21:13:58.171Z</time>
      </trkpt>
      <trkpt lat="45.50276" lon="-73.52881">
        <ele>-11</ele>
        <time>2015-09-27T21:14:00.241Z</time>
      </trkpt>
      <trkpt lat="45.50276" lon="-73.52887">
        <ele>-11</ele>
        <time>2015-09-27T21:14:01.183Z</time>
      </trkpt>
      <trkpt lat="45.50276" lon="-73.52897">
        <ele>-12</ele>
        <time>2015-09-27T21:14:03.224Z</time>
      </trkpt>
      <trkpt lat="45.50277" lon="-73.52901">
        <ele>-13</ele>
        <time>2015-09-27T21:14:04.185Z</time>
      </trkpt>
      <trkpt lat="45.50279" lon="-73.52911">
        <ele>-13</ele>
        <time>2015-09-27T21:14:06.200Z</time>
      </trkpt>
      <trkpt lat="45.5028" lon="-73.52916">
        <ele>-14</ele>
        <time>2015-09-27T21:14:07.215Z</time>
      </trkpt>
      <trkpt lat="45.50282" lon="-73.52922">
        <ele>-14</ele>
        <time>2015-09-27T21:14:08.241Z</time>
      </trkpt>
      <trkpt lat="45.50284" lon="-73.52928">
        <ele>-13</ele>
        <time>2015-09-27T21:14:09.186Z</time>
      </trkpt>
      <trkpt lat="45.50286" lon="-73.52934">
        <ele>-12</ele>
        <time>2015-09-27T21:14:10.202Z</time>
      </trkpt>
      <trkpt lat="45.50289" lon="-73.52939">
        <ele>-12</ele>
        <time>2015-09-27T21:14:11.177Z</time>
      </trkpt>
      <trkpt lat="45.50294" lon="-73.52948">
        <ele>-14</ele>
        <time>2015-09-27T21:14:13.214Z</time>
      </trkpt>
      <trkpt lat="45.50297" lon="-73.52951">
        <ele>-14</ele>
        <time>2015-09-27T21:14:14.184Z</time>
      </trkpt>
      <trkpt lat="45.50302" lon="-73.52959">
        <ele>-16</ele>
        <time>2015-09-27T21:14:16.237Z</time>
      </trkpt>
      <trkpt lat="45.50305" lon="-73.52963">
        <ele>-15</ele>
        <time>2015-09-27T21:14:17.190Z</time>
      </trkpt>
      <trkpt lat="45.50312" lon="-73.52968">
        <ele>-17</ele>
        <time>2015-09-27T21:14:19.255Z</time>
      </trkpt>
      <trkpt lat="45.50316" lon="-73.52971">
        <ele>-17</ele>
        <time>2015-09-27T21:14:20.173Z</time>
      </trkpt>
      <trkpt lat="45.50321" lon="-73.52972">
        <ele>-15</ele>
        <time>2015-09-27T21:14:21.266Z</time>
      </trkpt>
      <trkpt lat="45.50325" lon="-73.52974">
        <ele>-15</ele>
        <time>2015-09-27T21:14:22.183Z</time>
      </trkpt>
      <trkpt lat="45.50332" lon="-73.52973">
        <ele>-16</ele>
        <time>2015-09-27T21:14:23.245Z</time>
      </trkpt>
      <trkpt lat="45.50336" lon="-73.52975">
        <ele>-15</ele>
        <time>2015-09-27T21:14:24.172Z</time>
      </trkpt>
      <trkpt lat="45.50343" lon="-73.52975">
        <ele>-16</ele>
        <time>2015-09-27T21:14:26.335Z</time>
      </trkpt>
      <trkpt lat="45.50348" lon="-73.52976">
        <ele>-16</ele>
        <time>2015-09-27T21:14:27.190Z</time>
      </trkpt>
      <trkpt lat="45.50354" lon="-73.52976">
        <ele>-15</ele>
        <time>2015-09-27T21:14:28.217Z</time>
      </trkpt>
      <trkpt lat="45.50361" lon="-73.52975">
        <ele>-12</ele>
        <time>2015-09-27T21:14:29.182Z</time>
      </trkpt>
      <trkpt lat="45.50365" lon="-73.5298">
        <ele>-11</ele>
        <time>2015-09-27T21:14:30.240Z</time>
      </trkpt>
      <trkpt lat="45.5037" lon="-73.52977">
        <ele>-11</ele>
        <time>2015-09-27T21:14:31.179Z</time>
      </trkpt>
      <trkpt lat="45.50376" lon="-73.52973">
        <ele>-12</ele>
        <time>2015-09-27T21:14:32.221Z</time>
      </trkpt>
      <trkpt lat="45.5038" lon="-73.52975">
        <ele>-13</ele>
        <time>2015-09-27T21:14:33.236Z</time>
      </trkpt>
      <trkpt lat="45.50384" lon="-73.52974">
        <ele>-13</ele>
        <time>2015-09-27T21:14:34.220Z</time>
      </trkpt>
      <trkpt lat="45.5039" lon="-73.52971">
        <ele>-13</ele>
        <time>2015-09-27T21:14:35.182Z</time>
      </trkpt>
      <trkpt lat="45.50396" lon="-73.52968">
        <ele>-13</ele>
        <time>2015-09-27T21:14:36.220Z</time>
      </trkpt>
      <trkpt lat="45.504" lon="-73.52966">
        <ele>-14</ele>
        <time>2015-09-27T21:14:37.185Z</time>
      </trkpt>
      <trkpt lat="45.50405" lon="-73.52966">
        <ele>-15</ele>
        <time>2015-09-27T21:14:38.240Z</time>
      </trkpt>
      <trkpt lat="45.50411" lon="-73.52965">
        <ele>-14</ele>
        <time>2015-09-27T21:14:39.179Z</time>
      </trkpt>
      <trkpt lat="45.50415" lon="-73.52961">
        <ele>-15</ele>
        <time>2015-09-27T21:14:40.251Z</time>
      </trkpt>
      <trkpt lat="45.5042" lon="-73.5296">
        <ele>-14</ele>
        <time>2015-09-27T21:14:41.181Z</time>
      </trkpt>
      <trkpt lat="45.50425" lon="-73.52961">
        <ele>-14</ele>
        <time>2015-09-27T21:14:42.207Z</time>
      </trkpt>
      <trkpt lat="45.50431" lon="-73.5296">
        <ele>-13</ele>
        <time>2015-09-27T21:14:43.287Z</time>
      </trkpt>
      <trkpt lat="45.50436" lon="-73.52961">
        <ele>-13</ele>
        <time>2015-09-27T21:14:44.224Z</time>
      </trkpt>
      <trkpt lat="45.50441" lon="-73.52962">
        <ele>-16</ele>
        <time>2015-09-27T21:14:45.238Z</time>
      </trkpt>
      <trkpt lat="45.50445" lon="-73.52961">
        <ele>-16</ele>
        <time>2015-09-27T21:14:46.206Z</time>
      </trkpt>
      <trkpt lat="45.5045" lon="-73.52962">
        <ele>-16</ele>
        <time>2015-09-27T21:14:47.171Z</time>
      </trkpt>
      <trkpt lat="45.50454" lon="-73.52962">
        <ele>-17</ele>
        <time>2015-09-27T21:14:48.243Z</time>
      </trkpt>
      <trkpt lat="45.50459" lon="-73.52963">
        <ele>-16</ele>
        <time>2015-09-27T21:14:49.182Z</time>
      </trkpt>
      <trkpt lat="45.50468" lon="-73.52964">
        <ele>-17</ele>
        <time>2015-09-27T21:14:51.217Z</time>
      </trkpt>
      <trkpt lat="45.50473" lon="-73.52965">
        <ele>-17</ele>
        <time>2015-09-27T21:14:52.171Z</time>
      </trkpt>
      <trkpt lat="45.50479" lon="-73.52964">
        <ele>-17</ele>
        <time>2015-09-27T21:14:53.189Z</time>
      </trkpt>
      <trkpt lat="45.50486" lon="-73.52964">
        <ele>-17</ele>
        <time>2015-09-27T21:14:54.171Z</time>
      </trkpt>
      <trkpt lat="45.50491" lon="-73.52965">
        <ele>-17</ele>
        <time>2015-09-27T21:14:55.201Z</time>
      </trkpt>
      <trkpt lat="45.50497" lon="-73.52966">
        <ele>-16</ele>
        <time>2015-09-27T21:14:56.169Z</time>
      </trkpt>
      <trkpt lat="45.50501" lon="-73.52967">
        <ele>-16</ele>
        <time>2015-09-27T21:14:57.247Z</time>
      </trkpt>
      <trkpt lat="45.50507" lon="-73.52966">
        <ele>-13</ele>
        <time>2015-09-27T21:14:58.187Z</time>
      </trkpt>
      <trkpt lat="45.50512" lon="-73.52967">
        <ele>-14</ele>
        <time>2015-09-27T21:14:59.240Z</time>
      </trkpt>
      <trkpt lat="45.50516" lon="-73.52967">
        <ele>-14</ele>
        <time>2015-09-27T21:15:00.192Z</time>
      </trkpt>
      <trkpt lat="45.50525" lon="-73.52967">
        <ele>-15</ele>
        <time>2015-09-27T21:15:02.244Z</time>
      </trkpt>
      <trkpt lat="45.50529" lon="-73.5297">
        <ele>-14</ele>
        <time>2015-09-27T21:15:03.180Z</time>
      </trkpt>
      <trkpt lat="45.50535" lon="-73.52972">
        <ele>-14</ele>
        <time>2015-09-27T21:15:04.238Z</time>
      </trkpt>
      <trkpt lat="45.5054" lon="-73.52974">
        <ele>-15</ele>
        <time>2015-09-27T21:15:05.183Z</time>
      </trkpt>
      <trkpt lat="45.50548" lon="-73.52977">
        <ele>-18</ele>
        <time>2015-09-27T21:15:07.243Z</time>
      </trkpt>
      <trkpt lat="45.50553" lon="-73.52979">
        <ele>-16</ele>
        <time>2015-09-27T21:15:08.180Z</time>
      </trkpt>
      <trkpt lat="45.50557" lon="-73.5298">
        <ele>-17</ele>
        <time>2015-09-27T21:15:09.249Z</time>
      </trkpt>
      <trkpt lat="45.50563" lon="-73.52981">
        <ele>-16</ele>
        <time>2015-09-27T21:15:10.183Z</time>
      </trkpt>
      <trkpt lat="45.50567" lon="-73.5298">
        <ele>-16</ele>
        <time>2015-09-27T21:15:11.239Z</time>
      </trkpt>
      <trkpt lat="45.50572" lon="-73.52982">
        <ele>-16</ele>
        <time>2015-09-27T21:15:12.171Z</time>
      </trkpt>
      <trkpt lat="45.50579" lon="-73.52983">
        <ele>-16</ele>
        <time>2015-09-27T21:15:13.244Z</time>
      </trkpt>
      <trkpt lat="45.50583" lon="-73.52983">
        <ele>-16</ele>
        <time>2015-09-27T21:15:14.183Z</time>
      </trkpt>
      <trkpt lat="45.50591" lon="-73.52981">
        <ele>-16</ele>
        <time>2015-09-27T21:15:16.254Z</time>
      </trkpt>
      <trkpt lat="45.50594" lon="-73.5298">
        <ele>-18</ele>
        <time>2015-09-27T21:15:17.171Z</time>
      </trkpt>
      <trkpt lat="45.50599" lon="-73.5298">
        <ele>-17</ele>
        <time>2015-09-27T21:15:18.208Z</time>
      </trkpt>
      <trkpt lat="45.50604" lon="-73.52979">
        <ele>-18</ele>
        <time>2015-09-27T21:15:19.170Z</time>
      </trkpt>
      <trkpt lat="45.5061" lon="-73.52976">
        <ele>-17</ele>
        <time>2015-09-27T21:15:20.238Z</time>
      </trkpt>
      <trkpt lat="45.50616" lon="-73.52978">
        <ele>-19</ele>
        <time>2015-09-27T21:15:21.170Z</time>
      </trkpt>
      <trkpt lat="45.50623" lon="-73.5298">
        <ele>-20</ele>
        <time>2015-09-27T21:15:23.243Z</time>
      </trkpt>
      <trkpt lat="45.50628" lon="-73.52982">
        <ele>-21</ele>
        <time>2015-09-27T21:15:24.184Z</time>
      </trkpt>
      <trkpt lat="45.50632" lon="-73.52982">
        <ele>-19</ele>
        <time>2015-09-27T21:15:25.208Z</time>
      </trkpt>
      <trkpt lat="45.50639" lon="-73.52976">
        <ele>-20</ele>
        <time>2015-09-27T21:15:26.171Z</time>
      </trkpt>
      <trkpt lat="45.50648" lon="-73.52977">
        <ele>-18</ele>
        <time>2015-09-27T21:15:28.194Z</time>
      </trkpt>
      <trkpt lat="45.50652" lon="-73.52977">
        <ele>-18</ele>
        <time>2015-09-27T21:15:29.232Z</time>
      </trkpt>
      <trkpt lat="45.50657" lon="-73.52976">
        <ele>-18</ele>
        <time>2015-09-27T21:15:30.253Z</time>
      </trkpt>
      <trkpt lat="45.50663" lon="-73.52974">
        <ele>-17</ele>
        <time>2015-09-27T21:15:31.179Z</time>
      </trkpt>
      <trkpt lat="45.50669" lon="-73.52974">
        <ele>-20</ele>
        <time>2015-09-27T21:15:32.242Z</time>
      </trkpt>
      <trkpt lat="45.50674" lon="-73.5297">
        <ele>-21</ele>
        <time>2015-09-27T21:15:33.246Z</time>
      </trkpt>
      <trkpt lat="45.50683" lon="-73.52972">
        <ele>-25</ele>
        <time>2015-09-27T21:15:35.208Z</time>
      </trkpt>
      <trkpt lat="45.50687" lon="-73.52973">
        <ele>-23</ele>
        <time>2015-09-27T21:15:36.187Z</time>
      </trkpt>
      <trkpt lat="45.50694" lon="-73.5297">
        <ele>-22</ele>
        <time>2015-09-27T21:15:37.210Z</time>
      </trkpt>
      <trkpt lat="45.50696" lon="-73.52967">
        <ele>-22</ele>
        <time>2015-09-27T21:15:38.187Z</time>
      </trkpt>
      <trkpt lat="45.50701" lon="-73.52966">
        <ele>-21</ele>
        <time>2015-09-27T21:15:39.213Z</time>
      </trkpt>
      <trkpt lat="45.50705" lon="-73.52966">
        <ele>-21</ele>
        <time>2015-09-27T21:15:40.181Z</time>
      </trkpt>
      <trkpt lat="45.50709" lon="-73.52965">
        <ele>-22</ele>
        <time>2015-09-27T21:15:41.207Z</time>
      </trkpt>
      <trkpt lat="45.50714" lon="-73.52961">
        <ele>-22</ele>
        <time>2015-09-27T21:15:42.182Z</time>
      </trkpt>
      <trkpt lat="45.50719" lon="-73.52961">
        <ele>-21</ele>
        <time>2015-09-27T21:15:43.241Z</time>
      </trkpt>
      <trkpt lat="45.50724" lon="-73.52962">
        <ele>-21</ele>
        <time>2015-09-27T21:15:44.185Z</time>
      </trkpt>
      <trkpt lat="45.50728" lon="-73.52962">
        <ele>-20</ele>
        <time>2015-09-27T21:15:45.198Z</time>
      </trkpt>
      <trkpt lat="45.50733" lon="-73.52962">
        <ele>-21</ele>
        <time>2015-09-27T21:15:46.187Z</time>
      </trkpt>
      <trkpt lat="45.50741" lon="-73.5296">
        <ele>-24</ele>
        <time>2015-09-27T21:15:48.200Z</time>
      </trkpt>
      <trkpt lat="45.50747" lon="-73.52956">
        <ele>-24</ele>
        <time>2015-09-27T21:15:49.181Z</time>
      </trkpt>
      <trkpt lat="45.50752" lon="-73.52957">
        <ele>-23</ele>
        <time>2015-09-27T21:15:50.210Z</time>
      </trkpt>
      <trkpt lat="45.50756" lon="-73.52956">
        <ele>-22</ele>
        <time>2015-09-27T21:15:51.183Z</time>
      </trkpt>
      <trkpt lat="45.50761" lon="-73.52955">
        <ele>-22</ele>
        <time>2015-09-27T21:15:52.201Z</time>
      </trkpt>
      <trkpt lat="45.50766" lon="-73.52953">
        <ele>-21</ele>
        <time>2015-09-27T21:15:53.181Z</time>
      </trkpt>
      <trkpt lat="45.50772" lon="-73.52952">
        <ele>-21</ele>
        <time>2015-09-27T21:15:54.229Z</time>
      </trkpt>
      <trkpt lat="45.50777" lon="-73.52952">
        <ele>-21</ele>
        <time>2015-09-27T21:15:55.187Z</time>
      </trkpt>
      <trkpt lat="45.50782" lon="-73.5295">
        <ele>-20</ele>
        <time>2015-09-27T21:15:56.225Z</time>
      </trkpt>
      <trkpt lat="45.50788" lon="-73.52947">
        <ele>-20</ele>
        <time>2015-09-27T21:15:57.182Z</time>
      </trkpt>
      <trkpt lat="45.50793" lon="-73.52945">
        <ele>-20</ele>
        <time>2015-09-27T21:15:58.207Z</time>
      </trkpt>
      <trkpt lat="45.50798" lon="-73.52942">
        <ele>-20</ele>
        <time>2015-09-27T21:15:59.174Z</time>
      </trkpt>
      <trkpt lat="45.50803" lon="-73.52938">
        <ele>-19</ele>
        <time>2015-09-27T21:16:01.246Z</time>
      </trkpt>
      <trkpt lat="45.50807" lon="-73.52935">
        <ele>-19</ele>
        <time>2015-09-27T21:16:02.182Z</time>
      </trkpt>
      <trkpt lat="45.50811" lon="-73.52935">
        <ele>-18</ele>
        <time>2015-09-27T21:16:03.198Z</time>
      </trkpt>
      <trkpt lat="45.50816" lon="-73.52929">
        <ele>-19</ele>
        <time>2015-09-27T21:16:04.187Z</time>
      </trkpt>
      <trkpt lat="45.50821" lon="-73.52928">
        <ele>-17</ele>
        <time>2015-09-27T21:16:05.241Z</time>
      </trkpt>
      <trkpt lat="45.50831" lon="-73.52932">
        <ele>-17</ele>
        <time>2015-09-27T21:16:06.190Z</time>
      </trkpt>
      <trkpt lat="45.50835" lon="-73.5293">
        <ele>-17</ele>
        <time>2015-09-27T21:16:07.217Z</time>
      </trkpt>
      <trkpt lat="45.5084" lon="-73.52928">
        <ele>-17</ele>
        <time>2015-09-27T21:16:08.179Z</time>
      </trkpt>
      <trkpt lat="45.50847" lon="-73.52924">
        <ele>-15</ele>
        <time>2015-09-27T21:16:10.199Z</time>
      </trkpt>
      <trkpt lat="45.50848" lon="-73.52919">
        <ele>-14</ele>
        <time>2015-09-27T21:16:11.182Z</time>
      </trkpt>
      <trkpt lat="45.50853" lon="-73.52918">
        <ele>-13</ele>
        <time>2015-09-27T21:16:12.219Z</time>
      </trkpt>
      <trkpt lat="45.50858" lon="-73.52916">
        <ele>-12</ele>
        <time>2015-09-27T21:16:13.178Z</time>
      </trkpt>
      <trkpt lat="45.50865" lon="-73.52911">
        <ele>-13</ele>
        <time>2015-09-27T21:16:15.224Z</time>
      </trkpt>
      <trkpt lat="45.50866" lon="-73.52908">
        <ele>-16</ele>
        <time>2015-09-27T21:16:16.181Z</time>
      </trkpt>
      <trkpt lat="45.5087" lon="-73.52902">
        <ele>-13</ele>
        <time>2015-09-27T21:16:17.249Z</time>
      </trkpt>
      <trkpt lat="45.50874" lon="-73.52899">
        <ele>-13</ele>
        <time>2015-09-27T21:16:18.197Z</time>
      </trkpt>
      <trkpt lat="45.50877" lon="-73.5289">
        <ele>-13</ele>
        <time>2015-09-27T21:16:20.214Z</time>
      </trkpt>
      <trkpt lat="45.50877" lon="-73.52883">
        <ele>-14</ele>
        <time>2015-09-27T21:16:21.183Z</time>
      </trkpt>
      <trkpt lat="45.50877" lon="-73.52871">
        <ele>-14</ele>
        <time>2015-09-27T21:16:23.207Z</time>
      </trkpt>
      <trkpt lat="45.50878" lon="-73.52865">
        <ele>-13</ele>
        <time>2015-09-27T21:16:24.181Z</time>
      </trkpt>
      <trkpt lat="45.50879" lon="-73.52854">
        <ele>-15</ele>
        <time>2015-09-27T21:16:26.248Z</time>
      </trkpt>
      <trkpt lat="45.50879" lon="-73.5285">
        <ele>-16</ele>
        <time>2015-09-27T21:16:27.181Z</time>
      </trkpt>
      <trkpt lat="45.50875" lon="-73.52841">
        <ele>-17</ele>
        <time>2015-09-27T21:16:29.208Z</time>
      </trkpt>
      <trkpt lat="45.50872" lon="-73.52838">
        <ele>-19</ele>
        <time>2015-09-27T21:16:30.179Z</time>
      </trkpt>
      <trkpt lat="45.50864" lon="-73.52837">
        <ele>-18</ele>
        <time>2015-09-27T21:16:32.243Z</time>
      </trkpt>
      <trkpt lat="45.5086" lon="-73.52836">
        <ele>-18</ele>
        <time>2015-09-27T21:16:33.188Z</time>
      </trkpt>
      <trkpt lat="45.50853" lon="-73.52837">
        <ele>-19</ele>
        <time>2015-09-27T21:16:35.242Z</time>
      </trkpt>
      <trkpt lat="45.50849" lon="-73.52837">
        <ele>-18</ele>
        <time>2015-09-27T21:16:36.187Z</time>
      </trkpt>
      <trkpt lat="45.50843" lon="-73.52838">
        <ele>-17</ele>
        <time>2015-09-27T21:16:38.249Z</time>
      </trkpt>
      <trkpt lat="45.50839" lon="-73.52839">
        <ele>-20</ele>
        <time>2015-09-27T21:16:39.222Z</time>
      </trkpt>
      <trkpt lat="45.50832" lon="-73.52842">
        <ele>-20</ele>
        <time>2015-09-27T21:16:41.198Z</time>
      </trkpt>
      <trkpt lat="45.50828" lon="-73.52843">
        <ele>-21</ele>
        <time>2015-09-27T21:16:42.182Z</time>
      </trkpt>
      <trkpt lat="45.50821" lon="-73.52844">
        <ele>-22</ele>
        <time>2015-09-27T21:16:44.214Z</time>
      </trkpt>
      <trkpt lat="45.50817" lon="-73.52845">
        <ele>-23</ele>
        <time>2015-09-27T21:16:45.178Z</time>
      </trkpt>
      <trkpt lat="45.5081" lon="-73.52848">
        <ele>-23</ele>
        <time>2015-09-27T21:16:47.337Z</time>
      </trkpt>
      <trkpt lat="45.50806" lon="-73.52849">
        <ele>-24</ele>
        <time>2015-09-27T21:16:48.192Z</time>
      </trkpt>
      <trkpt lat="45.50799" lon="-73.5285">
        <ele>-24</ele>
        <time>2015-09-27T21:16:50.264Z</time>
      </trkpt>
      <trkpt lat="45.50796" lon="-73.52851">
        <ele>-25</ele>
        <time>2015-09-27T21:16:51.189Z</time>
      </trkpt>
      <trkpt lat="45.5079" lon="-73.52855">
        <ele>-22</ele>
        <time>2015-09-27T21:16:53.215Z</time>
      </trkpt>
      <trkpt lat="45.50787" lon="-73.52859">
        <ele>-22</ele>
        <time>2015-09-27T21:16:54.215Z</time>
      </trkpt>
      <trkpt lat="45.50783" lon="-73.52867">
        <ele>-21</ele>
        <time>2015-09-27T21:16:56.242Z</time>
      </trkpt>
      <trkpt lat="45.50782" lon="-73.52871">
        <ele>-21</ele>
        <time>2015-09-27T21:16:57.189Z</time>
      </trkpt>
      <trkpt lat="45.50784" lon="-73.52882">
        <ele>-22</ele>
        <time>2015-09-27T21:17:00.248Z</time>
      </trkpt>
      <trkpt lat="45.50786" lon="-73.52886">
        <ele>-21</ele>
        <time>2015-09-27T21:17:01.196Z</time>
      </trkpt>
      <trkpt lat="45.50788" lon="-73.52898">
        <ele>-24</ele>
        <time>2015-09-27T21:17:05.240Z</time>
      </trkpt>
      <trkpt lat="45.5079" lon="-73.529">
        <ele>-26</ele>
        <time>2015-09-27T21:17:06.170Z</time>
      </trkpt>
      <trkpt lat="45.50796" lon="-73.52902">
        <ele>-23</ele>
        <time>2015-09-27T21:17:08.248Z</time>
      </trkpt>
      <trkpt lat="45.508" lon="-73.52901">
        <ele>-20</ele>
        <time>2015-09-27T21:17:09.170Z</time>
      </trkpt>
      <trkpt lat="45.50809" lon="-73.529">
        <ele>-19</ele>
        <time>2015-09-27T21:17:11.244Z</time>
      </trkpt>
      <trkpt lat="45.50813" lon="-73.52899">
        <ele>-18</ele>
        <time>2015-09-27T21:17:12.179Z</time>
      </trkpt>
      <trkpt lat="45.5082" lon="-73.52898">
        <ele>-14</ele>
        <time>2015-09-27T21:17:14.207Z</time>
      </trkpt>
      <trkpt lat="45.50823" lon="-73.52897">
        <ele>-15</ele>
        <time>2015-09-27T21:17:15.185Z</time>
      </trkpt>
      <trkpt lat="45.50821" lon="-73.52886">
        <ele>-13</ele>
        <time>2015-09-27T21:17:22.236Z</time>
      </trkpt>
      <trkpt lat="45.50819" lon="-73.52885">
        <ele>-12</ele>
        <time>2015-09-27T21:17:23.184Z</time>
      </trkpt>
      <trkpt lat="45.50812" lon="-73.52887">
        <ele>-10</ele>
        <time>2015-09-27T21:17:26.192Z</time>
      </trkpt>
      <trkpt lat="45.5081" lon="-73.52889">
        <ele>-11</ele>
        <time>2015-09-27T21:17:27.190Z</time>
      </trkpt>
      <trkpt lat="45.50804" lon="-73.52897">
        <ele>-8</ele>
        <time>2015-09-27T21:17:30.242Z</time>
      </trkpt>
      <trkpt lat="45.50804" lon="-73.52901">
        <ele>-7</ele>
        <time>2015-09-27T21:17:31.217Z</time>
      </trkpt>
      <trkpt lat="45.50801" lon="-73.52913">
        <ele>-8</ele>
        <time>2015-09-27T21:17:34.197Z</time>
      </trkpt>
      <trkpt lat="45.50802" lon="-73.52917">
        <ele>-8</ele>
        <time>2015-09-27T21:17:35.199Z</time>
      </trkpt>
      <trkpt lat="45.50803" lon="-73.52926">
        <ele>-8</ele>
        <time>2015-09-27T21:17:37.242Z</time>
      </trkpt>
      <trkpt lat="45.50805" lon="-73.5293">
        <ele>-10</ele>
        <time>2015-09-27T21:17:38.191Z</time>
      </trkpt>
      <trkpt lat="45.50807" lon="-73.52941">
        <ele>-9</ele>
        <time>2015-09-27T21:17:41.242Z</time>
      </trkpt>
      <trkpt lat="45.50808" lon="-73.52945">
        <ele>-11</ele>
        <time>2015-09-27T21:17:42.192Z</time>
      </trkpt>
      <trkpt lat="45.50809" lon="-73.52954">
        <ele>-12</ele>
        <time>2015-09-27T21:17:45.243Z</time>
      </trkpt>
      <trkpt lat="45.5081" lon="-73.52958">
        <ele>-12</ele>
        <time>2015-09-27T21:17:46.190Z</time>
      </trkpt>
      <trkpt lat="45.50811" lon="-73.52967">
        <ele>-12</ele>
        <time>2015-09-27T21:17:48.240Z</time>
      </trkpt>
      <trkpt lat="45.50811" lon="-73.52973">
        <ele>-13</ele>
        <time>2015-09-27T21:17:49.186Z</time>
      </trkpt>
      <trkpt lat="45.50813" lon="-73.52983">
        <ele>-14</ele>
        <time>2015-09-27T21:17:51.244Z</time>
      </trkpt>
      <trkpt lat="45.50814" lon="-73.52989">
        <ele>-14</ele>
        <time>2015-09-27T21:17:52.191Z</time>
      </trkpt>
      <trkpt lat="45.50815" lon="-73.53">
        <ele>-16</ele>
        <time>2015-09-27T21:17:54.244Z</time>
      </trkpt>
      <trkpt lat="45.50815" lon="-73.53006">
        <ele>-15</ele>
        <time>2015-09-27T21:17:55.195Z</time>
      </trkpt>
      <trkpt lat="45.50817" lon="-73.53017">
        <ele>-15</ele>
        <time>2015-09-27T21:17:57.241Z</time>
      </trkpt>
      <trkpt lat="45.50817" lon="-73.53024">
        <ele>-14</ele>
        <time>2015-09-27T21:17:58.200Z</time>
      </trkpt>
      <trkpt lat="45.50818" lon="-73.53036">
        <ele>-12</ele>
        <time>2015-09-27T21:18:00.213Z</time>
      </trkpt>
      <trkpt lat="45.50819" lon="-73.53042">
        <ele>-12</ele>
        <time>2015-09-27T21:18:01.181Z</time>
      </trkpt>
      <trkpt lat="45.50821" lon="-73.53053">
        <ele>-11</ele>
        <time>2015-09-27T21:18:03.260Z</time>
      </trkpt>
      <trkpt lat="45.50822" lon="-73.53059">
        <ele>-10</ele>
        <time>2015-09-27T21:18:04.184Z</time>
      </trkpt>
      <trkpt lat="45.50825" lon="-73.53065">
        <ele>-10</ele>
        <time>2015-09-27T21:18:05.220Z</time>
      </trkpt>
      <trkpt lat="45.50824" lon="-73.53072">
        <ele>-13</ele>
        <time>2015-09-27T21:18:06.194Z</time>
      </trkpt>
      <trkpt lat="45.50826" lon="-73.53083">
        <ele>-12</ele>
        <time>2015-09-27T21:18:08.268Z</time>
      </trkpt>
      <trkpt lat="45.50827" lon="-73.53088">
        <ele>-12</ele>
        <time>2015-09-27T21:18:09.192Z</time>
      </trkpt>
      <trkpt lat="45.50828" lon="-73.53099">
        <ele>-10</ele>
        <time>2015-09-27T21:18:11.257Z</time>
      </trkpt>
      <trkpt lat="45.50828" lon="-73.53105">
        <ele>-11</ele>
        <time>2015-09-27T21:18:12.194Z</time>
      </trkpt>
      <trkpt lat="45.50829" lon="-73.53111">
        <ele>-12</ele>
        <time>2015-09-27T21:18:13.268Z</time>
      </trkpt>
      <trkpt lat="45.5083" lon="-73.53119">
        <ele>-12</ele>
        <time>2015-09-27T21:18:14.183Z</time>
      </trkpt>
      <trkpt lat="45.5083" lon="-73.53126">
        <ele>-11</ele>
        <time>2015-09-27T21:18:15.241Z</time>
      </trkpt>
      <trkpt lat="45.5083" lon="-73.53133">
        <ele>-10</ele>
        <time>2015-09-27T21:18:16.190Z</time>
      </trkpt>
      <trkpt lat="45.50831" lon="-73.53139">
        <ele>-10</ele>
        <time>2015-09-27T21:18:17.240Z</time>
      </trkpt>
      <trkpt lat="45.50831" lon="-73.53146">
        <ele>-9</ele>
        <time>2015-09-27T21:18:18.182Z</time>
      </trkpt>
      <trkpt lat="45.50832" lon="-73.53158">
        <ele>-10</ele>
        <time>2015-09-27T21:18:20.282Z</time>
      </trkpt>
      <trkpt lat="45.50833" lon="-73.53165">
        <ele>-9</ele>
        <time>2015-09-27T21:18:21.183Z</time>
      </trkpt>
      <trkpt lat="45.50835" lon="-73.53173">
        <ele>-6</ele>
        <time>2015-09-27T21:18:22.244Z</time>
      </trkpt>
      <trkpt lat="45.50835" lon="-73.5318">
        <ele>-7</ele>
        <time>2015-09-27T21:18:23.181Z</time>
      </trkpt>
      <trkpt lat="45.50837" lon="-73.53186">
        <ele>-8</ele>
        <time>2015-09-27T21:18:24.238Z</time>
      </trkpt>
      <trkpt lat="45.5084" lon="-73.53192">
        <ele>-8</ele>
        <time>2015-09-27T21:18:25.179Z</time>
      </trkpt>
      <trkpt lat="45.50843" lon="-73.53197">
        <ele>-8</ele>
        <time>2015-09-27T21:18:26.240Z</time>
      </trkpt>
      <trkpt lat="45.50843" lon="-73.53205">
        <ele>-7</ele>
        <time>2015-09-27T21:18:27.187Z</time>
      </trkpt>
      <trkpt lat="45.50849" lon="-73.53215">
        <ele>-6</ele>
        <time>2015-09-27T21:18:29.205Z</time>
      </trkpt>
      <trkpt lat="45.50849" lon="-73.53222">
        <ele>-7</ele>
        <time>2015-09-27T21:18:30.181Z</time>
      </trkpt>
      <trkpt lat="45.5085" lon="-73.53233">
        <ele>-7</ele>
        <time>2015-09-27T21:18:32.216Z</time>
      </trkpt>
      <trkpt lat="45.50849" lon="-73.53239">
        <ele>-7</ele>
        <time>2015-09-27T21:18:33.185Z</time>
      </trkpt>
      <trkpt lat="45.50849" lon="-73.53251">
        <ele>-9</ele>
        <time>2015-09-27T21:18:35.210Z</time>
      </trkpt>
      <trkpt lat="45.50849" lon="-73.53256">
        <ele>-8</ele>
        <time>2015-09-27T21:18:36.183Z</time>
      </trkpt>
      <trkpt lat="45.50848" lon="-73.53263">
        <ele>-9</ele>
        <time>2015-09-27T21:18:37.260Z</time>
      </trkpt>
      <trkpt lat="45.50847" lon="-73.53269">
        <ele>-9</ele>
        <time>2015-09-27T21:18:38.193Z</time>
      </trkpt>
      <trkpt lat="45.50847" lon="-73.53279">
        <ele>-10</ele>
        <time>2015-09-27T21:18:40.260Z</time>
      </trkpt>
      <trkpt lat="45.50847" lon="-73.53284">
        <ele>-10</ele>
        <time>2015-09-27T21:18:41.194Z</time>
      </trkpt>
      <trkpt lat="45.50847" lon="-73.53294">
        <ele>-9</ele>
        <time>2015-09-27T21:18:43.247Z</time>
      </trkpt>
      <trkpt lat="45.50846" lon="-73.53299">
        <ele>-9</ele>
        <time>2015-09-27T21:18:44.180Z</time>
      </trkpt>
      <trkpt lat="45.50845" lon="-73.53309">
        <ele>-9</ele>
        <time>2015-09-27T21:18:46.761Z</time>
      </trkpt>
      <trkpt lat="45.50844" lon="-73.53314">
        <ele>-8</ele>
        <time>2015-09-27T21:18:47.171Z</time>
      </trkpt>
      <trkpt lat="45.5084" lon="-73.53324">
        <ele>-8</ele>
        <time>2015-09-27T21:18:49.192Z</time>
      </trkpt>
      <trkpt lat="45.50838" lon="-73.5333">
        <ele>-8</ele>
        <time>2015-09-27T21:18:50.187Z</time>
      </trkpt>
      <trkpt lat="45.50835" lon="-73.53336">
        <ele>-8</ele>
        <time>2015-09-27T21:18:51.666Z</time>
      </trkpt>
      <trkpt lat="45.50833" lon="-73.53341">
        <ele>-8</ele>
        <time>2015-09-27T21:18:52.174Z</time>
      </trkpt>
      <trkpt lat="45.5083" lon="-73.53346">
        <ele>-9</ele>
        <time>2015-09-27T21:18:53.262Z</time>
      </trkpt>
      <trkpt lat="45.50828" lon="-73.53352">
        <ele>-9</ele>
        <time>2015-09-27T21:18:54.172Z</time>
      </trkpt>
      <trkpt lat="45.50824" lon="-73.53362">
        <ele>-11</ele>
        <time>2015-09-27T21:18:56.266Z</time>
      </trkpt>
      <trkpt lat="45.50822" lon="-73.53368">
        <ele>-12</ele>
        <time>2015-09-27T21:18:57.172Z</time>
      </trkpt>
      <trkpt lat="45.50819" lon="-73.53373">
        <ele>-11</ele>
        <time>2015-09-27T21:18:58.243Z</time>
      </trkpt>
      <trkpt lat="45.50817" lon="-73.53379">
        <ele>-12</ele>
        <time>2015-09-27T21:18:59.181Z</time>
      </trkpt>
      <trkpt lat="45.50814" lon="-73.53385">
        <ele>-11</ele>
        <time>2015-09-27T21:19:00.251Z</time>
      </trkpt>
      <trkpt lat="45.50811" lon="-73.5339">
        <ele>-11</ele>
        <time>2015-09-27T21:19:01.189Z</time>
      </trkpt>
      <trkpt lat="45.50809" lon="-73.53396">
        <ele>-11</ele>
        <time>2015-09-27T21:19:02.186Z</time>
      </trkpt>
      <trkpt lat="45.50805" lon="-73.53401">
        <ele>-11</ele>
        <time>2015-09-27T21:19:03.186Z</time>
      </trkpt>
      <trkpt lat="45.50803" lon="-73.53407">
        <ele>-11</ele>
        <time>2015-09-27T21:19:04.245Z</time>
      </trkpt>
      <trkpt lat="45.508" lon="-73.53412">
        <ele>-11</ele>
        <time>2015-09-27T21:19:05.184Z</time>
      </trkpt>
      <trkpt lat="45.50797" lon="-73.53419">
        <ele>-10</ele>
        <time>2015-09-27T21:19:06.204Z</time>
      </trkpt>
      <trkpt lat="45.50795" lon="-73.53424">
        <ele>-9</ele>
        <time>2015-09-27T21:19:07.170Z</time>
      </trkpt>
      <trkpt lat="45.50792" lon="-73.53431">
        <ele>-7</ele>
        <time>2015-09-27T21:19:08.238Z</time>
      </trkpt>
      <trkpt lat="45.50789" lon="-73.53436">
        <ele>-6</ele>
        <time>2015-09-27T21:19:09.171Z</time>
      </trkpt>
      <trkpt lat="45.50786" lon="-73.53447">
        <ele>-7</ele>
        <time>2015-09-27T21:19:11.244Z</time>
      </trkpt>
      <trkpt lat="45.50785" lon="-73.53453">
        <ele>-5</ele>
        <time>2015-09-27T21:19:12.169Z</time>
      </trkpt>
      <trkpt lat="45.50781" lon="-73.53464">
        <ele>-5</ele>
        <time>2015-09-27T21:19:14.251Z</time>
      </trkpt>
      <trkpt lat="45.5078" lon="-73.53469">
        <ele>-6</ele>
        <time>2015-09-27T21:19:15.174Z</time>
      </trkpt>
      <trkpt lat="45.50776" lon="-73.5348">
        <ele>-8</ele>
        <time>2015-09-27T21:19:17.267Z</time>
      </trkpt>
      <trkpt lat="45.50773" lon="-73.53486">
        <ele>-9</ele>
        <time>2015-09-27T21:19:18.171Z</time>
      </trkpt>
      <trkpt lat="45.50771" lon="-73.53491">
        <ele>-10</ele>
        <time>2015-09-27T21:19:19.239Z</time>
      </trkpt>
      <trkpt lat="45.50768" lon="-73.53497">
        <ele>-10</ele>
        <time>2015-09-27T21:19:20.184Z</time>
      </trkpt>
      <trkpt lat="45.50765" lon="-73.53507">
        <ele>-10</ele>
        <time>2015-09-27T21:19:22.267Z</time>
      </trkpt>
      <trkpt lat="45.50763" lon="-73.53512">
        <ele>-11</ele>
        <time>2015-09-27T21:19:23.171Z</time>
      </trkpt>
      <trkpt lat="45.50759" lon="-73.53521">
        <ele>-11</ele>
        <time>2015-09-27T21:19:25.245Z</time>
      </trkpt>
      <trkpt lat="45.50758" lon="-73.53526">
        <ele>-11</ele>
        <time>2015-09-27T21:19:26.197Z</time>
      </trkpt>
      <trkpt lat="45.50756" lon="-73.53535">
        <ele>-10</ele>
        <time>2015-09-27T21:19:28.257Z</time>
      </trkpt>
      <trkpt lat="45.50756" lon="-73.5354">
        <ele>-9</ele>
        <time>2015-09-27T21:19:29.171Z</time>
      </trkpt>
      <trkpt lat="45.50754" lon="-73.53551">
        <ele>-9</ele>
        <time>2015-09-27T21:19:32.260Z</time>
      </trkpt>
      <trkpt lat="45.50753" lon="-73.53556">
        <ele>-9</ele>
        <time>2015-09-27T21:19:33.172Z</time>
      </trkpt>
      <trkpt lat="45.50751" lon="-73.53565">
        <ele>-11</ele>
        <time>2015-09-27T21:19:35.232Z</time>
      </trkpt>
      <trkpt lat="45.50749" lon="-73.53569">
        <ele>-12</ele>
        <time>2015-09-27T21:19:36.185Z</time>
      </trkpt>
      <trkpt lat="45.50746" lon="-73.53579">
        <ele>-13</ele>
        <time>2015-09-27T21:19:38.189Z</time>
      </trkpt>
      <trkpt lat="45.50744" lon="-73.53583">
        <ele>-14</ele>
        <time>2015-09-27T21:19:39.169Z</time>
      </trkpt>
      <trkpt lat="45.50741" lon="-73.53593">
        <ele>-15</ele>
        <time>2015-09-27T21:19:41.214Z</time>
      </trkpt>
      <trkpt lat="45.50739" lon="-73.53598">
        <ele>-15</ele>
        <time>2015-09-27T21:19:42.185Z</time>
      </trkpt>
      <trkpt lat="45.50735" lon="-73.53607">
        <ele>-16</ele>
        <time>2015-09-27T21:19:44.252Z</time>
      </trkpt>
      <trkpt lat="45.50733" lon="-73.53612">
        <ele>-18</ele>
        <time>2015-09-27T21:19:45.186Z</time>
      </trkpt>
      <trkpt lat="45.5073" lon="-73.53621">
        <ele>-17</ele>
        <time>2015-09-27T21:19:47.246Z</time>
      </trkpt>
      <trkpt lat="45.50729" lon="-73.53626">
        <ele>-18</ele>
        <time>2015-09-27T21:19:48.183Z</time>
      </trkpt>
      <trkpt lat="45.50726" lon="-73.53635">
        <ele>-17</ele>
        <time>2015-09-27T21:19:50.241Z</time>
      </trkpt>
      <trkpt lat="45.50724" lon="-73.5364">
        <ele>-17</ele>
        <time>2015-09-27T21:19:51.181Z</time>
      </trkpt>
      <trkpt lat="45.50722" lon="-73.53649">
        <ele>-18</ele>
        <time>2015-09-27T21:19:53.239Z</time>
      </trkpt>
      <trkpt lat="45.50721" lon="-73.53653">
        <ele>-18</ele>
        <time>2015-09-27T21:19:54.170Z</time>
      </trkpt>
      <trkpt lat="45.50717" lon="-73.53662">
        <ele>-14</ele>
        <time>2015-09-27T21:19:56.333Z</time>
      </trkpt>
      <trkpt lat="45.50715" lon="-73.53667">
        <ele>-13</ele>
        <time>2015-09-27T21:19:57.183Z</time>
      </trkpt>
      <trkpt lat="45.50711" lon="-73.53676">
        <ele>-15</ele>
        <time>2015-09-27T21:19:59.202Z</time>
      </trkpt>
      <trkpt lat="45.50709" lon="-73.53681">
        <ele>-14</ele>
        <time>2015-09-27T21:20:00.190Z</time>
      </trkpt>
      <trkpt lat="45.50706" lon="-73.53691">
        <ele>-15</ele>
        <time>2015-09-27T21:20:02.325Z</time>
      </trkpt>
      <trkpt lat="45.50704" lon="-73.53696">
        <ele>-14</ele>
        <time>2015-09-27T21:20:03.184Z</time>
      </trkpt>
      <trkpt lat="45.507" lon="-73.53705">
        <ele>-15</ele>
        <time>2015-09-27T21:20:05.198Z</time>
      </trkpt>
      <trkpt lat="45.50698" lon="-73.5371">
        <ele>-15</ele>
        <time>2015-09-27T21:20:06.186Z</time>
      </trkpt>
      <trkpt lat="45.50694" lon="-73.53719">
        <ele>-14</ele>
        <time>2015-09-27T21:20:08.265Z</time>
      </trkpt>
      <trkpt lat="45.50692" lon="-73.53724">
        <ele>-15</ele>
        <time>2015-09-27T21:20:09.190Z</time>
      </trkpt>
      <trkpt lat="45.50689" lon="-73.53733">
        <ele>-16</ele>
        <time>2015-09-27T21:20:11.863Z</time>
      </trkpt>
      <trkpt lat="45.50688" lon="-73.53737">
        <ele>-17</ele>
        <time>2015-09-27T21:20:12.174Z</time>
      </trkpt>
      <trkpt lat="45.50685" lon="-73.53746">
        <ele>-21</ele>
        <time>2015-09-27T21:20:14.259Z</time>
      </trkpt>
      <trkpt lat="45.50683" lon="-73.53751">
        <ele>-22</ele>
        <time>2015-09-27T21:20:15.185Z</time>
      </trkpt>
      <trkpt lat="45.5068" lon="-73.5376">
        <ele>-21</ele>
        <time>2015-09-27T21:20:17.210Z</time>
      </trkpt>
      <trkpt lat="45.50678" lon="-73.53765">
        <ele>-19</ele>
        <time>2015-09-27T21:20:18.183Z</time>
      </trkpt>
      <trkpt lat="45.50675" lon="-73.53774">
        <ele>-17</ele>
        <time>2015-09-27T21:20:20.256Z</time>
      </trkpt>
      <trkpt lat="45.50673" lon="-73.53779">
        <ele>-17</ele>
        <time>2015-09-27T21:20:21.170Z</time>
      </trkpt>
      <trkpt lat="45.50669" lon="-73.53789">
        <ele>-14</ele>
        <time>2015-09-27T21:20:23.240Z</time>
      </trkpt>
      <trkpt lat="45.50667" lon="-73.53794">
        <ele>-12</ele>
        <time>2015-09-27T21:20:24.187Z</time>
      </trkpt>
      <trkpt lat="45.50663" lon="-73.53803">
        <ele>-11</ele>
        <time>2015-09-27T21:20:26.198Z</time>
      </trkpt>
      <trkpt lat="45.50662" lon="-73.53808">
        <ele>-11</ele>
        <time>2015-09-27T21:20:27.173Z</time>
      </trkpt>
      <trkpt lat="45.50658" lon="-73.53818">
        <ele>-13</ele>
        <time>2015-09-27T21:20:29.256Z</time>
      </trkpt>
      <trkpt lat="45.50657" lon="-73.53823">
        <ele>-12</ele>
        <time>2015-09-27T21:20:30.185Z</time>
      </trkpt>
      <trkpt lat="45.50653" lon="-73.53834">
        <ele>-11</ele>
        <time>2015-09-27T21:20:32.264Z</time>
      </trkpt>
      <trkpt lat="45.50651" lon="-73.53839">
        <ele>-11</ele>
        <time>2015-09-27T21:20:33.184Z</time>
      </trkpt>
      <trkpt lat="45.50648" lon="-73.53849">
        <ele>-12</ele>
        <time>2015-09-27T21:20:35.241Z</time>
      </trkpt>
      <trkpt lat="45.50645" lon="-73.53854">
        <ele>-11</ele>
        <time>2015-09-27T21:20:36.185Z</time>
      </trkpt>
      <trkpt lat="45.50641" lon="-73.53863">
        <ele>-15</ele>
        <time>2015-09-27T21:20:38.240Z</time>
      </trkpt>
      <trkpt lat="45.50639" lon="-73.53868">
        <ele>-12</ele>
        <time>2015-09-27T21:20:39.186Z</time>
      </trkpt>
      <trkpt lat="45.50635" lon="-73.53878">
        <ele>-13</ele>
        <time>2015-09-27T21:20:41.236Z</time>
      </trkpt>
      <trkpt lat="45.50633" lon="-73.53883">
        <ele>-13</ele>
        <time>2015-09-27T21:20:42.170Z</time>
      </trkpt>
      <trkpt lat="45.5063" lon="-73.53893">
        <ele>-13</ele>
        <time>2015-09-27T21:20:44.202Z</time>
      </trkpt>
      <trkpt lat="45.50628" lon="-73.53899">
        <ele>-15</ele>
        <time>2015-09-27T21:20:45.169Z</time>
      </trkpt>
      <trkpt lat="45.50625" lon="-73.53909">
        <ele>-13</ele>
        <time>2015-09-27T21:20:47.239Z</time>
      </trkpt>
      <trkpt lat="45.50623" lon="-73.53914">
        <ele>-14</ele>
        <time>2015-09-27T21:20:48.181Z</time>
      </trkpt>
      <trkpt lat="45.5062" lon="-73.53925">
        <ele>-15</ele>
        <time>2015-09-27T21:20:50.208Z</time>
      </trkpt>
      <trkpt lat="45.50618" lon="-73.5393">
        <ele>-17</ele>
        <time>2015-09-27T21:20:51.192Z</time>
      </trkpt>
      <trkpt lat="45.50615" lon="-73.5394">
        <ele>-17</ele>
        <time>2015-09-27T21:20:53.259Z</time>
      </trkpt>
      <trkpt lat="45.50613" lon="-73.53945">
        <ele>-15</ele>
        <time>2015-09-27T21:20:54.208Z</time>
      </trkpt>
      <trkpt lat="45.50609" lon="-73.53955">
        <ele>-15</ele>
        <time>2015-09-27T21:20:56.242Z</time>
      </trkpt>
      <trkpt lat="45.50608" lon="-73.5396">
        <ele>-13</ele>
        <time>2015-09-27T21:20:57.193Z</time>
      </trkpt>
      <trkpt lat="45.50604" lon="-73.5397">
        <ele>-12</ele>
        <time>2015-09-27T21:20:59.198Z</time>
      </trkpt>
      <trkpt lat="45.50602" lon="-73.53974">
        <ele>-14</ele>
        <time>2015-09-27T21:21:00.176Z</time>
      </trkpt>
      <trkpt lat="45.50598" lon="-73.53981">
        <ele>-11</ele>
        <time>2015-09-27T21:21:02.235Z</time>
      </trkpt>
      <trkpt lat="45.50596" lon="-73.53985">
        <ele>-10</ele>
        <time>2015-09-27T21:21:03.185Z</time>
      </trkpt>
      <trkpt lat="45.50591" lon="-73.53992">
        <ele>-12</ele>
        <time>2015-09-27T21:21:05.242Z</time>
      </trkpt>
      <trkpt lat="45.50589" lon="-73.53996">
        <ele>-10</ele>
        <time>2015-09-27T21:21:06.190Z</time>
      </trkpt>
      <trkpt lat="45.50583" lon="-73.54003">
        <ele>-9</ele>
        <time>2015-09-27T21:21:09.221Z</time>
      </trkpt>
      <trkpt lat="45.50581" lon="-73.54006">
        <ele>-8</ele>
        <time>2015-09-27T21:21:10.187Z</time>
      </trkpt>
      <trkpt lat="45.50577" lon="-73.54014">
        <ele>-5</ele>
        <time>2015-09-27T21:21:13.201Z</time>
      </trkpt>
      <trkpt lat="45.50576" lon="-73.54017">
        <ele>-6</ele>
        <time>2015-09-27T21:21:14.169Z</time>
      </trkpt>
      <trkpt lat="45.50574" lon="-73.54027">
        <ele>-9</ele>
        <time>2015-09-27T21:21:16.797Z</time>
      </trkpt>
      <trkpt lat="45.50573" lon="-73.54033">
        <ele>-10</ele>
        <time>2015-09-27T21:21:17.170Z</time>
      </trkpt>
      <trkpt lat="45.50571" lon="-73.54043">
        <ele>-13</ele>
        <time>2015-09-27T21:21:19.190Z</time>
      </trkpt>
      <trkpt lat="45.5057" lon="-73.54049">
        <ele>-14</ele>
        <time>2015-09-27T21:21:20.180Z</time>
      </trkpt>
      <trkpt lat="45.50567" lon="-73.5406">
        <ele>-13</ele>
        <time>2015-09-27T21:21:22.245Z</time>
      </trkpt>
      <trkpt lat="45.50565" lon="-73.54065">
        <ele>-13</ele>
        <time>2015-09-27T21:21:23.183Z</time>
      </trkpt>
      <trkpt lat="45.50562" lon="-73.54076">
        <ele>-12</ele>
        <time>2015-09-27T21:21:25.240Z</time>
      </trkpt>
      <trkpt lat="45.5056" lon="-73.54081">
        <ele>-13</ele>
        <time>2015-09-27T21:21:26.192Z</time>
      </trkpt>
      <trkpt lat="45.50557" lon="-73.54092">
        <ele>-13</ele>
        <time>2015-09-27T21:21:28.229Z</time>
      </trkpt>
      <trkpt lat="45.50555" lon="-73.54097">
        <ele>-13</ele>
        <time>2015-09-27T21:21:29.237Z</time>
      </trkpt>
      <trkpt lat="45.5055" lon="-73.54107">
        <ele>-9</ele>
        <time>2015-09-27T21:21:31.231Z</time>
      </trkpt>
      <trkpt lat="45.50549" lon="-73.54112">
        <ele>-9</ele>
        <time>2015-09-27T21:21:32.171Z</time>
      </trkpt>
      <trkpt lat="45.50547" lon="-73.54123">
        <ele>-10</ele>
        <time>2015-09-27T21:21:34.253Z</time>
      </trkpt>
      <trkpt lat="45.50546" lon="-73.54128">
        <ele>-9</ele>
        <time>2015-09-27T21:21:35.191Z</time>
      </trkpt>
      <trkpt lat="45.50542" lon="-73.54137">
        <ele>-9</ele>
        <time>2015-09-27T21:21:37.267Z</time>
      </trkpt>
      <trkpt lat="45.5054" lon="-73.54142">
        <ele>-11</ele>
        <time>2015-09-27T21:21:38.192Z</time>
      </trkpt>
      <trkpt lat="45.50537" lon="-73.54151">
        <ele>-11</ele>
        <time>2015-09-27T21:21:40.344Z</time>
      </trkpt>
      <trkpt lat="45.50536" lon="-73.54156">
        <ele>-12</ele>
        <time>2015-09-27T21:21:41.180Z</time>
      </trkpt>
      <trkpt lat="45.50532" lon="-73.54165">
        <ele>-12</ele>
        <time>2015-09-27T21:21:43.257Z</time>
      </trkpt>
      <trkpt lat="45.5053" lon="-73.5417">
        <ele>-12</ele>
        <time>2015-09-27T21:21:44.180Z</time>
      </trkpt>
      <trkpt lat="45.50526" lon="-73.54181">
        <ele>-11</ele>
        <time>2015-09-27T21:21:46.197Z</time>
      </trkpt>
      <trkpt lat="45.50523" lon="-73.54186">
        <ele>-11</ele>
        <time>2015-09-27T21:21:47.171Z</time>
      </trkpt>
      <trkpt lat="45.50519" lon="-73.54197">
        <ele>-13</ele>
        <time>2015-09-27T21:21:49.192Z</time>
      </trkpt>
      <trkpt lat="45.50518" lon="-73.54203">
        <ele>-14</ele>
        <time>2015-09-27T21:21:50.191Z</time>
      </trkpt>
      <trkpt lat="45.50515" lon="-73.54215">
        <ele>-13</ele>
        <time>2015-09-27T21:21:52.240Z</time>
      </trkpt>
      <trkpt lat="45.50514" lon="-73.54221">
        <ele>-14</ele>
        <time>2015-09-27T21:21:53.184Z</time>
      </trkpt>
      <trkpt lat="45.50511" lon="-73.54232">
        <ele>-15</ele>
        <time>2015-09-27T21:21:55.267Z</time>
      </trkpt>
      <trkpt lat="45.50509" lon="-73.54237">
        <ele>-14</ele>
        <time>2015-09-27T21:21:56.185Z</time>
      </trkpt>
      <trkpt lat="45.50504" lon="-73.54247">
        <ele>-15</ele>
        <time>2015-09-27T21:21:58.239Z</time>
      </trkpt>
      <trkpt lat="45.50502" lon="-73.54252">
        <ele>-15</ele>
        <time>2015-09-27T21:21:59.172Z</time>
      </trkpt>
      <trkpt lat="45.50498" lon="-73.54263">
        <ele>-16</ele>
        <time>2015-09-27T21:22:01.212Z</time>
      </trkpt>
      <trkpt lat="45.50497" lon="-73.54268">
        <ele>-17</ele>
        <time>2015-09-27T21:22:02.181Z</time>
      </trkpt>
      <trkpt lat="45.50493" lon="-73.54279">
        <ele>-18</ele>
        <time>2015-09-27T21:22:04.190Z</time>
      </trkpt>
      <trkpt lat="45.5049" lon="-73.54283">
        <ele>-17</ele>
        <time>2015-09-27T21:22:05.195Z</time>
      </trkpt>
      <trkpt lat="45.50486" lon="-73.54294">
        <ele>-18</ele>
        <time>2015-09-27T21:22:07.211Z</time>
      </trkpt>
      <trkpt lat="45.50484" lon="-73.543">
        <ele>-18</ele>
        <time>2015-09-27T21:22:08.182Z</time>
      </trkpt>
      <trkpt lat="45.5048" lon="-73.5431">
        <ele>-17</ele>
        <time>2015-09-27T21:22:10.215Z</time>
      </trkpt>
      <trkpt lat="45.50479" lon="-73.54314">
        <ele>-16</ele>
        <time>2015-09-27T21:22:11.186Z</time>
      </trkpt>
      <trkpt lat="45.50476" lon="-73.54323">
        <ele>-17</ele>
        <time>2015-09-27T21:22:13.218Z</time>
      </trkpt>
      <trkpt lat="45.50475" lon="-73.54328">
        <ele>-18</ele>
        <time>2015-09-27T21:22:14.184Z</time>
      </trkpt>
      <trkpt lat="45.50471" lon="-73.54339">
        <ele>-19</ele>
        <time>2015-09-27T21:22:16.253Z</time>
      </trkpt>
      <trkpt lat="45.50469" lon="-73.54344">
        <ele>-18</ele>
        <time>2015-09-27T21:22:17.188Z</time>
      </trkpt>
      <trkpt lat="45.50465" lon="-73.54353">
        <ele>-20</ele>
        <time>2015-09-27T21:22:19.239Z</time>
      </trkpt>
      <trkpt lat="45.50462" lon="-73.54358">
        <ele>-19</ele>
        <time>2015-09-27T21:22:20.185Z</time>
      </trkpt>
      <trkpt lat="45.50456" lon="-73.54367">
        <ele>-19</ele>
        <time>2015-09-27T21:22:22.205Z</time>
      </trkpt>
      <trkpt lat="45.50454" lon="-73.54372">
        <ele>-18</ele>
        <time>2015-09-27T21:22:23.183Z</time>
      </trkpt>
      <trkpt lat="45.50449" lon="-73.54382">
        <ele>-19</ele>
        <time>2015-09-27T21:22:25.243Z</time>
      </trkpt>
      <trkpt lat="45.50446" lon="-73.54386">
        <ele>-17</ele>
        <time>2015-09-27T21:22:26.185Z</time>
      </trkpt>
      <trkpt lat="45.50439" lon="-73.54392">
        <ele>-16</ele>
        <time>2015-09-27T21:22:28.262Z</time>
      </trkpt>
      <trkpt lat="45.50435" lon="-73.54394">
        <ele>-15</ele>
        <time>2015-09-27T21:22:29.190Z</time>
      </trkpt>
      <trkpt lat="45.50429" lon="-73.544">
        <ele>-18</ele>
        <time>2015-09-27T21:22:31.240Z</time>
      </trkpt>
      <trkpt lat="45.50306" lon="-73.54429">
        <ele>-17</ele>
        <time>2015-09-27T21:23:05.238Z</time>
      </trkpt>
      <trkpt lat="45.50299" lon="-73.54429">
        <ele>-17</ele>
        <time>2015-09-27T21:23:07.232Z</time>
      </trkpt>
      <trkpt lat="45.50296" lon="-73.54429">
        <ele>-17</ele>
        <time>2015-09-27T21:23:08.187Z</time>
      </trkpt>
      <trkpt lat="45.50287" lon="-73.54429">
        <ele>-17</ele>
        <time>2015-09-27T21:23:11.745Z</time>
      </trkpt>
      <trkpt lat="45.50284" lon="-73.5443">
        <ele>-20</ele>
        <time>2015-09-27T21:23:12.171Z</time>
      </trkpt>
      <trkpt lat="45.50277" lon="-73.54429">
        <ele>-18</ele>
        <time>2015-09-27T21:23:14.211Z</time>
      </trkpt>
      <trkpt lat="45.50273" lon="-73.54429">
        <ele>-19</ele>
        <time>2015-09-27T21:23:15.184Z</time>
      </trkpt>
      <trkpt lat="45.50265" lon="-73.54429">
        <ele>-21</ele>
        <time>2015-09-27T21:23:17.245Z</time>
      </trkpt>
      <trkpt lat="45.50262" lon="-73.54429">
        <ele>-21</ele>
        <time>2015-09-27T21:23:18.182Z</time>
      </trkpt>
      <trkpt lat="45.50254" lon="-73.54428">
        <ele>-22</ele>
        <time>2015-09-27T21:23:20.255Z</time>
      </trkpt>
      <trkpt lat="45.50249" lon="-73.54429">
        <ele>-23</ele>
        <time>2015-09-27T21:23:21.184Z</time>
      </trkpt>
      <trkpt lat="45.50245" lon="-73.5443">
        <ele>-24</ele>
        <time>2015-09-27T21:23:22.314Z</time>
      </trkpt>
      <trkpt lat="45.5024" lon="-73.5443">
        <ele>-23</ele>
        <time>2015-09-27T21:23:23.181Z</time>
      </trkpt>
      <trkpt lat="45.5024" lon="-73.5443">
        <ele>-23</ele>
        <time>2015-09-27T21:23:23.213Z</time>
      </trkpt>
      <trkpt lat="45.5023" lon="-73.54427">
        <ele>-24</ele>
        <time>2015-09-27T21:23:24.173Z</time>
      </trkpt>
      <trkpt lat="45.50222" lon="-73.54427">
        <ele>-23</ele>
        <time>2015-09-27T21:23:25.237Z</time>
      </trkpt>
      <trkpt lat="45.50213" lon="-73.54425">
        <ele>-23</ele>
        <time>2015-09-27T21:23:26.184Z</time>
      </trkpt>
      <trkpt lat="45.50208" lon="-73.54426">
        <ele>-23</ele>
        <time>2015-09-27T21:23:27.256Z</time>
      </trkpt>
      <trkpt lat="45.50204" lon="-73.54431">
        <ele>-23</ele>
        <time>2015-09-27T21:23:28.185Z</time>
      </trkpt>
      <trkpt lat="45.50202" lon="-73.54432">
        <ele>-25</ele>
        <time>2015-09-27T21:23:29.246Z</time>
      </trkpt>
      <trkpt lat="45.50195" lon="-73.54431">
        <ele>-25</ele>
        <time>2015-09-27T21:23:30.187Z</time>
      </trkpt>
      <trkpt lat="45.5019" lon="-73.54431">
        <ele>-25</ele>
        <time>2015-09-27T21:23:31.240Z</time>
      </trkpt>
      <trkpt lat="45.50184" lon="-73.54432">
        <ele>-25</ele>
        <time>2015-09-27T21:23:32.186Z</time>
      </trkpt>
      <trkpt lat="45.50177" lon="-73.54432">
        <ele>-24</ele>
        <time>2015-09-27T21:23:33.200Z</time>
      </trkpt>
      <trkpt lat="45.5017" lon="-73.54431">
        <ele>-23</ele>
        <time>2015-09-27T21:23:34.177Z</time>
      </trkpt>
      <trkpt lat="45.50166" lon="-73.54434">
        <ele>-22</ele>
        <time>2015-09-27T21:23:35.222Z</time>
      </trkpt>
      <trkpt lat="45.50158" lon="-73.54434">
        <ele>-23</ele>
        <time>2015-09-27T21:23:36.181Z</time>
      </trkpt>
      <trkpt lat="45.50149" lon="-73.54439">
        <ele>-23</ele>
        <time>2015-09-27T21:23:38.216Z</time>
      </trkpt>
      <trkpt lat="45.50146" lon="-73.54438">
        <ele>-24</ele>
        <time>2015-09-27T21:23:39.195Z</time>
      </trkpt>
      <trkpt lat="45.50138" lon="-73.54442">
        <ele>-26</ele>
        <time>2015-09-27T21:23:41.209Z</time>
      </trkpt>
      <trkpt lat="45.5013" lon="-73.54442">
        <ele>-26</ele>
        <time>2015-09-27T21:23:42.180Z</time>
      </trkpt>
      <trkpt lat="45.5013" lon="-73.54442">
        <ele>-26</ele>
        <time>2015-09-27T21:23:42.207Z</time>
      </trkpt>
      <trkpt lat="45.50121" lon="-73.54441">
        <ele>-26</ele>
        <time>2015-09-27T21:23:43.186Z</time>
      </trkpt>
      <trkpt lat="45.50119" lon="-73.54446">
        <ele>-27</ele>
        <time>2015-09-27T21:23:45.213Z</time>
      </trkpt>
      <trkpt lat="45.5011" lon="-73.54445">
        <ele>-27</ele>
        <time>2015-09-27T21:23:46.183Z</time>
      </trkpt>
      <trkpt lat="45.50101" lon="-73.54442">
        <ele>-26</ele>
        <time>2015-09-27T21:23:47.216Z</time>
      </trkpt>
      <trkpt lat="45.50098" lon="-73.54443">
        <ele>-25</ele>
        <time>2015-09-27T21:23:48.187Z</time>
      </trkpt>
      <trkpt lat="45.50092" lon="-73.54443">
        <ele>-25</ele>
        <time>2015-09-27T21:23:49.239Z</time>
      </trkpt>
      <trkpt lat="45.50085" lon="-73.54442">
        <ele>-25</ele>
        <time>2015-09-27T21:23:50.242Z</time>
      </trkpt>
      <trkpt lat="45.50081" lon="-73.54448">
        <ele>-27</ele>
        <time>2015-09-27T21:23:53.230Z</time>
      </trkpt>
      <trkpt lat="45.50075" lon="-73.54447">
        <ele>-27</ele>
        <time>2015-09-27T21:23:54.187Z</time>
      </trkpt>
      <trkpt lat="45.50072" lon="-73.54449">
        <ele>-28</ele>
        <time>2015-09-27T21:23:55.245Z</time>
      </trkpt>
      <trkpt lat="45.50063" lon="-73.54446">
        <ele>-27</ele>
        <time>2015-09-27T21:23:56.180Z</time>
      </trkpt>
      <trkpt lat="45.50054" lon="-73.54448">
        <ele>-26</ele>
        <time>2015-09-27T21:23:58.206Z</time>
      </trkpt>
      <trkpt lat="45.50048" lon="-73.54447">
        <ele>-26</ele>
        <time>2015-09-27T21:23:59.184Z</time>
      </trkpt>
      <trkpt lat="45.50047" lon="-73.5445">
        <ele>-26</ele>
        <time>2015-09-27T21:24:00.246Z</time>
      </trkpt>
      <trkpt lat="45.50038" lon="-73.54449">
        <ele>-25</ele>
        <time>2015-09-27T21:24:01.171Z</time>
      </trkpt>
      <trkpt lat="45.50033" lon="-73.54456">
        <ele>-27</ele>
        <time>2015-09-27T21:24:03.211Z</time>
      </trkpt>
      <trkpt lat="45.50029" lon="-73.54456">
        <ele>-26</ele>
        <time>2015-09-27T21:24:04.213Z</time>
      </trkpt>
      <trkpt lat="45.50022" lon="-73.54455">
        <ele>-25</ele>
        <time>2015-09-27T21:24:05.249Z</time>
      </trkpt>
      <trkpt lat="45.50018" lon="-73.54455">
        <ele>-25</ele>
        <time>2015-09-27T21:24:06.179Z</time>
      </trkpt>
      <trkpt lat="45.5001" lon="-73.54453">
        <ele>-24</ele>
        <time>2015-09-27T21:24:07.210Z</time>
      </trkpt>
      <trkpt lat="45.50005" lon="-73.54454">
        <ele>-24</ele>
        <time>2015-09-27T21:24:08.178Z</time>
      </trkpt>
      <trkpt lat="45.50001" lon="-73.54455">
        <ele>-23</ele>
        <time>2015-09-27T21:24:09.213Z</time>
      </trkpt>
      <trkpt lat="45.49994" lon="-73.54455">
        <ele>-22</ele>
        <time>2015-09-27T21:24:10.189Z</time>
      </trkpt>
      <trkpt lat="45.49985" lon="-73.54455">
        <ele>-21</ele>
        <time>2015-09-27T21:24:12.206Z</time>
      </trkpt>
      <trkpt lat="45.49978" lon="-73.54455">
        <ele>-20</ele>
        <time>2015-09-27T21:24:13.179Z</time>
      </trkpt>
      <trkpt lat="45.4997" lon="-73.54456">
        <ele>-20</ele>
        <time>2015-09-27T21:24:15.319Z</time>
      </trkpt>
      <trkpt lat="45.49964" lon="-73.54457">
        <ele>-19</ele>
        <time>2015-09-27T21:24:16.180Z</time>
      </trkpt>
      <trkpt lat="45.49958" lon="-73.54456">
        <ele>-19</ele>
        <time>2015-09-27T21:24:17.241Z</time>
      </trkpt>
      <trkpt lat="45.49953" lon="-73.54458">
        <ele>-21</ele>
        <time>2015-09-27T21:24:18.184Z</time>
      </trkpt>
      <trkpt lat="45.49949" lon="-73.54459">
        <ele>-20</ele>
        <time>2015-09-27T21:24:19.241Z</time>
      </trkpt>
      <trkpt lat="45.49943" lon="-73.54458">
        <ele>-19</ele>
        <time>2015-09-27T21:24:20.179Z</time>
      </trkpt>
      <trkpt lat="45.49938" lon="-73.54464">
        <ele>-23</ele>
        <time>2015-09-27T21:24:23.210Z</time>
      </trkpt>
      <trkpt lat="45.49932" lon="-73.54463">
        <ele>-23</ele>
        <time>2015-09-27T21:24:24.211Z</time>
      </trkpt>
      <trkpt lat="45.49928" lon="-73.54463">
        <ele>-21</ele>
        <time>2015-09-27T21:24:25.281Z</time>
      </trkpt>
      <trkpt lat="45.49919" lon="-73.54462">
        <ele>-20</ele>
        <time>2015-09-27T21:24:26.236Z</time>
      </trkpt>
      <trkpt lat="45.49912" lon="-73.54464">
        <ele>-19</ele>
        <time>2015-09-27T21:24:28.207Z</time>
      </trkpt>
      <trkpt lat="45.49908" lon="-73.54464">
        <ele>-18</ele>
        <time>2015-09-27T21:24:29.182Z</time>
      </trkpt>
      <trkpt lat="45.499" lon="-73.54466">
        <ele>-15</ele>
        <time>2015-09-27T21:24:31.235Z</time>
      </trkpt>
      <trkpt lat="45.49896" lon="-73.54467">
        <ele>-16</ele>
        <time>2015-09-27T21:24:32.179Z</time>
      </trkpt>
      <trkpt lat="45.4989" lon="-73.54468">
        <ele>-17</ele>
        <time>2015-09-27T21:24:33.244Z</time>
      </trkpt>
      <trkpt lat="45.49887" lon="-73.54469">
        <ele>-18</ele>
        <time>2015-09-27T21:24:34.186Z</time>
      </trkpt>
      <trkpt lat="45.49879" lon="-73.54466">
        <ele>-17</ele>
        <time>2015-09-27T21:24:35.244Z</time>
      </trkpt>
      <trkpt lat="45.49874" lon="-73.54466">
        <ele>-16</ele>
        <time>2015-09-27T21:24:36.185Z</time>
      </trkpt>
      <trkpt lat="45.49869" lon="-73.54472">
        <ele>-20</ele>
        <time>2015-09-27T21:24:39.231Z</time>
      </trkpt>
      <trkpt lat="45.49865" lon="-73.54473">
        <ele>-21</ele>
        <time>2015-09-27T21:24:40.171Z</time>
      </trkpt>
      <trkpt lat="45.49857" lon="-73.54475">
        <ele>-20</ele>
        <time>2015-09-27T21:24:42.195Z</time>
      </trkpt>
      <trkpt lat="45.49856" lon="-73.54477">
        <ele>-21</ele>
        <time>2015-09-27T21:24:43.168Z</time>
      </trkpt>
      <trkpt lat="45.49848" lon="-73.54478">
        <ele>-22</ele>
        <time>2015-09-27T21:24:45.239Z</time>
      </trkpt>
      <trkpt lat="45.49842" lon="-73.54476">
        <ele>-22</ele>
        <time>2015-09-27T21:24:46.172Z</time>
      </trkpt>
      <trkpt lat="45.49836" lon="-73.54475">
        <ele>-21</ele>
        <time>2015-09-27T21:24:47.196Z</time>
      </trkpt>
      <trkpt lat="45.49831" lon="-73.54475">
        <ele>-21</ele>
        <time>2015-09-27T21:24:48.189Z</time>
      </trkpt>
      <trkpt lat="45.49822" lon="-73.54476">
        <ele>-23</ele>
        <time>2015-09-27T21:24:50.237Z</time>
      </trkpt>
      <trkpt lat="45.49819" lon="-73.54477">
        <ele>-23</ele>
        <time>2015-09-27T21:24:51.182Z</time>
      </trkpt>
      <trkpt lat="45.49811" lon="-73.54479">
        <ele>-24</ele>
        <time>2015-09-27T21:24:53.198Z</time>
      </trkpt>
      <trkpt lat="45.49808" lon="-73.54481">
        <ele>-25</ele>
        <time>2015-09-27T21:24:54.180Z</time>
      </trkpt>
      <trkpt lat="45.49801" lon="-73.54483">
        <ele>-25</ele>
        <time>2015-09-27T21:24:56.205Z</time>
      </trkpt>
      <trkpt lat="45.49797" lon="-73.54483">
        <ele>-25</ele>
        <time>2015-09-27T21:24:57.183Z</time>
      </trkpt>
      <trkpt lat="45.49792" lon="-73.54483">
        <ele>-24</ele>
        <time>2015-09-27T21:24:58.246Z</time>
      </trkpt>
      <trkpt lat="45.49786" lon="-73.54483">
        <ele>-25</ele>
        <time>2015-09-27T21:24:59.186Z</time>
      </trkpt>
      <trkpt lat="45.49786" lon="-73.54483">
        <ele>-25</ele>
        <time>2015-09-27T21:24:59.218Z</time>
      </trkpt>
      <trkpt lat="45.49776" lon="-73.54479">
        <ele>-26</ele>
        <time>2015-09-27T21:25:00.182Z</time>
      </trkpt>
      <trkpt lat="45.49768" lon="-73.54479">
        <ele>-25</ele>
        <time>2015-09-27T21:25:02.208Z</time>
      </trkpt>
      <trkpt lat="45.49763" lon="-73.54479">
        <ele>-25</ele>
        <time>2015-09-27T21:25:03.180Z</time>
      </trkpt>
      <trkpt lat="45.49761" lon="-73.54488">
        <ele>-30</ele>
        <time>2015-09-27T21:25:06.235Z</time>
      </trkpt>
      <trkpt lat="45.49754" lon="-73.54487">
        <ele>-30</ele>
        <time>2015-09-27T21:25:07.182Z</time>
      </trkpt>
      <trkpt lat="45.49745" lon="-73.54489">
        <ele>-29</ele>
        <time>2015-09-27T21:25:09.213Z</time>
      </trkpt>
      <trkpt lat="45.4974" lon="-73.5449">
        <ele>-29</ele>
        <time>2015-09-27T21:25:10.180Z</time>
      </trkpt>
      <trkpt lat="45.49735" lon="-73.54491">
        <ele>-29</ele>
        <time>2015-09-27T21:25:11.209Z</time>
      </trkpt>
      <trkpt lat="45.4973" lon="-73.54491">
        <ele>-28</ele>
        <time>2015-09-27T21:25:12.180Z</time>
      </trkpt>
      <trkpt lat="45.49726" lon="-73.54492">
        <ele>-28</ele>
        <time>2015-09-27T21:25:13.203Z</time>
      </trkpt>
      <trkpt lat="45.49721" lon="-73.54493">
        <ele>-26</ele>
        <time>2015-09-27T21:25:14.169Z</time>
      </trkpt>
      <trkpt lat="45.49717" lon="-73.54494">
        <ele>-25</ele>
        <time>2015-09-27T21:25:15.212Z</time>
      </trkpt>
      <trkpt lat="45.4971" lon="-73.54492">
        <ele>-25</ele>
        <time>2015-09-27T21:25:16.170Z</time>
      </trkpt>
      <trkpt lat="45.49703" lon="-73.54492">
        <ele>-23</ele>
        <time>2015-09-27T21:25:17.239Z</time>
      </trkpt>
      <trkpt lat="45.49699" lon="-73.54493">
        <ele>-24</ele>
        <time>2015-09-27T21:25:18.185Z</time>
      </trkpt>
      <trkpt lat="45.49695" lon="-73.545">
        <ele>-25</ele>
        <time>2015-09-27T21:25:21.209Z</time>
      </trkpt>
      <trkpt lat="45.4969" lon="-73.54499">
        <ele>-25</ele>
        <time>2015-09-27T21:25:22.173Z</time>
      </trkpt>
      <trkpt lat="45.49687" lon="-73.54499">
        <ele>-23</ele>
        <time>2015-09-27T21:25:23.239Z</time>
      </trkpt>
      <trkpt lat="45.49681" lon="-73.54498">
        <ele>-24</ele>
        <time>2015-09-27T21:25:24.170Z</time>
      </trkpt>
      <trkpt lat="45.49675" lon="-73.54505">
        <ele>-27</ele>
        <time>2015-09-27T21:25:27.187Z</time>
      </trkpt>
      <trkpt lat="45.49671" lon="-73.54506">
        <ele>-27</ele>
        <time>2015-09-27T21:25:28.180Z</time>
      </trkpt>
      <trkpt lat="45.49662" lon="-73.54506">
        <ele>-25</ele>
        <time>2015-09-27T21:25:30.290Z</time>
      </trkpt>
      <trkpt lat="45.49658" lon="-73.54506">
        <ele>-26</ele>
        <time>2015-09-27T21:25:31.180Z</time>
      </trkpt>
      <trkpt lat="45.49649" lon="-73.54509">
        <ele>-28</ele>
        <time>2015-09-27T21:25:33.215Z</time>
      </trkpt>
      <trkpt lat="45.49646" lon="-73.5451">
        <ele>-29</ele>
        <time>2015-09-27T21:25:34.177Z</time>
      </trkpt>
      <trkpt lat="45.49638" lon="-73.54512">
        <ele>-30</ele>
        <time>2015-09-27T21:25:36.258Z</time>
      </trkpt>
      <trkpt lat="45.49634" lon="-73.54513">
        <ele>-31</ele>
        <time>2015-09-27T21:25:37.193Z</time>
      </trkpt>
      <trkpt lat="45.49627" lon="-73.54514">
        <ele>-31</ele>
        <time>2015-09-27T21:25:39.196Z</time>
      </trkpt>
      <trkpt lat="45.49622" lon="-73.54514">
        <ele>-30</ele>
        <time>2015-09-27T21:25:40.192Z</time>
      </trkpt>
      <trkpt lat="45.49617" lon="-73.54514">
        <ele>-28</ele>
        <time>2015-09-27T21:25:41.241Z</time>
      </trkpt>
      <trkpt lat="45.49603" lon="-73.54507">
        <ele>-28</ele>
        <time>2015-09-27T21:25:42.182Z</time>
      </trkpt>
      <trkpt lat="45.49601" lon="-73.54517">
        <ele>-28</ele>
        <time>2015-09-27T21:25:44.187Z</time>
      </trkpt>
      <trkpt lat="45.49601" lon="-73.5452">
        <ele>-28</ele>
        <time>2015-09-27T21:25:45.170Z</time>
      </trkpt>
      <trkpt lat="45.49593" lon="-73.54516">
        <ele>-29</ele>
        <time>2015-09-27T21:25:47.183Z</time>
      </trkpt>
      <trkpt lat="45.49588" lon="-73.54516">
        <ele>-28</ele>
        <time>2015-09-27T21:25:48.169Z</time>
      </trkpt>
      <trkpt lat="45.4958" lon="-73.54518">
        <ele>-29</ele>
        <time>2015-09-27T21:25:50.225Z</time>
      </trkpt>
      <trkpt lat="45.49574" lon="-73.54516">
        <ele>-28</ele>
        <time>2015-09-27T21:25:51.170Z</time>
      </trkpt>
      <trkpt lat="45.49568" lon="-73.54514">
        <ele>-27</ele>
        <time>2015-09-27T21:25:52.206Z</time>
      </trkpt>
      <trkpt lat="45.49561" lon="-73.54514">
        <ele>-27</ele>
        <time>2015-09-27T21:25:53.184Z</time>
      </trkpt>
      <trkpt lat="45.49557" lon="-73.54513">
        <ele>-27</ele>
        <time>2015-09-27T21:25:54.253Z</time>
      </trkpt>
      <trkpt lat="45.49549" lon="-73.54512">
        <ele>-28</ele>
        <time>2015-09-27T21:25:55.183Z</time>
      </trkpt>
      <trkpt lat="45.49544" lon="-73.54511">
        <ele>-29</ele>
        <time>2015-09-27T21:25:56.218Z</time>
      </trkpt>
      <trkpt lat="45.49538" lon="-73.54508">
        <ele>-27</ele>
        <time>2015-09-27T21:25:57.187Z</time>
      </trkpt>
      <trkpt lat="45.4953" lon="-73.54509">
        <ele>-27</ele>
        <time>2015-09-27T21:25:59.192Z</time>
      </trkpt>
      <trkpt lat="45.49528" lon="-73.54512">
        <ele>-27</ele>
        <time>2015-09-27T21:26:00.169Z</time>
      </trkpt>
      <trkpt lat="45.4952" lon="-73.54512">
        <ele>-26</ele>
        <time>2015-09-27T21:26:02.212Z</time>
      </trkpt>
      <trkpt lat="45.49518" lon="-73.54514">
        <ele>-24</ele>
        <time>2015-09-27T21:26:03.182Z</time>
      </trkpt>
      <trkpt lat="45.49512" lon="-73.54515">
        <ele>-22</ele>
        <time>2015-09-27T21:26:04.214Z</time>
      </trkpt>
      <trkpt lat="45.49506" lon="-73.54514">
        <ele>-21</ele>
        <time>2015-09-27T21:26:05.179Z</time>
      </trkpt>
      <trkpt lat="45.49498" lon="-73.54511">
        <ele>-20</ele>
        <time>2015-09-27T21:26:07.212Z</time>
      </trkpt>
      <trkpt lat="45.49491" lon="-73.54509">
        <ele>-21</ele>
        <time>2015-09-27T21:26:08.188Z</time>
      </trkpt>
      <trkpt lat="45.49484" lon="-73.54509">
        <ele>-20</ele>
        <time>2015-09-27T21:26:09.240Z</time>
      </trkpt>
      <trkpt lat="45.49482" lon="-73.5451">
        <ele>-19</ele>
        <time>2015-09-27T21:26:10.187Z</time>
      </trkpt>
      <trkpt lat="45.49477" lon="-73.54514">
        <ele>-19</ele>
        <time>2015-09-27T21:26:13.221Z</time>
      </trkpt>
      <trkpt lat="45.4947" lon="-73.54514">
        <ele>-18</ele>
        <time>2015-09-27T21:26:14.188Z</time>
      </trkpt>
      <trkpt lat="45.49465" lon="-73.54516">
        <ele>-19</ele>
        <time>2015-09-27T21:26:16.210Z</time>
      </trkpt>
      <trkpt lat="45.49462" lon="-73.5452">
        <ele>-21</ele>
        <time>2015-09-27T21:26:17.182Z</time>
      </trkpt>
      <trkpt lat="45.49455" lon="-73.54518">
        <ele>-21</ele>
        <time>2015-09-27T21:26:18.217Z</time>
      </trkpt>
      <trkpt lat="45.49449" lon="-73.54517">
        <ele>-22</ele>
        <time>2015-09-27T21:26:19.182Z</time>
      </trkpt>
      <trkpt lat="45.49443" lon="-73.54516">
        <ele>-22</ele>
        <time>2015-09-27T21:26:20.245Z</time>
      </trkpt>
      <trkpt lat="45.49439" lon="-73.54515">
        <ele>-23</ele>
        <time>2015-09-27T21:26:21.186Z</time>
      </trkpt>
      <trkpt lat="45.49431" lon="-73.54513">
        <ele>-22</ele>
        <time>2015-09-27T21:26:22.195Z</time>
      </trkpt>
      <trkpt lat="45.49429" lon="-73.54516">
        <ele>-24</ele>
        <time>2015-09-27T21:26:23.187Z</time>
      </trkpt>
      <trkpt lat="45.49426" lon="-73.54517">
        <ele>-24</ele>
        <time>2015-09-27T21:26:24.251Z</time>
      </trkpt>
      <trkpt lat="45.4942" lon="-73.54517">
        <ele>-23</ele>
        <time>2015-09-27T21:26:25.186Z</time>
      </trkpt>
      <trkpt lat="45.49414" lon="-73.54517">
        <ele>-24</ele>
        <time>2015-09-27T21:26:26.214Z</time>
      </trkpt>
      <trkpt lat="45.4941" lon="-73.54518">
        <ele>-25</ele>
        <time>2015-09-27T21:26:27.180Z</time>
      </trkpt>
      <trkpt lat="45.49402" lon="-73.54522">
        <ele>-27</ele>
        <time>2015-09-27T21:26:30.269Z</time>
      </trkpt>
      <trkpt lat="45.49398" lon="-73.54523">
        <ele>-28</ele>
        <time>2015-09-27T21:26:31.179Z</time>
      </trkpt>
      <trkpt lat="45.49391" lon="-73.54526">
        <ele>-29</ele>
        <time>2015-09-27T21:26:33.221Z</time>
      </trkpt>
      <trkpt lat="45.49388" lon="-73.54527">
        <ele>-31</ele>
        <time>2015-09-27T21:26:34.181Z</time>
      </trkpt>
      <trkpt lat="45.49381" lon="-73.5453">
        <ele>-31</ele>
        <time>2015-09-27T21:26:36.198Z</time>
      </trkpt>
      <trkpt lat="45.49378" lon="-73.54531">
        <ele>-30</ele>
        <time>2015-09-27T21:26:37.186Z</time>
      </trkpt>
      <trkpt lat="45.4937" lon="-73.54532">
        <ele>-32</ele>
        <time>2015-09-27T21:26:39.218Z</time>
      </trkpt>
      <trkpt lat="45.49366" lon="-73.54533">
        <ele>-32</ele>
        <time>2015-09-27T21:26:40.180Z</time>
      </trkpt>
      <trkpt lat="45.49357" lon="-73.54533">
        <ele>-32</ele>
        <time>2015-09-27T21:26:42.208Z</time>
      </trkpt>
      <trkpt lat="45.49353" lon="-73.54533">
        <ele>-32</ele>
        <time>2015-09-27T21:26:43.175Z</time>
      </trkpt>
      <trkpt lat="45.49345" lon="-73.54536">
        <ele>-29</ele>
        <time>2015-09-27T21:26:45.209Z</time>
      </trkpt>
      <trkpt lat="45.49341" lon="-73.54537">
        <ele>-28</ele>
        <time>2015-09-27T21:26:46.180Z</time>
      </trkpt>
      <trkpt lat="45.49332" lon="-73.54539">
        <ele>-26</ele>
        <time>2015-09-27T21:26:48.223Z</time>
      </trkpt>
      <trkpt lat="45.49327" lon="-73.5454">
        <ele>-24</ele>
        <time>2015-09-27T21:26:49.177Z</time>
      </trkpt>
      <trkpt lat="45.49322" lon="-73.5454">
        <ele>-25</ele>
        <time>2015-09-27T21:26:50.266Z</time>
      </trkpt>
      <trkpt lat="45.49318" lon="-73.5454">
        <ele>-25</ele>
        <time>2015-09-27T21:26:51.245Z</time>
      </trkpt>
      <trkpt lat="45.4931" lon="-73.5454">
        <ele>-28</ele>
        <time>2015-09-27T21:26:53.218Z</time>
      </trkpt>
      <trkpt lat="45.49305" lon="-73.54539">
        <ele>-28</ele>
        <time>2015-09-27T21:26:54.179Z</time>
      </trkpt>
      <trkpt lat="45.493" lon="-73.54538">
        <ele>-28</ele>
        <time>2015-09-27T21:26:55.254Z</time>
      </trkpt>
      <trkpt lat="45.49295" lon="-73.54537">
        <ele>-28</ele>
        <time>2015-09-27T21:26:56.186Z</time>
      </trkpt>
      <trkpt lat="45.49287" lon="-73.54536">
        <ele>-31</ele>
        <time>2015-09-27T21:26:58.258Z</time>
      </trkpt>
      <trkpt lat="45.49284" lon="-73.54535">
        <ele>-29</ele>
        <time>2015-09-27T21:26:59.185Z</time>
      </trkpt>
      <trkpt lat="45.49275" lon="-73.54535">
        <ele>-28</ele>
        <time>2015-09-27T21:27:01.225Z</time>
      </trkpt>
      <trkpt lat="45.49271" lon="-73.54534">
        <ele>-29</ele>
        <time>2015-09-27T21:27:02.194Z</time>
      </trkpt>
      <trkpt lat="45.49262" lon="-73.54533">
        <ele>-29</ele>
        <time>2015-09-27T21:27:04.251Z</time>
      </trkpt>
      <trkpt lat="45.49259" lon="-73.54533">
        <ele>-29</ele>
        <time>2015-09-27T21:27:05.190Z</time>
      </trkpt>
      <trkpt lat="45.49252" lon="-73.54532">
        <ele>-32</ele>
        <time>2015-09-27T21:27:07.258Z</time>
      </trkpt>
      <trkpt lat="45.49249" lon="-73.54532">
        <ele>-29</ele>
        <time>2015-09-27T21:27:08.194Z</time>
      </trkpt>
      <trkpt lat="45.49241" lon="-73.54531">
        <ele>-28</ele>
        <time>2015-09-27T21:27:10.375Z</time>
      </trkpt>
      <trkpt lat="45.49237" lon="-73.5453">
        <ele>-27</ele>
        <time>2015-09-27T21:27:11.193Z</time>
      </trkpt>
      <trkpt lat="45.49233" lon="-73.54529">
        <ele>-26</ele>
        <time>2015-09-27T21:27:12.241Z</time>
      </trkpt>
      <trkpt lat="45.49228" lon="-73.54527">
        <ele>-24</ele>
        <time>2015-09-27T21:27:13.182Z</time>
      </trkpt>
      <trkpt lat="45.49228" lon="-73.54527">
        <ele>-24</ele>
        <time>2015-09-27T21:27:13.270Z</time>
      </trkpt>
      <trkpt lat="45.49219" lon="-73.5452">
        <ele>-25</ele>
        <time>2015-09-27T21:27:14.185Z</time>
      </trkpt>
      <trkpt lat="45.49212" lon="-73.54518">
        <ele>-24</ele>
        <time>2015-09-27T21:27:15.238Z</time>
      </trkpt>
      <trkpt lat="45.49208" lon="-73.54516">
        <ele>-24</ele>
        <time>2015-09-27T21:27:16.181Z</time>
      </trkpt>
      <trkpt lat="45.49204" lon="-73.54516">
        <ele>-24</ele>
        <time>2015-09-27T21:27:17.208Z</time>
      </trkpt>
      <trkpt lat="45.49198" lon="-73.54514">
        <ele>-22</ele>
        <time>2015-09-27T21:27:18.171Z</time>
      </trkpt>
      <trkpt lat="45.49191" lon="-73.54511">
        <ele>-22</ele>
        <time>2015-09-27T21:27:19.187Z</time>
      </trkpt>
      <trkpt lat="45.49186" lon="-73.54511">
        <ele>-22</ele>
        <time>2015-09-27T21:27:20.183Z</time>
      </trkpt>
      <trkpt lat="45.49179" lon="-73.54507">
        <ele>-21</ele>
        <time>2015-09-27T21:27:22.255Z</time>
      </trkpt>
      <trkpt lat="45.49176" lon="-73.54506">
        <ele>-22</ele>
        <time>2015-09-27T21:27:23.184Z</time>
      </trkpt>
      <trkpt lat="45.49169" lon="-73.54505">
        <ele>-21</ele>
        <time>2015-09-27T21:27:25.243Z</time>
      </trkpt>
      <trkpt lat="45.49164" lon="-73.54505">
        <ele>-22</ele>
        <time>2015-09-27T21:27:26.181Z</time>
      </trkpt>
      <trkpt lat="45.49159" lon="-73.54504">
        <ele>-23</ele>
        <time>2015-09-27T21:27:27.194Z</time>
      </trkpt>
      <trkpt lat="45.49155" lon="-73.54502">
        <ele>-18</ele>
        <time>2015-09-27T21:27:28.189Z</time>
      </trkpt>
      <trkpt lat="45.49151" lon="-73.54499">
        <ele>-15</ele>
        <time>2015-09-27T21:27:29.249Z</time>
      </trkpt>
      <trkpt lat="45.49147" lon="-73.54497">
        <ele>-15</ele>
        <time>2015-09-27T21:27:30.202Z</time>
      </trkpt>
      <trkpt lat="45.49139" lon="-73.54494">
        <ele>-16</ele>
        <time>2015-09-27T21:27:32.248Z</time>
      </trkpt>
      <trkpt lat="45.49136" lon="-73.54493">
        <ele>-16</ele>
        <time>2015-09-27T21:27:33.174Z</time>
      </trkpt>
      <trkpt lat="45.49128" lon="-73.5449">
        <ele>-15</ele>
        <time>2015-09-27T21:27:35.264Z</time>
      </trkpt>
      <trkpt lat="45.49125" lon="-73.54488">
        <ele>-16</ele>
        <time>2015-09-27T21:27:36.191Z</time>
      </trkpt>
      <trkpt lat="45.49117" lon="-73.54485">
        <ele>-20</ele>
        <time>2015-09-27T21:27:38.253Z</time>
      </trkpt>
      <trkpt lat="45.49114" lon="-73.54484">
        <ele>-20</ele>
        <time>2015-09-27T21:27:39.189Z</time>
      </trkpt>
      <trkpt lat="45.49107" lon="-73.54482">
        <ele>-21</ele>
        <time>2015-09-27T21:27:41.243Z</time>
      </trkpt>
      <trkpt lat="45.49103" lon="-73.54481">
        <ele>-21</ele>
        <time>2015-09-27T21:27:42.235Z</time>
      </trkpt>
      <trkpt lat="45.49096" lon="-73.54479">
        <ele>-19</ele>
        <time>2015-09-27T21:27:44.232Z</time>
      </trkpt>
      <trkpt lat="45.49092" lon="-73.54477">
        <ele>-19</ele>
        <time>2015-09-27T21:27:45.194Z</time>
      </trkpt>
      <trkpt lat="45.49084" lon="-73.54474">
        <ele>-19</ele>
        <time>2015-09-27T21:27:47.187Z</time>
      </trkpt>
      <trkpt lat="45.49079" lon="-73.54473">
        <ele>-19</ele>
        <time>2015-09-27T21:27:48.179Z</time>
      </trkpt>
      <trkpt lat="45.49074" lon="-73.54471">
        <ele>-19</ele>
        <time>2015-09-27T21:27:50.215Z</time>
      </trkpt>
      <trkpt lat="45.49069" lon="-73.54468">
        <ele>-19</ele>
        <time>2015-09-27T21:27:51.184Z</time>
      </trkpt>
      <trkpt lat="45.49061" lon="-73.54466">
        <ele>-19</ele>
        <time>2015-09-27T21:27:53.383Z</time>
      </trkpt>
      <trkpt lat="45.49056" lon="-73.54465">
        <ele>-20</ele>
        <time>2015-09-27T21:27:54.179Z</time>
      </trkpt>
      <trkpt lat="45.49048" lon="-73.54461">
        <ele>-20</ele>
        <time>2015-09-27T21:27:56.309Z</time>
      </trkpt>
      <trkpt lat="45.49044" lon="-73.5446">
        <ele>-19</ele>
        <time>2015-09-27T21:27:57.169Z</time>
      </trkpt>
      <trkpt lat="45.49037" lon="-73.54456">
        <ele>-18</ele>
        <time>2015-09-27T21:27:59.350Z</time>
      </trkpt>
      <trkpt lat="45.49034" lon="-73.54458">
        <ele>-16</ele>
        <time>2015-09-27T21:28:00.181Z</time>
      </trkpt>
      <trkpt lat="45.4903" lon="-73.54461">
        <ele>-15</ele>
        <time>2015-09-27T21:28:01.186Z</time>
      </trkpt>
      <trkpt lat="45.49026" lon="-73.54464">
        <ele>-13</ele>
        <time>2015-09-27T21:28:02.171Z</time>
      </trkpt>
      <trkpt lat="45.49027" lon="-73.54473">
        <ele>-14</ele>
        <time>2015-09-27T21:28:03.213Z</time>
      </trkpt>
      <trkpt lat="45.49024" lon="-73.54485">
        <ele>-14</ele>
        <time>2015-09-27T21:28:04.183Z</time>
      </trkpt>
      <trkpt lat="45.49022" lon="-73.54497">
        <ele>-13</ele>
        <time>2015-09-27T21:28:06.247Z</time>
      </trkpt>
      <trkpt lat="45.49021" lon="-73.54502">
        <ele>-13</ele>
        <time>2015-09-27T21:28:07.188Z</time>
      </trkpt>
      <trkpt lat="45.4902" lon="-73.54508">
        <ele>-17</ele>
        <time>2015-09-27T21:28:08.202Z</time>
      </trkpt>
      <trkpt lat="45.49019" lon="-73.54515">
        <ele>-16</ele>
        <time>2015-09-27T21:28:09.183Z</time>
      </trkpt>
      <trkpt lat="45.49016" lon="-73.54527">
        <ele>-17</ele>
        <time>2015-09-27T21:28:11.232Z</time>
      </trkpt>
      <trkpt lat="45.49015" lon="-73.54533">
        <ele>-14</ele>
        <time>2015-09-27T21:28:12.192Z</time>
      </trkpt>
      <trkpt lat="45.49013" lon="-73.54543">
        <ele>-17</ele>
        <time>2015-09-27T21:28:14.248Z</time>
      </trkpt>
      <trkpt lat="45.49012" lon="-73.54548">
        <ele>-16</ele>
        <time>2015-09-27T21:28:15.178Z</time>
      </trkpt>
      <trkpt lat="45.49008" lon="-73.54557">
        <ele>-16</ele>
        <time>2015-09-27T21:28:17.849Z</time>
      </trkpt>
      <trkpt lat="45.49005" lon="-73.5456">
        <ele>-16</ele>
        <time>2015-09-27T21:28:18.178Z</time>
      </trkpt>
      <trkpt lat="45.48997" lon="-73.54562">
        <ele>-18</ele>
        <time>2015-09-27T21:28:20.230Z</time>
      </trkpt>
      <trkpt lat="45.48993" lon="-73.54562">
        <ele>-20</ele>
        <time>2015-09-27T21:28:21.199Z</time>
      </trkpt>
      <trkpt lat="45.48985" lon="-73.54565">
        <ele>-21</ele>
        <time>2015-09-27T21:28:23.211Z</time>
      </trkpt>
      <trkpt lat="45.48982" lon="-73.54569">
        <ele>-20</ele>
        <time>2015-09-27T21:28:24.179Z</time>
      </trkpt>
      <trkpt lat="45.4898" lon="-73.54578">
        <ele>-22</ele>
        <time>2015-09-27T21:28:26.241Z</time>
      </trkpt>
      <trkpt lat="45.4898" lon="-73.54582">
        <ele>-20</ele>
        <time>2015-09-27T21:28:27.185Z</time>
      </trkpt>
      <trkpt lat="45.48981" lon="-73.54591">
        <ele>-19</ele>
        <time>2015-09-27T21:28:29.212Z</time>
      </trkpt>
      <trkpt lat="45.48982" lon="-73.54595">
        <ele>-19</ele>
        <time>2015-09-27T21:28:30.192Z</time>
      </trkpt>
      <trkpt lat="45.48977" lon="-73.54586">
        <ele>-13</ele>
        <time>2015-09-27T21:30:16.240Z</time>
      </trkpt>
      <trkpt lat="45.48977" lon="-73.54582">
        <ele>-13</ele>
        <time>2015-09-27T21:30:17.183Z</time>
      </trkpt>
      <trkpt lat="45.48978" lon="-73.54572">
        <ele>-14</ele>
        <time>2015-09-27T21:30:20.192Z</time>
      </trkpt>
      <trkpt lat="45.48978" lon="-73.54569">
        <ele>-14</ele>
        <time>2015-09-27T21:30:21.176Z</time>
      </trkpt>
      <trkpt lat="45.48986" lon="-73.54568">
        <ele>-14</ele>
        <time>2015-09-27T21:30:36.191Z</time>
      </trkpt>
      <trkpt lat="45.48987" lon="-73.54569">
        <ele>-15</ele>
        <time>2015-09-27T21:30:37.168Z</time>
      </trkpt>
      <trkpt lat="45.48982" lon="-73.54561">
        <ele>-14</ele>
        <time>2015-09-27T21:31:24.238Z</time>
      </trkpt>
      <trkpt lat="45.48981" lon="-73.54556">
        <ele>-13</ele>
        <time>2015-09-27T21:31:25.173Z</time>
      </trkpt>
      <trkpt lat="45.48979" lon="-73.54546">
        <ele>-11</ele>
        <time>2015-09-27T21:31:27.270Z</time>
      </trkpt>
      <trkpt lat="45.48979" lon="-73.54541">
        <ele>-12</ele>
        <time>2015-09-27T21:31:28.168Z</time>
      </trkpt>
      <trkpt lat="45.48977" lon="-73.54532">
        <ele>-12</ele>
        <time>2015-09-27T21:31:30.234Z</time>
      </trkpt>
      <trkpt lat="45.48976" lon="-73.54528">
        <ele>-13</ele>
        <time>2015-09-27T21:31:31.187Z</time>
      </trkpt>
      <trkpt lat="45.48974" lon="-73.54519">
        <ele>-15</ele>
        <time>2015-09-27T21:31:33.208Z</time>
      </trkpt>
      <trkpt lat="45.48973" lon="-73.54515">
        <ele>-14</ele>
        <time>2015-09-27T21:31:34.170Z</time>
      </trkpt>
      <trkpt lat="45.48972" lon="-73.54504">
        <ele>-15</ele>
        <time>2015-09-27T21:31:36.257Z</time>
      </trkpt>
      <trkpt lat="45.48971" lon="-73.54499">
        <ele>-15</ele>
        <time>2015-09-27T21:31:37.188Z</time>
      </trkpt>
      <trkpt lat="45.48969" lon="-73.54488">
        <ele>-14</ele>
        <time>2015-09-27T21:31:39.320Z</time>
      </trkpt>
      <trkpt lat="45.48968" lon="-73.54483">
        <ele>-15</ele>
        <time>2015-09-27T21:31:40.190Z</time>
      </trkpt>
      <trkpt lat="45.48967" lon="-73.54472">
        <ele>-15</ele>
        <time>2015-09-27T21:31:42.261Z</time>
      </trkpt>
      <trkpt lat="45.48966" lon="-73.54467">
        <ele>-16</ele>
        <time>2015-09-27T21:31:43.177Z</time>
      </trkpt>
      <trkpt lat="45.48967" lon="-73.54455">
        <ele>-15</ele>
        <time>2015-09-27T21:31:46.251Z</time>
      </trkpt>
      <trkpt lat="45.48968" lon="-73.54452">
        <ele>-15</ele>
        <time>2015-09-27T21:31:47.175Z</time>
      </trkpt>
      <trkpt lat="45.48971" lon="-73.54441">
        <ele>-16</ele>
        <time>2015-09-27T21:31:51.215Z</time>
      </trkpt>
      <trkpt lat="45.48972" lon="-73.54439">
        <ele>-16</ele>
        <time>2015-09-27T21:31:52.182Z</time>
      </trkpt>
      <trkpt lat="45.4897" lon="-73.54427">
        <ele>-16</ele>
        <time>2015-09-27T21:32:13.278Z</time>
      </trkpt>
      <trkpt lat="45.4897" lon="-73.54427">
        <ele>-16</ele>
        <time>2015-09-27T21:32:14.183Z</time>
      </trkpt>
      <trkpt lat="45.48962" lon="-73.54421">
        <ele>-15</ele>
        <time>2015-09-27T21:32:28.203Z</time>
      </trkpt>
      <trkpt lat="45.4896" lon="-73.5442">
        <ele>-16</ele>
        <time>2015-09-27T21:32:29.167Z</time>
      </trkpt>
      <trkpt lat="45.48953" lon="-73.54417">
        <ele>-15</ele>
        <time>2015-09-27T21:32:32.230Z</time>
      </trkpt>
      <trkpt lat="45.48951" lon="-73.54417">
        <ele>-16</ele>
        <time>2015-09-27T21:32:33.169Z</time>
      </trkpt>
      <trkpt lat="45.48944" lon="-73.54419">
        <ele>-19</ele>
        <time>2015-09-27T21:32:59.194Z</time>
      </trkpt>
      <trkpt lat="45.48942" lon="-73.5442">
        <ele>-19</ele>
        <time>2015-09-27T21:33:00.169Z</time>
      </trkpt>
      <trkpt lat="45.48935" lon="-73.54418">
        <ele>-16</ele>
        <time>2015-09-27T21:33:03.204Z</time>
      </trkpt>
      <trkpt lat="45.48932" lon="-73.54418">
        <ele>-16</ele>
        <time>2015-09-27T21:33:04.225Z</time>
      </trkpt>
      <trkpt lat="45.48925" lon="-73.54419">
        <ele>-15</ele>
        <time>2015-09-27T21:33:07.315Z</time>
      </trkpt>
      <trkpt lat="45.48923" lon="-73.54421">
        <ele>-14</ele>
        <time>2015-09-27T21:33:08.192Z</time>
      </trkpt>
      <trkpt lat="45.48919" lon="-73.54427">
        <ele>-14</ele>
        <time>2015-09-27T21:33:10.262Z</time>
      </trkpt>
      <trkpt lat="45.48917" lon="-73.5443">
        <ele>-13</ele>
        <time>2015-09-27T21:33:11.184Z</time>
      </trkpt>
      <trkpt lat="45.48911" lon="-73.54436">
        <ele>-13</ele>
        <time>2015-09-27T21:33:13.292Z</time>
      </trkpt>
      <trkpt lat="45.48908" lon="-73.54438">
        <ele>-13</ele>
        <time>2015-09-27T21:33:14.189Z</time>
      </trkpt>
      <trkpt lat="45.48901" lon="-73.5444">
        <ele>-14</ele>
        <time>2015-09-27T21:33:16.251Z</time>
      </trkpt>
      <trkpt lat="45.48898" lon="-73.54441">
        <ele>-14</ele>
        <time>2015-09-27T21:33:17.194Z</time>
      </trkpt>
      <trkpt lat="45.4889" lon="-73.54442">
        <ele>-15</ele>
        <time>2015-09-27T21:33:19.267Z</time>
      </trkpt>
      <trkpt lat="45.48887" lon="-73.54442">
        <ele>-18</ele>
        <time>2015-09-27T21:33:20.176Z</time>
      </trkpt>
      <trkpt lat="45.48878" lon="-73.54443">
        <ele>-16</ele>
        <time>2015-09-27T21:33:24.230Z</time>
      </trkpt>
      <trkpt lat="45.48878" lon="-73.54446">
        <ele>-16</ele>
        <time>2015-09-27T21:33:25.167Z</time>
      </trkpt>
      <trkpt lat="45.48883" lon="-73.54454">
        <ele>-18</ele>
        <time>2015-09-27T21:33:29.231Z</time>
      </trkpt>
      <trkpt lat="45.48884" lon="-73.54457">
        <ele>-17</ele>
        <time>2015-09-27T21:33:30.182Z</time>
      </trkpt>
      <trkpt lat="45.48888" lon="-73.54467">
        <ele>-17</ele>
        <time>2015-09-27T21:33:33.222Z</time>
      </trkpt>
      <trkpt lat="45.48888" lon="-73.54471">
        <ele>-18</ele>
        <time>2015-09-27T21:33:34.177Z</time>
      </trkpt>
      <trkpt lat="45.48891" lon="-73.54481">
        <ele>-16</ele>
        <time>2015-09-27T21:33:37.199Z</time>
      </trkpt>
      <trkpt lat="45.48892" lon="-73.54485">
        <ele>-16</ele>
        <time>2015-09-27T21:33:38.176Z</time>
      </trkpt>
      <trkpt lat="45.48894" lon="-73.54496">
        <ele>-16</ele>
        <time>2015-09-27T21:33:44.206Z</time>
      </trkpt>
      <trkpt lat="45.48895" lon="-73.54499">
        <ele>-16</ele>
        <time>2015-09-27T21:33:45.185Z</time>
      </trkpt>
      <trkpt lat="45.48897" lon="-73.54509">
        <ele>-15</ele>
        <time>2015-09-27T21:33:48.193Z</time>
      </trkpt>
      <trkpt lat="45.48898" lon="-73.54512">
        <ele>-14</ele>
        <time>2015-09-27T21:33:49.186Z</time>
      </trkpt>
      <trkpt lat="45.489" lon="-73.54523">
        <ele>-14</ele>
        <time>2015-09-27T21:33:52.231Z</time>
      </trkpt>
      <trkpt lat="45.48901" lon="-73.54527">
        <ele>-14</ele>
        <time>2015-09-27T21:33:53.181Z</time>
      </trkpt>
      <trkpt lat="45.48903" lon="-73.54538">
        <ele>-13</ele>
        <time>2015-09-27T21:33:57.231Z</time>
      </trkpt>
      <trkpt lat="45.48904" lon="-73.5454">
        <ele>-13</ele>
        <time>2015-09-27T21:33:58.169Z</time>
      </trkpt>
      <trkpt lat="45.48906" lon="-73.5455">
        <ele>-14</ele>
        <time>2015-09-27T21:34:03.193Z</time>
      </trkpt>
      <trkpt lat="45.48907" lon="-73.54552">
        <ele>-14</ele>
        <time>2015-09-27T21:34:04.189Z</time>
      </trkpt>
      <trkpt lat="45.48911" lon="-73.54561">
        <ele>-15</ele>
        <time>2015-09-27T21:34:07.308Z</time>
      </trkpt>
      <trkpt lat="45.48912" lon="-73.54565">
        <ele>-15</ele>
        <time>2015-09-27T21:34:08.235Z</time>
      </trkpt>
      <trkpt lat="45.48915" lon="-73.54577">
        <ele>-16</ele>
        <time>2015-09-27T21:34:11.240Z</time>
      </trkpt>
      <trkpt lat="45.48916" lon="-73.54581">
        <ele>-18</ele>
        <time>2015-09-27T21:34:12.180Z</time>
      </trkpt>
      <trkpt lat="45.48916" lon="-73.54581">
        <ele>-18</ele>
        <time>2015-09-27T21:34:12.209Z</time>
      </trkpt>
      <trkpt lat="45.48936" lon="-73.54654">
        <ele>-20</ele>
        <time>2015-09-27T21:34:29.178Z</time>
      </trkpt>
      <trkpt lat="45.48928" lon="-73.54659">
        <ele>-17</ele>
        <time>2015-09-27T21:34:42.236Z</time>
      </trkpt>
      <trkpt lat="45.48929" lon="-73.54662">
        <ele>-17</ele>
        <time>2015-09-27T21:34:43.216Z</time>
      </trkpt>
      <trkpt lat="45.48928" lon="-73.54674">
        <ele>-16</ele>
        <time>2015-09-27T21:34:47.265Z</time>
      </trkpt>
      <trkpt lat="45.48927" lon="-73.54676">
        <ele>-16</ele>
        <time>2015-09-27T21:34:48.189Z</time>
      </trkpt>
      <trkpt lat="45.48921" lon="-73.54686">
        <ele>-17</ele>
        <time>2015-09-27T21:34:51.262Z</time>
      </trkpt>
      <trkpt lat="45.48919" lon="-73.54689">
        <ele>-17</ele>
        <time>2015-09-27T21:34:52.182Z</time>
      </trkpt>
      <trkpt lat="45.48915" lon="-73.547">
        <ele>-15</ele>
        <time>2015-09-27T21:34:55.212Z</time>
      </trkpt>
      <trkpt lat="45.48916" lon="-73.54704">
        <ele>-15</ele>
        <time>2015-09-27T21:34:56.190Z</time>
      </trkpt>
      <trkpt lat="45.48919" lon="-73.54711">
        <ele>-16</ele>
        <time>2015-09-27T21:34:58.307Z</time>
      </trkpt>
      <trkpt lat="45.48921" lon="-73.54715">
        <ele>-16</ele>
        <time>2015-09-27T21:34:59.190Z</time>
      </trkpt>
      <trkpt lat="45.48925" lon="-73.54722">
        <ele>-17</ele>
        <time>2015-09-27T21:35:01.215Z</time>
      </trkpt>
      <trkpt lat="45.48927" lon="-73.54726">
        <ele>-17</ele>
        <time>2015-09-27T21:35:02.182Z</time>
      </trkpt>
      <trkpt lat="45.48931" lon="-73.54733">
        <ele>-17</ele>
        <time>2015-09-27T21:35:04.232Z</time>
      </trkpt>
      <trkpt lat="45.48933" lon="-73.54737">
        <ele>-17</ele>
        <time>2015-09-27T21:35:05.186Z</time>
      </trkpt>
      <trkpt lat="45.48936" lon="-73.54745">
        <ele>-18</ele>
        <time>2015-09-27T21:35:07.242Z</time>
      </trkpt>
      <trkpt lat="45.48938" lon="-73.5475">
        <ele>-18</ele>
        <time>2015-09-27T21:35:08.183Z</time>
      </trkpt>
      <trkpt lat="45.4894" lon="-73.54759">
        <ele>-19</ele>
        <time>2015-09-27T21:35:10.234Z</time>
      </trkpt>
      <trkpt lat="45.48942" lon="-73.54763">
        <ele>-20</ele>
        <time>2015-09-27T21:35:11.167Z</time>
      </trkpt>
      <trkpt lat="45.48945" lon="-73.54772">
        <ele>-21</ele>
        <time>2015-09-27T21:35:13.270Z</time>
      </trkpt>
      <trkpt lat="45.48946" lon="-73.54777">
        <ele>-21</ele>
        <time>2015-09-27T21:35:14.193Z</time>
      </trkpt>
      <trkpt lat="45.48949" lon="-73.54786">
        <ele>-21</ele>
        <time>2015-09-27T21:35:16.205Z</time>
      </trkpt>
      <trkpt lat="45.4895" lon="-73.5479">
        <ele>-21</ele>
        <time>2015-09-27T21:35:17.197Z</time>
      </trkpt>
      <trkpt lat="45.48951" lon="-73.548">
        <ele>-20</ele>
        <time>2015-09-27T21:35:19.244Z</time>
      </trkpt>
      <trkpt lat="45.48952" lon="-73.54805">
        <ele>-20</ele>
        <time>2015-09-27T21:35:20.179Z</time>
      </trkpt>
      <trkpt lat="45.48953" lon="-73.54817">
        <ele>-18</ele>
        <time>2015-09-27T21:35:22.259Z</time>
      </trkpt>
      <trkpt lat="45.48954" lon="-73.54823">
        <ele>-19</ele>
        <time>2015-09-27T21:35:23.188Z</time>
      </trkpt>
      <trkpt lat="45.48956" lon="-73.54834">
        <ele>-19</ele>
        <time>2015-09-27T21:35:25.241Z</time>
      </trkpt>
      <trkpt lat="45.48957" lon="-73.5484">
        <ele>-19</ele>
        <time>2015-09-27T21:35:26.192Z</time>
      </trkpt>
      <trkpt lat="45.4896" lon="-73.5485">
        <ele>-19</ele>
        <time>2015-09-27T21:35:28.237Z</time>
      </trkpt>
      <trkpt lat="45.48961" lon="-73.54855">
        <ele>-18</ele>
        <time>2015-09-27T21:35:29.185Z</time>
      </trkpt>
      <trkpt lat="45.48963" lon="-73.54865">
        <ele>-19</ele>
        <time>2015-09-27T21:35:31.216Z</time>
      </trkpt>
      <trkpt lat="45.48964" lon="-73.5487">
        <ele>-19</ele>
        <time>2015-09-27T21:35:32.166Z</time>
      </trkpt>
      <trkpt lat="45.48966" lon="-73.54879">
        <ele>-18</ele>
        <time>2015-09-27T21:35:34.222Z</time>
      </trkpt>
      <trkpt lat="45.48967" lon="-73.54884">
        <ele>-18</ele>
        <time>2015-09-27T21:35:35.173Z</time>
      </trkpt>
      <trkpt lat="45.48971" lon="-73.54893">
        <ele>-19</ele>
        <time>2015-09-27T21:35:38.238Z</time>
      </trkpt>
      <trkpt lat="45.48972" lon="-73.54897">
        <ele>-18</ele>
        <time>2015-09-27T21:35:39.171Z</time>
      </trkpt>
      <trkpt lat="45.48978" lon="-73.54905">
        <ele>-19</ele>
        <time>2015-09-27T21:35:42.242Z</time>
      </trkpt>
      <trkpt lat="45.4898" lon="-73.54908">
        <ele>-18</ele>
        <time>2015-09-27T21:35:43.178Z</time>
      </trkpt>
      <trkpt lat="45.48987" lon="-73.5491">
        <ele>-18</ele>
        <time>2015-09-27T21:35:46.158Z</time>
      </trkpt>
      <trkpt lat="45.48991" lon="-73.54911">
        <ele>-17</ele>
        <time>2015-09-27T21:35:46.224Z</time>
      </trkpt>
      <trkpt lat="45.48999" lon="-73.54909">
        <ele>-17</ele>
        <time>2015-09-27T21:35:48.216Z</time>
      </trkpt>
      <trkpt lat="45.49002" lon="-73.54909">
        <ele>-16</ele>
        <time>2015-09-27T21:35:49.187Z</time>
      </trkpt>
      <trkpt lat="45.49008" lon="-73.54916">
        <ele>-18</ele>
        <time>2015-09-27T21:35:53.243Z</time>
      </trkpt>
      <trkpt lat="45.4901" lon="-73.54921">
        <ele>-19</ele>
        <time>2015-09-27T21:35:54.189Z</time>
      </trkpt>
      <trkpt lat="45.49015" lon="-73.54931">
        <ele>-16</ele>
        <time>2015-09-27T21:35:56.258Z</time>
      </trkpt>
      <trkpt lat="45.49047" lon="-73.55159">
        <ele>-25</ele>
        <time>2015-09-27T21:37:13.185Z</time>
      </trkpt>
      <trkpt lat="45.49048" lon="-73.55166">
        <ele>-28</ele>
        <time>2015-09-27T21:37:14.505Z</time>
      </trkpt>
      <trkpt lat="45.4905" lon="-73.55174">
        <ele>-32</ele>
        <time>2015-09-27T21:37:15.186Z</time>
      </trkpt>
      <trkpt lat="45.4905" lon="-73.55174">
        <ele>-32</ele>
        <time>2015-09-27T21:37:15.266Z</time>
      </trkpt>
      <trkpt lat="45.49073" lon="-73.55191">
        <ele>-31</ele>
        <time>2015-09-27T21:37:16.186Z</time>
      </trkpt>
      <trkpt lat="45.49074" lon="-73.55203">
        <ele>-30</ele>
        <time>2015-09-27T21:37:18.249Z</time>
      </trkpt>
      <trkpt lat="45.49073" lon="-73.55211">
        <ele>-26</ele>
        <time>2015-09-27T21:37:19.189Z</time>
      </trkpt>
      <trkpt lat="45.49072" lon="-73.55218">
        <ele>-23</ele>
        <time>2015-09-27T21:37:20.240Z</time>
      </trkpt>
      <trkpt lat="45.49072" lon="-73.55224">
        <ele>-19</ele>
        <time>2015-09-27T21:37:21.188Z</time>
      </trkpt>
      <trkpt lat="45.49076" lon="-73.55234">
        <ele>-21</ele>
        <time>2015-09-27T21:37:23.258Z</time>
      </trkpt>
      <trkpt lat="45.49078" lon="-73.55238">
        <ele>-21</ele>
        <time>2015-09-27T21:37:24.183Z</time>
      </trkpt>
      <trkpt lat="45.49085" lon="-73.55245">
        <ele>-23</ele>
        <time>2015-09-27T21:37:26.230Z</time>
      </trkpt>
      <trkpt lat="45.49089" lon="-73.55245">
        <ele>-24</ele>
        <time>2015-09-27T21:37:27.170Z</time>
      </trkpt>
      <trkpt lat="45.49097" lon="-73.55244">
        <ele>-25</ele>
        <time>2015-09-27T21:37:29.200Z</time>
      </trkpt>
      <trkpt lat="45.49157" lon="-73.55215">
        <ele>-30</ele>
        <time>2015-09-27T21:37:46.191Z</time>
      </trkpt>
      <trkpt lat="45.49161" lon="-73.55225">
        <ele>-29</ele>
        <time>2015-09-27T21:37:47.253Z</time>
      </trkpt>
      <trkpt lat="45.49169" lon="-73.55224">
        <ele>-30</ele>
        <time>2015-09-27T21:37:48.242Z</time>
      </trkpt>
      <trkpt lat="45.49169" lon="-73.55224">
        <ele>-30</ele>
        <time>2015-09-27T21:37:48.259Z</time>
      </trkpt>
      <trkpt lat="45.49177" lon="-73.55213">
        <ele>-33</ele>
        <time>2015-09-27T21:37:49.183Z</time>
      </trkpt>
      <trkpt lat="45.49185" lon="-73.55217">
        <ele>-28</ele>
        <time>2015-09-27T21:37:51.246Z</time>
      </trkpt>
      <trkpt lat="45.4919" lon="-73.55219">
        <ele>-27</ele>
        <time>2015-09-27T21:37:52.179Z</time>
      </trkpt>
      <trkpt lat="45.49196" lon="-73.55218">
        <ele>-22</ele>
        <time>2015-09-27T21:37:54.214Z</time>
      </trkpt>
      <trkpt lat="45.492" lon="-73.55218">
        <ele>-20</ele>
        <time>2015-09-27T21:37:55.178Z</time>
      </trkpt>
      <trkpt lat="45.49208" lon="-73.55215">
        <ele>-19</ele>
        <time>2015-09-27T21:37:57.217Z</time>
      </trkpt>
      <trkpt lat="45.49213" lon="-73.55215">
        <ele>-20</ele>
        <time>2015-09-27T21:37:58.252Z</time>
      </trkpt>
      <trkpt lat="45.49218" lon="-73.55214">
        <ele>-18</ele>
        <time>2015-09-27T21:37:59.210Z</time>
      </trkpt>
      <trkpt lat="45.49224" lon="-73.55215">
        <ele>-17</ele>
        <time>2015-09-27T21:38:00.178Z</time>
      </trkpt>
      <trkpt lat="45.49228" lon="-73.55214">
        <ele>-16</ele>
        <time>2015-09-27T21:38:01.227Z</time>
      </trkpt>
      <trkpt lat="45.49234" lon="-73.55212">
        <ele>-14</ele>
        <time>2015-09-27T21:38:02.167Z</time>
      </trkpt>
      <trkpt lat="45.49242" lon="-73.55211">
        <ele>-16</ele>
        <time>2015-09-27T21:38:04.246Z</time>
      </trkpt>
      <trkpt lat="45.49245" lon="-73.55209">
        <ele>-15</ele>
        <time>2015-09-27T21:38:05.190Z</time>
      </trkpt>
      <trkpt lat="45.49253" lon="-73.55209">
        <ele>-17</ele>
        <time>2015-09-27T21:38:07.264Z</time>
      </trkpt>
      <trkpt lat="45.4926" lon="-73.55208">
        <ele>-16</ele>
        <time>2015-09-27T21:38:08.183Z</time>
      </trkpt>
      <trkpt lat="45.49265" lon="-73.55208">
        <ele>-14</ele>
        <time>2015-09-27T21:38:09.208Z</time>
      </trkpt>
      <trkpt lat="45.49269" lon="-73.55207">
        <ele>-14</ele>
        <time>2015-09-27T21:38:10.178Z</time>
      </trkpt>
      <trkpt lat="45.49273" lon="-73.55205">
        <ele>-15</ele>
        <time>2015-09-27T21:38:11.230Z</time>
      </trkpt>
      <trkpt lat="45.49278" lon="-73.55203">
        <ele>-16</ele>
        <time>2015-09-27T21:38:12.176Z</time>
      </trkpt>
      <trkpt lat="45.49286" lon="-73.55201">
        <ele>-16</ele>
        <time>2015-09-27T21:38:14.871Z</time>
      </trkpt>
      <trkpt lat="45.49313" lon="-73.55209">
        <ele>-15</ele>
        <time>2015-09-27T21:38:22.191Z</time>
      </trkpt>
      <trkpt lat="45.49321" lon="-73.55211">
        <ele>-15</ele>
        <time>2015-09-27T21:38:24.188Z</time>
      </trkpt>
      <trkpt lat="45.49325" lon="-73.55211">
        <ele>-15</ele>
        <time>2015-09-27T21:38:25.170Z</time>
      </trkpt>
      <trkpt lat="45.49332" lon="-73.55206">
        <ele>-15</ele>
        <time>2015-09-27T21:38:27.225Z</time>
      </trkpt>
      <trkpt lat="45.49335" lon="-73.55203">
        <ele>-14</ele>
        <time>2015-09-27T21:38:28.169Z</time>
      </trkpt>
      <trkpt lat="45.49342" lon="-73.55197">
        <ele>-11</ele>
        <time>2015-09-27T21:38:30.231Z</time>
      </trkpt>
      <trkpt lat="45.49346" lon="-73.55195">
        <ele>-13</ele>
        <time>2015-09-27T21:38:31.177Z</time>
      </trkpt>
      <trkpt lat="45.49354" lon="-73.55191">
        <ele>-14</ele>
        <time>2015-09-27T21:38:34.237Z</time>
      </trkpt>
      <trkpt lat="45.49356" lon="-73.5519">
        <ele>-13</ele>
        <time>2015-09-27T21:38:35.178Z</time>
      </trkpt>
      <trkpt lat="45.49364" lon="-73.55189">
        <ele>-9</ele>
        <time>2015-09-27T21:38:38.339Z</time>
      </trkpt>
      <trkpt lat="45.49366" lon="-73.55189">
        <ele>-9</ele>
        <time>2015-09-27T21:38:39.177Z</time>
      </trkpt>
      <trkpt lat="45.49373" lon="-73.55187">
        <ele>-8</ele>
        <time>2015-09-27T21:38:42.214Z</time>
      </trkpt>
      <trkpt lat="45.49376" lon="-73.55187">
        <ele>-8</ele>
        <time>2015-09-27T21:38:43.189Z</time>
      </trkpt>
      <trkpt lat="45.49381" lon="-73.55187">
        <ele>-9</ele>
        <time>2015-09-27T21:38:44.236Z</time>
      </trkpt>
      <trkpt lat="45.49386" lon="-73.55185">
        <ele>-9</ele>
        <time>2015-09-27T21:38:45.183Z</time>
      </trkpt>
      <trkpt lat="45.49386" lon="-73.55185">
        <ele>-9</ele>
        <time>2015-09-27T21:38:45.259Z</time>
      </trkpt>
      <trkpt lat="45.49395" lon="-73.55184">
        <ele>-8</ele>
        <time>2015-09-27T21:38:46.187Z</time>
      </trkpt>
      <trkpt lat="45.49399" lon="-73.55185">
        <ele>-9</ele>
        <time>2015-09-27T21:38:47.247Z</time>
      </trkpt>
      <trkpt lat="45.49405" lon="-73.55182">
        <ele>-4</ele>
        <time>2015-09-27T21:38:48.175Z</time>
      </trkpt>
      <trkpt lat="45.4941" lon="-73.55182">
        <ele>-4</ele>
        <time>2015-09-27T21:38:49.224Z</time>
      </trkpt>
      <trkpt lat="45.49415" lon="-73.5518">
        <ele>-5</ele>
        <time>2015-09-27T21:38:50.183Z</time>
      </trkpt>
      <trkpt lat="45.4942" lon="-73.5518">
        <ele>-5</ele>
        <time>2015-09-27T21:38:51.228Z</time>
      </trkpt>
      <trkpt lat="45.49428" lon="-73.55181">
        <ele>-6</ele>
        <time>2015-09-27T21:38:52.184Z</time>
      </trkpt>
      <trkpt lat="45.49432" lon="-73.55186">
        <ele>-10</ele>
        <time>2015-09-27T21:38:53.197Z</time>
      </trkpt>
      <trkpt lat="45.49437" lon="-73.55186">
        <ele>-9</ele>
        <time>2015-09-27T21:38:54.182Z</time>
      </trkpt>
      <trkpt lat="45.49444" lon="-73.55181">
        <ele>-10</ele>
        <time>2015-09-27T21:38:55.195Z</time>
      </trkpt>
      <trkpt lat="45.49451" lon="-73.55174">
        <ele>-10</ele>
        <time>2015-09-27T21:38:56.176Z</time>
      </trkpt>
      <trkpt lat="45.49456" lon="-73.55173">
        <ele>-10</ele>
        <time>2015-09-27T21:38:57.237Z</time>
      </trkpt>
      <trkpt lat="45.49462" lon="-73.55171">
        <ele>-10</ele>
        <time>2015-09-27T21:38:58.183Z</time>
      </trkpt>
      <trkpt lat="45.49467" lon="-73.5517">
        <ele>-10</ele>
        <time>2015-09-27T21:38:59.244Z</time>
      </trkpt>
      <trkpt lat="45.49472" lon="-73.55169">
        <ele>-10</ele>
        <time>2015-09-27T21:39:00.174Z</time>
      </trkpt>
      <trkpt lat="45.49481" lon="-73.55165">
        <ele>-12</ele>
        <time>2015-09-27T21:39:02.185Z</time>
      </trkpt>
      <trkpt lat="45.49483" lon="-73.55162">
        <ele>-13</ele>
        <time>2015-09-27T21:39:03.175Z</time>
      </trkpt>
      <trkpt lat="45.49491" lon="-73.55159">
        <ele>-12</ele>
        <time>2015-09-27T21:39:05.213Z</time>
      </trkpt>
      <trkpt lat="45.49495" lon="-73.55157">
        <ele>-14</ele>
        <time>2015-09-27T21:39:06.178Z</time>
      </trkpt>
      <trkpt lat="45.49499" lon="-73.5516">
        <ele>-16</ele>
        <time>2015-09-27T21:39:07.223Z</time>
      </trkpt>
      <trkpt lat="45.49503" lon="-73.55162">
        <ele>-16</ele>
        <time>2015-09-27T21:39:08.184Z</time>
      </trkpt>
      <trkpt lat="45.49509" lon="-73.55159">
        <ele>-16</ele>
        <time>2015-09-27T21:39:09.196Z</time>
      </trkpt>
      <trkpt lat="45.49515" lon="-73.55158">
        <ele>-16</ele>
        <time>2015-09-27T21:39:10.179Z</time>
      </trkpt>
      <trkpt lat="45.49521" lon="-73.55156">
        <ele>-17</ele>
        <time>2015-09-27T21:39:12.195Z</time>
      </trkpt>
      <trkpt lat="45.49525" lon="-73.55156">
        <ele>-18</ele>
        <time>2015-09-27T21:39:13.185Z</time>
      </trkpt>
      <trkpt lat="45.49528" lon="-73.55158">
        <ele>-20</ele>
        <time>2015-09-27T21:39:14.239Z</time>
      </trkpt>
      <trkpt lat="45.49534" lon="-73.55159">
        <ele>-20</ele>
        <time>2015-09-27T21:39:15.238Z</time>
      </trkpt>
      <trkpt lat="45.49542" lon="-73.55153">
        <ele>-22</ele>
        <time>2015-09-27T21:39:17.212Z</time>
      </trkpt>
      <trkpt lat="45.49546" lon="-73.55153">
        <ele>-22</ele>
        <time>2015-09-27T21:39:18.181Z</time>
      </trkpt>
      <trkpt lat="45.49552" lon="-73.55154">
        <ele>-24</ele>
        <time>2015-09-27T21:39:20.197Z</time>
      </trkpt>
      <trkpt lat="45.49556" lon="-73.55153">
        <ele>-25</ele>
        <time>2015-09-27T21:39:21.176Z</time>
      </trkpt>
      <trkpt lat="45.49559" lon="-73.55153">
        <ele>-25</ele>
        <time>2015-09-27T21:39:22.298Z</time>
      </trkpt>
      <trkpt lat="45.49566" lon="-73.55152">
        <ele>-25</ele>
        <time>2015-09-27T21:39:24.181Z</time>
      </trkpt>
      <trkpt lat="45.49572" lon="-73.55147">
        <ele>-24</ele>
        <time>2015-09-27T21:39:26.205Z</time>
      </trkpt>
      <trkpt lat="45.49574" lon="-73.55142">
        <ele>-23</ele>
        <time>2015-09-27T21:39:27.178Z</time>
      </trkpt>
      <trkpt lat="45.49573" lon="-73.55131">
        <ele>-21</ele>
        <time>2015-09-27T21:39:30.207Z</time>
      </trkpt>
      <trkpt lat="45.49572" lon="-73.55129">
        <ele>-22</ele>
        <time>2015-09-27T21:39:31.175Z</time>
      </trkpt>
      <trkpt lat="45.49569" lon="-73.55116">
        <ele>-28</ele>
        <time>2015-09-27T21:39:36.253Z</time>
      </trkpt>
      <trkpt lat="45.49569" lon="-73.55113">
        <ele>-26</ele>
        <time>2015-09-27T21:39:37.177Z</time>
      </trkpt>
      <trkpt lat="45.49563" lon="-73.55105">
        <ele>-26</ele>
        <time>2015-09-27T21:39:40.252Z</time>
      </trkpt>
      <trkpt lat="45.49561" lon="-73.55104">
        <ele>-28</ele>
        <time>2015-09-27T21:39:41.183Z</time>
      </trkpt>
      <trkpt lat="45.49557" lon="-73.55114">
        <ele>-27</ele>
        <time>2015-09-27T21:39:44.274Z</time>
      </trkpt>
      <trkpt lat="45.49558" lon="-73.55119">
        <ele>-27</ele>
        <time>2015-09-27T21:39:45.178Z</time>
      </trkpt>
      <trkpt lat="45.4956" lon="-73.55127">
        <ele>-26</ele>
        <time>2015-09-27T21:39:47.216Z</time>
      </trkpt>
      <trkpt lat="45.49562" lon="-73.55131">
        <ele>-25</ele>
        <time>2015-09-27T21:39:48.202Z</time>
      </trkpt>
      <trkpt lat="45.49566" lon="-73.55141">
        <ele>-23</ele>
        <time>2015-09-27T21:39:51.233Z</time>
      </trkpt>
      <trkpt lat="45.49567" lon="-73.55145">
        <ele>-23</ele>
        <time>2015-09-27T21:39:52.192Z</time>
      </trkpt>
      <trkpt lat="45.4957" lon="-73.55155">
        <ele>-21</ele>
        <time>2015-09-27T21:39:55.189Z</time>
      </trkpt>
      <trkpt lat="45.49571" lon="-73.55158">
        <ele>-20</ele>
        <time>2015-09-27T21:39:56.200Z</time>
      </trkpt>
      <trkpt lat="45.49575" lon="-73.55166">
        <ele>-21</ele>
        <time>2015-09-27T21:39:59.229Z</time>
      </trkpt>
      <trkpt lat="45.49577" lon="-73.55168">
        <ele>-22</ele>
        <time>2015-09-27T21:40:00.186Z</time>
      </trkpt>
      <trkpt lat="45.49582" lon="-73.55176">
        <ele>-22</ele>
        <time>2015-09-27T21:40:03.545Z</time>
      </trkpt>
      <trkpt lat="45.49584" lon="-73.5518">
        <ele>-21</ele>
        <time>2015-09-27T21:40:04.171Z</time>
      </trkpt>
      <trkpt lat="45.49588" lon="-73.55188">
        <ele>-19</ele>
        <time>2015-09-27T21:40:06.224Z</time>
      </trkpt>
      <trkpt lat="45.4959" lon="-73.55193">
        <ele>-19</ele>
        <time>2015-09-27T21:40:07.192Z</time>
      </trkpt>
      <trkpt lat="45.49595" lon="-73.552">
        <ele>-18</ele>
        <time>2015-09-27T21:40:09.242Z</time>
      </trkpt>
      <trkpt lat="45.49598" lon="-73.55203">
        <ele>-18</ele>
        <time>2015-09-27T21:40:10.191Z</time>
      </trkpt>
      <trkpt lat="45.49603" lon="-73.5521">
        <ele>-19</ele>
        <time>2015-09-27T21:40:12.236Z</time>
      </trkpt>
      <trkpt lat="45.49606" lon="-73.55214">
        <ele>-19</ele>
        <time>2015-09-27T21:40:13.193Z</time>
      </trkpt>
      <trkpt lat="45.4961" lon="-73.55223">
        <ele>-20</ele>
        <time>2015-09-27T21:40:15.260Z</time>
      </trkpt>
      <trkpt lat="45.49612" lon="-73.55227">
        <ele>-19</ele>
        <time>2015-09-27T21:40:16.169Z</time>
      </trkpt>
      <trkpt lat="45.49617" lon="-73.55237">
        <ele>-20</ele>
        <time>2015-09-27T21:40:18.628Z</time>
      </trkpt>
      <trkpt lat="45.49619" lon="-73.55242">
        <ele>-20</ele>
        <time>2015-09-27T21:40:19.213Z</time>
      </trkpt>
      <trkpt lat="45.49623" lon="-73.55253">
        <ele>-20</ele>
        <time>2015-09-27T21:40:21.189Z</time>
      </trkpt>
      <trkpt lat="45.49626" lon="-73.55259">
        <ele>-22</ele>
        <time>2015-09-27T21:40:22.190Z</time>
      </trkpt>
      <trkpt lat="45.4963" lon="-73.55265">
        <ele>-22</ele>
        <time>2015-09-27T21:40:23.638Z</time>
      </trkpt>
      <trkpt lat="45.49633" lon="-73.55267">
        <ele>-22</ele>
        <time>2015-09-27T21:40:24.168Z</time>
      </trkpt>
      <trkpt lat="45.49639" lon="-73.5527">
        <ele>-23</ele>
        <time>2015-09-27T21:40:26.205Z</time>
      </trkpt>
      <trkpt lat="45.49647" lon="-73.55268">
        <ele>-23</ele>
        <time>2015-09-27T21:40:27.178Z</time>
      </trkpt>
      <trkpt lat="45.49653" lon="-73.55276">
        <ele>-22</ele>
        <time>2015-09-27T21:40:29.204Z</time>
      </trkpt>
      <trkpt lat="45.49656" lon="-73.5528">
        <ele>-24</ele>
        <time>2015-09-27T21:40:30.174Z</time>
      </trkpt>
      <trkpt lat="45.49665" lon="-73.55279">
        <ele>-23</ele>
        <time>2015-09-27T21:40:32.204Z</time>
      </trkpt>
      <trkpt lat="45.49668" lon="-73.55279">
        <ele>-23</ele>
        <time>2015-09-27T21:40:33.172Z</time>
      </trkpt>
      <trkpt lat="45.49676" lon="-73.55279">
        <ele>-22</ele>
        <time>2015-09-27T21:40:35.192Z</time>
      </trkpt>
      <trkpt lat="45.4968" lon="-73.5528">
        <ele>-21</ele>
        <time>2015-09-27T21:40:36.181Z</time>
      </trkpt>
      <trkpt lat="45.49687" lon="-73.5528">
        <ele>-20</ele>
        <time>2015-09-27T21:40:38.238Z</time>
      </trkpt>
      <trkpt lat="45.49691" lon="-73.5528">
        <ele>-20</ele>
        <time>2015-09-27T21:40:39.180Z</time>
      </trkpt>
      <trkpt lat="45.49696" lon="-73.5528">
        <ele>-17</ele>
        <time>2015-09-27T21:40:40.228Z</time>
      </trkpt>
      <trkpt lat="45.49702" lon="-73.55284">
        <ele>-16</ele>
        <time>2015-09-27T21:40:41.220Z</time>
      </trkpt>
      <trkpt lat="45.49708" lon="-73.55283">
        <ele>-15</ele>
        <time>2015-09-27T21:40:42.240Z</time>
      </trkpt>
      <trkpt lat="45.49713" lon="-73.55284">
        <ele>-14</ele>
        <time>2015-09-27T21:40:43.180Z</time>
      </trkpt>
      <trkpt lat="45.49717" lon="-73.55286">
        <ele>-14</ele>
        <time>2015-09-27T21:40:44.258Z</time>
      </trkpt>
      <trkpt lat="45.49722" lon="-73.55285">
        <ele>-13</ele>
        <time>2015-09-27T21:40:45.177Z</time>
      </trkpt>
      <trkpt lat="45.49727" lon="-73.55285">
        <ele>-11</ele>
        <time>2015-09-27T21:40:46.209Z</time>
      </trkpt>
      <trkpt lat="45.49732" lon="-73.55285">
        <ele>-12</ele>
        <time>2015-09-27T21:40:47.179Z</time>
      </trkpt>
      <trkpt lat="45.49736" lon="-73.55285">
        <ele>-13</ele>
        <time>2015-09-27T21:40:48.214Z</time>
      </trkpt>
      <trkpt lat="45.49741" lon="-73.55284">
        <ele>-14</ele>
        <time>2015-09-27T21:40:49.184Z</time>
      </trkpt>
      <trkpt lat="45.4975" lon="-73.55281">
        <ele>-14</ele>
        <time>2015-09-27T21:40:51.254Z</time>
      </trkpt>
      <trkpt lat="45.49754" lon="-73.55284">
        <ele>-15</ele>
        <time>2015-09-27T21:40:52.183Z</time>
      </trkpt>
      <trkpt lat="45.49759" lon="-73.55283">
        <ele>-14</ele>
        <time>2015-09-27T21:40:53.195Z</time>
      </trkpt>
      <trkpt lat="45.49764" lon="-73.55283">
        <ele>-14</ele>
        <time>2015-09-27T21:40:54.177Z</time>
      </trkpt>
      <trkpt lat="45.4977" lon="-73.55283">
        <ele>-12</ele>
        <time>2015-09-27T21:40:55.208Z</time>
      </trkpt>
      <trkpt lat="45.49774" lon="-73.55282">
        <ele>-13</ele>
        <time>2015-09-27T21:40:56.177Z</time>
      </trkpt>
      <trkpt lat="45.4978" lon="-73.55279">
        <ele>-12</ele>
        <time>2015-09-27T21:40:57.253Z</time>
      </trkpt>
      <trkpt lat="45.49785" lon="-73.55283">
        <ele>-11</ele>
        <time>2015-09-27T21:40:58.183Z</time>
      </trkpt>
      <trkpt lat="45.49789" lon="-73.55284">
        <ele>-10</ele>
        <time>2015-09-27T21:40:59.191Z</time>
      </trkpt>
      <trkpt lat="45.49794" lon="-73.55283">
        <ele>-9</ele>
        <time>2015-09-27T21:41:00.177Z</time>
      </trkpt>
      <trkpt lat="45.498" lon="-73.55282">
        <ele>-8</ele>
        <time>2015-09-27T21:41:01.266Z</time>
      </trkpt>
      <trkpt lat="45.49804" lon="-73.55281">
        <ele>-6</ele>
        <time>2015-09-27T21:41:02.213Z</time>
      </trkpt>
      <trkpt lat="45.49808" lon="-73.55279">
        <ele>-8</ele>
        <time>2015-09-27T21:41:03.258Z</time>
      </trkpt>
      <trkpt lat="45.49813" lon="-73.55278">
        <ele>-8</ele>
        <time>2015-09-27T21:41:04.184Z</time>
      </trkpt>
      <trkpt lat="45.49818" lon="-73.55278">
        <ele>-9</ele>
        <time>2015-09-27T21:41:05.258Z</time>
      </trkpt>
      <trkpt lat="45.49823" lon="-73.55274">
        <ele>-6</ele>
        <time>2015-09-27T21:41:06.218Z</time>
      </trkpt>
      <trkpt lat="45.4983" lon="-73.55275">
        <ele>-6</ele>
        <time>2015-09-27T21:41:08.239Z</time>
      </trkpt>
      <trkpt lat="45.49834" lon="-73.55276">
        <ele>-7</ele>
        <time>2015-09-27T21:41:09.172Z</time>
      </trkpt>
      <trkpt lat="45.49842" lon="-73.55276">
        <ele>-7</ele>
        <time>2015-09-27T21:41:12.212Z</time>
      </trkpt>
      <trkpt lat="45.49845" lon="-73.55278">
        <ele>-9</ele>
        <time>2015-09-27T21:41:13.177Z</time>
      </trkpt>
      <trkpt lat="45.49852" lon="-73.55277">
        <ele>-6</ele>
        <time>2015-09-27T21:41:18.274Z</time>
      </trkpt>
      <trkpt lat="45.49854" lon="-73.55276">
        <ele>-6</ele>
        <time>2015-09-27T21:41:19.184Z</time>
      </trkpt>
      <trkpt lat="45.49862" lon="-73.55281">
        <ele>-10</ele>
        <time>2015-09-27T21:41:27.212Z</time>
      </trkpt>
      <trkpt lat="45.49863" lon="-73.55282">
        <ele>-11</ele>
        <time>2015-09-27T21:41:28.181Z</time>
      </trkpt>
      <trkpt lat="45.49868" lon="-73.55275">
        <ele>-6</ele>
        <time>2015-09-27T21:41:34.187Z</time>
      </trkpt>
      <trkpt lat="45.49867" lon="-73.5527">
        <ele>-4</ele>
        <time>2015-09-27T21:41:35.178Z</time>
      </trkpt>
      <trkpt lat="45.49864" lon="-73.55262">
        <ele>-4</ele>
        <time>2015-09-27T21:41:37.202Z</time>
      </trkpt>
      <trkpt lat="45.49863" lon="-73.55258">
        <ele>-3</ele>
        <time>2015-09-27T21:41:38.177Z</time>
      </trkpt>
      <trkpt lat="45.49863" lon="-73.55248">
        <ele>1</ele>
        <time>2015-09-27T21:41:40.234Z</time>
      </trkpt>
      <trkpt lat="45.49864" lon="-73.55243">
        <time>2015-09-27T21:41:41.187Z</time>
      </trkpt>
      <trkpt lat="45.49869" lon="-73.55234">
        <ele>-3</ele>
        <time>2015-09-27T21:41:43.228Z</time>
      </trkpt>
      <trkpt lat="45.49874" lon="-73.55232">
        <ele>-3</ele>
        <time>2015-09-27T21:41:44.169Z</time>
      </trkpt>
      <trkpt lat="45.49879" lon="-73.55231">
        <ele>-4</ele>
        <time>2015-09-27T21:41:45.182Z</time>
      </trkpt>
      <trkpt lat="45.49883" lon="-73.55231">
        <ele>-4</ele>
        <time>2015-09-27T21:41:46.183Z</time>
      </trkpt>
      <trkpt lat="45.49888" lon="-73.55232">
        <ele>-4</ele>
        <time>2015-09-27T21:41:47.240Z</time>
      </trkpt>
      <trkpt lat="45.49892" lon="-73.55233">
        <ele>-6</ele>
        <time>2015-09-27T21:41:48.190Z</time>
      </trkpt>
      <trkpt lat="45.499" lon="-73.55235">
        <ele>-8</ele>
        <time>2015-09-27T21:41:50.265Z</time>
      </trkpt>
      <trkpt lat="45.49904" lon="-73.55235">
        <ele>-6</ele>
        <time>2015-09-27T21:41:51.177Z</time>
      </trkpt>
      <trkpt lat="45.49912" lon="-73.55234">
        <ele>-7</ele>
        <time>2015-09-27T21:41:53.190Z</time>
      </trkpt>
      <trkpt lat="45.49916" lon="-73.55235">
        <ele>-9</ele>
        <time>2015-09-27T21:41:54.179Z</time>
      </trkpt>
      <trkpt lat="45.49923" lon="-73.55235">
        <ele>-9</ele>
        <time>2015-09-27T21:41:56.198Z</time>
      </trkpt>
      <trkpt lat="45.49928" lon="-73.55235">
        <ele>-8</ele>
        <time>2015-09-27T21:41:57.192Z</time>
      </trkpt>
      <trkpt lat="45.49936" lon="-73.55234">
        <ele>-7</ele>
        <time>2015-09-27T21:41:59.204Z</time>
      </trkpt>
      <trkpt lat="45.4994" lon="-73.55234">
        <ele>-9</ele>
        <time>2015-09-27T21:42:00.174Z</time>
      </trkpt>
      <trkpt lat="45.49947" lon="-73.55234">
        <ele>-9</ele>
        <time>2015-09-27T21:42:02.247Z</time>
      </trkpt>
      <trkpt lat="45.49951" lon="-73.55234">
        <ele>-10</ele>
        <time>2015-09-27T21:42:03.194Z</time>
      </trkpt>
      <trkpt lat="45.49959" lon="-73.55236">
        <ele>-12</ele>
        <time>2015-09-27T21:42:05.245Z</time>
      </trkpt>
      <trkpt lat="45.49963" lon="-73.55237">
        <ele>-14</ele>
        <time>2015-09-27T21:42:06.187Z</time>
      </trkpt>
      <trkpt lat="45.49971" lon="-73.5524">
        <ele>-14</ele>
        <time>2015-09-27T21:42:09.288Z</time>
      </trkpt>
      <trkpt lat="45.49973" lon="-73.55241">
        <ele>-15</ele>
        <time>2015-09-27T21:42:10.186Z</time>
      </trkpt>
      <trkpt lat="45.49981" lon="-73.55242">
        <ele>-12</ele>
        <time>2015-09-27T21:42:13.207Z</time>
      </trkpt>
      <trkpt lat="45.49984" lon="-73.55242">
        <ele>-13</ele>
        <time>2015-09-27T21:42:14.174Z</time>
      </trkpt>
      <trkpt lat="45.4999" lon="-73.55244">
        <ele>-12</ele>
        <time>2015-09-27T21:42:16.274Z</time>
      </trkpt>
      <trkpt lat="45.49993" lon="-73.55245">
        <ele>-13</ele>
        <time>2015-09-27T21:42:17.197Z</time>
      </trkpt>
      <trkpt lat="45.49999" lon="-73.55247">
        <ele>-13</ele>
        <time>2015-09-27T21:42:19.239Z</time>
      </trkpt>
      <trkpt lat="45.50002" lon="-73.55247">
        <ele>-12</ele>
        <time>2015-09-27T21:42:20.188Z</time>
      </trkpt>
      <trkpt lat="45.5001" lon="-73.55246">
        <ele>-11</ele>
        <time>2015-09-27T21:42:23.244Z</time>
      </trkpt>
      <trkpt lat="45.50012" lon="-73.55246">
        <ele>-10</ele>
        <time>2015-09-27T21:42:24.197Z</time>
      </trkpt>
      <trkpt lat="45.5002" lon="-73.55249">
        <ele>-11</ele>
        <time>2015-09-27T21:42:28.244Z</time>
      </trkpt>
      <trkpt lat="45.50023" lon="-73.55249">
        <ele>-12</ele>
        <time>2015-09-27T21:42:29.194Z</time>
      </trkpt>
      <trkpt lat="45.5003" lon="-73.55248">
        <ele>-13</ele>
        <time>2015-09-27T21:42:32.205Z</time>
      </trkpt>
      <trkpt lat="45.50032" lon="-73.55248">
        <ele>-14</ele>
        <time>2015-09-27T21:42:33.184Z</time>
      </trkpt>
      <trkpt lat="45.50039" lon="-73.55255">
        <ele>-16</ele>
        <time>2015-09-27T21:42:37.256Z</time>
      </trkpt>
      <trkpt lat="45.50041" lon="-73.55257">
        <ele>-16</ele>
        <time>2015-09-27T21:42:38.185Z</time>
      </trkpt>
      <trkpt lat="45.50047" lon="-73.55261">
        <ele>-16</ele>
        <time>2015-09-27T21:42:40.262Z</time>
      </trkpt>
      <trkpt lat="45.5005" lon="-73.55263">
        <ele>-17</ele>
        <time>2015-09-27T21:42:41.195Z</time>
      </trkpt>
      <trkpt lat="45.50057" lon="-73.55265">
        <ele>-18</ele>
        <time>2015-09-27T21:42:43.244Z</time>
      </trkpt>
      <trkpt lat="45.5006" lon="-73.55266">
        <ele>-18</ele>
        <time>2015-09-27T21:42:44.219Z</time>
      </trkpt>
      <trkpt lat="45.50068" lon="-73.55267">
        <ele>-16</ele>
        <time>2015-09-27T21:42:46.272Z</time>
      </trkpt>
      <trkpt lat="45.50072" lon="-73.55268">
        <ele>-16</ele>
        <time>2015-09-27T21:42:47.205Z</time>
      </trkpt>
      <trkpt lat="45.5008" lon="-73.5527">
        <ele>-17</ele>
        <time>2015-09-27T21:42:49.237Z</time>
      </trkpt>
      <trkpt lat="45.50084" lon="-73.55271">
        <ele>-16</ele>
        <time>2015-09-27T21:42:50.193Z</time>
      </trkpt>
      <trkpt lat="45.50092" lon="-73.55273">
        <ele>-18</ele>
        <time>2015-09-27T21:42:52.225Z</time>
      </trkpt>
      <trkpt lat="45.50095" lon="-73.55274">
        <ele>-20</ele>
        <time>2015-09-27T21:42:53.168Z</time>
      </trkpt>
      <trkpt lat="45.50103" lon="-73.55277">
        <ele>-19</ele>
        <time>2015-09-27T21:42:55.233Z</time>
      </trkpt>
      <trkpt lat="45.50107" lon="-73.55278">
        <ele>-20</ele>
        <time>2015-09-27T21:42:56.191Z</time>
      </trkpt>
      <trkpt lat="45.50115" lon="-73.55279">
        <ele>-20</ele>
        <time>2015-09-27T21:42:58.188Z</time>
      </trkpt>
      <trkpt lat="45.50119" lon="-73.5528">
        <ele>-21</ele>
        <time>2015-09-27T21:42:59.195Z</time>
      </trkpt>
      <trkpt lat="45.50126" lon="-73.55282">
        <ele>-22</ele>
        <time>2015-09-27T21:43:01.226Z</time>
      </trkpt>
      <trkpt lat="45.5013" lon="-73.55281">
        <ele>-21</ele>
        <time>2015-09-27T21:43:02.167Z</time>
      </trkpt>
      <trkpt lat="45.50138" lon="-73.55281">
        <ele>-21</ele>
        <time>2015-09-27T21:43:04.184Z</time>
      </trkpt>
      <trkpt lat="45.50141" lon="-73.55282">
        <ele>-21</ele>
        <time>2015-09-27T21:43:05.173Z</time>
      </trkpt>
      <trkpt lat="45.50148" lon="-73.55283">
        <ele>-23</ele>
        <time>2015-09-27T21:43:07.190Z</time>
      </trkpt>
      <trkpt lat="45.50176" lon="-73.55281">
        <ele>-18</ele>
        <time>2015-09-27T21:43:15.197Z</time>
      </trkpt>
      <trkpt lat="45.50183" lon="-73.55281">
        <ele>-18</ele>
        <time>2015-09-27T21:43:18.212Z</time>
      </trkpt>
      <trkpt lat="45.50186" lon="-73.55281">
        <ele>-18</ele>
        <time>2015-09-27T21:43:19.183Z</time>
      </trkpt>
      <trkpt lat="45.50194" lon="-73.55278">
        <ele>-26</ele>
        <time>2015-09-27T21:43:37.203Z</time>
      </trkpt>
      <trkpt lat="45.50194" lon="-73.55278">
        <ele>-26</ele>
        <time>2015-09-27T21:43:38.174Z</time>
      </trkpt>
      <trkpt lat="45.50196" lon="-73.55278">
        <ele>-24</ele>
        <time>2015-09-27T21:46:03.250Z</time>
      </trkpt>
      <trkpt lat="45.50196" lon="-73.55279">
        <ele>-24</ele>
        <time>2015-09-27T22:19:34.365Z</time>
      </trkpt>
      <trkpt lat="45.50194" lon="-73.55289">
      </trkpt>
      <trkpt lat="45.50241" lon="-73.55299">
      </trkpt>
      <trkpt lat="45.5026" lon="-73.553">
      </trkpt>
      <trkpt lat="45.50284" lon="-73.55297">
      </trkpt>
      <trkpt lat="45.50416" lon="-73.55263">
      </trkpt>
      <trkpt lat="45.50518" lon="-73.55234">
      </trkpt>
      <trkpt lat="45.50539" lon="-73.55223">
      </trkpt>
      <trkpt lat="45.50681" lon="-73.55135">
      </trkpt>
      <trkpt lat="45.50763" lon="-73.55076">
      </trkpt>
      <trkpt lat="45.50777" lon="-73.55067">
      </trkpt>
      <trkpt lat="45.50843" lon="-73.55027">
      </trkpt>
      <trkpt lat="45.50914" lon="-73.54989">
      </trkpt>
      <trkpt lat="45.50926" lon="-73.54984">
      </trkpt>
      <trkpt lat="45.50968" lon="-73.54977">
      </trkpt>
      <trkpt lat="45.50973" lon="-73.54975">
      </trkpt>
      <trkpt lat="45.50973" lon="-73.55011">
      </trkpt>
      <trkpt lat="45.50972" lon="-73.55029">
      </trkpt>
      <trkpt lat="45.50972" lon="-73.55033">
      </trkpt>
      <trkpt lat="45.51089" lon="-73.54984">
      </trkpt>
      <trkpt lat="45.51098" lon="-73.55011">
      </trkpt>
      <trkpt lat="45.51099" lon="-73.55016">
      </trkpt>
      <trkpt lat="45.51105" lon="-73.55013">
      </trkpt>
      <trkpt lat="45.51113" lon="-73.55033">
      </trkpt>
      <trkpt lat="45.51116" lon="-73.55045">
      </trkpt>
      <trkpt lat="45.51129" lon="-73.55105">
      </trkpt>
      <trkpt lat="45.51154" lon="-73.55187">
      </trkpt>
      <trkpt lat="45.51199" lon="-73.55331">
      </trkpt>
      <trkpt lat="45.51207" lon="-73.55383">
      </trkpt>
      <trkpt lat="45.51211" lon="-73.55393">
      </trkpt>
      <trkpt lat="45.5125" lon="-73.55502">
      </trkpt>
      <trkpt lat="45.51277" lon="-73.55561">
      </trkpt>
      <trkpt lat="45.51279" lon="-73.55564">
      </trkpt>
      <trkpt lat="45.51508" lon="-73.56058">
      </trkpt>
      <trkpt lat="45.51661" lon="-73.56382">
      </trkpt>
      <trkpt lat="45.51699" lon="-73.56465">
      </trkpt>
      <trkpt lat="45.51699" lon="-73.56472">
      </trkpt>
      <trkpt lat="45.51808" lon="-73.56718">
      </trkpt>
      <trkpt lat="45.51905" lon="-73.56921">
      </trkpt>
      <trkpt lat="45.51918" lon="-73.56905">
      </trkpt>
      <trkpt lat="45.5193" lon="-73.569">
      </trkpt>
      <trkpt lat="45.51986" lon="-73.56849">
      </trkpt>
      <trkpt lat="45.52059" lon="-73.56781">
      </trkpt>
      <trkpt lat="45.52188" lon="-73.56662">
      </trkpt>
      <trkpt lat="45.52198" lon="-73.5665">
      </trkpt>
      <trkpt lat="45.52202" lon="-73.56652">
      </trkpt>
      <trkpt lat="45.52213" lon="-73.56657">
      </trkpt>
      <trkpt lat="45.52216" lon="-73.56662">
      </trkpt>
      <trkpt lat="45.5223" lon="-73.56691">
      </trkpt>
      <trkpt lat="45.52334" lon="-73.56916">
      </trkpt>
      <trkpt lat="45.52404" lon="-73.57071">
      </trkpt>
      <trkpt lat="45.52452" lon="-73.57173">
      </trkpt>
      <trkpt lat="45.52495" lon="-73.57263">
      </trkpt>
      <trkpt lat="45.52619" lon="-73.57315">
      </trkpt>
      <trkpt lat="45.52627" lon="-73.57312">
      </trkpt>
      <trkpt lat="45.52641" lon="-73.57344">
      </trkpt>
      <trkpt lat="45.52664" lon="-73.57393">
      </trkpt>
      <trkpt lat="45.52855" lon="-73.57814">
      </trkpt>
      <trkpt lat="45.53098" lon="-73.58343">
      </trkpt>
      <trkpt lat="45.53104" lon="-73.58356">
      </trkpt>
      <trkpt lat="45.52926" lon="-73.58521">
      </trkpt>
    </trkseg>
  </trk>
</gpx>